# Wetter Temperatur Luftdruck Luftfeuchtigkeit Sichtweite Windgeschwindigkeit Windrichtung Zeit
1 Clouds 14 1033 63 0 0.45 157 10:58 08.04.2020
2 Clouds 13 1034 69 0 0.45 157 10:39 08.04.2020
3 Clouds 12 1034 71 0 0.45 135 10:21 08.04.2020
4 Clouds 11 1034 73 0 0.89 135 09:57 08.04.2020
5 Clouds 9 1034 77 0 0.45 135 09:39 08.04.2020
6 Clouds 9 1034 79 0 0.45 157 09:19 08.04.2020
7 Clouds 7 1035 82 0 0.89 135 08:57 08.04.2020
8 Clouds 6 1035 81 0 0.45 112 08:38 08.04.2020
9 Clouds 6 1035 81 0 4.02 162 08:20 08.04.2020
10 Clouds 3 1035 79 0 4.02 162 07:42 08.04.2020
11 Clouds 3 1035 79 0 4.02 162 07:21 08.04.2020
12 Clouds 2 1035 77 0 3.1 157 06:28 08.04.2020
13 Clouds 3 1035 77 0 3.1 157 04:58 08.04.2020
14 Clouds 3 1036 75 0 1.99 157 02:50 08.04.2020
15 Clouds 4 1036 73 0 1.78 164 02:22 08.04.2020
16 Clouds 4 1036 74 0 1.78 164 01:56 08.04.2020
17 Clouds 4 1036 74 0 1.78 164 01:28 08.04.2020
18 Clouds 5 1036 73 0 1.78 164 00:47 08.04.2020
19 Clouds 6 1036 70 0 1.49 165 00:26 08.04.2020
20 Clouds 6 1036 69 0 1.49 165 23:57 07.04.2020
21 Clouds 6 1036 69 0 1.49 165 23:37 07.04.2020
22 Clouds 7 1036 69 0 1.49 165 23:18 07.04.2020
23 Clouds 7 1036 69 0 1.49 165 22:55 07.04.2020
24 Clouds 7 1036 68 0 1.49 165 22:37 07.04.2020
25 Clouds 7 1036 66 0 1.49 165 22:18 07.04.2020
26 Clouds 9 1036 62 0 1.49 165 21:42 07.04.2020
27 Clouds 9 1036 61 0 1.5 289 21:21 07.04.2020
28 Clouds 10 1036 61 0 1.5 289 20:59 07.04.2020
29 Clouds 11 1036 58 0 1.5 289 20:41 07.04.2020
30 Clouds 12 1036 56 0 1.5 289 20:21 07.04.2020
31 Clouds 13 1036 54 0 1.5 289 19:58 07.04.2020
32 Clouds 8 1033 74 0 1.5 289 19:38 07.04.2020
33 Clouds 8 1033 74 0 1.5 289 19:20 07.04.2020
34 Clouds 8 1033 74 0 1.5 289 18:59 07.04.2020
35 Clouds 8 1033 74 0 1.5 289 18:40 07.04.2020
36 Clouds 9 1032 69 0 4.41 292 18:21 07.04.2020
37 Clouds 9 1032 69 0 4.41 292 17:55 07.04.2020
38 Clouds 9 1032 69 0 4.41 292 17:37 07.04.2020
39 Clouds 9 1032 69 0 4.41 292 17:19 07.04.2020
40 Clouds 9 1032 69 0 4.41 292 16:43 07.04.2020
41 Clouds 9 1032 69 0 4.41 292 16:25 07.04.2020
42 Clouds 9 1032 69 0 4.41 292 15:46 07.04.2020
43 Clouds 9 1031 70 0 6.14 285 15:26 07.04.2020
44 Clouds 17 1035 48 0 0.45 315 14:56 07.04.2020
45 Clouds 16 1035 49 0 0.89 315 14:38 07.04.2020
46 Clouds 16 1035 50 0 0.45 337 14:19 07.04.2020
47 Clouds 16 1035 50 0 0.89 315 13:42 07.04.2020
48 Clouds 15 1035 53 0 0.45 315 13:20 07.04.2020
49 Clouds 15 1034 55 0 0.89 315 12:58 07.04.2020
50 Clouds 14 1034 58 0 0.89 292 12:39 07.04.2020
51 Clouds 14 1034 60 0 0.45 0 12:21 07.04.2020
52 Clouds 14 1034 63 0 1.34 315 11:58 07.04.2020
53 Clouds 13 1034 67 0 1.34 337 11:40 07.04.2020
54 Clouds 13 1034 70 0 0.89 292 11:21 07.04.2020
55 Clouds 12 1033 74 0 0.45 315 10:55 07.04.2020
56 Clouds 12 1033 75 0 0.45 0 10:36 07.04.2020
57 Clouds 12 1033 76 0 0.45 292 10:18 07.04.2020
58 Clouds 11 1032 78 0 1.34 315 09:43 07.04.2020
59 Clear 11 1032 79 0 2.68 315 09:18 07.04.2020
60 Clear 10 1031 81 0 1.34 292 08:41 07.04.2020
61 Clear 9 1031 80 0 1.34 315 08:23 07.04.2020
62 Clear 9 1031 79 0 0.89 315 07:58 07.04.2020
63 Clear 8 1030 78 0 0.89 315 07:40 07.04.2020
64 Clear 7 1030 73 0 1.34 292 07:21 07.04.2020
65 Clear 6 1029 71 0 7.32 292 06:47 07.04.2020
66 Clear 6 1028 69 0 5.61 247 06:20 07.04.2020
67 Clear 6 1028 68 0 5.61 247 05:32 07.04.2020
68 Clear 6 1027 67 0 5.61 247 04:35 07.04.2020
69 Clear 7 1027 67 0 0.45 157 03:24 07.04.2020
70 Clear 7 1027 65 0 0.45 157 02:48 07.04.2020
71 Clear 8 1027 63 0 0.45 157 01:48 07.04.2020
72 Clear 8 1027 63 0 5.08 210 01:24 07.04.2020
73 Clear 9 1026 62 0 5.8 190 00:28 07.04.2020
74 Clear 9 1026 61 0 0.45 157 23:50 06.04.2020
75 Clear 9 1026 60 0 5.8 190 23:24 06.04.2020
76 Clear 9 1026 60 0 5.8 190 22:58 06.04.2020
77 Clear 10 1026 58 0 0.45 157 22:38 06.04.2020
78 Clear 10 1026 58 0 0.45 157 22:20 06.04.2020
79 Clear 11 1026 56 0 5.8 190 21:57 06.04.2020
80 Clear 12 1026 55 0 5.8 190 21:38 06.04.2020
81 Clouds 12 1026 55 0 0.45 157 21:18 06.04.2020
82 Clouds 13 1026 52 0 0.45 157 20:55 06.04.2020
83 Clouds 14 1025 49 0 0.45 180 20:37 06.04.2020
84 Clouds 15 1025 47 0 0.45 180 20:18 06.04.2020
85 Clouds 12 1022 72 0 5.5 182 19:41 06.04.2020
86 Clouds 12 1022 72 0 5.5 182 19:23 06.04.2020
87 Clouds 12 1022 72 0 5.5 182 18:58 06.04.2020
88 Clouds 12 1022 72 0 5.5 182 18:39 06.04.2020
89 Clouds 13 1023 63 0 6.28 175 18:21 06.04.2020
90 Clouds 13 1023 63 0 6.28 175 17:42 06.04.2020
91 Clouds 13 1023 63 0 6.28 175 17:20 06.04.2020
92 Clouds 13 1023 63 0 6.28 175 16:50 06.04.2020
93 Clouds 13 1023 63 0 6.28 175 16:32 06.04.2020
94 Clouds 13 1023 63 0 6.28 175 16:32 06.04.2020
95 Clouds 13 1023 63 0 6.28 175 16:00 06.04.2020
96 Clear 11 1023 66 0 6.74 160 14:44 06.04.2020
97 Clear 11 1023 66 0 6.74 160 14:44 06.04.2020
98 Clear 11 1023 66 0 6.74 160 14:44 06.04.2020
99 Clear 19 1027 44 0 0.89 180 13:43 06.04.2020
100 Clear 19 1027 44 0 0.89 180 13:43 06.04.2020
101 Clear 18 1027 44 0 1.34 202 13:20 06.04.2020
102 Clear 18 1027 44 0 1.34 202 13:20 06.04.2020
103 Clear 12 1023 66 0 6.91 161 12:26 06.04.2020
104 Clear 12 1023 66 0 6.91 161 12:26 06.04.2020
105 Clear 12 1023 66 0 6.91 161 12:26 06.04.2020
106 Clear 12 1023 66 0 6.91 161 12:26 06.04.2020
107 Clear 9 1024 69 0 7.45 157 11:56 06.04.2020
108 Clear 9 1024 69 0 7.45 157 11:34 06.04.2020
109 Clear 9 1024 69 0 7.45 157 11:33 06.04.2020
110 Clear 9 1024 69 0 7.45 157 11:33 06.04.2020
111 Clear 13 1028 52 0 2.68 135 10:52 06.04.2020
112 Clear 13 1028 52 0 2.68 135 10:52 06.04.2020
113 Clear 13 1028 52 0 2.68 135 10:52 06.04.2020
114 Clear 13 1028 52 0 2.68 135 10:52 06.04.2020
115 Clear 13 1028 52 0 2.68 135 10:52 06.04.2020
116 Clear 12 1028 55 0 1.34 135 10:22 06.04.2020
117 Clear 12 1028 55 0 1.34 135 10:22 06.04.2020
118 Clear 11 1028 58 0 1.34 135 09:51 06.04.2020
119 Clear 11 1028 58 0 1.34 135 09:51 06.04.2020
120 Clear 9 1025 70 0 7.54 158 09:23 06.04.2020
121 Clear 8 1029 65 0 0.89 135 08:55 06.04.2020
122 Clear 8 1029 66 0 1.34 135 08:33 06.04.2020
123 Clear 8 1029 66 0 1.34 135 08:33 06.04.2020
124 Clear 6 1029 69 0 1.79 157 07:54 06.04.2020
125 Clear 4 1029 71 0 1.34 135 07:18 06.04.2020
126 Clear 4 1029 70 0 1.34 135 06:25 06.04.2020
127 Clear 4 1029 69 0 0.89 135 05:00 06.04.2020
128 Clear 4 1029 69 0 0.89 135 05:00 06.04.2020
129 Clear 4 1029 69 0 0.89 135 05:00 06.04.2020
130 Clear 5 1030 66 0 1.34 135 03:28 06.04.2020
131 Clear 6 1029 65 0 1.34 135 02:48 06.04.2020
132 Clear 6 1030 66 0 0.89 135 01:52 06.04.2020
133 Clear 6 1030 63 0 0.89 135 00:49 06.04.2020
134 Clear 7 1031 61 0 0.89 135 00:26 06.04.2020
135 Clear 7 1031 61 0 0.89 135 23:48 05.04.2020
136 Clear 7 1031 61 0 0.89 135 23:30 05.04.2020
137 Clear 7 1031 61 0 0.89 135 23:30 05.04.2020
138 Clear 7 1031 62 0 0.89 135 22:56 05.04.2020
139 Clear 7 1031 63 0 0.89 135 22:38 05.04.2020
140 Clear 7 1031 63 0 0.89 135 22:19 05.04.2020
141 Clear 7 1031 63 0 0.45 135 21:58 05.04.2020
142 Clear 7 1031 62 0 0.45 135 21:39 05.04.2020
143 Clear 7 1031 62 0 0.45 135 21:21 05.04.2020
144 Clouds 9 1032 55 0 0.45 112 20:21 05.04.2020
145 Clouds 8 1029 67 0 6.38 133 19:41 05.04.2020
146 Clouds 8 1029 67 0 6.38 133 19:22 05.04.2020
147 Clouds 8 1029 67 0 6.38 133 18:46 05.04.2020
148 Clouds 8 1029 67 0 6.38 133 18:46 05.04.2020
149 Clouds 16 1032 42 0 0.45 135 17:59 05.04.2020
150 Clouds 16 1032 42 0 0.45 135 17:59 05.04.2020
151 Clouds 16 1032 39 0 1.34 135 17:39 05.04.2020
152 Clouds 16 1032 39 0 1.34 135 17:20 05.04.2020
153 Clouds 16 1032 39 0 1.34 135 17:20 05.04.2020
154 Clouds 10 1029 61 0 6.4 130 16:46 05.04.2020
155 Clouds 10 1029 61 0 6.4 130 16:46 05.04.2020
156 Clouds 10 1029 61 0 6.4 130 16:46 05.04.2020
157 Clouds 10 1029 61 0 6.4 130 16:18 05.04.2020
158 Clouds 10 1029 61 0 6.4 130 15:45 05.04.2020
159 Clouds 10 1029 61 0 6.4 130 15:25 05.04.2020
160 Clouds 9 1031 61 0 6.33 137 14:48 05.04.2020
161 Clouds 9 1031 61 0 6.33 137 14:48 05.04.2020
162 Clouds 9 1031 61 0 6.33 137 14:48 05.04.2020
163 Clouds 9 1031 61 0 6.33 137 14:48 05.04.2020
164 Clouds 15 1035 48 0 2.68 135 13:47 05.04.2020
165 Clouds 15 1035 48 0 2.68 135 13:47 05.04.2020
166 Clouds 15 1035 48 0 2.68 135 13:47 05.04.2020
167 Clouds 15 1035 48 0 2.68 135 13:47 05.04.2020
168 Clouds 15 1035 48 0 2.68 135 13:47 05.04.2020
169 Clouds 14 1035 50 0 0.89 180 12:58 05.04.2020
170 Clouds 8 1031 66 0 5.13 160 11:58 05.04.2020
171 Clouds 8 1031 66 0 5.13 160 11:38 05.04.2020
172 Clouds 8 1031 66 0 5.13 160 11:19 05.04.2020
173 Clouds 11 1036 60 0 1.34 135 10:45 05.04.2020
174 Clouds 11 1037 63 0 0.89 157 10:21 05.04.2020
175 Clouds 9 1037 65 0 0.89 157 09:52 05.04.2020
176 Clouds 9 1037 65 0 0.89 157 09:52 05.04.2020
177 Clouds 8 1032 68 0 4.92 161 09:25 05.04.2020
178 Clouds 8 1032 68 0 4.92 161 09:25 05.04.2020
179 Clouds 8 1032 68 0 4.92 161 09:25 05.04.2020
180 Clouds 8 1032 68 0 4.92 161 09:25 05.04.2020
181 Clouds 3 1037 78 0 0.45 157 07:58 05.04.2020
182 Clear 2 1035 77 0 0.45 157 05:12 05.04.2020
183 Clear 2 1034 76 0 0.45 157 03:58 05.04.2020
184 Clouds 2 1034 76 0 4.86 204 02:56 05.04.2020
185 Clouds 3 1034 76 0 0.45 157 01:57 05.04.2020
186 Clouds 3 1034 76 0 4.89 208 01:39 05.04.2020
187 Clouds 3 1033 75 0 4.89 208 00:52 05.04.2020
188 Clouds 3 1033 75 0 4.89 208 00:22 05.04.2020
189 Clouds 4 1033 75 0 0.45 157 23:58 04.04.2020
190 Clouds 4 1033 75 0 0.45 157 23:39 04.04.2020
191 Clouds 4 1033 75 0 0.45 157 23:21 04.04.2020
192 Clouds 4 1033 75 0 0.45 157 22:56 04.04.2020
193 Clouds 5 1033 75 0 0.45 157 22:38 04.04.2020
194 Clouds 5 1032 74 0 0.45 157 22:19 04.04.2020
195 Clouds 5 1032 74 0 0.45 157 21:57 04.04.2020
196 Clouds 5 1032 73 0 0.45 157 21:38 04.04.2020
197 Clear 6 1032 73 0 3.59 226 21:19 04.04.2020
198 Clouds 6 1032 73 0 3.64 219 21:19 04.04.2020
199 Clear 7 1032 72 0 0.45 315 20:55 04.04.2020
200 Clear 7 1031 71 0 0.45 315 20:36 04.04.2020
201 Clear 8 1031 68 0 3.59 226 20:18 04.04.2020
202 Clear 9 1031 64 0 4.02 231 19:42 04.04.2020
203 Clear 9 1031 64 0 3.59 226 19:21 04.04.2020
204 Clear 10 1031 62 0 3.59 226 18:59 04.04.2020
205 Clear 10 1031 61 0 3.59 226 18:40 04.04.2020
206 Clear 10 1030 61 0 4.02 231 18:21 04.04.2020
207 Clear 10 1030 61 0 4.07 254 17:59 04.04.2020
208 Clear 10 1030 59 0 0.45 292 17:39 04.04.2020
209 Clear 10 1030 59 0 0.45 292 17:39 04.04.2020
210 Clear 10 1030 58 0 0.45 292 17:19 04.04.2020
211 Clear 12 1030 52 0 0.45 292 16:46 04.04.2020
212 Clear 12 1030 52 0 0.45 292 16:28 04.04.2020
213 Clear 12 1030 53 0 0.45 247 15:59 04.04.2020
214 Clear 12 1030 51 0 1.79 292 15:39 04.04.2020
215 Clear 12 1030 52 0 0.89 292 15:20 04.04.2020
216 Clear 12 1030 52 0 0.89 292 15:20 04.04.2020
217 Clouds 12 1029 52 0 0.45 292 14:56 04.04.2020
218 Clouds 12 1029 52 0 0.89 292 14:38 04.04.2020
219 Clouds 12 1029 53 0 6.05 261 14:20 04.04.2020
220 Clear 11 1030 55 0 0.89 292 13:55 04.04.2020
221 Clear 11 1029 53 0 0.45 292 13:37 04.04.2020
222 Clear 11 1030 57 0 0.45 292 13:18 04.04.2020
223 Clear 11 1029 59 0 0.45 270 12:44 04.04.2020
224 Clear 6 1025 73 0 6.2 258 12:23 04.04.2020
225 Clouds 9 1029 65 0 0.89 315 11:55 04.04.2020
226 Clouds 9 1029 67 0 0.45 270 11:37 04.04.2020
227 Clouds 9 1029 68 0 0.89 315 11:18 04.04.2020
228 Clouds 8 1029 74 0 0.89 292 10:55 04.04.2020
229 Clouds 7 1029 76 0 6.49 261 10:37 04.04.2020
230 Clouds 7 1029 79 0 0.89 270 10:18 04.04.2020
231 Clouds 6 1028 82 0 6.49 261 09:54 04.04.2020
232 Clouds 5 1028 83 0 6.49 261 09:36 04.04.2020
233 Clear 4 1028 85 0 0.89 292 09:18 04.04.2020
234 Clear 3 1028 87 0 0.45 292 08:38 04.04.2020
235 Clear 2 1027 87 0 6.09 266 08:20 04.04.2020
236 Clear 1 1027 86 0 6.09 266 07:44 04.04.2020
237 Clear 1 1026 85 0 6.09 266 07:26 04.04.2020
238 Clear 0 1026 85 0 0.45 270 06:47 04.04.2020
239 Clear 0 1025 85 0 6.07 273 06:19 04.04.2020
240 Clear 0 1025 84 0 6.07 273 05:41 04.04.2020
241 Clear 0 1025 83 0 6.07 273 05:23 04.04.2020
242 Clear 1 1024 84 0 6.07 273 04:30 04.04.2020
243 Clear 1 1024 83 0 6.07 273 03:49 04.04.2020
244 Clear 1 1023 81 0 6.32 289 02:51 04.04.2020
245 Clear 1 1023 80 0 6.32 289 02:32 04.04.2020
246 Clear 1 1022 78 0 5.89 288 01:53 04.04.2020
247 Clear 1 1022 77 0 5.89 288 01:25 04.04.2020
248 Clear 2 1022 79 0 5.89 288 00:48 04.04.2020
249 Clear 2 1022 78 0 5.89 288 00:29 04.04.2020
250 Clear 2 1021 73 0 7.77 289 23:40 03.04.2020
251 Clear 2 1021 73 0 7.77 289 23:21 03.04.2020
252 Clear 3 1020 74 0 7.77 289 22:58 03.04.2020
253 Clear 2 1020 74 0 7.77 289 22:39 03.04.2020
254 Clear 3 1020 73 0 0.45 270 22:18 03.04.2020
255 Clear 3 1019 71 0 0.89 270 21:44 03.04.2020
256 Clouds 3 1019 70 0 7.84 289 21:25 03.04.2020
257 Clear 4 1019 67 0 0.45 292 20:57 03.04.2020
258 Clear 4 1019 66 0 9.16 278 20:39 03.04.2020
259 Clear 5 1019 65 0 0.89 292 20:21 03.04.2020
260 Clear 6 1018 63 0 1.34 315 19:58 03.04.2020
261 Clear 6 1018 61 0 0.45 292 19:39 03.04.2020
262 Clear 8 1018 57 0 0.45 292 19:21 03.04.2020
263 Clear 9 1017 54 0 0.89 292 18:59 03.04.2020
264 Clear 9 1017 53 0 2.68 315 18:41 03.04.2020
265 Clear 9 1017 53 0 2.68 315 18:41 03.04.2020
266 Clear 9 1017 53 0 1.79 315 18:23 03.04.2020
267 Clear 8 1017 55 0 0.89 292 17:58 03.04.2020
268 Clear 8 1016 54 0 1.79 292 17:39 03.04.2020
269 Clear 9 1016 51 0 1.34 292 17:18 03.04.2020
270 Clear 10 1016 50 0 3.58 292 16:46 03.04.2020
271 Clear 9 1015 47 0 2.68 315 16:22 03.04.2020
272 Clear 9 1015 52 0 3.58 292 15:59 03.04.2020
273 Clear 9 1015 52 0 2.68 247 15:40 03.04.2020
274 Clear 9 1015 51 0 2.68 337 15:21 03.04.2020
275 Clouds 9 1014 51 0 2.24 0 14:56 03.04.2020
276 Clouds 9 1014 51 0 3.58 337 14:38 03.04.2020
277 Clouds 9 1014 52 0 3.58 315 14:20 03.04.2020
278 Clouds 8 1014 61 0 2.68 315 13:45 03.04.2020
279 Clouds 8 1014 58 0 3.13 315 13:26 03.04.2020
280 Clouds 8 1014 61 0 2.68 315 12:56 03.04.2020
281 Clouds 8 1013 59 0 2.68 315 12:38 03.04.2020
282 Clouds 8 1013 61 0 3.13 292 12:18 03.04.2020
283 Clouds 7 1013 62 0 2.24 337 11:55 03.04.2020
284 Clouds 7 1013 65 0 2.68 270 11:37 03.04.2020
285 Clouds 7 1012 72 0 1.79 337 11:18 03.04.2020
286 Clouds 7 1012 72 0 1.34 315 10:56 03.04.2020
287 Clouds 7 1012 75 0 1.79 337 10:37 03.04.2020
288 Clouds 7 1012 75 0 1.79 337 10:37 03.04.2020
289 Clouds 6 1011 72 0 1.79 292 10:18 03.04.2020
290 Clouds 6 1011 72 0 1.79 292 10:18 03.04.2020
291 Clouds 6 1011 74 0 2.24 0 09:55 03.04.2020
292 Clouds 6 1011 80 0 1.79 292 09:37 03.04.2020
293 Clear 4 1011 83 0 0.45 292 09:18 03.04.2020
294 Clear 3 1010 82 0 1.79 315 08:43 03.04.2020
295 Clear 4 1010 79 0 0.89 292 08:23 03.04.2020
296 Clear 4 1009 80 0 2.68 292 07:51 03.04.2020
297 Clear 4 1009 79 0 0.89 315 07:33 03.04.2020
298 Clear 4 1008 78 0 1.34 270 06:58 03.04.2020
299 Clear 4 1008 77 0 0.45 292 06:28 03.04.2020
300 Clear 4 1007 77 0 0.89 315 05:42 03.04.2020
301 Clear 3 1007 76 0 0.89 270 04:18 03.04.2020
302 Clear 3 1006 75 0 0.89 292 03:32 03.04.2020
303 Clouds 4 1006 77 0 0.89 292 02:39 03.04.2020
304 Snow 5 1005 79 0 1.34 315 01:25 03.04.2020
305 Snow 5 1005 81 0 0.89 292 00:52 03.04.2020
306 Snow 5 1005 81 0 1.34 315 00:32 03.04.2020
307 Rain 6 1005 80 0 0.45 270 23:55 02.04.2020
308 Rain 7 1005 82 0 3.58 292 23:37 02.04.2020
309 Rain 7 1004 74 0 0.89 225 23:18 02.04.2020
310 Rain 7 1004 74 0 0.89 225 23:18 02.04.2020
311 Rain 7 1005 72 0 0.45 247 22:42 02.04.2020
312 Rain 7 1005 72 0 0.45 247 22:42 02.04.2020
313 Rain 7 1005 72 0 0.45 225 22:23 02.04.2020
314 Rain 8 1005 66 0 1.79 225 21:59 02.04.2020
315 Rain 8 1005 65 0 0.89 225 21:37 02.04.2020
316 Rain 8 1005 65 0 1.34 247 21:19 02.04.2020
317 Rain 8 1005 64 0 2.68 247 20:54 02.04.2020
318 Rain 8 1006 64 0 0.89 225 20:36 02.04.2020
319 Rain 8 1006 63 0 1.34 225 20:18 02.04.2020
320 Rain 8 1006 62 0 1.34 225 19:42 02.04.2020
321 Rain 8 1006 61 0 1.79 225 19:20 02.04.2020
322 Rain 9 1007 60 0 0.89 247 18:56 02.04.2020
323 Rain 9 1007 60 0 0.45 157 18:38 02.04.2020
324 Clouds 9 1007 59 0 0.45 247 18:19 02.04.2020
325 Clouds 9 1007 59 0 1.34 225 17:43 02.04.2020
326 Clouds 9 1008 58 0 0.45 270 17:24 02.04.2020
327 Clouds 9 1008 60 0 0.89 225 16:59 02.04.2020
328 Clouds 9 1008 60 0 0.89 225 16:40 02.04.2020
329 Clouds 9 1009 59 0 1.79 225 16:22 02.04.2020
330 Clouds 10 1009 58 0 0.89 315 15:57 02.04.2020
331 Clouds 10 1009 57 0 0.45 247 15:39 02.04.2020
332 Clouds 10 1009 57 0 0.45 292 15:20 02.04.2020
333 Clouds 11 1009 55 0 0.89 292 14:58 02.04.2020
334 Clouds 11 1010 57 0 0.45 247 14:38 02.04.2020
335 Clouds 10 1010 57 0 13.26 246 14:19 02.04.2020
336 Clouds 10 1010 57 0 13.08 246 14:19 02.04.2020
337 Clouds 11 1010 55 0 1.34 292 13:55 02.04.2020
338 Clouds 11 1010 56 0 1.79 292 13:37 02.04.2020
339 Clouds 11 1010 58 0 0.89 292 13:18 02.04.2020
340 Clouds 12 1011 64 0 2.24 225 12:46 02.04.2020
341 Clouds 6 1006 81 0 11.83 258 12:20 02.04.2020
342 Clouds 6 1006 81 0 11.83 258 11:58 02.04.2020
343 Clouds 6 1006 81 0 11.83 258 11:39 02.04.2020
344 Clouds 6 1006 81 0 11.83 258 11:39 02.04.2020
345 Clouds 6 1006 81 0 11.83 258 11:39 02.04.2020
346 Clouds 6 1006 81 0 11.83 258 11:20 02.04.2020
347 Clouds 6 1006 81 0 11.83 258 10:57 02.04.2020
348 Clouds 8 1012 75 0 0.89 0 10:39 02.04.2020
349 Clouds 8 1013 76 0 0.45 315 10:21 02.04.2020
350 Clouds 7 1013 79 0 0.89 292 09:59 02.04.2020
351 Clouds 7 1013 81 0 0.89 247 09:41 02.04.2020
352 Clouds 6 1006 81 0 11.5 252 09:22 02.04.2020
353 Clouds 6 1013 83 0 0.45 292 08:57 02.04.2020
354 Clouds 6 1013 84 0 0.89 270 08:38 02.04.2020
355 Clouds 6 1013 84 0 0.45 270 08:19 02.04.2020
356 Clouds 5 1013 85 0 0.89 292 07:42 02.04.2020
357 Clouds 5 1013 85 0 0.89 292 07:19 02.04.2020
358 Clouds 4 1013 83 0 0.45 22 06:26 02.04.2020
359 Clouds 4 1014 83 0 10.66 267 05:59 02.04.2020
360 Clouds 4 1014 83 0 0.45 270 05:41 02.04.2020
361 Clouds 5 1015 82 0 0.89 292 02:46 02.04.2020
362 Clouds 5 1015 82 0 0.89 270 01:30 02.04.2020
363 Clouds 5 1016 83 0 0.89 292 00:42 02.04.2020
364 Clouds 5 1016 84 0 0.89 270 00:24 02.04.2020
365 Rain 5 1016 84 0 0.45 315 23:41 01.04.2020
366 Rain 5 1016 84 0 0.45 292 23:20 01.04.2020
367 Rain 5 1016 84 0 0.45 315 22:58 01.04.2020
368 Rain 5 1016 84 0 0.45 315 22:58 01.04.2020
369 Rain 5 1016 84 0 10.36 272 22:39 01.04.2020
370 Rain 5 1016 84 0 10.36 272 22:39 01.04.2020
371 Rain 5 1017 84 0 0.89 270 22:21 01.04.2020
372 Rain 6 1017 84 0 10.36 272 21:42 01.04.2020
373 Clouds 6 1017 84 0 10.52 273 21:22 01.04.2020
374 Rain 6 1017 84 0 10.36 272 21:22 01.04.2020
375 Clouds 6 1017 84 0 10.52 273 21:21 01.04.2020
376 Rain 6 1017 84 0 10.36 272 21:21 01.04.2020
377 Clouds 6 1017 84 0 10.52 273 21:20 01.04.2020
378 Clouds 6 1017 84 0 0.45 270 20:57 01.04.2020
379 Clouds 6 1017 83 0 10.14 272 20:39 01.04.2020
380 Clouds 6 1017 83 0 0.45 247 20:20 01.04.2020
381 Clouds 6 1017 83 0 0.45 247 20:20 01.04.2020
382 Clouds 6 1017 79 0 10.14 272 19:59 01.04.2020
383 Clouds 7 1017 77 0 0.45 292 19:41 01.04.2020
384 Clouds 7 1017 76 0 0.45 270 19:20 01.04.2020
385 -273 0 0 0 0 0 19:20 01.04.2020
386 Clouds 7 1017 76 0 0.89 247 18:44 01.04.2020
387 Clouds 7 1017 76 0 0.45 292 18:25 01.04.2020
388 Clouds 7 1018 75 0 1.34 270 17:58 01.04.2020
389 Clouds 7 1018 73 0 1.79 337 17:38 01.04.2020
390 Clouds 7 1018 72 0 0.45 0 17:20 01.04.2020
391 Clouds 8 1018 72 0 1.34 270 16:59 01.04.2020
392 Clouds 8 1018 75 0 1.79 315 16:40 01.04.2020
393 Clouds 8 1018 74 0 0.89 225 16:22 01.04.2020
394 Clouds 8 1018 75 0 0.45 270 15:58 01.04.2020
395 Clouds 8 1019 75 0 0.45 247 15:38 01.04.2020
396 Clouds 8 1019 75 0 1.34 225 15:20 01.04.2020
397 Clouds 8 1019 76 0 0.45 270 14:57 01.04.2020
398 Clouds 8 1019 76 0 2.24 225 14:38 01.04.2020
399 Clouds 8 1019 77 0 1.34 292 14:19 01.04.2020
400 Clouds 7 1020 83 0 0.45 225 13:57 01.04.2020
401 Clouds 6 1020 83 0 0.45 225 13:37 01.04.2020
402 Clouds 6 1020 83 0 0.45 315 13:18 01.04.2020
403 Clouds 6 1021 83 0 0.89 292 12:54 01.04.2020
404 Clouds 6 1021 82 0 1.79 292 12:36 01.04.2020
405 Clouds 6 1021 78 0 0.89 270 12:18 01.04.2020
406 Clouds 7 1021 77 0 1.34 270 11:42 01.04.2020
407 Clouds 6 1022 79 0 0.89 270 11:23 01.04.2020
408 Clouds 6 1022 80 0 1.34 270 10:58 01.04.2020
409 Clouds 5 1022 81 0 1.34 292 10:38 01.04.2020
410 Clouds 4 1022 82 0 1.34 292 10:19 01.04.2020
411 Clouds 4 1022 82 0 0.89 292 09:57 01.04.2020
412 Clouds 4 1022 82 0 0.89 292 09:57 01.04.2020
413 Clouds 4 1022 83 0 0.45 315 09:38 01.04.2020
414 Clouds 3 1023 82 0 0.89 292 09:18 01.04.2020
415 Clouds 3 1023 81 0 0.45 292 08:41 01.04.2020
416 Clouds 2 1023 81 0 0.45 225 08:18 01.04.2020
417 Clouds 2 1024 79 0 1.34 292 07:44 01.04.2020
418 Clouds 2 1023 78 0 0.45 225 07:21 01.04.2020
419 Clouds 2 1024 77 0 0.45 292 06:52 01.04.2020
420 Clouds 2 1024 76 0 11.41 260 06:27 01.04.2020
421 Clouds 2 1024 75 0 1.34 225 05:58 01.04.2020
422 Clouds 1 1025 75 0 0.45 225 04:33 01.04.2020
423 Clouds 1 1026 75 0 0.45 247 03:33 01.04.2020
424 Clouds 1 1026 75 0 1.34 225 02:57 01.04.2020
425 Clouds 1 1026 74 0 0.45 225 02:21 01.04.2020
426 Clouds 1 1027 72 0 10.1 259 01:40 01.04.2020
427 Clouds 1 1027 72 0 0.45 225 01:22 01.04.2020
428 Clouds 1 1028 70 0 0.45 270 00:46 01.04.2020
429 Clouds 0 1028 69 0 0.45 247 00:21 01.04.2020
430 Clear 0 1029 66 0 0.45 247 23:49 31.03.2020
431 Clear 0 1029 65 0 0.45 247 23:28 31.03.2020
432 Clear 0 1029 64 0 8.63 266 22:59 31.03.2020
433 Clear 0 1029 63 0 8.63 266 22:40 31.03.2020
434 Clear 0 1029 62 0 0.45 270 22:20 31.03.2020
435 Clear 1 1030 61 0 8.63 266 21:57 31.03.2020
436 Clear 1 1030 60 0 8.63 266 21:39 31.03.2020
437 Clear 1 1030 60 0 0.45 292 21:20 31.03.2020
438 Clear 1 1030 58 0 7.33 258 20:56 31.03.2020
439 Clear 2 1031 56 0 7.33 258 20:37 31.03.2020
440 Clear 3 1031 52 0 7.33 258 20:18 31.03.2020
441 Clear 4 1031 49 0 7.33 258 19:55 31.03.2020
442 Clear 3 1025 72 0 7.33 258 19:37 31.03.2020
443 Clear 3 1025 72 0 7.33 258 19:18 31.03.2020
444 Clear 3 1025 72 0 7.33 258 18:43 31.03.2020
445 Clear 4 1028 71 0 6.25 264 18:20 31.03.2020
446 Clear 4 1028 71 0 6.25 264 17:56 31.03.2020
447 Clear 4 1028 71 0 6.25 264 17:38 31.03.2020
448 Clear 7 1032 46 0 0.45 315 17:20 31.03.2020
449 Clear 7 1033 51 0 0.89 315 16:42 31.03.2020
450 Clear 7 1033 51 0 6.25 264 16:20 31.03.2020
451 Clear 7 1034 52 0 6.25 264 15:59 31.03.2020
452 Clear 7 1034 55 0 1.34 337 15:41 31.03.2020
453 Clear 6 1034 59 0 6.25 264 15:23 31.03.2020
454 Clear 7 1034 58 0 0.45 315 15:00 31.03.2020
455 Clear 6 1035 59 0 0.89 292 14:41 31.03.2020
456 Clear 6 1035 59 0 0.89 315 14:22 31.03.2020
457 Clear 6 1035 60 0 0.45 337 13:58 31.03.2020
458 Clear 6 1035 59 0 0.89 315 13:39 31.03.2020
459 Clear 5 1035 60 0 1.34 22 13:19 31.03.2020
460 Clear 4 1036 63 0 0.89 337 12:44 31.03.2020
461 Clear 4 1036 62 0 2.49 293 12:20 31.03.2020
462 Clear 5 1036 62 0 0.45 337 11:56 31.03.2020
463 Clear 4 1036 62 0 3.54 10 11:37 31.03.2020
464 Clear 4 1036 68 0 0.45 315 11:19 31.03.2020
465 Clear 4 1036 70 0 0.89 315 10:55 31.03.2020
466 Clear 4 1036 70 0 0.89 315 10:55 31.03.2020
467 Clear 4 1036 72 0 3.54 10 10:37 31.03.2020
468 Clear 3 1036 73 0 0.45 337 10:18 31.03.2020
469 Clear 2 1036 78 0 3.54 10 09:43 31.03.2020
470 Clear 2 1036 79 0 0.45 315 09:25 31.03.2020
471 Rain 2 1036 79 0 5.63 1 08:58 31.03.2020
472 Rain 1 1036 80 0 5.63 1 08:40 31.03.2020
473 Rain 1 1036 80 0 5.63 1 08:20 31.03.2020
474 Rain -1 1036 79 0 5.63 1 07:57 31.03.2020
475 Rain -1 1036 79 0 5.63 1 07:38 31.03.2020
476 Rain -1 1036 78 0 5.63 1 07:20 31.03.2020
477 Rain -1 1035 77 0 5.63 1 06:53 31.03.2020
478 Rain -1 1035 76 0 5.63 1 06:35 31.03.2020
479 Clouds 0 1035 76 0 0.89 67 05:41 31.03.2020
480 Clouds 1 1035 73 0 3.11 5 04:33 31.03.2020
481 Clouds 1 1034 71 0 3.23 68 02:40 31.03.2020
482 Clouds 1 1034 69 0 4.4 56 01:47 31.03.2020
483 Clouds 1 1033 70 0 4.4 56 01:19 31.03.2020
484 Clouds 1 1033 70 0 4.4 56 00:42 31.03.2020
485 Snow 2 1033 71 0 6.81 75 00:19 31.03.2020
486 Snow 2 1033 73 0 0.45 90 23:39 30.03.2020
487 Snow 2 1033 74 0 6.81 75 23:20 30.03.2020
488 Snow 2 1032 76 0 6.81 75 22:57 30.03.2020
489 Snow 3 1032 78 0 6.81 75 22:38 30.03.2020
490 Snow 2 1032 78 0 6.81 75 22:19 30.03.2020
491 Snow 2 1031 80 0 6.81 75 21:57 30.03.2020
492 Snow 2 1031 80 0 6.81 75 21:38 30.03.2020
493 Clouds 2 1031 80 0 6.18 70 21:20 30.03.2020
494 Clouds 2 1031 80 0 6.18 70 20:57 30.03.2020
495 Clouds 2 1031 80 0 6.18 70 20:38 30.03.2020
496 Clouds 3 1030 79 0 1.34 135 20:19 30.03.2020
497 Clouds 4 1030 74 0 0.45 45 19:54 30.03.2020
498 Clouds 4 1030 74 0 6.18 70 19:36 30.03.2020
499 Clouds 4 1029 73 0 6.18 70 19:18 30.03.2020
500 Clouds 4 1029 72 0 6.18 70 18:41 30.03.2020
501 Clouds 5 1029 71 0 0.45 45 18:23 30.03.2020
502 Clear 4 1028 73 0 1.34 22 17:57 30.03.2020
503 Clear 4 1028 70 0 4.49 47 17:39 30.03.2020
504 Clear 6 1028 70 0 4.49 47 17:19 30.03.2020
505 Clear 6 1028 70 0 1.79 22 16:57 30.03.2020
506 Clear 7 1028 71 0 0.89 22 16:39 30.03.2020
507 Clear 6 1028 75 0 4.49 47 16:20 30.03.2020
508 Clear 6 1028 75 0 4.49 47 16:20 30.03.2020
509 Clear 6 1028 77 0 4.49 47 15:55 30.03.2020
510 Clear 6 1028 75 0 4.49 47 15:37 30.03.2020
511 Rain 6 1028 81 0 6.79 42 15:19 30.03.2020
512 Rain 5 1028 81 0 0.45 292 14:55 30.03.2020
513 Rain 5 1028 84 0 0.45 315 14:37 30.03.2020
514 Rain 4 1028 85 0 6.93 31 14:18 30.03.2020
515 Rain 3 1028 84 0 6.93 31 13:55 30.03.2020
516 Rain 3 1028 84 0 6.93 31 13:37 30.03.2020
517 Rain 3 1028 84 0 6.93 31 13:18 30.03.2020
518 Rain 4 1028 83 0 6.93 31 12:43 30.03.2020
519 Rain 4 1028 84 0 0.45 292 12:20 30.03.2020
520 Rain 3 1028 85 0 0.89 270 11:57 30.03.2020
521 Rain 3 1028 85 0 0.45 315 11:39 30.03.2020
522 Rain 2 1028 84 0 0.89 292 11:21 30.03.2020
523 Rain 2 1029 83 0 6.09 324 10:41 30.03.2020
524 Rain 2 1029 83 0 0.45 247 10:23 30.03.2020
525 Rain 1 1029 84 0 6.09 324 09:59 30.03.2020
526 Rain 1 1029 84 0 6.09 324 09:59 30.03.2020
527 Rain 1 1029 84 0 0.45 225 09:40 30.03.2020
528 Snow 1 1029 83 0 0.45 225 09:19 30.03.2020
529 Snow 0 1029 82 0 0.89 225 08:54 30.03.2020
530 Snow 0 1029 83 0 5.91 255 08:36 30.03.2020
531 Snow -1 1029 82 0 5.91 255 08:18 30.03.2020
532 Snow -1 1029 78 0 5.91 255 07:41 30.03.2020
533 Snow -1 1030 78 0 5.91 255 07:20 30.03.2020
534 Snow -1 1030 78 0 0.45 247 06:39 30.03.2020
535 Clouds -1 1030 78 0 6.56 279 06:19 30.03.2020
536 Clouds -2 1031 77 0 0.45 247 05:39 30.03.2020
537 Clouds -2 1032 76 0 6.56 279 04:29 30.03.2020
538 Clouds -1 1032 76 0 0.45 247 03:53 30.03.2020
539 Clear 0 1033 74 0 0.45 292 02:44 30.03.2020
540 Clear 1 1033 69 0 0.45 315 01:55 30.03.2020
541 Clear 2 1033 69 0 6.4 315 00:57 30.03.2020
542 Clear 3 1028 74 0 6.4 315 00:27 30.03.2020
543 Clear 3 1029 73 0 9.46 348 23:56 29.03.2020
544 Clear 3 1029 73 0 9.46 348 23:37 29.03.2020
545 Clear 2 1034 64 0 0.89 22 23:18 29.03.2020
546 Clear 2 1034 60 0 0.45 337 22:40 29.03.2020
547 Clear 2 1034 58 0 9.46 348 22:20 29.03.2020
548 Clear 2 1034 55 0 9.46 348 21:59 29.03.2020
549 Clear 2 1034 52 0 9.46 348 21:38 29.03.2020
550 Clear 2 1034 51 0 7.39 4 21:20 29.03.2020
551 Clear 2 1034 49 0 6.92 4 20:55 29.03.2020
552 Clear 2 1034 48 0 0.45 0 20:37 29.03.2020
553 Clear 2 1034 48 0 0.45 0 20:37 29.03.2020
554 Clear 2 1034 48 0 0.45 0 20:37 29.03.2020
555 Clear 2 1034 48 0 0.89 22 20:19 29.03.2020
556 Clear 2 1034 48 0 0.89 22 20:19 29.03.2020
557 Clear 2 1034 43 0 0.45 22 19:57 29.03.2020
558 Clear 3 1034 45 0 0.45 45 19:39 29.03.2020
559 Clear 4 1034 41 0 0.89 45 19:21 29.03.2020
560 Clear 4 1034 41 0 1.34 45 18:57 29.03.2020
561 Clear 4 1034 45 0 1.34 45 18:38 29.03.2020
562 Clear 3 1034 48 0 1.34 45 18:19 29.03.2020
563 Clear 4 1034 46 0 0.45 45 17:56 29.03.2020
564 Clear 4 1034 47 0 1.79 67 17:37 29.03.2020
565 Clear 4 1033 49 0 2.68 22 17:18 29.03.2020
566 Clear 4 1033 52 0 2.24 45 16:56 29.03.2020
567 Clear 4 1033 52 0 0.89 45 16:38 29.03.2020
568 Clear 4 1033 56 0 1.79 45 16:19 29.03.2020
569 Clear 4 1033 62 0 2.24 22 15:42 29.03.2020
570 Clear 4 1033 63 0 2.68 22 15:24 29.03.2020
571 Clouds 4 1033 65 0 1.79 22 14:59 29.03.2020
572 Clouds 4 1033 66 0 3.13 45 14:40 29.03.2020
573 Clouds 4 1033 68 0 1.79 45 14:20 29.03.2020
574 Clouds 4 1032 70 0 3.58 45 13:58 29.03.2020
575 Clouds 3 1032 72 0 2.68 67 13:40 29.03.2020
576 Clouds 3 1032 74 0 1.79 22 13:20 29.03.2020
577 Clouds 3 1032 75 0 2.24 22 12:57 29.03.2020
578 Clouds 3 1032 79 0 1.79 45 12:38 29.03.2020
579 Snow 3 1031 83 0 1.34 22 12:19 29.03.2020
580 Snow 3 1031 83 0 1.34 22 12:19 29.03.2020
581 Snow 2 1031 87 0 0.89 22 11:55 29.03.2020
582 Snow 2 1031 89 0 2.68 45 11:37 29.03.2020
583 Snow 2 1030 91 0 2.68 45 11:19 29.03.2020
584 Snow 2 1030 89 0 4.02 45 10:38 29.03.2020
585 Snow 2 1029 89 0 2.24 45 10:19 29.03.2020
586 Snow 2 1029 88 0 0.89 45 09:54 29.03.2020
587 Snow 2 1029 88 0 1.79 45 09:36 29.03.2020
588 Snow 2 1028 89 0 2.68 22 09:18 29.03.2020
589 Snow 2 1027 88 0 1.79 45 08:41 29.03.2020
590 Snow 2 1027 88 0 3.58 45 08:22 29.03.2020
591 Snow 4 1025 82 0 2.68 45 07:45 29.03.2020
592 Snow 4 1025 82 0 2.68 90 07:22 29.03.2020
593 Clouds 4 1023 84 0 0.89 22 05:59 29.03.2020
594 Clouds 5 1022 85 0 1.34 45 04:56 29.03.2020
595 Clouds 6 1021 86 0 0.45 22 03:37 29.03.2020
596 Clouds 6 1021 82 0 6.79 11 01:57 29.03.2020
597 Clouds 6 1021 81 0 6.79 11 01:39 29.03.2020
598 Clouds 6 1021 81 0 0.45 0 01:19 29.03.2020
599 Clouds 6 1021 81 0 6.47 16 00:40 29.03.2020
600 Clouds 6 1022 80 0 6.47 16 00:18 29.03.2020
601 Clouds 6 1022 80 0 0.45 292 23:40 28.03.2020
602 Clouds 6 1022 80 0 0.45 292 23:40 28.03.2020
603 Clouds 6 1022 81 0 0.45 292 23:22 28.03.2020
604 Clouds 6 1022 82 0 0.45 292 22:43 28.03.2020
605 Clouds 6 1022 82 0 5.62 345 22:22 28.03.2020
606 Clouds 6 1022 82 0 5.62 345 21:57 28.03.2020
607 Clouds 6 1022 82 0 5.62 345 21:57 28.03.2020
608 Clouds 6 1022 82 0 5.62 345 21:39 28.03.2020
609 Clouds 6 1022 82 0 0.45 22 21:20 28.03.2020
610 Clouds 6 1022 76 0 5.62 345 20:57 28.03.2020
611 Clouds 6 1022 76 0 5.62 345 20:38 28.03.2020
612 Clear 6 1022 73 0 2.93 312 20:19 28.03.2020
613 Clear 6 1022 69 0 2.93 312 19:55 28.03.2020
614 Clear 6 1022 67 0 2.93 312 19:36 28.03.2020
615 Clear 7 1022 62 0 2.93 312 19:18 28.03.2020
616 Clear 9 1022 57 0 2.93 312 18:42 28.03.2020
617 Clear 11 1022 54 0 2.93 312 18:21 28.03.2020
618 Clear 6 1017 71 0 2.93 312 17:56 28.03.2020
619 Clear 6 1017 71 0 2.93 312 17:36 28.03.2020
620 Clear 11 1022 53 0 0.45 337 17:18 28.03.2020
621 Clear 11 1022 55 0 3.61 318 16:40 28.03.2020
622 Clear 11 1022 57 0 3.61 318 16:20 28.03.2020
623 Clear 12 1022 58 0 3.61 318 15:55 28.03.2020
624 Clear 12 1022 61 0 0.45 315 15:37 28.03.2020
625 Clear 12 1023 63 0 3.61 318 15:18 28.03.2020
626 Clear 7 1018 66 0 3.61 318 14:42 28.03.2020
627 Clear 12 1023 58 0 3.61 318 14:22 28.03.2020
628 Clear 11 1024 56 0 0.45 22 13:55 28.03.2020
629 Clear 11 1024 55 0 3.87 343 13:36 28.03.2020
630 Clear 11 1024 55 0 0.89 22 13:18 28.03.2020
631 Clear 11 1025 50 0 0.89 315 12:37 28.03.2020
632 Clear 11 1024 56 0 3.81 335 12:19 28.03.2020
633 Clear 10 1025 57 0 0.89 22 11:42 28.03.2020
634 Clear 10 1025 57 0 0.89 22 11:42 28.03.2020
635 Clear 9 1025 61 0 0.45 0 11:21 28.03.2020
636 Clear 9 1025 59 0 1.34 22 10:44 28.03.2020
637 Clear 9 1025 61 0 0.45 45 10:25 28.03.2020
638 Clear 8 1025 69 0 0.89 0 09:59 28.03.2020
639 Clear 7 1026 71 0 0.45 22 09:40 28.03.2020
640 Clear 7 1026 73 0 0.45 22 09:21 28.03.2020
641 Clear 6 1026 80 0 3.61 16 08:43 28.03.2020
642 Clear 6 1026 82 0 0.45 22 08:24 28.03.2020
643 Clear 6 1026 84 0 0.89 22 07:58 28.03.2020
644 Clear 5 1026 85 0 5.57 14 07:40 28.03.2020
645 Clear 4 1026 87 0 0.45 22 06:53 28.03.2020
646 Clear 4 1026 87 0 5.57 14 06:26 28.03.2020
647 Clear 3 1026 85 0 5.57 14 05:38 28.03.2020
648 Clear 3 1026 85 0 5.91 20 05:19 28.03.2020
649 Clear 3 1026 83 0 5.91 20 04:39 28.03.2020
650 Clear 4 1026 83 0 5.91 20 02:52 28.03.2020
651 Clear 4 1027 83 0 5.67 28 01:48 28.03.2020
652 Clear 4 1027 83 0 5.67 28 01:24 28.03.2020
653 Clear 4 1027 84 0 0.45 45 00:52 28.03.2020
654 Clear 4 1027 83 0 5.33 23 00:28 28.03.2020
655 Clear 5 1028 84 0 0.45 45 23:44 27.03.2020
656 Clear 5 1028 84 0 0.45 22 23:26 27.03.2020
657 Clear 4 1028 85 0 5.52 43 22:58 27.03.2020
658 Clear 4 1028 85 0 5.52 43 22:39 27.03.2020
659 Clear 4 1028 86 0 5.52 43 22:21 27.03.2020
660 Clear 5 1028 85 0 0.45 45 21:59 27.03.2020
661 Clear 5 1028 85 0 5.52 43 21:40 27.03.2020
662 Clear 5 1028 85 0 5.52 43 21:22 27.03.2020
663 Clear 5 1028 86 0 5.52 43 20:57 27.03.2020
664 Clear 5 1028 86 0 0.89 45 20:39 27.03.2020
665 Clear 5 1028 86 0 5.83 50 20:19 27.03.2020
666 Clear 5 1028 86 0 5.44 50 20:19 27.03.2020
667 Clear 5 1028 85 0 0.89 22 19:56 27.03.2020
668 Clear 6 1028 84 0 0.89 45 19:38 27.03.2020
669 Clear 6 1028 84 0 5.44 50 19:19 27.03.2020
670 Clear 6 1028 80 0 5.44 50 18:43 27.03.2020
671 Clear 7 1028 78 0 0.45 45 18:23 27.03.2020
672 Clear 8 1028 76 0 0.45 45 17:55 27.03.2020
673 Clear 8 1028 76 0 0.45 22 17:37 27.03.2020
674 Clear 8 1028 74 0 0.45 22 17:19 27.03.2020
675 Clear 8 1028 75 0 0.45 45 16:44 27.03.2020
676 Clear 8 1028 75 0 0.45 22 16:25 27.03.2020
677 Clear 8 1028 75 0 0.45 22 16:25 27.03.2020
678 Clear 9 1029 75 0 0.45 45 15:45 27.03.2020
679 Clear 8 1029 74 0 1.34 45 15:27 27.03.2020
680 Clear 6 1024 76 0 5.88 58 14:57 27.03.2020
681 Clear 6 1024 76 0 5.88 58 14:39 27.03.2020
682 Clear 6 1024 76 0 5.88 58 14:21 27.03.2020
683 Clear 6 1026 76 0 6.46 57 13:54 27.03.2020
684 Clear 6 1026 76 0 6.46 57 13:36 27.03.2020
685 Clear 6 1026 76 0 6.46 57 13:18 27.03.2020
686 Clear 6 1026 75 0 6.16 59 12:42 27.03.2020
687 Clear 6 1026 75 0 6.16 59 12:19 27.03.2020
688 Clear 6 1026 75 0 6.16 59 11:44 27.03.2020
689 Clear 6 1026 75 0 6.16 59 11:25 27.03.2020
690 Clear 7 1027 73 0 5.63 74 10:59 27.03.2020
691 Clear 7 1027 73 0 5.63 74 10:41 27.03.2020
692 Clear 7 1027 73 0 5.63 74 10:22 27.03.2020
693 Clear 7 1027 73 0 5.63 74 09:58 27.03.2020
694 Clear 7 1027 73 0 5.63 74 09:40 27.03.2020
695 Clear 7 1027 73 0 5.63 74 09:21 27.03.2020
696 Clear 7 1027 73 0 5.63 74 08:58 27.03.2020
697 Clear 7 1027 73 0 5.63 74 08:40 27.03.2020
698 Clear 7 1027 73 0 5.63 74 08:21 27.03.2020
699 Clear 5 1027 80 0 4.94 88 07:55 27.03.2020
700 Clear 5 1027 80 0 4.94 88 07:37 27.03.2020
701 Clear 5 1027 80 0 4.94 88 07:19 27.03.2020
702 Clear 5 1027 80 0 4.94 88 06:38 27.03.2020
703 Clear 5 1027 80 0 4.94 88 05:44 27.03.2020
704 Clear 5 1028 78 0 4.87 91 03:26 27.03.2020
705 Clear 5 1028 76 0 4.18 100 01:55 27.03.2020
706 Clear 5 1028 75 0 4.15 102 00:58 27.03.2020
707 Clear 5 1028 75 0 4.15 102 00:38 27.03.2020
708 Clear 5 1028 75 0 4.15 102 00:19 27.03.2020
709 Clear 5 1028 75 0 4.15 102 23:37 26.03.2020
710 Clear 5 1029 78 0 5.62 90 23:18 26.03.2020
711 Clear 5 1029 78 0 5.62 90 22:56 26.03.2020
712 Clear 5 1029 78 0 5.62 90 22:36 26.03.2020
713 Clear 5 1029 78 0 5.62 90 22:18 26.03.2020
714 Clear 5 1029 78 0 5.62 90 21:40 26.03.2020
715 Clear 5 1029 78 0 5.62 90 21:21 26.03.2020
716 Clear 5 1029 78 0 5.62 90 20:59 26.03.2020
717 Clear 5 1029 78 0 5.62 90 20:39 26.03.2020
718 Clear 5 1029 78 0 5.62 90 20:21 26.03.2020
719 Clear 5 1029 72 0 7.11 82 19:58 26.03.2020
720 Clear 5 1029 72 0 7.11 82 19:40 26.03.2020
721 Clear 5 1029 72 0 7.11 82 19:21 26.03.2020
722 Clear 5 1029 72 0 7.11 82 18:58 26.03.2020
723 Clear 5 1029 72 0 7.11 82 18:40 26.03.2020
724 Clear 5 1029 72 0 7.11 82 18:21 26.03.2020
725 Clear 5 1029 72 0 7.11 82 17:45 26.03.2020
726 Clear 6 1029 66 0 6.47 87 17:20 26.03.2020
727 Clear 6 1029 66 0 6.47 87 16:57 26.03.2020
728 Clear 6 1029 66 0 6.47 87 16:57 26.03.2020
729 Clear 6 1029 66 0 6.47 87 16:38 26.03.2020
730 Clear 6 1029 66 0 6.47 87 16:19 26.03.2020
731 Clear 6 1029 66 0 6.47 87 15:56 26.03.2020
732 Clear 6 1029 66 0 6.47 87 15:38 26.03.2020
733 Clear 6 1029 66 0 6.47 87 15:18 26.03.2020
734 Clear 6 1029 66 0 6.47 87 14:43 26.03.2020
735 Clear 6 1029 66 0 6.47 87 14:24 26.03.2020
736 Clear 6 1031 65 0 6.21 106 13:56 26.03.2020
737 Clear 6 1031 65 0 6.21 106 13:56 26.03.2020
738 Clear 6 1031 65 0 6.21 106 13:38 26.03.2020
739 Clear 5 1031 66 0 5.88 102 13:19 26.03.2020
740 Clear 5 1031 66 0 5.88 102 12:39 26.03.2020
741 Clear 5 1031 66 0 5.88 102 12:20 26.03.2020
742 Clear 5 1031 66 0 5.88 102 11:55 26.03.2020
743 Clear 5 1031 66 0 5.88 102 11:36 26.03.2020
744 Clear 5 1031 68 0 5.98 122 11:18 26.03.2020
745 Clear 5 1031 68 0 5.98 122 10:42 26.03.2020
746 Clear 5 1031 68 0 5.98 122 10:20 26.03.2020
747 Clear 5 1031 68 0 5.98 122 09:45 26.03.2020
748 Clear 5 1031 68 0 5.98 122 09:24 26.03.2020
749 Clear 5 1031 68 0 5.98 122 08:58 26.03.2020
750 Clear 5 1031 68 0 5.98 122 08:40 26.03.2020
751 Clear 5 1031 68 0 5.98 122 08:22 26.03.2020
752 Clear 3 1031 77 0 4.37 131 07:56 26.03.2020
753 Clear 3 1031 77 0 4.37 131 07:38 26.03.2020
754 Clear 3 1031 77 0 4.37 131 07:38 26.03.2020
755 Clear 3 1031 77 0 4.37 131 07:19 26.03.2020
756 Clear 3 1031 77 0 4.37 131 06:33 26.03.2020
757 Clear 3 1031 77 0 4.37 131 05:48 26.03.2020
758 Clear 3 1031 76 0 4.8 145 03:46 26.03.2020
759 Clear 3 1031 76 0 4.8 145 03:18 26.03.2020
760 Clear 3 1031 76 0 4.8 145 02:50 26.03.2020
761 Clouds 4 1031 73 0 5.88 150 01:19 26.03.2020
762 Clear 4 1032 73 0 5.58 150 00:33 26.03.2020
763 Clear 4 1032 73 0 5.58 150 23:44 25.03.2020
764 Clear 4 1032 73 0 5.58 150 23:26 25.03.2020
765 Clear 4 1032 71 0 6.07 146 22:56 25.03.2020
766 Clear 4 1032 71 0 6.07 146 22:37 25.03.2020
767 Clear 4 1032 71 0 6.07 146 22:19 25.03.2020
768 Clear 4 1032 71 0 6.07 146 21:54 25.03.2020
769 Clear 4 1032 71 0 6.07 146 21:36 25.03.2020
770 Clear 4 1032 71 0 6.07 146 21:18 25.03.2020
771 Clear 4 1032 71 0 6.07 146 20:39 25.03.2020
772 Clouds 4 1032 70 0 6.03 115 20:19 25.03.2020
773 Clouds 4 1032 70 0 6.06 116 19:56 25.03.2020
774 Clouds 4 1032 71 0 5.96 112 19:38 25.03.2020
775 Clouds 4 1032 71 0 5.96 112 19:19 25.03.2020
776 Clouds 4 1032 70 0 6.06 116 18:54 25.03.2020
777 Clouds 4 1032 70 0 6.06 116 18:36 25.03.2020
778 Clouds 4 1032 71 0 5.96 112 18:18 25.03.2020
779 Clouds 4 1032 70 0 6.06 116 17:41 25.03.2020
780 Clouds 4 1032 71 0 5.96 112 17:22 25.03.2020
781 Clouds 4 1032 71 0 5.96 112 17:22 25.03.2020
782 Clouds 5 1033 66 0 6.06 121 16:59 25.03.2020
783 Clouds 5 1033 66 0 6.06 121 16:39 25.03.2020
784 Clouds 5 1033 66 0 5.89 122 16:21 25.03.2020
785 Clouds 5 1033 66 0 5.89 122 15:44 25.03.2020
786 Clouds 5 1033 66 0 6.06 121 15:21 25.03.2020
787 Clouds 5 1033 66 0 6.06 121 14:59 25.03.2020
788 Clouds 5 1033 66 0 6.06 121 14:40 25.03.2020
789 Clouds 5 1033 66 0 5.89 122 14:21 25.03.2020
790 Clouds 5 1035 63 0 4.24 132 13:46 25.03.2020
791 Clouds 5 1035 63 0 4.24 132 13:26 25.03.2020
792 Clouds 5 1034 62 0 4.06 131 12:57 25.03.2020
793 Clouds 5 1034 62 0 4.06 131 12:37 25.03.2020
794 Clouds 5 1034 62 0 4.06 131 12:18 25.03.2020
795 Clouds 5 1034 62 0 4.06 131 11:43 25.03.2020
796 Clouds 5 1034 62 0 4.06 131 11:21 25.03.2020
797 Clouds 5 1034 62 0 4.06 131 11:21 25.03.2020
798 Clouds 4 1035 68 0 5.51 174 10:59 25.03.2020
799 Clouds 4 1035 68 0 5.51 174 10:40 25.03.2020
800 Clouds 4 1035 68 0 5.51 174 10:19 25.03.2020
801 Clouds 4 1035 68 0 5.51 174 09:59 25.03.2020
802 Clouds 4 1035 68 0 5.51 174 09:40 25.03.2020
803 Clouds 4 1035 68 0 5.51 174 09:22 25.03.2020
804 Clouds 4 1035 68 0 5.51 174 08:55 25.03.2020
805 Clouds 4 1035 68 0 5.51 174 08:37 25.03.2020
806 Clouds 2 1035 78 0 5.81 179 08:18 25.03.2020
807 Clouds 2 1035 79 0 6.09 180 07:39 25.03.2020
808 Clouds 2 1035 79 0 6.09 180 07:20 25.03.2020
809 Clouds 2 1035 79 0 6.09 180 07:20 25.03.2020
810 Clouds 2 1035 79 0 6.09 180 06:46 25.03.2020
811 Clouds 2 1035 79 0 6.09 180 06:25 25.03.2020
812 Clouds 2 1035 79 0 6.09 180 05:50 25.03.2020
813 Clouds 2 1035 78 0 7.29 183 04:59 25.03.2020
814 Clouds 2 1035 78 0 7.29 183 04:39 25.03.2020
815 Clouds 2 1035 78 0 7.29 183 03:36 25.03.2020
816 Clear 3 1036 75 0 7.13 177 01:58 25.03.2020
817 Clear 3 1036 75 0 7.13 177 01:21 25.03.2020
818 Clear 2 1036 75 0 7.52 179 00:48 25.03.2020
819 Clear 2 1036 75 0 7.52 179 00:19 25.03.2020
820 Clear 2 1036 75 0 7.52 179 23:45 24.03.2020
821 Clear 2 1036 75 0 7.52 179 23:26 24.03.2020
822 Clear 3 1036 72 0 6.74 173 22:56 24.03.2020
823 Clear 3 1036 72 0 6.74 173 22:37 24.03.2020
824 Clear 3 1036 72 0 6.74 173 22:19 24.03.2020
825 Clear 3 1036 72 0 6.74 173 22:19 24.03.2020
826 Clear 3 1036 72 0 6.74 173 21:56 24.03.2020
827 Clear 3 1036 72 0 6.74 173 21:37 24.03.2020
828 Clear 3 1036 72 0 6.74 173 21:18 24.03.2020
829 Clear 3 1036 72 0 6.74 173 20:56 24.03.2020
830 Clear 3 1036 72 0 6.74 173 20:38 24.03.2020
831 Clear 4 1036 69 0 5.43 161 20:19 24.03.2020
832 Clear 4 1036 69 0 5.37 157 19:41 24.03.2020
833 Clear 4 1036 69 0 5.37 157 19:19 24.03.2020
834 Clear 4 1036 69 0 5.37 157 18:55 24.03.2020
835 Clear 4 1036 69 0 5.37 157 18:37 24.03.2020
836 Clear 4 1036 69 0 5.37 157 18:18 24.03.2020
837 Clear 4 1036 69 0 5.37 157 18:18 24.03.2020
838 Clear 4 1036 69 0 5.37 157 17:42 24.03.2020
839 Clear 4 1036 69 0 5.37 157 17:23 24.03.2020
840 Clear 6 1037 55 0 4.28 170 16:58 24.03.2020
841 Clear 9 1040 42 0 0.45 157 16:40 24.03.2020
842 Clear 6 1037 55 0 4.28 170 16:22 24.03.2020
843 Clear 6 1037 55 0 4.28 170 15:58 24.03.2020
844 Clear 6 1037 55 0 4.28 170 15:38 24.03.2020
845 Clear 6 1037 55 0 4.28 170 15:20 24.03.2020
846 Clear 9 1041 41 0 1.34 202 14:43 24.03.2020
847 Clear 5 1038 64 0 4.58 164 14:20 24.03.2020
848 Clear 5 1038 64 0 4.58 164 13:55 24.03.2020
849 Clear 5 1038 64 0 4.58 164 13:36 24.03.2020
850 Clear 5 1038 63 0 4.51 163 13:18 24.03.2020
851 Clear 5 1038 63 0 4.51 163 12:41 24.03.2020
852 Clear 5 1038 63 0 4.51 163 12:22 24.03.2020
853 Clear 5 1038 63 0 4.51 163 11:40 24.03.2020
854 Clear 7 1043 47 0 1.34 180 11:20 24.03.2020
855 Clear 7 1043 47 0 1.34 180 11:20 24.03.2020
856 Clear 6 1043 49 0 1.34 180 10:55 24.03.2020
857 Clear 6 1043 50 0 1.34 180 10:36 24.03.2020
858 Clear 5 1044 53 0 1.79 157 10:18 24.03.2020
859 Clear 4 1044 59 0 0.89 180 09:43 24.03.2020
860 Clear 4 1044 62 0 0.45 180 09:24 24.03.2020
861 Clear 2 1044 72 0 0.45 157 08:40 24.03.2020
862 Clear 1 1044 73 0 0.45 157 08:21 24.03.2020
863 Clouds 0 1044 75 0 0.45 135 07:59 24.03.2020
864 Clouds -1 1044 75 0 0.45 135 07:41 24.03.2020
865 Clouds -1 1044 76 0 0.45 157 07:21 24.03.2020
866 Clouds -2 1044 75 0 0.45 135 06:35 24.03.2020
867 Clouds -3 1044 74 0 5.85 183 05:36 24.03.2020
868 Clear -2 1043 74 0 5.89 195 04:51 24.03.2020
869 Clear -2 1043 74 0 5.89 195 03:21 24.03.2020
870 Clear -2 1043 74 0 5.89 195 02:41 24.03.2020
871 Clear -1 1042 75 0 6.25 171 00:54 24.03.2020
872 Clear -2 1043 73 0 6.25 171 00:27 24.03.2020
873 Clear -1 1043 73 0 6.25 171 23:56 23.03.2020
874 Clear -1 1043 72 0 0.45 135 23:38 23.03.2020
875 Clear -1 1043 71 0 6.51 142 23:19 23.03.2020
876 Clear -1 1043 71 0 0.45 135 22:44 23.03.2020
877 Clear -1 1043 71 0 0.45 135 22:23 23.03.2020
878 Clear 0 1043 70 0 0.45 135 21:55 23.03.2020
879 Clear 0 1043 69 0 0.45 135 21:37 23.03.2020
880 Clear -1 1043 67 0 0.45 135 21:18 23.03.2020
881 Clear -1 1043 67 0 0.45 135 21:18 23.03.2020
882 Clear 0 1043 66 0 6.51 142 20:55 23.03.2020
883 Clear 0 1043 65 0 6.51 142 20:36 23.03.2020
884 Clear 1 1043 63 0 5.97 121 20:18 23.03.2020
885 Clear 1 1043 63 0 5.97 121 20:18 23.03.2020
886 Clear 1 1043 62 0 6.23 124 19:41 23.03.2020
887 Clear 1 1043 62 0 6.23 124 19:22 23.03.2020
888 Clear 2 1043 59 0 0.45 135 18:56 23.03.2020
889 Clear 3 1043 56 0 6.23 124 18:38 23.03.2020
890 Clear 2 1039 64 0 6.23 124 18:19 23.03.2020
891 Clear 2 1039 64 0 6.23 124 17:41 23.03.2020
892 Clear 7 1043 50 0 0.89 135 17:20 23.03.2020
893 Clear 6 1043 49 0 0.89 135 16:56 23.03.2020
894 Clear 6 1043 48 0 0.89 135 16:37 23.03.2020
895 Clear 7 1043 46 0 0.45 67 16:18 23.03.2020
896 Clear 7 1043 44 0 0.45 135 15:41 23.03.2020
897 Clear 7 1044 43 0 1.34 112 15:19 23.03.2020
898 Clear 8 1044 42 0 1.79 135 14:38 23.03.2020
899 Clear 7 1044 42 0 1.34 135 14:20 23.03.2020
900 Clear 8 1045 41 0 0.89 135 13:58 23.03.2020
901 Clear 7 1045 41 0 0.45 135 13:40 23.03.2020
902 Clear 7 1045 41 0 0.45 135 13:40 23.03.2020
903 Clear 7 1045 41 0 1.34 135 13:20 23.03.2020
904 Clear 7 1045 45 0 0.45 67 12:44 23.03.2020
905 Clear 7 1046 44 0 0.89 112 12:25 23.03.2020
906 Clear 6 1045 46 0 3.62 120 11:59 23.03.2020
907 Clear 6 1045 46 0 3.62 120 11:59 23.03.2020
908 Clear 6 1046 48 0 1.34 135 11:40 23.03.2020
909 Clear 6 1046 48 0 0.89 135 11:20 23.03.2020
910 Clear 6 1046 48 0 0.89 135 11:20 23.03.2020
911 Clear 6 1046 52 0 0.45 180 10:58 23.03.2020
912 Clear 5 1046 55 0 0.89 202 10:38 23.03.2020
913 Clear 4 1046 56 0 0.45 67 10:20 23.03.2020
914 Clear 3 1047 61 0 1.34 157 09:44 23.03.2020
915 Clear 3 1046 65 0 0.89 135 09:21 23.03.2020
916 Clear 2 1047 70 0 0.45 135 08:57 23.03.2020
917 Clear 1 1047 71 0 0.45 135 08:36 23.03.2020
918 Clear 1 1047 74 0 0.45 157 08:18 23.03.2020
919 Clear -1 1047 73 0 4.77 159 07:45 23.03.2020
920 Clear -2 1047 73 0 4.77 159 07:27 23.03.2020
921 Clear -3 1047 73 0 4.77 159 06:52 23.03.2020
922 Clear -3 1046 71 0 4.77 159 05:55 23.03.2020
923 Clear -3 1046 71 0 4.77 159 05:29 23.03.2020
924 Clear -2 1046 70 0 6.2 158 03:41 23.03.2020
925 Clear -1 1046 71 0 0.89 135 02:29 23.03.2020
926 Clear -1 1045 69 0 0.89 135 01:34 23.03.2020
927 Clear -1 1045 69 0 0.89 135 01:34 23.03.2020
928 Clear -1 1045 69 0 0.89 135 00:40 23.03.2020
929 Clear -1 1045 67 0 0.45 135 23:53 22.03.2020
930 Clear 0 1045 67 0 0.89 135 23:27 22.03.2020
931 Clear 0 1045 67 0 0.89 135 22:56 22.03.2020
932 Clear 0 1045 67 0 0.45 135 22:36 22.03.2020
933 Clear 0 1045 65 0 0.45 112 22:18 22.03.2020
934 Clear 0 1045 63 0 7.57 112 21:39 22.03.2020
935 Clear 1 1045 62 0 7.57 112 21:20 22.03.2020
936 Clear 1 1044 61 0 7.57 112 20:58 22.03.2020
937 Clear 1 1044 60 0 0.45 112 20:39 22.03.2020
938 Clear 1 1044 60 0 7.65 110 20:20 22.03.2020
939 Clear 1 1044 58 0 7.29 93 19:55 22.03.2020
940 Clear 1 1044 57 0 7.29 93 19:37 22.03.2020
941 Clear 2 1044 55 0 7.29 93 19:18 22.03.2020
942 Clear 2 1044 53 0 7.29 93 18:56 22.03.2020
943 Clear 3 1044 51 0 7.29 93 18:37 22.03.2020
944 Clear 2 1040 57 0 7.29 93 18:18 22.03.2020
945 Clear 2 1040 57 0 7.29 93 17:56 22.03.2020
946 Clear 2 1040 57 0 7.29 93 17:36 22.03.2020
947 Clear 2 1040 57 0 7.29 93 17:36 22.03.2020
948 Clear 2 1040 57 0 7.29 93 17:36 22.03.2020
949 Clear 6 1043 48 0 7.38 94 17:18 22.03.2020
950 Clear 6 1043 49 0 7.38 94 16:54 22.03.2020
951 Clear 6 1043 48 0 7.38 94 16:36 22.03.2020
952 Clear 6 1043 45 0 0.89 135 16:18 22.03.2020
953 Clear 6 1043 44 0 1.79 135 15:39 22.03.2020
954 Clear 6 1043 46 0 0.45 45 14:55 22.03.2020
955 Clear 6 1043 46 0 1.79 135 14:37 22.03.2020
956 Clouds 5 1044 49 0 0.45 90 14:18 22.03.2020
957 Clouds 6 1044 48 0 7.85 101 13:41 22.03.2020
958 Clouds 6 1044 51 0 1.34 112 13:19 22.03.2020
959 Clouds 7 1044 50 0 1.34 112 12:47 22.03.2020
960 Clouds 7 1044 50 0 7.59 98 12:23 22.03.2020
961 Clouds 7 1044 50 0 7.59 98 12:23 22.03.2020
962 Clouds 6 1044 53 0 1.79 135 11:59 22.03.2020
963 Clouds 6 1044 53 0 1.79 135 11:41 22.03.2020
964 Clouds 6 1044 54 0 7.59 98 11:23 22.03.2020
965 Clouds 5 1044 54 0 0.89 112 10:57 22.03.2020
966 Clouds 5 1044 55 0 0.45 135 10:39 22.03.2020
967 Clouds 5 1044 56 0 1.34 135 10:21 22.03.2020
968 Clouds 4 1043 62 0 1.79 135 09:43 22.03.2020
969 Clouds 4 1043 65 0 1.34 135 09:23 22.03.2020
970 Clouds 4 1043 67 0 1.34 135 08:44 22.03.2020
971 Clouds 3 1039 63 0 8.3 86 08:25 22.03.2020
972 Clear 3 1043 66 0 0.45 135 07:53 22.03.2020
973 Clear 3 1042 66 0 0.89 67 07:32 22.03.2020
974 Clear 2 1042 64 0 0.45 45 06:40 22.03.2020
975 Clear 2 1041 63 0 0.89 45 05:37 22.03.2020
976 Clear 2 1041 60 0 0.89 45 04:34 22.03.2020
977 Clear 2 1040 63 0 7.58 80 01:36 22.03.2020
978 Clear 2 1040 67 0 7.57 78 00:49 22.03.2020
979 Clear 2 1040 69 0 7.57 78 00:30 22.03.2020
980 Clear 2 1040 70 0 7.57 78 23:45 21.03.2020
981 Clear 2 1040 70 0 0.45 135 23:22 21.03.2020
982 Clear 2 1040 71 0 6.75 104 22:58 21.03.2020
983 Clear 2 1040 71 0 0.45 112 22:38 21.03.2020
984 Clear 2 1040 70 0 0.45 135 22:19 21.03.2020
985 Clear 2 1039 69 0 6.75 104 21:58 21.03.2020
986 Clear 2 1039 68 0 6.75 104 21:38 21.03.2020
987 Clear 2 1039 68 0 6.75 104 21:19 21.03.2020
988 Clear 2 1039 67 0 6.75 104 20:42 21.03.2020
989 Clear 2 1038 66 0 4.82 114 20:22 21.03.2020
990 Clear 3 1038 64 0 1.6 40 19:55 21.03.2020
991 Clear 3 1038 62 0 1.6 40 19:37 21.03.2020
992 Clear 3 1038 59 0 1.6 40 19:18 21.03.2020
993 Clear 4 1038 56 0 1.6 40 18:41 21.03.2020
994 Clear 6 1038 53 0 1.6 40 18:21 21.03.2020
995 Clear 4 1034 48 0 1.6 40 17:59 21.03.2020
996 Clear 4 1034 48 0 1.6 40 17:41 21.03.2020
997 Clear 7 1038 53 0 0.45 67 17:22 21.03.2020
998 Clear 6 1038 54 0 0.45 0 16:43 21.03.2020
999 Clear 6 1038 54 0 0.89 22 16:24 21.03.2020
1000 Clear 6 1038 54 0 0.89 22 16:24 21.03.2020
1001 Clear 6 1038 55 0 1.34 45 15:59 21.03.2020
1002 Clear 6 1038 52 0 4.74 64 15:40 21.03.2020
1003 Clear 6 1038 54 0 1.34 45 15:22 21.03.2020
1004 Clear 6 1038 54 0 0.45 22 14:57 21.03.2020
1005 Clear 6 1038 54 0 0.89 45 14:39 21.03.2020
1006 Clouds 6 1039 55 0 6.98 45 14:20 21.03.2020
1007 Clouds 6 1038 53 0 2.24 45 13:58 21.03.2020
1008 Clouds 6 1039 54 0 0.89 45 13:39 21.03.2020
1009 Clear 6 1039 54 0 0.89 67 13:21 21.03.2020
1010 Clear 6 1039 54 0 0.89 112 12:57 21.03.2020
1011 Clear 6 1039 56 0 0.89 45 12:37 21.03.2020
1012 Clear 6 1039 57 0 0.45 45 12:19 21.03.2020
1013 Clear 5 1039 58 0 1.79 67 11:55 21.03.2020
1014 Clear 6 1039 54 0 1.79 22 11:37 21.03.2020
1015 Clouds 5 1039 55 0 2.68 45 11:18 21.03.2020
1016 Clouds 5 1039 56 0 0.89 45 10:56 21.03.2020
1017 Clouds 5 1039 64 0 1.79 45 10:38 21.03.2020
1018 Clouds 4 1039 64 0 1.79 45 10:19 21.03.2020
1019 Clouds 4 1039 60 0 1.34 67 09:55 21.03.2020
1020 Clouds 4 1038 64 0 0.89 45 09:37 21.03.2020
1021 Clouds 4 1038 70 0 2.68 45 09:18 21.03.2020
1022 Clouds 3 1038 70 0 0.89 67 08:43 21.03.2020
1023 Clouds 3 1038 70 0 0.45 67 08:24 21.03.2020
1024 Clouds 3 1037 72 0 1.79 22 07:45 21.03.2020
1025 Clouds 3 1037 71 0 1.34 45 07:27 21.03.2020
1026 Clouds 3 1037 78 0 1.34 45 06:48 21.03.2020
1027 Clouds 3 1037 78 0 0.89 45 06:28 21.03.2020
1028 Clouds 3 1036 77 0 0.45 45 05:46 21.03.2020
1029 Clear 3 1036 76 0 0.89 45 04:47 21.03.2020
1030 Clear 4 1035 79 0 0.45 45 02:55 21.03.2020
1031 Clear 4 1035 79 0 0.89 45 02:33 21.03.2020
1032 Clouds 4 1034 82 0 0.45 45 01:38 21.03.2020
1033 Clouds 4 1034 81 0 8.58 62 01:18 21.03.2020
1034 Clouds 4 1034 84 0 0.45 67 00:38 21.03.2020
1035 Clouds 4 1033 86 0 8.58 62 23:58 20.03.2020
1036 Clouds 4 1033 86 0 8.58 62 23:40 20.03.2020
1037 Clear 5 1033 86 0 0.89 45 23:18 20.03.2020
1038 Clear 5 1032 83 0 0.45 45 22:42 20.03.2020
1039 Clear 5 1032 81 0 0.89 22 22:24 20.03.2020
1040 Clear 5 1032 81 0 0.45 45 21:57 20.03.2020
1041 Clear 5 1032 80 0 0.89 45 21:39 20.03.2020
1042 Clear 5 1031 81 0 0.89 315 21:19 20.03.2020
1043 Clear 5 1031 82 0 10.16 36 20:57 20.03.2020
1044 Clear 6 1031 83 0 10.16 36 20:39 20.03.2020
1045 Clouds 6 1031 82 0 7.36 6 20:18 20.03.2020
1046 Clouds 5 1031 81 0 5.69 33 19:46 20.03.2020
1047 Clouds 6 1031 80 0 5.69 33 19:19 20.03.2020
1048 Clouds 6 1031 80 0 5.69 33 18:57 20.03.2020
1049 Clouds 6 1031 80 0 5.69 33 18:37 20.03.2020
1050 Clouds 6 1031 81 0 5.69 33 18:19 20.03.2020
1051 Clouds 6 1031 81 0 5.69 33 17:56 20.03.2020
1052 Clouds 6 1031 80 0 5.69 33 17:37 20.03.2020
1053 Clouds 7 1030 80 0 3.73 329 17:18 20.03.2020
1054 Clouds 6 1030 80 0 0.45 22 16:41 20.03.2020
1055 Clouds 6 1030 80 0 0.45 22 16:41 20.03.2020
1056 Clouds 6 1030 80 0 0.45 22 16:21 20.03.2020
1057 Clouds 7 1030 80 0 0.89 45 15:44 20.03.2020
1058 Clouds 7 1031 79 0 0.89 45 15:23 20.03.2020
1059 Clouds 8 1030 75 0 3.73 329 14:59 20.03.2020
1060 Clouds 9 1030 74 0 0.89 45 14:41 20.03.2020
1061 Clouds 9 1030 73 0 0.45 315 14:20 20.03.2020
1062 Clouds 9 1030 73 0 0.45 337 13:48 20.03.2020
1063 Clouds 9 1030 74 0 0.89 315 13:24 20.03.2020
1064 Clouds 9 1030 74 0 0.89 315 13:24 20.03.2020
1065 Clouds 9 1030 74 0 4.21 314 12:58 20.03.2020
1066 Clouds 9 1030 76 0 4.21 314 12:38 20.03.2020
1067 Clouds 8 1030 77 0 0.45 315 12:19 20.03.2020
1068 Clouds 8 1030 79 0 4.21 314 11:39 20.03.2020
1069 -273 0 0 0 0 0 11:20 20.03.2020
1070 Clouds 8 1030 80 0 1.34 337 10:56 20.03.2020
1071 Clouds 8 1030 81 0 0.89 315 10:38 20.03.2020
1072 Clouds 8 1030 82 0 4.85 306 10:18 20.03.2020
1073 Clouds 8 1030 82 0 4.85 306 10:18 20.03.2020
1074 Clouds 8 1030 82 0 4.85 306 10:18 20.03.2020
1075 Clouds 7 1030 84 0 0.89 292 09:45 20.03.2020
1076 Clouds 7 1030 85 0 0.45 292 09:21 20.03.2020
1077 Clouds 6 1030 86 0 0.89 315 08:58 20.03.2020
1078 Clouds 6 1030 86 0 4.85 306 08:39 20.03.2020
1079 Clouds 6 1030 87 0 0.45 292 08:19 20.03.2020
1080 Clouds 5 1030 86 0 4.17 302 07:41 20.03.2020
1081 Clouds 5 1030 85 0 4.17 302 07:23 20.03.2020
1082 Clouds 4 1030 84 0 4.17 302 06:42 20.03.2020
1083 Clouds 4 1030 83 0 4.17 302 06:22 20.03.2020
1084 Clouds 4 1029 83 0 3.49 306 04:48 20.03.2020
1085 Clouds 4 1030 82 0 3.49 306 02:54 20.03.2020
1086 Clouds 4 1030 81 0 4.28 284 01:50 20.03.2020
1087 Clouds 3 1030 80 0 4.35 281 00:46 20.03.2020
1088 Clouds 3 1030 80 0 4.35 281 00:24 20.03.2020
1089 Clouds 3 1030 79 0 4.35 281 23:42 19.03.2020
1090 Clouds 3 1030 79 0 4.35 281 23:23 19.03.2020
1091 Clouds 3 1030 79 0 3.88 267 22:55 19.03.2020
1092 Clouds 3 1030 79 0 3.88 267 22:37 19.03.2020
1093 Clouds 4 1029 77 0 3.88 267 22:18 19.03.2020
1094 Clouds 5 1029 77 0 3.88 267 21:40 19.03.2020
1095 Clouds 6 1029 77 0 3.88 267 21:20 19.03.2020
1096 Clouds 6 1029 77 0 3.88 267 20:56 19.03.2020
1097 Clouds 6 1029 76 0 3.88 267 20:38 19.03.2020
1098 Clouds 6 1029 76 0 4.12 263 20:19 19.03.2020
1099 Clouds 7 1029 75 0 4.12 263 19:55 19.03.2020
1100 Clouds 7 1029 75 0 4.12 263 19:37 19.03.2020
1101 Clouds 7 1029 75 0 4.12 263 19:18 19.03.2020
1102 Clouds 7 1029 74 0 4.12 263 18:42 19.03.2020
1103 Clouds 7 1029 73 0 4.12 263 18:22 19.03.2020
1104 Clouds 8 1029 70 0 4.12 263 17:58 19.03.2020
1105 Clouds 11 1029 67 0 0.45 22 17:39 19.03.2020
1106 Clouds 9 1029 68 0 0.45 22 17:18 19.03.2020
1107 Clouds 9 1029 67 0 0.45 0 16:43 19.03.2020
1108 Clouds 9 1029 66 0 0.45 45 16:22 19.03.2020
1109 Clouds 10 1029 64 0 0.45 0 15:45 19.03.2020
1110 Clouds 10 1029 63 0 0.45 45 15:26 19.03.2020
1111 Clouds 11 1029 62 0 4.84 263 14:55 19.03.2020
1112 Clouds 11 1029 61 0 0.45 22 14:37 19.03.2020
1113 Clouds 11 1029 61 0 0.45 22 14:37 19.03.2020
1114 Clouds 11 1029 63 0 0.45 0 14:18 19.03.2020
1115 Clouds 11 1029 66 0 0.45 337 13:39 19.03.2020
1116 Clouds 10 1029 65 0 0.89 315 13:19 19.03.2020
1117 Clouds 10 1029 67 0 0.89 315 12:55 19.03.2020
1118 Clouds 11 1029 67 0 0.89 315 12:37 19.03.2020
1119 Clouds 10 1029 72 0 3.24 292 12:18 19.03.2020
1120 Clouds 9 1029 74 0 0.45 0 11:41 19.03.2020
1121 Clouds 6 1026 80 0 3.24 292 11:23 19.03.2020
1122 Clouds 6 1025 87 0 4.9 292 10:56 19.03.2020
1123 Clouds 9 1029 80 0 1.34 0 10:36 19.03.2020
1124 Clouds 8 1029 80 0 0.45 337 10:18 19.03.2020
1125 Clouds 8 1028 82 0 0.45 315 09:44 19.03.2020
1126 Clouds 8 1029 83 0 0.45 292 09:25 19.03.2020
1127 Clouds 7 1028 84 0 0.45 292 08:57 19.03.2020
1128 Clouds 7 1028 85 0 4.9 292 08:37 19.03.2020
1129 Clouds 7 1028 85 0 5.34 291 08:18 19.03.2020
1130 Clouds 7 1028 86 0 5.34 291 07:42 19.03.2020
1131 Clouds 7 1028 87 0 0.45 315 07:22 19.03.2020
1132 Clouds 7 1027 87 0 0.45 315 06:27 19.03.2020
1133 Clouds 7 1026 89 0 0.45 292 05:25 19.03.2020
1134 Rain 7 1026 89 0 5.54 289 04:51 19.03.2020
1135 Rain 7 1026 89 0 0.45 315 04:22 19.03.2020
1136 Rain 7 1026 87 0 0.89 315 02:33 19.03.2020
1137 Clouds 8 1026 86 0 0.45 315 00:53 19.03.2020
1138 Clouds 9 1025 87 0 0.89 315 00:20 19.03.2020
1139 Clouds 9 1025 85 0 0.45 315 23:45 18.03.2020
1140 Clouds 9 1026 85 0 5.18 274 23:26 18.03.2020
1141 Rain 10 1025 84 0 6.53 283 22:43 18.03.2020
1142 Rain 11 1025 83 0 0.45 292 22:24 18.03.2020
1143 Rain 11 1025 83 0 0.89 315 21:59 18.03.2020
1144 Rain 11 1026 82 0 0.89 292 21:40 18.03.2020
1145 Rain 11 1026 82 0 1.34 292 21:21 18.03.2020
1146 Rain 11 1026 82 0 1.34 292 21:21 18.03.2020
1147 Rain 11 1025 81 0 0.45 292 20:57 18.03.2020
1148 Rain 11 1025 81 0 0.45 292 20:38 18.03.2020
1149 Rain 11 1025 80 0 0.45 292 20:19 18.03.2020
1150 Rain 11 1025 80 0 0.89 292 19:55 18.03.2020
1151 Rain 11 1025 79 0 0.89 292 19:36 18.03.2020
1152 Rain 11 1025 78 0 0.45 270 19:18 18.03.2020
1153 Rain 12 1025 77 0 0.89 0 18:41 18.03.2020
1154 Rain 12 1025 76 0 0.89 315 18:20 18.03.2020
1155 Rain 12 1025 75 0 0.45 315 17:57 18.03.2020
1156 Rain 12 1025 74 0 0.89 292 17:39 18.03.2020
1157 Clouds 12 1025 72 0 1.34 315 17:20 18.03.2020
1158 Clouds 13 1025 72 0 0.45 315 16:54 18.03.2020
1159 Clouds 13 1025 72 0 0.45 247 16:36 18.03.2020
1160 Clouds 13 1025 72 0 0.89 292 16:18 18.03.2020
1161 Clouds 13 1025 71 0 1.34 292 15:44 18.03.2020
1162 Clouds 13 1025 70 0 1.34 315 15:20 18.03.2020
1163 Clouds 13 1025 69 0 1.34 315 14:45 18.03.2020
1164 Clouds 14 1025 67 0 10.91 251 14:22 18.03.2020
1165 Clouds 14 1025 67 0 0.89 202 13:58 18.03.2020
1166 Clouds 13 1025 68 0 2.24 225 13:36 18.03.2020
1167 Clouds 13 1025 68 0 1.79 315 13:18 18.03.2020
1168 Clouds 13 1025 67 0 10.68 248 12:41 18.03.2020
1169 Clouds 14 1025 64 0 0.45 270 12:19 18.03.2020
1170 Clouds 14 1026 63 0 0.45 292 11:40 18.03.2020
1171 Clouds 8 1021 78 0 10.68 248 11:21 18.03.2020
1172 Clouds 12 1026 66 0 1.34 292 10:58 18.03.2020
1173 Clouds 12 1026 66 0 0.89 202 10:39 18.03.2020
1174 Clouds 12 1026 65 0 2.68 225 10:20 18.03.2020
1175 Clouds 11 1026 66 0 1.34 225 09:59 18.03.2020
1176 Clouds 10 1026 67 0 1.79 247 09:39 18.03.2020
1177 Clouds 10 1026 68 0 1.79 225 09:21 18.03.2020
1178 Clouds 9 1026 70 0 2.24 225 08:40 18.03.2020
1179 Clouds 8 1026 72 0 1.79 225 08:21 18.03.2020
1180 Clouds 7 1026 74 0 1.79 225 07:49 18.03.2020
1181 Clouds 7 1026 75 0 1.34 225 07:31 18.03.2020
1182 Clouds 7 1027 76 0 0.89 202 06:54 18.03.2020
1183 Clouds 6 1027 76 0 1.34 225 06:35 18.03.2020
1184 Clouds 7 1027 76 0 1.79 225 05:37 18.03.2020
1185 Clouds 7 1028 77 0 0.89 225 04:29 18.03.2020
1186 Clouds 7 1028 77 0 0.89 225 03:21 18.03.2020
1187 Clouds 8 1028 76 0 0.89 225 02:35 18.03.2020
1188 Clouds 7 1029 77 0 0.89 225 01:42 18.03.2020
1189 Clouds 8 1029 76 0 0.89 225 00:43 18.03.2020
1190 Clouds 8 1029 76 0 0.45 225 00:21 18.03.2020
1191 Clouds 8 1029 75 0 0.89 225 23:42 17.03.2020
1192 Clouds 8 1029 74 0 0.89 225 23:20 17.03.2020
1193 Clouds 9 1030 73 0 0.45 202 22:45 17.03.2020
1194 Clouds 9 1030 73 0 7.31 238 22:26 17.03.2020
1195 Clouds 9 1030 72 0 8.06 245 21:44 17.03.2020
1196 Clouds 9 1030 71 0 8.06 245 21:25 17.03.2020
1197 Clouds 9 1030 72 0 8.06 245 20:58 17.03.2020
1198 Clouds 9 1030 71 0 0.45 270 20:38 17.03.2020
1199 Clouds 9 1030 71 0 0.45 270 20:38 17.03.2020
1200 Clouds 9 1030 71 0 7.07 250 20:19 17.03.2020
1201 Clouds 9 1030 71 0 7.07 250 20:19 17.03.2020
1202 Clouds 10 1030 68 0 0.89 247 19:42 17.03.2020
1203 Clouds 10 1030 67 0 6.75 252 19:20 17.03.2020
1204 Clouds 10 1030 67 0 0.45 247 18:58 17.03.2020
1205 Clouds 10 1029 66 0 0.45 247 18:39 17.03.2020
1206 Clouds 10 1029 66 0 0.45 247 18:21 17.03.2020
1207 Clouds 11 1029 65 0 0.45 292 17:56 17.03.2020
1208 Clouds 11 1029 65 0 0.45 270 17:38 17.03.2020
1209 Clouds 12 1029 64 0 8.55 244 17:19 17.03.2020
1210 Clouds 12 1029 61 0 8.55 244 16:42 17.03.2020
1211 Clouds 12 1029 57 0 0.45 292 16:19 17.03.2020
1212 Clouds 12 1029 60 0 0.89 292 15:47 17.03.2020
1213 Clouds 13 1029 59 0 8.55 244 15:23 17.03.2020
1214 Clouds 13 1029 61 0 8.55 244 14:49 17.03.2020
1215 Clouds 13 1029 59 0 1.34 247 14:30 17.03.2020
1216 Clouds 13 1029 60 0 0.45 247 13:59 17.03.2020
1217 Clouds 14 1029 62 0 7.37 260 13:41 17.03.2020
1218 Clouds 14 1029 63 0 1.79 270 13:22 17.03.2020
1219 Clouds 13 1030 66 0 0.45 315 12:48 17.03.2020
1220 Clouds 13 1030 69 0 0.89 292 12:26 17.03.2020
1221 Clouds 12 1030 71 0 7.69 255 11:59 17.03.2020
1222 Clouds 12 1030 72 0 7.69 255 11:39 17.03.2020
1223 Clouds 12 1030 72 0 7.69 255 11:39 17.03.2020
1224 Clouds 12 1030 73 0 0.89 292 11:21 17.03.2020
1225 Clouds 11 1030 78 0 0.89 225 10:55 17.03.2020
1226 Clouds 10 1030 80 0 0.89 225 10:36 17.03.2020
1227 Clouds 9 1031 82 0 0.89 247 10:18 17.03.2020
1228 Clouds 8 1031 86 0 0.89 225 09:45 17.03.2020
1229 Clouds 7 1031 86 0 0.45 247 09:20 17.03.2020
1230 Clouds 6 1031 86 0 6.14 245 08:58 17.03.2020
1231 Clouds 6 1031 87 0 6.14 245 08:40 17.03.2020
1232 Clear 5 1031 86 0 0.89 225 08:18 17.03.2020
1233 Clear 4 1030 85 0 5.61 236 07:49 17.03.2020
1234 Clear 3 1030 85 0 5.61 236 07:21 17.03.2020
1235 Clear 2 1030 84 0 5.61 236 06:51 17.03.2020
1236 Clear 2 1029 84 0 0.45 225 06:25 17.03.2020
1237 Clear 3 1029 84 0 5.61 236 05:34 17.03.2020
1238 Clear 3 1029 82 0 4.57 234 03:36 17.03.2020
1239 Clear 2 1029 81 0 4.57 234 02:31 17.03.2020
1240 Clear 2 1028 81 0 3.94 255 01:39 17.03.2020
1241 Clear 2 1028 80 0 4.33 259 01:18 17.03.2020
1242 Clear 2 1028 80 0 4.33 259 00:19 17.03.2020
1243 Clear 2 1027 80 0 4.33 259 23:44 16.03.2020
1244 Clear 3 1028 79 0 4.33 259 23:23 16.03.2020
1245 Clear 3 1028 79 0 4.93 267 22:40 16.03.2020
1246 Clear 4 1028 79 0 4.93 267 22:22 16.03.2020
1247 Clear 4 1027 79 0 4.93 267 21:55 16.03.2020
1248 Clear 4 1027 79 0 4.93 267 21:36 16.03.2020
1249 Clear 4 1027 78 0 4.93 267 21:18 16.03.2020
1250 Clear 4 1027 77 0 4.93 267 20:55 16.03.2020
1251 Clear 4 1027 77 0 4.93 267 20:37 16.03.2020
1252 Clear 5 1026 76 0 5.68 259 20:18 16.03.2020
1253 Clear 6 1026 76 0 5.68 259 19:40 16.03.2020
1254 Clear 6 1026 74 0 5.68 259 19:20 16.03.2020
1255 Clear 7 1025 73 0 5.68 259 18:41 16.03.2020
1256 Clear 9 1025 70 0 5.68 259 18:20 16.03.2020
1257 Clear 10 1025 69 0 5.68 259 17:55 16.03.2020
1258 Clear 11 1025 67 0 5.68 259 17:36 16.03.2020
1259 Clear 11 1024 70 0 0.45 315 17:18 16.03.2020
1260 Clear 11 1024 69 0 0.45 337 16:42 16.03.2020
1261 Clear 12 1024 69 0 6.83 265 16:24 16.03.2020
1262 Clear 12 1023 69 0 6.83 265 15:44 16.03.2020
1263 Clear 12 1023 70 0 6.83 265 15:26 16.03.2020
1264 Clear 11 1022 69 0 6.83 265 14:49 16.03.2020
1265 Clear 12 1022 67 0 0.45 337 14:27 16.03.2020
1266 Clouds 14 1022 66 0 0.89 292 13:58 16.03.2020
1267 Clouds 13 1022 67 0 0.89 270 13:40 16.03.2020
1268 Clouds 13 1022 69 0 0.45 292 13:21 16.03.2020
1269 Clouds 11 1021 70 0 8.07 263 12:44 16.03.2020
1270 Clouds 11 1021 69 0 8.07 263 12:23 16.03.2020
1271 Clouds 10 1021 69 0 8.07 263 11:46 16.03.2020
1272 Clouds 9 1021 69 0 0.45 225 11:27 16.03.2020
1273 Clouds 9 1021 69 0 0.45 225 11:27 16.03.2020
1274 Clouds 9 1020 70 0 0.89 225 10:56 16.03.2020
1275 Clouds 9 1020 69 0 1.34 225 10:37 16.03.2020
1276 Clouds 9 1020 68 0 1.34 225 10:18 16.03.2020
1277 Clouds 8 1020 69 0 1.79 225 09:42 16.03.2020
1278 Clouds 7 1020 68 0 1.79 225 09:21 16.03.2020
1279 Clouds 6 1019 68 0 1.79 225 08:52 16.03.2020
1280 Clouds 6 1019 68 0 1.79 202 08:25 16.03.2020
1281 Clouds 6 1019 68 0 1.79 202 08:25 16.03.2020
1282 Clouds 5 1019 68 0 1.34 225 07:48 16.03.2020
1283 Clouds 5 1019 68 0 2.24 225 07:25 16.03.2020
1284 Clouds 5 1018 67 0 1.34 225 06:54 16.03.2020
1285 Clouds 4 1018 67 0 0.89 202 06:25 16.03.2020
1286 Clouds 4 1018 67 0 0.89 202 04:55 16.03.2020
1287 Clouds 4 1018 65 0 0.89 180 02:42 16.03.2020
1288 Clouds 4 1018 64 0 1.34 180 01:20 16.03.2020
1289 Clouds 4 1018 63 0 0.89 180 00:39 16.03.2020
1290 Clouds 5 1018 61 0 2.24 202 23:47 15.03.2020
1291 Clouds 5 1018 61 0 1.34 180 23:20 15.03.2020
1292 Clouds 4 1018 61 0 1.79 180 22:43 15.03.2020
1293 Clouds 4 1018 61 0 1.34 180 22:23 15.03.2020
1294 Clouds 4 1018 61 0 1.34 180 22:23 15.03.2020
1295 Clouds 5 1018 59 0 1.79 180 21:58 15.03.2020
1296 Clouds 5 1018 59 0 1.34 180 21:38 15.03.2020
1297 Clouds 6 1018 58 0 1.34 180 21:18 15.03.2020
1298 Clouds 6 1018 58 0 1.34 180 20:42 15.03.2020
1299 Clouds 6 1019 58 0 0.89 157 20:21 15.03.2020
1300 Clouds 6 1019 59 0 0.89 180 19:58 15.03.2020
1301 Clouds 7 1019 59 0 0.89 180 19:40 15.03.2020
1302 Clouds 7 1019 60 0 1.34 180 19:21 15.03.2020
1303 Clouds 7 1019 61 0 0.89 157 18:56 15.03.2020
1304 Clouds 8 1019 62 0 0.89 157 18:37 15.03.2020
1305 Clouds 8 1019 62 0 0.89 157 18:37 15.03.2020
1306 Clouds 9 1019 61 0 0.89 157 18:19 15.03.2020
1307 Clouds 11 1019 57 0 1.79 180 17:41 15.03.2020
1308 Clouds 11 1019 57 0 1.34 180 17:21 15.03.2020
1309 Clouds 11 1019 59 0 2.24 180 16:59 15.03.2020
1310 Clouds 11 1019 59 0 1.79 180 16:40 15.03.2020
1311 Clouds 11 1019 58 0 2.24 202 16:21 15.03.2020
1312 Clouds 11 1019 58 0 2.68 180 15:56 15.03.2020
1313 Clouds 11 1019 58 0 2.68 180 15:38 15.03.2020
1314 Clouds 12 1020 58 0 3.13 180 15:19 15.03.2020
1315 Clouds 11 1020 58 0 2.68 180 14:40 15.03.2020
1316 Clouds 11 1020 59 0 2.68 202 14:22 15.03.2020
1317 Clouds 11 1020 58 0 3.58 180 13:56 15.03.2020
1318 Clouds 11 1020 59 0 2.24 180 13:38 15.03.2020
1319 Clouds 11 1020 59 0 2.24 180 13:38 15.03.2020
1320 Clouds 11 1021 60 0 2.68 180 13:19 15.03.2020
1321 Clouds 10 1021 60 0 2.24 180 12:41 15.03.2020
1322 Clouds 10 1021 61 0 1.79 180 12:23 15.03.2020
1323 Clouds 9 1022 63 0 2.68 180 11:45 15.03.2020
1324 Clouds 9 1023 63 0 3.13 180 11:26 15.03.2020
1325 Clouds 7 1023 65 0 1.79 180 11:00 15.03.2020
1326 Clouds 7 1023 66 0 2.68 180 10:41 15.03.2020
1327 Clouds 6 1024 66 0 2.68 180 10:23 15.03.2020
1328 Clouds 6 1024 66 0 2.24 180 09:59 15.03.2020
1329 Clouds 5 1024 66 0 2.24 180 09:39 15.03.2020
1330 Clouds 4 1024 68 0 2.24 202 09:20 15.03.2020
1331 Clouds 3 1024 70 0 2.24 180 08:41 15.03.2020
1332 Clouds 2 1024 70 0 1.79 157 08:20 15.03.2020
1333 Clouds 2 1024 71 0 1.34 157 07:50 15.03.2020
1334 Clouds 1 1025 71 0 1.79 180 07:23 15.03.2020
1335 Clouds 1 1025 72 0 1.34 180 06:45 15.03.2020
1336 Clouds 1 1025 72 0 1.79 157 05:50 15.03.2020
1337 Clouds 1 1026 73 0 1.79 180 05:18 15.03.2020
1338 Clouds 1 1026 73 0 1.34 157 04:41 15.03.2020
1339 Clouds 0 1026 74 0 1.79 157 04:23 15.03.2020
1340 Clouds 0 1027 74 0 1.34 135 03:30 15.03.2020
1341 Clouds 1 1028 73 0 0.45 157 02:37 15.03.2020
1342 Clouds 0 1028 74 0 0.89 180 01:34 15.03.2020
1343 Clouds 1 1028 74 0 0.89 157 00:45 15.03.2020
1344 Clouds 1 1028 75 0 1.34 157 00:22 15.03.2020
1345 Clouds 0 1028 76 0 0.89 157 23:42 14.03.2020
1346 Clouds 0 1029 76 0 0.89 157 23:22 14.03.2020
1347 Clouds 0 1029 76 0 0.89 157 22:59 14.03.2020
1348 Clouds 0 1029 76 0 0.89 157 22:41 14.03.2020
1349 Clouds 0 1029 76 0 0.45 135 22:23 14.03.2020
1350 Clouds 0 1029 74 0 0.89 135 21:56 14.03.2020
1351 Clouds 1 1029 73 0 0.89 135 21:36 14.03.2020
1352 Clouds 1 1029 73 0 0.89 135 21:36 14.03.2020
1353 Clouds 1 1029 73 0 0.89 135 21:18 14.03.2020
1354 Clouds 1 1029 73 0 1.34 135 20:58 14.03.2020
1355 Clouds 1 1029 73 0 0.89 135 20:40 14.03.2020
1356 Clear 1 1029 73 0 1.34 157 20:19 14.03.2020
1357 Clear 1 1029 70 0 0.89 135 19:43 14.03.2020
1358 Clear 1 1029 68 0 0.89 135 19:25 14.03.2020
1359 Clear 2 1029 63 0 0.45 135 18:42 14.03.2020
1360 Clear 2 1029 61 0 0.45 135 18:24 14.03.2020
1361 Clear 4 1029 56 0 0.45 135 17:58 14.03.2020
1362 Clear 6 1029 52 0 0.89 135 17:38 14.03.2020
1363 Clear 6 1029 52 0 0.89 135 17:38 14.03.2020
1364 Clear 7 1029 52 0 0.89 135 17:20 14.03.2020
1365 Clear 7 1029 52 0 0.89 135 17:20 14.03.2020
1366 Clear 6 1029 51 0 1.34 135 16:41 14.03.2020
1367 Clear 7 1029 49 0 0.89 135 16:23 14.03.2020
1368 Clear 7 1029 46 0 1.79 135 15:58 14.03.2020
1369 Clear 7 1029 45 0 5.28 135 15:27 14.03.2020
1370 Clear 6 1030 46 0 0.45 67 14:59 14.03.2020
1371 Clear 6 1030 44 0 0.45 45 14:37 14.03.2020
1372 Clear 6 1030 41 0 1.34 45 14:19 14.03.2020
1373 Clear 6 1030 40 0 2.02 75 13:43 14.03.2020
1374 Clear 6 1030 41 0 1.34 45 13:24 14.03.2020
1375 Clear 6 1030 47 0 0.79 62 12:58 14.03.2020
1376 Clear 6 1030 47 0 0.45 45 12:38 14.03.2020
1377 Clear 6 1030 48 0 0.79 62 12:20 14.03.2020
1378 Clear 6 1030 49 0 0.79 62 11:42 14.03.2020
1379 Clear 6 1030 57 0 0.79 62 11:24 14.03.2020
1380 Clear 5 1029 62 0 0.45 22 10:47 14.03.2020
1381 Clear 4 1029 64 0 0.45 45 10:28 14.03.2020
1382 Clear 4 1029 72 0 2.14 349 09:59 14.03.2020
1383 Clear 4 1029 75 0 0.45 22 09:40 14.03.2020
1384 -273 0 0 0 0 0 09:21 14.03.2020
1385 Clear 2 1028 83 0 0.45 337 08:46 14.03.2020
1386 Clear 2 1028 83 0 2.14 349 08:26 14.03.2020
1387 Clear 0 1028 83 0 4.82 325 07:40 14.03.2020
1388 Clear 0 1027 83 0 4.82 325 07:21 14.03.2020
1389 Clear -1 1027 83 0 4.82 325 06:55 14.03.2020
1390 Clear -1 1027 83 0 0.45 315 06:36 14.03.2020
1391 Clear -1 1025 81 0 0.45 292 04:56 14.03.2020
1392 Clear 1 1025 76 0 0.45 247 03:37 14.03.2020
1393 Clear 2 1024 73 0 6.13 327 02:53 14.03.2020
1394 Clouds 3 1023 65 0 9.67 333 01:47 14.03.2020
1395 Clouds 2 1022 75 0 9.54 331 00:34 14.03.2020
1396 Clouds 2 1021 73 0 9.54 331 23:44 13.03.2020
1397 Clouds 2 1021 73 0 9.54 331 23:23 13.03.2020
1398 Clouds 3 1020 77 0 0.89 0 22:46 13.03.2020
1399 Clouds 3 1020 77 0 0.89 0 22:24 13.03.2020
1400 Clouds 3 1019 80 0 1.79 0 21:42 13.03.2020
1401 -273 0 0 0 0 0 21:21 13.03.2020
1402 Clouds 3 1018 81 0 10.9 334 20:56 13.03.2020
1403 Clouds 3 1017 81 0 0.45 0 20:37 13.03.2020
1404 Rain 4 1016 82 0 0.45 315 20:18 13.03.2020
1405 Rain 4 1015 83 0 0.89 292 19:42 13.03.2020
1406 Rain 4 1015 84 0 0.45 67 19:23 13.03.2020
1407 Rain 5 1013 82 0 2.24 270 18:44 13.03.2020
1408 Rain 6 1013 80 0 3.58 292 18:25 13.03.2020
1409 Rain 6 1012 76 0 1.34 315 17:55 13.03.2020
1410 Rain 6 1012 76 0 2.24 292 17:37 13.03.2020
1411 Clouds 6 1011 78 0 1.34 292 17:18 13.03.2020
1412 Clouds 6 1010 78 0 2.24 315 16:40 13.03.2020
1413 Clouds 6 1010 80 0 3.58 337 16:22 13.03.2020
1414 Clouds 7 1010 79 0 2.68 315 15:55 13.03.2020
1415 Clouds 7 1009 79 0 1.79 292 15:37 13.03.2020
1416 Clouds 7 1009 81 0 2.24 292 15:18 13.03.2020
1417 Clouds 7 1008 86 0 3.13 337 14:41 13.03.2020
1418 -273 0 0 0 0 0 14:22 13.03.2020
1419 Rain 6 1007 89 0 1.79 315 13:56 13.03.2020
1420 Rain 6 1007 88 0 1.34 292 13:38 13.03.2020
1421 Rain 6 1006 85 0 1.34 247 13:18 13.03.2020
1422 Rain 6 1006 83 0 2.24 225 12:40 13.03.2020
1423 Rain 6 1006 81 0 1.79 225 12:21 13.03.2020
1424 Rain 7 1006 77 0 2.68 225 11:57 13.03.2020
1425 Rain 7 1007 76 0 1.79 180 11:39 13.03.2020
1426 Rain 7 1007 76 0 1.79 247 11:21 13.03.2020
1427 Rain 7 1007 77 0 2.24 247 10:47 13.03.2020
1428 Rain 7 1007 78 0 1.34 247 10:27 13.03.2020
1429 Rain 7 1007 79 0 1.34 225 09:57 13.03.2020
1430 Rain 7 1007 80 0 2.68 225 09:39 13.03.2020
1431 Rain 7 1008 81 0 2.24 225 09:20 13.03.2020
1432 Rain 6 1008 83 0 1.79 247 08:45 13.03.2020
1433 Rain 6 1008 84 0 0.89 225 08:22 13.03.2020
1434 Clouds 4 1008 86 0 0.89 247 07:49 13.03.2020
1435 Clouds 4 1008 86 0 1.79 225 07:28 13.03.2020
1436 Clouds 3 1008 86 0 1.79 225 06:47 13.03.2020
1437 Clouds 3 1008 86 0 1.34 225 06:28 13.03.2020
1438 Clouds 4 1008 86 0 1.79 225 05:54 13.03.2020
1439 Clouds 3 1008 86 0 0.89 225 05:22 13.03.2020
1440 Clouds 3 1008 86 0 0.45 247 04:37 13.03.2020
1441 Clouds 3 1008 84 0 0.45 225 03:37 13.03.2020
1442 Clouds 3 1009 79 0 0.45 225 01:46 13.03.2020
1443 Clouds 4 1009 78 0 11.76 250 01:19 13.03.2020
1444 Clouds 4 1009 77 0 11.04 247 00:53 13.03.2020
1445 Clouds 4 1009 77 0 1.34 247 00:24 13.03.2020
1446 Clouds 4 1008 77 0 0.45 225 23:55 12.03.2020
1447 Clouds 4 1009 78 0 0.45 247 23:28 12.03.2020
1448 Clear 4 1009 78 0 0.45 225 22:57 12.03.2020
1449 Clear 4 1009 77 0 0.45 225 22:39 12.03.2020
1450 -273 0 0 0 0 0 22:21 12.03.2020
1451 Clear 4 1009 76 0 0.45 225 21:44 12.03.2020
1452 Clear 4 1009 76 0 0.89 225 21:26 12.03.2020
1453 Clear 4 1009 74 0 1.34 225 20:57 12.03.2020
1454 Clear 4 1009 74 0 0.89 225 20:38 12.03.2020
1455 Clear 5 1009 73 0 0.45 270 20:19 12.03.2020
1456 Clear 5 1008 71 0 0.89 337 19:41 12.03.2020
1457 Clear 5 1008 70 0 1.34 270 19:20 12.03.2020
1458 Clear 6 1008 69 0 1.34 292 18:44 12.03.2020
1459 Clear 6 1008 67 0 2.68 292 18:24 12.03.2020
1460 Clear 6 1008 66 0 1.34 292 17:57 12.03.2020
1461 Clear 7 1008 64 0 1.79 292 17:39 12.03.2020
1462 Clear 7 1008 69 0 2.24 292 17:20 12.03.2020
1463 Clear 6 1007 68 0 4.47 337 16:56 12.03.2020
1464 Clear 7 1007 70 0 2.68 315 16:38 12.03.2020
1465 Clear 6 1007 75 0 3.58 315 16:19 12.03.2020
1466 Clear 7 1006 73 0 1.79 270 15:45 12.03.2020
1467 Clear 7 1006 78 0 2.68 315 15:27 12.03.2020
1468 Clear 5 1006 78 0 0.89 292 14:42 12.03.2020
1469 Clear 8 1005 66 0 4.92 315 14:24 12.03.2020
1470 Rain 7 1005 73 0 2.24 270 13:57 12.03.2020
1471 Rain 7 1004 73 0 4.02 292 13:37 12.03.2020
1472 Rain 6 1004 79 0 3.58 270 13:19 12.03.2020
1473 Rain 8 1003 66 0 2.68 292 12:41 12.03.2020
1474 Rain 9 1003 66 0 0.89 157 12:22 12.03.2020
1475 Rain 8 1002 63 0 3.58 270 11:57 12.03.2020
1476 Rain 9 1001 60 0 2.68 270 11:39 12.03.2020
1477 Clouds 8 1001 65 0 1.79 337 11:20 12.03.2020
1478 Clouds 8 1000 69 0 3.58 270 10:59 12.03.2020
1479 Clouds 8 1000 69 0 3.58 315 10:41 12.03.2020
1480 Clouds 8 1000 69 0 1.34 225 10:22 12.03.2020
1481 Clouds 8 1000 80 0 4.02 292 09:48 12.03.2020
1482 Clouds 11 999 78 0 3.13 247 09:28 12.03.2020
1483 Clouds 11 999 78 0 3.13 247 09:28 12.03.2020
1484 Clouds 10 998 85 0 0.89 247 08:54 12.03.2020
1485 Clouds 10 999 86 0 0.89 225 08:36 12.03.2020
1486 Rain 9 999 87 0 0.45 247 08:18 12.03.2020
1487 Rain 9 999 88 0 13.12 236 07:45 12.03.2020
1488 Rain 9 1000 89 0 1.34 202 07:21 12.03.2020
1489 Rain 8 1000 90 0 0.89 225 05:59 12.03.2020
1490 Rain 8 1001 90 0 2.24 225 05:27 12.03.2020
1491 Rain 8 1004 87 0 1.34 202 02:54 12.03.2020
1492 Clouds 7 1006 85 0 0.89 202 01:43 12.03.2020
1493 Clouds 7 1006 85 0 1.34 225 01:21 12.03.2020
1494 Rain 7 1008 84 0 1.34 225 00:42 12.03.2020
1495 Rain 6 1008 82 0 0.89 225 23:57 11.03.2020
1496 Rain 6 1009 81 0 0.89 202 23:28 11.03.2020
1497 Clouds 6 1009 80 0 0.89 202 22:59 11.03.2020
1498 Clouds 6 1010 80 0 0.89 202 22:39 11.03.2020
1499 Clouds 6 1010 79 0 0.89 202 22:21 11.03.2020
1500 Clouds 6 1010 79 0 1.34 202 21:57 11.03.2020
1501 Clouds 6 1010 79 0 0.89 180 21:39 11.03.2020
1502 Clouds 5 1010 79 0 0.89 180 21:21 11.03.2020
1503 Clouds 5 1011 77 0 0.45 180 20:56 11.03.2020
1504 Clouds 6 1011 77 0 0.45 202 20:37 11.03.2020
1505 Clouds 5 1011 75 0 0.45 202 20:19 11.03.2020
1506 Clouds 6 1011 74 0 0.45 247 19:42 11.03.2020
1507 Clouds 6 1012 73 0 0.45 247 19:24 11.03.2020
1508 Clouds 7 1012 70 0 7.12 241 18:57 11.03.2020
1509 Clouds 7 1012 70 0 7.12 241 18:38 11.03.2020
1510 Clouds 8 1012 68 0 0.89 292 18:18 11.03.2020
1511 Clouds 9 1012 66 0 0.45 270 17:55 11.03.2020
1512 Clouds 10 1012 64 0 7.12 241 17:37 11.03.2020
1513 Clear 11 1012 60 0 0.45 270 17:18 11.03.2020
1514 Clear 11 1011 57 0 0.89 292 16:43 11.03.2020
1515 Clear 11 1011 57 0 0.89 292 16:20 11.03.2020
1516 Clear 11 1011 60 0 1.34 292 15:43 11.03.2020
1517 Clear 11 1011 61 0 2.24 292 15:23 11.03.2020
1518 Clear 11 1011 62 0 2.24 270 14:56 11.03.2020
1519 Clear 11 1011 63 0 2.68 315 14:38 11.03.2020
1520 Clear 10 1010 66 0 1.34 292 14:19 11.03.2020
1521 Clear 9 1010 65 0 2.24 292 13:44 11.03.2020
1522 Clear 9 1010 65 0 3.58 315 13:25 11.03.2020
1523 Clear 10 1010 67 0 1.79 292 12:58 11.03.2020
1524 Clear 10 1010 68 0 1.79 337 12:39 11.03.2020
1525 Clear 10 1009 67 0 3.58 292 12:19 11.03.2020
1526 Clear 8 1009 74 0 2.68 292 11:42 11.03.2020
1527 Clear 9 1009 72 0 2.68 292 11:23 11.03.2020
1528 Clear 8 1009 77 0 0.89 292 10:56 11.03.2020
1529 Clear 8 1008 78 0 1.79 270 10:37 11.03.2020
1530 Clear 7 1008 79 0 1.34 292 10:18 11.03.2020
1531 Clear 8 1007 83 0 2.24 315 09:42 11.03.2020
1532 Clear 8 1007 83 0 1.34 247 09:24 11.03.2020
1533 Clear 7 1007 84 0 1.79 292 08:45 11.03.2020
1534 Clear 7 1007 85 0 0.89 270 08:27 11.03.2020
1535 Clouds 6 1006 85 0 1.79 292 07:56 11.03.2020
1536 Clouds 6 1006 85 0 0.89 292 07:37 11.03.2020
1537 Clouds 6 1006 85 0 0.89 292 07:18 11.03.2020
1538 Clouds 7 1005 85 0 1.79 292 06:37 11.03.2020
1539 Clouds 7 1003 84 0 4.47 292 05:33 11.03.2020
1540 Rain 8 1001 91 0 1.34 292 03:59 11.03.2020
1541 Rain 8 1000 91 0 11.57 268 01:59 11.03.2020
1542 Rain 8 1000 91 0 0.89 292 01:26 11.03.2020
1543 Rain 8 999 91 0 1.34 270 00:45 11.03.2020
1544 Rain 8 999 91 0 2.68 292 23:57 10.03.2020
1545 Rain 8 998 91 0 0.89 292 23:39 10.03.2020
1546 Rain 8 998 91 0 1.79 292 23:20 10.03.2020
1547 Rain 9 998 92 0 2.68 315 22:38 10.03.2020
1548 Rain 9 998 93 0 1.34 315 22:20 10.03.2020
1549 Rain 9 997 93 0 0.45 225 21:57 10.03.2020
1550 Rain 9 997 93 0 1.79 247 21:38 10.03.2020
1551 Rain 9 997 93 0 1.79 225 21:20 10.03.2020
1552 Rain 8 998 93 0 2.24 225 20:58 10.03.2020
1553 Rain 8 998 93 0 2.68 225 20:40 10.03.2020
1554 Rain 8 998 93 0 1.79 202 20:18 10.03.2020
1555 Rain 8 999 93 0 1.34 202 19:56 10.03.2020
1556 Rain 8 999 93 0 1.79 225 19:37 10.03.2020
1557 Rain 8 999 93 0 1.79 202 19:19 10.03.2020
1558 Rain 7 1000 92 0 2.24 202 18:44 10.03.2020
1559 Rain 7 1000 92 0 2.24 202 18:26 10.03.2020
1560 Rain 7 1001 92 0 2.68 180 17:57 10.03.2020
1561 Rain 7 1001 91 0 1.79 202 17:39 10.03.2020
1562 Rain 7 1001 91 0 1.34 202 17:21 10.03.2020
1563 Rain 7 1002 91 0 1.79 202 16:39 10.03.2020
1564 Rain 7 1002 90 0 1.79 202 16:19 10.03.2020
1565 Rain 7 1002 90 0 2.24 202 15:57 10.03.2020
1566 Rain 7 1002 90 0 1.79 202 15:39 10.03.2020
1567 Rain 7 1003 90 0 1.34 180 15:19 10.03.2020
1568 Rain 7 1003 89 0 2.24 202 14:54 10.03.2020
1569 Rain 7 1003 88 0 2.68 180 14:36 10.03.2020
1570 Rain 7 1003 88 0 1.34 202 14:18 10.03.2020
1571 Rain 7 1004 86 0 1.79 180 13:42 10.03.2020
1572 Rain 7 1004 85 0 2.68 202 13:24 10.03.2020
1573 Rain 7 1005 85 0 2.68 202 12:42 10.03.2020
1574 Rain 7 1005 85 0 2.24 180 12:21 10.03.2020
1575 Rain 7 1005 85 0 2.68 202 11:59 10.03.2020
1576 Rain 7 1005 85 0 2.24 180 11:41 10.03.2020
1577 Rain 7 1006 85 0 2.68 202 11:22 10.03.2020
1578 Clouds 7 1006 84 0 2.24 202 10:43 10.03.2020
1579 Clouds 7 1007 84 0 2.68 180 10:43 10.03.2020
1580 Clouds 7 1007 85 0 1.79 180 10:23 10.03.2020
1581 Clouds 6 1008 86 0 2.24 202 09:58 10.03.2020
1582 Clouds 6 1008 87 0 1.79 202 09:40 10.03.2020
1583 Clouds 6 1008 89 0 2.24 180 09:19 10.03.2020
1584 Clouds 5 1009 90 0 1.34 180 08:51 10.03.2020
1585 Clouds 4 1009 90 0 1.34 157 08:32 10.03.2020
1586 Clouds 4 1009 91 0 1.34 180 07:51 10.03.2020
1587 Clouds 4 1010 91 0 1.34 180 07:32 10.03.2020
1588 Clouds 3 1010 91 0 0.89 180 06:50 10.03.2020
1589 Clouds 3 1011 91 0 0.89 180 06:31 10.03.2020
1590 Clouds 3 1012 91 0 1.34 180 05:42 10.03.2020
1591 Clouds 3 1012 90 0 0.89 180 04:56 10.03.2020
1592 Clouds 3 1012 90 0 0.89 180 04:25 10.03.2020
1593 Clouds 3 1012 90 0 0.89 180 04:25 10.03.2020
1594 Clouds 3 1013 89 0 0.45 202 02:46 10.03.2020
1595 Clear 3 1014 89 0 0.45 225 01:32 10.03.2020
1596 Clear 4 1014 88 0 0.45 225 00:50 10.03.2020
1597 Clear 4 1014 88 0 0.45 225 00:28 10.03.2020
1598 Clear 4 1015 88 0 0.45 225 23:42 09.03.2020
1599 Clear 4 1015 87 0 0.45 225 23:22 09.03.2020
1600 Clear 5 1014 87 0 0.45 225 22:57 09.03.2020
1601 Clear 6 1014 86 0 0.45 225 22:38 09.03.2020
1602 Clear 6 1014 87 0 0.45 270 22:19 09.03.2020
1603 Clear 6 1015 87 0 0.45 247 21:43 09.03.2020
1604 Clear 6 1015 87 0 0.45 247 21:22 09.03.2020
1605 Clear 6 1014 85 0 0.45 225 20:58 09.03.2020
1606 Clear 6 1014 85 0 0.45 247 20:40 09.03.2020
1607 Clear 6 1014 85 0 0.45 247 20:40 09.03.2020
1608 Clear 7 1014 85 0 6.78 240 20:21 09.03.2020
1609 Clouds 7 1015 85 0 7.48 244 19:56 09.03.2020
1610 Clouds 7 1014 85 0 0.45 247 19:38 09.03.2020
1611 Clouds 7 1014 85 0 0.45 315 19:18 09.03.2020
1612 Clouds 7 1014 83 0 0.45 270 18:55 09.03.2020
1613 Clouds 8 1014 83 0 7.48 244 18:37 09.03.2020
1614 Clouds 8 1014 83 0 7.48 244 18:18 09.03.2020
1615 Clouds 8 1014 83 0 1.79 315 17:55 09.03.2020
1616 Clouds 8 1014 81 0 0.45 315 17:36 09.03.2020
1617 Clouds 9 1014 81 0 0.45 0 17:18 09.03.2020
1618 Clouds 10 1013 80 0 0.45 292 16:42 09.03.2020
1619 Clouds 10 1013 82 0 0.45 292 16:22 09.03.2020
1620 Clouds 9 1013 81 0 7.07 268 15:59 09.03.2020
1621 Clouds 10 1013 80 0 7.07 268 15:40 09.03.2020
1622 Clouds 10 1013 79 0 0.89 315 15:21 09.03.2020
1623 Clouds 10 1013 79 0 0.89 315 15:21 09.03.2020
1624 Clouds 11 1013 79 0 0.45 292 14:59 09.03.2020
1625 Clouds 12 1013 80 0 7.07 268 14:38 09.03.2020
1626 Rain 12 1013 82 0 0.45 292 14:20 09.03.2020
1627 Rain 11 1013 85 0 6.98 263 13:58 09.03.2020
1628 Rain 10 1013 84 0 6.98 263 13:39 09.03.2020
1629 Rain 10 1013 84 0 0.45 225 13:20 09.03.2020
1630 Clouds 10 1013 84 0 7.18 261 12:58 09.03.2020
1631 Clouds 10 1013 85 0 7.18 261 12:39 09.03.2020
1632 Clouds 9 1013 86 0 7.18 261 12:18 09.03.2020
1633 Clouds 9 1013 87 0 7.18 261 11:40 09.03.2020
1634 Rain 10 1012 88 0 0.45 202 11:20 09.03.2020
1635 Rain 8 1012 89 0 0.45 225 10:57 09.03.2020
1636 Rain 8 1012 88 0 0.89 202 10:39 09.03.2020
1637 Rain 8 1012 88 0 0.89 202 10:19 09.03.2020
1638 Rain 8 1012 88 0 0.89 225 09:42 09.03.2020
1639 Rain 7 1012 88 0 0.89 225 09:24 09.03.2020
1640 Rain 7 1012 88 0 0.89 180 08:47 09.03.2020
1641 Rain 7 1012 88 0 0.89 180 08:29 09.03.2020
1642 Rain 7 1012 89 0 0.45 180 07:58 09.03.2020
1643 Rain 6 1012 89 0 0.89 157 07:37 09.03.2020
1644 Rain 6 1012 89 0 0.45 135 07:18 09.03.2020
1645 Rain 6 1012 89 0 0.45 180 06:40 09.03.2020
1646 Rain 6 1012 89 0 0.45 180 06:21 09.03.2020
1647 Rain 6 1012 89 0 0.45 157 05:45 09.03.2020
1648 Rain 6 1012 88 0 0.45 157 04:59 09.03.2020
1649 Rain 6 1012 88 0 0.45 157 04:40 09.03.2020
1650 Rain 6 1012 88 0 0.45 157 04:21 09.03.2020
1651 Rain 6 1013 87 0 0.89 157 02:55 09.03.2020
1652 Clouds 6 1013 87 0 0.45 180 00:46 09.03.2020
1653 Clouds 6 1013 87 0 0.45 180 00:27 09.03.2020
1654 Clouds 6 1013 87 0 0.89 180 23:59 08.03.2020
1655 Clouds 7 1013 86 0 0.89 180 23:41 08.03.2020
1656 Clouds 7 1013 86 0 0.89 180 23:21 08.03.2020
1657 Clouds 7 1014 86 0 1.34 202 22:55 08.03.2020
1658 Clouds 7 1013 85 0 0.89 180 22:37 08.03.2020
1659 Clouds 7 1014 85 0 0.89 180 22:18 08.03.2020
1660 Clouds 7 1014 85 0 0.89 180 21:42 08.03.2020
1661 Clouds 7 1014 85 0 1.79 180 21:23 08.03.2020
1662 Clouds 7 1014 85 0 1.79 202 20:59 08.03.2020
1663 Clouds 7 1014 84 0 1.34 202 20:39 08.03.2020
1664 Clouds 7 1014 84 0 1.34 202 20:39 08.03.2020
1665 Clouds 7 1014 84 0 1.34 180 20:20 08.03.2020
1666 Clouds 7 1014 83 0 1.34 180 19:41 08.03.2020
1667 Clouds 7 1014 83 0 0.89 180 19:21 08.03.2020
1668 Clouds 7 1015 83 0 1.79 180 18:58 08.03.2020
1669 Clouds 8 1014 82 0 2.24 180 18:40 08.03.2020
1670 Clouds 8 1014 82 0 1.79 180 18:21 08.03.2020
1671 Clouds 8 1014 81 0 1.79 202 17:55 08.03.2020
1672 Clouds 8 1014 81 0 1.34 202 17:37 08.03.2020
1673 Clouds 8 1014 81 0 1.34 202 17:37 08.03.2020
1674 Clouds 8 1014 81 0 1.79 180 17:18 08.03.2020
1675 Clouds 9 1014 80 0 1.79 180 16:42 08.03.2020
1676 Clouds 9 1014 80 0 1.79 180 16:23 08.03.2020
1677 Clouds 9 1014 79 0 1.34 180 15:56 08.03.2020
1678 Clouds 9 1014 78 0 1.79 180 15:37 08.03.2020
1679 Clouds 10 1015 78 0 1.79 180 15:18 08.03.2020
1680 Clouds 10 1015 77 0 1.79 202 14:40 08.03.2020
1681 Clouds 10 1015 76 0 2.68 180 14:21 08.03.2020
1682 Clouds 9 1016 78 0 1.34 180 13:57 08.03.2020
1683 Clouds 9 1016 78 0 2.24 180 13:38 08.03.2020
1684 Clouds 9 1016 79 0 1.79 202 13:19 08.03.2020
1685 Clouds 8 1017 79 0 1.79 180 12:39 08.03.2020
1686 Clouds 8 1018 79 0 2.24 202 12:20 08.03.2020
1687 Clouds 7 1018 80 0 1.79 202 11:54 08.03.2020
1688 Clouds 7 1018 81 0 2.24 180 11:36 08.03.2020
1689 Clouds 7 1018 83 0 2.24 180 11:18 08.03.2020
1690 Clouds 6 1019 85 0 1.79 202 10:41 08.03.2020
1691 Clouds 5 1019 86 0 1.79 202 10:23 08.03.2020
1692 Clouds 4 1019 89 0 1.34 202 09:43 08.03.2020
1693 Clouds 3 1019 89 0 0.89 180 09:24 08.03.2020
1694 Clouds 3 1019 90 0 0.89 157 08:54 08.03.2020
1695 Clouds 2 1019 90 0 0.89 157 08:36 08.03.2020
1696 Clouds 2 1019 90 0 0.89 180 08:18 08.03.2020
1697 Clouds 1 1019 90 0 0.89 180 07:41 08.03.2020
1698 Clouds 1 1020 90 0 1.34 180 07:22 08.03.2020
1699 Clouds 1 1020 90 0 0.89 180 06:42 08.03.2020
1700 Clouds 1 1020 90 0 0.89 180 06:22 08.03.2020
1701 Clear 1 1020 90 0 0.45 180 05:19 08.03.2020
1702 Clear 0 1021 90 0 0.45 180 03:51 08.03.2020
1703 Clear 0 1021 89 0 7.43 197 02:29 08.03.2020
1704 Clear 1 1022 89 0 5.89 219 01:23 08.03.2020
1705 Clear 1 1022 89 0 5.89 219 01:23 08.03.2020
1706 Clouds 1 1022 89 0 5.49 221 00:49 08.03.2020
1707 Clouds 1 1022 89 0 5.49 221 00:26 08.03.2020
1708 Clouds 1 1022 90 0 5.49 221 23:44 07.03.2020
1709 Clouds 1 1022 89 0 5.49 221 23:23 07.03.2020
1710 Clouds 2 1021 89 0 4.89 259 22:41 07.03.2020
1711 Clouds 2 1021 89 0 4.89 259 22:22 07.03.2020
1712 Clouds 3 1021 89 0 4.89 259 21:49 07.03.2020
1713 Clouds 3 1021 89 0 4.89 259 21:29 07.03.2020
1714 Clouds 4 1021 89 0 0.45 292 20:57 07.03.2020
1715 Clouds 4 1021 89 0 0.45 292 20:39 07.03.2020
1716 Clouds 4 1021 89 0 0.45 292 20:19 07.03.2020
1717 Clouds 4 1021 89 0 0.45 292 20:19 07.03.2020
1718 Clouds 4 1021 89 0 0.45 292 19:41 07.03.2020
1719 Clouds 4 1021 89 0 6.29 281 19:22 07.03.2020
1720 Clouds 4 1020 89 0 0.89 292 18:47 07.03.2020
1721 Clouds 5 1020 89 0 0.89 292 18:28 07.03.2020
1722 Clouds 5 1019 88 0 0.89 315 17:59 07.03.2020
1723 Clouds 5 1019 87 0 0.45 315 17:40 07.03.2020
1724 Clouds 5 1019 87 0 0.45 315 17:40 07.03.2020
1725 Clouds 5 1019 86 0 1.34 315 17:19 07.03.2020
1726 Clouds 6 1018 87 0 0.89 292 16:55 07.03.2020
1727 Clouds 6 1018 88 0 3.71 303 16:36 07.03.2020
1728 Clouds 6 1018 88 0 0.45 315 16:18 07.03.2020
1729 Clouds 6 1017 89 0 0.45 315 15:41 07.03.2020
1730 Clouds 6 1017 89 0 3.71 303 15:22 07.03.2020
1731 Clouds 6 1017 89 0 0.45 337 14:59 07.03.2020
1732 Clouds 6 1016 89 0 0.45 315 14:41 07.03.2020
1733 Clouds 6 1016 89 0 0.89 0 14:23 07.03.2020
1734 Clouds 6 1015 90 0 7.27 329 13:42 07.03.2020
1735 Clouds 6 1015 90 0 7.27 329 13:21 07.03.2020
1736 Clouds 6 1015 90 0 7.48 319 12:59 07.03.2020
1737 Clouds 5 1014 91 0 0.45 292 12:38 07.03.2020
1738 Clouds 5 1014 91 0 7.48 319 12:19 07.03.2020
1739 Clouds 5 1014 91 0 0.89 247 11:44 07.03.2020
1740 Clouds 5 1013 91 0 7.48 319 11:24 07.03.2020
1741 Rain 5 1013 91 0 0.89 0 10:59 07.03.2020
1742 Rain 5 1013 91 0 0.45 0 10:38 07.03.2020
1743 Rain 5 1012 91 0 8.76 343 10:19 07.03.2020
1744 Rain 4 1011 92 0 0.45 45 09:41 07.03.2020
1745 Rain 4 1011 92 0 0.89 45 09:20 07.03.2020
1746 Rain 4 1011 92 0 0.89 45 08:59 07.03.2020
1747 Rain 4 1010 92 0 0.45 337 08:41 07.03.2020
1748 Rain 4 1010 92 0 8.79 352 08:20 07.03.2020
1749 Rain 4 1009 92 0 8.89 352 07:47 07.03.2020
1750 Rain 4 1009 92 0 0.45 22 07:22 07.03.2020
1751 Rain 4 1008 92 0 8.89 352 06:52 07.03.2020
1752 Rain 4 1008 92 0 8.89 352 06:28 07.03.2020
1753 Rain 4 1007 92 0 8.89 352 05:45 07.03.2020
1754 Rain 4 1006 92 0 8.62 11 04:25 07.03.2020
1755 Rain 3 1005 92 0 8.62 11 02:46 07.03.2020
1756 Rain 4 1005 92 0 0.45 45 02:23 07.03.2020
1757 Rain 4 1004 91 0 1.34 45 01:23 07.03.2020
1758 Rain 4 1004 91 0 0.89 45 00:37 07.03.2020
1759 Rain 4 1003 91 0 0.45 45 00:19 07.03.2020
1760 Rain 4 1003 91 0 0.89 45 23:43 06.03.2020
1761 Rain 4 1003 91 0 0.45 45 23:24 06.03.2020
1762 Rain 4 1003 90 0 8.61 48 22:47 06.03.2020
1763 Rain 4 1003 90 0 8.61 48 22:21 06.03.2020
1764 Rain 4 1002 90 0 8.61 48 21:54 06.03.2020
1765 Rain 4 1002 90 0 8.61 48 21:36 06.03.2020
1766 Rain 4 1002 90 0 8.61 48 21:18 06.03.2020
1767 Rain 4 1002 89 0 8.61 48 20:37 06.03.2020
1768 Rain 4 1002 89 0 9.58 69 20:19 06.03.2020
1769 Rain 4 1002 89 0 0.89 90 19:44 06.03.2020
1770 Rain 4 1001 89 0 9.58 69 19:26 06.03.2020
1771 Rain 4 1001 88 0 0.45 112 18:44 06.03.2020
1772 Rain 4 1001 88 0 0.89 112 18:21 06.03.2020
1773 Rain 4 1001 88 0 0.45 90 17:58 06.03.2020
1774 Rain 4 1000 88 0 9.58 69 17:40 06.03.2020
1775 Rain 4 1000 88 0 9.58 69 17:21 06.03.2020
1776 Rain 4 1000 87 0 10.9 86 16:58 06.03.2020
1777 Rain 4 1000 87 0 0.89 90 16:40 06.03.2020
1778 Rain 4 1000 87 0 10.9 86 16:19 06.03.2020
1779 Rain 4 1000 86 0 0.89 90 15:44 06.03.2020
1780 Rain 5 999 86 0 0.89 112 15:24 06.03.2020
1781 Rain 4 999 86 0 0.45 112 14:45 06.03.2020
1782 Rain 4 999 86 0 10.9 86 14:24 06.03.2020
1783 Rain 4 999 86 0 0.45 112 13:59 06.03.2020
1784 Rain 4 999 86 0 9.87 94 13:40 06.03.2020
1785 Rain 4 999 86 0 10.53 95 13:21 06.03.2020
1786 Rain 4 999 87 0 0.89 112 12:56 06.03.2020
1787 Rain 4 999 87 0 0.45 67 12:37 06.03.2020
1788 Rain 4 999 87 0 1.79 112 12:18 06.03.2020
1789 Rain 4 999 87 0 1.34 112 11:56 06.03.2020
1790 Rain 4 999 86 0 1.34 135 11:37 06.03.2020
1791 Clouds 4 999 85 0 0.89 112 11:19 06.03.2020
1792 Clouds 4 999 82 0 0.89 112 10:38 06.03.2020
1793 Clouds 5 999 81 0 0.89 112 10:20 06.03.2020
1794 Clouds 4 999 81 0 1.34 135 09:54 06.03.2020
1795 Clouds 4 999 81 0 0.45 112 09:36 06.03.2020
1796 Clouds 4 999 82 0 8.59 101 09:18 06.03.2020
1797 Clouds 4 999 83 0 1.34 112 08:41 06.03.2020
1798 Clouds 4 999 83 0 1.79 112 08:23 06.03.2020
1799 Clouds 3 999 83 0 0.89 135 07:47 06.03.2020
1800 Clouds 3 998 83 0 0.89 135 07:26 06.03.2020
1801 Clouds 3 999 84 0 1.79 135 06:53 06.03.2020
1802 Clouds 3 998 84 0 0.45 112 06:34 06.03.2020
1803 Clouds 3 998 85 0 0.45 112 05:42 06.03.2020
1804 Clouds 3 999 85 0 1.79 112 05:21 06.03.2020
1805 Clouds 3 999 85 0 1.79 112 04:53 06.03.2020
1806 Clouds 3 1000 87 0 0.89 112 01:58 06.03.2020
1807 Clouds 3 1000 87 0 0.89 112 01:38 06.03.2020
1808 Clouds 3 1001 87 0 0.45 112 01:19 06.03.2020
1809 Clouds 3 1001 87 0 0.89 135 00:32 06.03.2020
1810 Clouds 3 1001 87 0 0.89 112 23:50 05.03.2020
1811 Clouds 3 1002 87 0 0.45 135 23:29 05.03.2020
1812 Clouds 3 1002 86 0 0.45 135 22:58 05.03.2020
1813 Clouds 3 1003 86 0 0.45 112 22:39 05.03.2020
1814 Clouds 4 1003 86 0 0.45 112 22:21 05.03.2020
1815 Clouds 4 1003 86 0 0.45 112 21:57 05.03.2020
1816 Clouds 4 1003 87 0 0.45 135 21:38 05.03.2020
1817 Clouds 4 1004 87 0 0.89 135 21:20 05.03.2020
1818 Clouds 4 1004 88 0 0.89 135 20:57 05.03.2020
1819 Clouds 4 1004 88 0 0.45 112 20:38 05.03.2020
1820 Clouds 4 1004 88 0 0.89 135 20:19 05.03.2020
1821 Rain 4 1004 88 0 0.89 135 19:56 05.03.2020
1822 Rain 4 1004 88 0 0.89 135 19:38 05.03.2020
1823 Rain 4 1004 87 0 0.89 112 19:18 05.03.2020
1824 Rain 4 1004 86 0 0.89 112 18:54 05.03.2020
1825 Rain 4 1004 85 0 0.45 135 18:36 05.03.2020
1826 Rain 5 1004 84 0 0.89 112 18:18 05.03.2020
1827 Rain 7 1004 82 0 6.9 107 17:41 05.03.2020
1828 Rain 7 1005 83 0 0.45 112 17:22 05.03.2020
1829 Rain 8 1005 85 0 4.7 93 16:57 05.03.2020
1830 Rain 8 1005 86 0 0.45 112 16:38 05.03.2020
1831 Rain 7 1005 87 0 4.7 93 16:19 05.03.2020
1832 Rain 6 1005 88 0 4.7 93 15:45 05.03.2020
1833 Rain 6 1006 89 0 4.7 93 15:23 05.03.2020
1834 Rain 5 1006 90 0 0.45 45 14:59 05.03.2020
1835 Rain 6 1001 76 0 4.7 93 14:40 05.03.2020
1836 Rain 5 1007 86 0 4.7 93 14:21 05.03.2020
1837 Clouds 7 1007 80 0 1.37 124 13:56 05.03.2020
1838 Clouds 9 1007 80 0 1.37 124 13:37 05.03.2020
1839 Clouds 9 1007 81 0 0.45 157 13:19 05.03.2020
1840 Clouds 8 1008 85 0 1.07 135 12:41 05.03.2020
1841 Clouds 8 1008 86 0 1.07 135 12:21 05.03.2020
1842 Clouds 8 1008 88 0 0.89 180 11:57 05.03.2020
1843 Clouds 8 1008 88 0 0.89 180 11:57 05.03.2020
1844 Clouds 7 1009 88 0 0.89 180 11:37 05.03.2020
1845 Clouds 7 1009 90 0 0.45 157 11:19 05.03.2020
1846 Clouds 6 1009 90 0 0.45 202 10:57 05.03.2020
1847 Clouds 5 1009 90 0 0.45 180 10:39 05.03.2020
1848 Clouds 4 1009 90 0 3.34 196 10:21 05.03.2020
1849 Clouds 4 1010 90 0 3.34 196 09:47 05.03.2020
1850 Clouds 3 1010 90 0 3.34 196 09:28 05.03.2020
1851 Clouds 3 1010 90 0 3.34 196 09:28 05.03.2020
1852 Clouds 3 1010 90 0 0.45 180 08:59 05.03.2020
1853 Clouds 2 1010 90 0 0.89 202 08:41 05.03.2020
1854 Clouds 2 1010 90 0 0.45 225 08:22 05.03.2020
1855 Clouds 1 1010 89 0 0.45 225 07:42 05.03.2020
1856 Clouds 1 1010 89 0 0.45 225 07:42 05.03.2020
1857 Clouds 1 1010 89 0 4.3 214 07:21 05.03.2020
1858 Clouds 1 1010 89 0 4.3 214 06:44 05.03.2020
1859 Clouds 1 1010 89 0 4.3 214 06:44 05.03.2020
1860 Clouds 1 1010 89 0 4.3 214 06:20 05.03.2020
1861 Clouds 2 1010 89 0 0.45 225 05:35 05.03.2020
1862 Clouds 3 1011 89 0 0.45 202 04:24 05.03.2020
1863 Clouds 3 1011 88 0 0.45 202 03:58 05.03.2020
1864 Clouds 3 1011 88 0 0.45 202 02:41 05.03.2020
1865 Clouds 3 1011 88 0 0.45 202 01:28 05.03.2020
1866 Clear 3 1012 87 0 0.45 202 00:50 05.03.2020
1867 Clear 3 1011 87 0 0.45 225 23:58 04.03.2020
1868 Clear 3 1011 87 0 0.45 225 23:58 04.03.2020
1869 Clear 3 1011 87 0 0.45 225 23:40 04.03.2020
1870 Clear 3 1012 87 0 0.45 225 23:21 04.03.2020
1871 Clear 3 1012 87 0 5.88 214 22:56 04.03.2020
1872 Clear 3 1012 86 0 0.45 225 22:37 04.03.2020
1873 Clear 3 1012 86 0 0.45 225 22:19 04.03.2020
1874 Clear 3 1012 86 0 5.88 214 21:56 04.03.2020
1875 Clear 3 1012 85 0 5.88 214 21:37 04.03.2020
1876 Clear 3 1012 85 0 5.88 214 21:18 04.03.2020
1877 Clear 3 1012 84 0 5.88 214 20:40 04.03.2020
1878 Clouds 4 1012 84 0 5.61 215 20:22 04.03.2020
1879 Clear 4 1012 84 0 0.45 225 19:58 04.03.2020
1880 Clear 4 1012 84 0 0.45 225 19:58 04.03.2020
1881 Clear 4 1012 84 0 0.45 225 19:39 04.03.2020
1882 Clear 4 1012 83 0 4.63 236 19:21 04.03.2020
1883 Clear 5 1012 82 0 4.63 236 18:42 04.03.2020
1884 Clear 5 1012 82 0 4.63 236 18:42 04.03.2020
1885 Clear 6 1012 82 0 4.63 236 18:24 04.03.2020
1886 Clear 6 1012 82 0 4.63 236 17:59 04.03.2020
1887 Clear 6 1012 81 0 0.45 247 17:39 04.03.2020
1888 Clear 6 1012 81 0 0.45 247 17:20 04.03.2020
1889 Clear 6 1012 80 0 6 262 16:57 04.03.2020
1890 Clear 7 1012 79 0 6 262 16:38 04.03.2020
1891 Clear 7 1012 79 0 6 262 16:19 04.03.2020
1892 Clear 7 1012 80 0 0.89 247 15:45 04.03.2020
1893 Clear 7 1012 79 0 0.45 315 15:27 04.03.2020
1894 Clear 7 1012 79 0 0.45 315 15:27 04.03.2020
1895 Clear 5 1007 83 0 6 262 14:59 04.03.2020
1896 Clear 5 1007 83 0 6 262 14:59 04.03.2020
1897 Clear 8 1012 78 0 0.45 292 14:41 04.03.2020
1898 Rain 8 1012 77 0 0.45 337 14:20 04.03.2020
1899 Rain 8 1011 81 0 6.69 261 13:58 04.03.2020
1900 Rain 8 1011 81 0 0.45 225 13:39 04.03.2020
1901 Rain 8 1012 81 0 0.89 225 13:21 04.03.2020
1902 Rain 8 1012 84 0 0.45 247 12:56 04.03.2020
1903 Rain 7 1012 84 0 1.34 225 12:38 04.03.2020
1904 Rain 7 1012 86 0 0.89 225 12:19 04.03.2020
1905 Rain 6 1012 87 0 6.99 261 11:54 04.03.2020
1906 Rain 6 1012 87 0 1.34 225 11:36 04.03.2020
1907 Clouds 6 1012 87 0 0.45 292 11:18 04.03.2020
1908 Clouds 5 1012 90 0 7.22 257 10:41 04.03.2020
1909 Clouds 5 1012 91 0 7.22 257 10:22 04.03.2020
1910 Clouds 4 1012 92 0 7.22 257 09:55 04.03.2020
1911 Clouds 4 1012 92 0 0.45 247 09:37 04.03.2020
1912 Clouds 3 1012 92 0 0.89 247 09:18 04.03.2020
1913 Clouds 3 1012 93 0 7.22 257 08:41 04.03.2020
1914 Clouds 2 1011 93 0 0.45 247 08:22 04.03.2020
1915 Clouds 2 1011 92 0 0.89 247 07:47 04.03.2020
1916 Clouds 2 1011 92 0 0.89 270 07:28 04.03.2020
1917 Clouds 2 1011 92 0 7.29 266 06:49 04.03.2020
1918 Clouds 2 1010 92 0 0.45 292 06:26 04.03.2020
1919 Clouds 2 1010 92 0 0.89 292 05:57 04.03.2020
1920 Clouds 2 1010 92 0 0.89 292 05:21 04.03.2020
1921 Clouds 2 1009 91 0 8.03 282 03:52 04.03.2020
1922 Clouds 2 1009 91 0 0.45 270 03:33 04.03.2020
1923 Clouds 3 1009 91 0 8.03 282 02:58 04.03.2020
1924 Clouds 3 1009 91 0 0.89 292 02:26 04.03.2020
1925 Clouds 3 1008 91 0 0.45 292 01:56 04.03.2020
1926 Clouds 3 1008 91 0 0.89 292 01:31 04.03.2020
1927 Clouds 3 1008 91 0 0.89 292 00:41 04.03.2020
1928 Clouds 4 1008 91 0 0.89 292 00:21 04.03.2020
1929 Clouds 4 1007 92 0 1.34 315 23:42 03.03.2020
1930 Clouds 4 1007 92 0 1.34 315 23:23 03.03.2020
1931 Rain 4 1007 91 0 1.34 292 22:56 03.03.2020
1932 Rain 4 1007 91 0 1.79 315 22:37 03.03.2020
1933 Rain 4 1007 91 0 1.34 292 22:19 03.03.2020
1934 Rain 4 1006 91 0 1.34 315 21:43 03.03.2020
1935 Rain 4 1006 91 0 1.34 315 21:22 03.03.2020
1936 Rain 5 1006 91 0 1.79 337 20:59 03.03.2020
1937 Rain 5 1006 91 0 1.79 315 20:39 03.03.2020
1938 Clouds 5 1005 91 0 1.79 315 20:19 03.03.2020
1939 Clouds 5 1005 90 0 0.45 315 19:56 03.03.2020
1940 Clouds 5 1005 90 0 4.25 309 19:37 03.03.2020
1941 Clouds 5 1005 90 0 4.25 309 19:37 03.03.2020
1942 Clouds 5 1005 90 0 4.25 309 19:37 03.03.2020
1943 Clouds 5 1005 90 0 0.45 292 19:19 03.03.2020
1944 Clouds 5 1005 89 0 4.25 309 18:57 03.03.2020
1945 Clouds 6 1005 89 0 0.45 315 18:39 03.03.2020
1946 Clouds 6 1004 88 0 4.25 309 18:19 03.03.2020
1947 Clouds 6 1004 88 0 4.25 309 18:19 03.03.2020
1948 Clouds 6 1004 88 0 3.35 317 17:55 03.03.2020
1949 Clouds 6 1004 88 0 3.35 317 17:37 03.03.2020
1950 Clouds 6 1004 87 0 2 1 17:18 03.03.2020
1951 Clouds 6 1003 87 0 2.11 351 16:55 03.03.2020
1952 Clouds 6 1003 87 0 2.11 351 16:36 03.03.2020
1953 Clouds 6 1003 87 0 2 1 16:18 03.03.2020
1954 Clouds 6 1003 87 0 2.11 351 15:43 03.03.2020
1955 Clouds 6 1002 87 0 2 1 15:21 03.03.2020
1956 Clouds 6 1002 89 0 2 1 14:55 03.03.2020
1957 Clouds 6 1002 89 0 2 1 14:37 03.03.2020
1958 Clouds 6 1002 89 0 1.97 29 14:18 03.03.2020
1959 Clouds 6 1002 89 0 1.97 29 13:42 03.03.2020
1960 Clouds 6 1002 89 0 0.45 45 13:24 03.03.2020
1961 Clouds 6 1002 90 0 1.97 29 12:55 03.03.2020
1962 Clouds 6 1002 90 0 1.97 29 12:37 03.03.2020
1963 Clouds 5 1002 91 0 0.45 0 12:19 03.03.2020
1964 Clouds 5 1002 91 0 0.45 45 11:55 03.03.2020
1965 Clouds 5 1002 91 0 1.97 29 11:37 03.03.2020
1966 Clouds 5 1002 91 0 2.61 93 11:18 03.03.2020
1967 Clouds 6 1002 91 0 2.61 93 10:54 03.03.2020
1968 Clouds 5 1002 91 0 0.45 135 10:36 03.03.2020
1969 Clouds 5 1002 92 0 0.45 135 10:18 03.03.2020
1970 Clouds 5 1002 92 0 0.45 135 10:18 03.03.2020
1971 Clouds 4 1002 92 0 0.45 135 09:41 03.03.2020
1972 Clouds 4 1002 92 0 0.45 135 09:21 03.03.2020
1973 Clouds 3 1002 91 0 2.61 93 08:42 03.03.2020
1974 Clouds 3 1002 91 0 0.45 135 08:22 03.03.2020
1975 Clouds 3 1001 91 0 2.94 95 07:56 03.03.2020
1976 Clouds 3 1001 91 0 2.94 95 07:56 03.03.2020
1977 Clouds 3 1001 91 0 2.94 95 07:38 03.03.2020
1978 Clouds 3 1001 91 0 0.45 112 07:19 03.03.2020
1979 Clouds 3 1002 91 0 0.45 112 06:40 03.03.2020
1980 Clouds 3 1002 91 0 0.45 135 06:21 03.03.2020
1981 Clouds 3 1001 91 0 0.45 135 05:43 03.03.2020
1982 Clouds 3 1001 91 0 5.11 109 04:56 03.03.2020
1983 Clouds 2 1000 90 0 5.11 109 03:21 03.03.2020
1984 Clouds 3 1000 89 0 3.75 118 01:35 03.03.2020
1985 Clouds 3 1000 89 0 3.65 104 00:46 03.03.2020
1986 Clouds 3 1000 89 0 3.65 104 00:46 03.03.2020
1987 Clouds 3 1000 89 0 3.65 104 00:24 03.03.2020
1988 Clouds 3 1000 89 0 3.65 104 23:51 02.03.2020
1989 Clouds 3 1000 89 0 3.65 104 23:23 02.03.2020
1990 Clouds 3 1000 89 0 3.93 122 22:58 02.03.2020
1991 Clouds 3 1000 89 0 3.93 122 22:58 02.03.2020
1992 Clouds 3 1000 89 0 3.93 122 22:39 02.03.2020
1993 Clouds 3 1000 89 0 0.45 135 22:20 02.03.2020
1994 Clouds 3 1000 88 0 3.93 122 21:58 02.03.2020
1995 Clouds 3 1000 88 0 0.45 135 21:39 02.03.2020
1996 Clouds 3 1000 88 0 3.93 122 21:21 02.03.2020
1997 Clouds 3 1000 88 0 0.45 135 20:58 02.03.2020
1998 Clouds 3 1000 87 0 0.45 135 20:38 02.03.2020
1999 Clouds 3 1000 87 0 0.45 135 20:20 02.03.2020
2000 Clouds 3 1000 87 0 0.45 135 20:20 02.03.2020
2001 Clouds 3 999 87 0 3.36 96 19:55 02.03.2020
2002 Clouds 3 999 86 0 0.45 135 19:37 02.03.2020
2003 Clouds 3 999 86 0 0.45 135 19:18 02.03.2020
2004 Clouds 4 999 85 0 0.45 135 18:44 02.03.2020
2005 Clouds 5 999 83 0 0.45 135 18:20 02.03.2020
2006 Clouds 6 998 81 0 0.45 135 17:59 02.03.2020
2007 Clouds 6 998 81 0 3.36 96 17:40 02.03.2020
2008 Clouds 7 998 80 0 3.36 96 17:21 02.03.2020
2009 Clouds 8 997 80 0 1.87 19 16:56 02.03.2020
2010 Clouds 8 998 81 0 1.87 19 16:38 02.03.2020
2011 Clouds 8 998 81 0 1.87 19 16:20 02.03.2020
2012 Clouds 8 997 81 0 1.87 19 15:44 02.03.2020
2013 Clouds 5 992 86 0 1.87 19 15:20 02.03.2020
2014 Clouds 7 997 81 0 1.87 19 14:56 02.03.2020
2015 Clouds 8 998 81 0 1.87 19 14:37 02.03.2020
2016 Clouds 8 997 83 0 2.93 271 14:18 02.03.2020
2017 Clouds 7 998 82 0 2.93 271 13:40 02.03.2020
2018 Rain 7 998 82 0 0.45 22 13:19 02.03.2020
2019 Rain 7 998 86 0 0.55 290 12:57 02.03.2020
2020 Rain 7 998 86 0 0.55 290 12:57 02.03.2020
2021 Rain 7 998 87 0 0.55 290 12:39 02.03.2020
2022 Rain 6 998 89 0 0.55 290 12:18 02.03.2020
2023 Rain 5 997 91 0 0.45 22 11:38 02.03.2020
2024 Rain 5 997 91 0 2.51 279 11:19 02.03.2020
2025 Rain 5 997 90 0 2.51 279 10:55 02.03.2020
2026 Rain 5 997 90 0 2.51 279 10:37 02.03.2020
2027 Rain 4 997 90 0 2.51 279 10:18 02.03.2020
2028 Rain 4 997 90 0 2.51 279 09:47 02.03.2020
2029 Rain 4 997 90 0 2.51 279 09:28 02.03.2020
2030 Rain 4 997 90 0 2.51 279 08:48 02.03.2020
2031 Rain 4 996 90 0 2.51 279 08:22 02.03.2020
2032 Rain 4 996 89 0 3.3 203 07:51 02.03.2020
2033 Rain 3 996 88 0 3.3 203 07:31 02.03.2020
2034 Rain 3 996 88 0 3.3 203 06:50 02.03.2020
2035 Rain 3 996 88 0 3.3 203 06:26 02.03.2020
2036 Rain 3 996 87 0 0.89 180 05:25 02.03.2020
2037 Clouds 3 997 87 0 0.45 135 03:28 02.03.2020
2038 Clouds 3 997 87 0 0.45 157 02:57 02.03.2020
2039 Clouds 3 997 87 0 0.45 157 02:30 02.03.2020
2040 Clouds 3 998 87 0 0.45 157 01:37 02.03.2020
2041 Clouds 3 998 87 0 0.45 157 01:19 02.03.2020
2042 Clouds 3 998 86 0 0.45 157 00:22 02.03.2020
2043 Clouds 3 998 86 0 0.45 157 23:56 01.03.2020
2044 Clouds 3 998 85 0 0.89 180 23:37 01.03.2020
2045 Clear 3 998 85 0 0.89 157 23:18 01.03.2020
2046 Clear 3 998 83 0 0.45 157 22:36 01.03.2020
2047 Clear 3 999 83 0 6.49 199 22:18 01.03.2020
2048 Clear 4 999 84 0 6.49 199 21:42 01.03.2020
2049 Clear 4 999 83 0 6.49 199 21:24 01.03.2020
2050 Clear 3 998 82 0 0.45 180 20:59 01.03.2020
2051 Clear 4 998 80 0 0.45 202 20:41 01.03.2020
2052 Clear 4 998 80 0 6.85 200 20:22 01.03.2020
2053 Rain 5 998 80 0 0.45 225 19:42 01.03.2020
2054 Rain 6 998 80 0 0.89 225 19:23 01.03.2020
2055 Rain 6 998 80 0 1.79 225 18:59 01.03.2020
2056 Rain 6 998 79 0 0.45 202 18:40 01.03.2020
2057 Rain 6 998 78 0 0.89 202 18:19 01.03.2020
2058 Rain 6 997 76 0 1.34 225 17:57 01.03.2020
2059 Rain 7 997 76 0 1.34 225 17:39 01.03.2020
2060 Rain 8 997 76 0 1.34 225 17:20 01.03.2020
2061 Rain 8 997 75 0 0.89 202 16:57 01.03.2020
2062 Rain 8 997 75 0 0.89 225 16:38 01.03.2020
2063 Rain 8 997 75 0 1.34 225 16:18 01.03.2020
2064 Rain 9 997 73 0 2.24 225 15:56 01.03.2020
2065 Rain 9 997 74 0 0.89 202 15:37 01.03.2020
2066 Rain 9 997 76 0 1.34 202 15:19 01.03.2020
2067 Rain 8 997 76 0 1.79 225 14:56 01.03.2020
2068 Rain 8 997 76 0 1.79 225 14:38 01.03.2020
2069 Clouds 8 997 76 0 1.34 225 14:19 01.03.2020
2070 Clouds 8 997 71 0 2.24 225 13:54 01.03.2020
2071 Clouds 8 997 71 0 2.24 225 13:54 01.03.2020
2072 Clouds 8 997 71 0 1.34 225 13:36 01.03.2020
2073 Clouds 8 997 70 0 1.34 225 13:18 01.03.2020
2074 Clouds 8 997 68 0 1.79 225 12:41 01.03.2020
2075 Rain 9 997 69 0 2.68 225 12:21 01.03.2020
2076 Rain 8 998 70 0 2.68 202 11:43 01.03.2020
2077 Clouds 8 997 71 0 1.34 247 11:25 01.03.2020
2078 Clouds 8 998 73 0 2.68 247 10:57 01.03.2020
2079 Clouds 8 998 73 0 2.68 247 10:57 01.03.2020
2080 Clouds 7 998 74 0 1.79 247 10:38 01.03.2020
2081 Clouds 5 992 78 0 10.22 215 10:20 01.03.2020
2082 Clouds 7 998 78 0 3.13 225 09:58 01.03.2020
2083 Clouds 6 998 78 0 2.24 225 09:40 01.03.2020
2084 Clouds 6 998 79 0 2.68 225 09:21 01.03.2020
2085 Clouds 5 998 81 0 1.79 225 08:42 01.03.2020
2086 Clouds 4 998 82 0 1.79 202 08:21 01.03.2020
2087 Clear 4 997 82 0 1.79 225 07:43 01.03.2020
2088 Clear 3 997 82 0 1.79 202 07:24 01.03.2020
2089 Clear 3 997 82 0 1.79 202 06:58 01.03.2020
2090 Clear 3 997 82 0 0.89 202 06:38 01.03.2020
2091 Clear 4 997 81 0 1.34 202 04:39 01.03.2020
2092 Clear 4 997 79 0 1.34 202 02:58 01.03.2020
2093 Clouds 6 997 76 0 0.89 225 01:54 01.03.2020
2094 Clouds 6 997 76 0 10.06 235 01:33 01.03.2020
2095 Clouds 6 996 74 0 0.89 292 00:47 01.03.2020
2096 Clouds 7 996 75 0 0.89 225 00:23 01.03.2020
2097 Clouds 7 995 74 0 1.34 202 23:54 29.02.2020
2098 Clouds 8 994 77 0 0.45 247 23:35 29.02.2020
2099 Rain 8 994 79 0 1.79 292 22:45 29.02.2020
2100 Rain 9 993 86 0 0.89 247 22:26 29.02.2020
2101 Rain 9 992 86 0 2.24 225 21:57 29.02.2020
2102 Rain 9 992 87 0 2.68 225 21:38 29.02.2020
2103 Rain 8 992 87 0 2.68 180 21:19 29.02.2020
2104 Rain 8 992 88 0 2.24 180 20:41 29.02.2020
2105 Clouds 8 992 88 0 1.79 180 20:20 29.02.2020
2106 Clouds 7 992 88 0 1.34 180 19:54 29.02.2020
2107 Clouds 7 992 88 0 2.24 180 19:36 29.02.2020
2108 Clouds 7 993 88 0 1.79 180 19:18 29.02.2020
2109 Clouds 7 993 89 0 2.24 180 18:39 29.02.2020
2110 Clouds 7 993 89 0 2.24 180 18:19 29.02.2020
2111 Clouds 7 993 89 0 1.79 157 17:55 29.02.2020
2112 Clouds 7 993 89 0 0.89 135 17:37 29.02.2020
2113 Clouds 7 993 89 0 0.89 180 17:19 29.02.2020
2114 Clouds 8 994 90 0 1.34 157 16:43 29.02.2020
2115 Clouds 8 994 90 0 0.89 180 16:19 29.02.2020
2116 Clouds 8 995 90 0 1.79 157 15:56 29.02.2020
2117 Clouds 8 996 90 0 1.79 180 15:36 29.02.2020
2118 Clouds 8 996 91 0 1.79 180 15:18 29.02.2020
2119 Clouds 7 996 91 0 1.34 157 14:39 29.02.2020
2120 Clouds 7 996 91 0 0.89 180 14:21 29.02.2020
2121 Rain 6 997 91 0 1.34 180 13:45 29.02.2020
2122 Rain 6 997 91 0 1.34 180 13:45 29.02.2020
2123 Rain 6 997 91 0 1.34 202 13:27 29.02.2020
2124 Rain 6 998 91 0 1.34 225 12:57 29.02.2020
2125 Rain 6 998 91 0 1.34 202 12:38 29.02.2020
2126 Rain 5 998 91 0 1.79 202 12:20 29.02.2020
2127 Rain 4 999 90 0 1.79 180 11:45 29.02.2020
2128 Rain 4 999 90 0 2.24 180 11:26 29.02.2020
2129 Rain 4 999 90 0 2.24 180 10:55 29.02.2020
2130 Rain 4 1000 90 0 2.24 180 10:36 29.02.2020
2131 Rain 3 1000 90 0 1.79 180 10:18 29.02.2020
2132 Rain 3 1000 90 0 2.24 180 09:46 29.02.2020
2133 Rain 3 1001 89 0 2.24 180 09:18 29.02.2020
2134 Rain 2 1001 88 0 0.89 157 08:40 29.02.2020
2135 Rain 2 1002 88 0 1.79 180 08:21 29.02.2020
2136 Rain 3 1002 86 0 1.79 180 07:53 29.02.2020
2137 Rain 3 1002 85 0 2.24 157 07:25 29.02.2020
2138 Rain 3 1003 84 0 1.79 180 06:56 29.02.2020
2139 Rain 3 1003 83 0 0.89 180 06:29 29.02.2020
2140 Rain 3 1004 83 0 1.79 157 05:52 29.02.2020
2141 Rain 3 1004 84 0 1.79 157 05:32 29.02.2020
2142 Clouds 2 1006 84 0 0.45 180 04:25 29.02.2020
2143 Clouds 2 1008 84 0 0.89 157 03:37 29.02.2020
2144 Clouds 2 1008 84 0 1.34 180 03:18 29.02.2020
2145 Clouds 2 1009 84 0 0.89 180 02:32 29.02.2020
2146 Clouds 2 1011 85 0 0.89 180 00:54 29.02.2020
2147 Clouds 2 1011 85 0 0.89 157 00:36 29.02.2020
2148 Clouds 2 1012 84 0 0.45 180 23:42 28.02.2020
2149 Clouds 2 1012 84 0 0.89 202 23:24 28.02.2020
2150 Clouds 2 1013 84 0 0.45 202 22:54 28.02.2020
2151 Clouds 2 1013 84 0 0.45 202 22:36 28.02.2020
2152 Clouds 2 1013 84 0 0.89 225 22:18 28.02.2020
2153 Clouds 2 1013 83 0 0.89 225 21:41 28.02.2020
2154 Clouds 2 1014 83 0 0.89 225 21:20 28.02.2020
2155 Clouds 2 1014 82 0 0.45 247 20:40 28.02.2020
2156 Clouds 2 1014 81 0 0.45 247 20:22 28.02.2020
2157 Clouds 3 1014 81 0 0.45 247 19:59 28.02.2020
2158 Clouds 3 1015 81 0 0.45 247 19:39 28.02.2020
2159 Clouds 3 1015 80 0 0.45 270 19:21 28.02.2020
2160 Clouds 3 1015 79 0 7.12 264 18:57 28.02.2020
2161 Clouds 4 1015 78 0 0.45 270 18:38 28.02.2020
2162 Clouds 4 1015 77 0 7.12 264 18:20 28.02.2020
2163 Clouds 5 1015 74 0 0.89 247 17:40 28.02.2020
2164 Clouds 6 1014 73 0 0.89 292 17:22 28.02.2020
2165 Rain 6 1014 72 0 0.45 292 16:46 28.02.2020
2166 Rain 7 1014 70 0 2.24 315 16:20 28.02.2020
2167 Rain 6 1014 74 0 0.89 292 15:59 28.02.2020
2168 Rain 6 1014 73 0 2.68 315 15:40 28.02.2020
2169 Rain 7 1014 70 0 1.79 292 15:20 28.02.2020
2170 Rain 7 1014 74 0 1.79 315 14:57 28.02.2020
2171 Rain 7 1014 76 0 2.68 315 14:39 28.02.2020
2172 Rain 6 1014 82 0 1.79 270 14:18 28.02.2020
2173 Rain 4 1014 86 0 2.68 292 13:54 28.02.2020
2174 Rain 5 1014 84 0 2.68 292 13:36 28.02.2020
2175 Rain 6 1013 81 0 0.45 292 13:18 28.02.2020
2176 Rain 5 1013 87 0 3.58 315 12:41 28.02.2020
2177 Rain 4 1013 88 0 2.24 292 12:22 28.02.2020
2178 Rain 4 1013 88 0 2.24 292 12:22 28.02.2020
2179 Rain 4 1013 88 0 0.45 292 11:42 28.02.2020
2180 Rain 4 1013 89 0 0.89 292 11:24 28.02.2020
2181 Rain 4 1012 88 0 1.79 315 10:58 28.02.2020
2182 Rain 4 1012 89 0 0.45 292 10:39 28.02.2020
2183 Rain 4 1012 89 0 0.45 292 10:39 28.02.2020
2184 Rain 4 1012 90 0 1.34 292 10:20 28.02.2020
2185 Rain 3 1012 91 0 0.45 292 09:46 28.02.2020
2186 Rain 3 1012 91 0 0.89 292 09:21 28.02.2020
2187 Rain 2 1012 91 0 10.12 276 08:57 28.02.2020
2188 Rain 2 1012 91 0 10.12 276 08:37 28.02.2020
2189 Snow 2 1012 91 0 0.45 247 08:18 28.02.2020
2190 Snow 1 1011 91 0 0.45 225 07:40 28.02.2020
2191 Snow 1 1011 91 0 0.45 225 07:20 28.02.2020
2192 Snow 1 1011 91 0 1.79 247 06:45 28.02.2020
2193 Snow 0 1010 91 0 7.42 263 06:20 28.02.2020
2194 Clouds 1 1009 90 0 0.89 292 04:45 28.02.2020
2195 Clouds 0 1009 90 0 1.34 292 04:18 28.02.2020
2196 Clouds 0 1008 88 0 6.51 287 02:46 28.02.2020
2197 Clouds 1 1007 89 0 6.51 287 02:27 28.02.2020
2198 Snow 1 1007 89 0 0.45 292 01:23 28.02.2020
2199 Snow 0 1006 87 0 5.16 283 00:28 28.02.2020
2200 Snow 0 1005 86 0 5.16 283 23:42 27.02.2020
2201 Snow 0 1005 87 0 4.53 283 23:21 27.02.2020
2202 Snow 0 1005 87 0 4.53 283 22:46 27.02.2020
2203 Snow 1 1004 87 0 4.53 283 22:26 27.02.2020
2204 Snow 1 1004 86 0 4.53 283 21:59 27.02.2020
2205 Snow 1 1004 86 0 4.53 283 21:41 27.02.2020
2206 Snow 1 1003 86 0 4.53 283 21:19 27.02.2020
2207 Snow 1 1003 86 0 4.53 283 20:57 27.02.2020
2208 Snow 1 1003 86 0 4.53 283 20:39 27.02.2020
2209 Snow 1 1003 86 0 3.94 257 20:20 27.02.2020
2210 Snow 1 1003 86 0 3.94 257 20:20 27.02.2020
2211 Clouds 1 1003 86 0 2.94 226 19:56 27.02.2020
2212 Clouds 1 1003 86 0 2.94 226 19:37 27.02.2020
2213 Clouds 2 1002 86 0 2.94 226 19:18 27.02.2020
2214 Clouds 2 1002 85 0 2.94 226 18:42 27.02.2020
2215 Clouds 2 1002 85 0 2.94 226 18:24 27.02.2020
2216 Clouds 2 1002 84 0 2.94 226 17:58 27.02.2020
2217 Clouds 3 1002 84 0 2.94 226 17:40 27.02.2020
2218 Rain 3 1002 84 0 3.87 252 17:19 27.02.2020
2219 Rain 4 1002 85 0 3.87 252 16:58 27.02.2020
2220 Rain 4 1002 85 0 3.87 252 16:39 27.02.2020
2221 Rain 4 1002 85 0 3.87 252 16:19 27.02.2020
2222 Rain 4 1002 86 0 3.87 252 15:57 27.02.2020
2223 Rain 4 1002 87 0 0.45 292 15:37 27.02.2020
2224 Rain 3 1002 86 0 3.87 252 15:18 27.02.2020
2225 Rain 3 1003 82 0 0.45 315 14:55 27.02.2020
2226 Rain 6 1003 79 0 2.24 292 14:36 27.02.2020
2227 Snow 6 1002 81 0 7.59 252 14:18 27.02.2020
2228 Snow 6 1003 83 0 0.89 225 13:41 27.02.2020
2229 Rain 4 1003 82 0 0.89 225 13:21 27.02.2020
2230 Rain 5 1003 83 0 0.45 270 12:47 27.02.2020
2231 Rain 4 1004 85 0 0.45 270 12:25 27.02.2020
2232 Rain 4 1004 86 0 0.89 292 11:59 27.02.2020
2233 Rain 4 1004 87 0 0.45 292 11:41 27.02.2020
2234 Rain 4 1004 87 0 0.45 247 11:21 27.02.2020
2235 Clouds 3 1004 87 0 0.45 292 10:43 27.02.2020
2236 Clouds 3 1004 87 0 6.49 238 10:23 27.02.2020
2237 Clouds 3 1004 88 0 0.89 225 09:48 27.02.2020
2238 Clouds 2 1005 87 0 0.89 225 09:29 27.02.2020
2239 Clouds 2 1005 88 0 0.45 270 08:58 27.02.2020
2240 Clouds 2 1005 88 0 0.45 270 08:40 27.02.2020
2241 Clouds 2 1005 88 0 5.94 242 08:22 27.02.2020
2242 Clouds 1 1004 88 0 5.36 275 07:44 27.02.2020
2243 Clouds 1 1004 88 0 5.36 275 07:25 27.02.2020
2244 Clouds 1 1004 88 0 5.36 275 06:46 27.02.2020
2245 Clouds 1 1004 87 0 0.45 292 05:35 27.02.2020
2246 Clouds 1 1004 86 0 0.45 292 03:40 27.02.2020
2247 Clouds 2 1003 84 0 1.79 292 02:21 27.02.2020
2248 Clouds 2 1002 86 0 0.89 315 00:45 27.02.2020
2249 Clouds 2 1002 86 0 0.45 292 00:26 27.02.2020
2250 Clouds 2 1002 86 0 0.45 292 23:40 26.02.2020
2251 Clouds 2 1002 86 0 0.45 292 23:40 26.02.2020
2252 Snow 3 1002 87 0 7.38 314 23:19 26.02.2020
2253 Snow 3 1001 87 0 7.38 314 22:57 26.02.2020
2254 Snow 3 1001 87 0 7.38 314 22:39 26.02.2020
2255 Snow 2 1001 87 0 0.89 315 22:19 26.02.2020
2256 Snow 3 1001 86 0 0.45 315 21:56 26.02.2020
2257 Snow 3 1001 86 0 7.38 314 21:36 26.02.2020
2258 Snow 3 1001 87 0 7.38 314 21:18 26.02.2020
2259 Snow 3 1000 88 0 7.38 314 20:54 26.02.2020
2260 Snow 3 1000 88 0 7.38 314 20:36 26.02.2020
2261 Snow 2 1000 88 0 7.17 335 20:18 26.02.2020
2262 Snow 3 1000 88 0 7.17 335 19:45 26.02.2020
2263 Snow 3 999 88 0 7.17 335 19:21 26.02.2020
2264 Snow 3 998 87 0 0.45 292 18:58 26.02.2020
2265 Snow 3 998 86 0 0.45 315 18:40 26.02.2020
2266 Snow 3 998 85 0 7.17 335 18:22 26.02.2020
2267 Snow 3 998 82 0 1.79 337 17:56 26.02.2020
2268 Snow 4 997 80 0 0.45 292 17:36 26.02.2020
2269 Snow 5 997 80 0 0.89 315 17:18 26.02.2020
2270 Snow 5 997 80 0 0.89 292 16:43 26.02.2020
2271 Snow 5 997 80 0 0.45 292 16:22 26.02.2020
2272 Snow 4 996 81 0 2.24 315 15:56 26.02.2020
2273 Snow 4 996 82 0 1.79 315 15:37 26.02.2020
2274 Snow 4 996 83 0 1.79 292 15:18 26.02.2020
2275 Snow 5 996 79 0 1.79 315 14:42 26.02.2020
2276 Snow 6 995 80 0 0.89 315 14:22 26.02.2020
2277 Clouds 6 995 79 0 0.45 247 13:43 26.02.2020
2278 Clear 6 995 79 0 0.45 247 13:22 26.02.2020
2279 Clear 5 994 81 0 0.45 292 12:42 26.02.2020
2280 Clear 5 994 81 0 0.45 292 12:42 26.02.2020
2281 Clear 4 990 77 0 9.27 273 12:23 26.02.2020
2282 Clear 5 994 82 0 1.34 315 11:59 26.02.2020
2283 Clear 5 994 82 0 1.34 315 11:41 26.02.2020
2284 Clear 5 994 82 0 1.34 315 11:22 26.02.2020
2285 Clear 5 994 82 0 1.34 315 11:22 26.02.2020
2286 Clouds 5 994 82 0 1.34 315 10:56 26.02.2020
2287 Clouds 4 994 81 0 1.79 292 10:38 26.02.2020
2288 Clouds 4 994 83 0 0.45 292 10:20 26.02.2020
2289 Clouds 4 994 83 0 0.45 292 10:20 26.02.2020
2290 Clouds 4 993 85 0 8.5 275 09:41 26.02.2020
2291 Clouds 4 993 86 0 0.45 270 09:21 26.02.2020
2292 Clouds 3 994 86 0 0.89 292 08:55 26.02.2020
2293 Clouds 3 993 86 0 0.89 270 08:36 26.02.2020
2294 Clouds 3 993 86 0 0.89 292 08:18 26.02.2020
2295 Clouds 3 993 86 0 10.21 274 07:41 26.02.2020
2296 Clouds 2 993 86 0 10.21 274 07:23 26.02.2020
2297 Clouds 2 992 85 0 10.21 274 06:49 26.02.2020
2298 Clouds 3 992 85 0 10.21 274 06:31 26.02.2020
2299 Clouds 3 993 84 0 0.89 225 05:48 26.02.2020
2300 Rain 3 993 84 0 0.89 292 05:20 26.02.2020
2301 Rain 3 992 83 0 1.34 270 03:57 26.02.2020
2302 Rain 3 993 82 0 0.89 292 02:20 26.02.2020
2303 Rain 3 993 82 0 1.79 247 01:39 26.02.2020
2304 Rain 3 993 82 0 12.57 253 00:48 26.02.2020
2305 Rain 4 993 82 0 0.89 292 00:21 26.02.2020
2306 Rain 4 993 82 0 12.57 253 23:45 25.02.2020
2307 Rain 4 993 82 0 0.89 292 23:26 25.02.2020
2308 Rain 3 993 82 0 0.45 292 22:59 25.02.2020
2309 Rain 3 993 81 0 0.45 315 22:41 25.02.2020
2310 Rain 4 993 81 0 0.89 225 22:19 25.02.2020
2311 Rain 4 994 82 0 0.89 247 21:40 25.02.2020
2312 Rain 4 994 82 0 0.45 202 21:21 25.02.2020
2313 Rain 4 994 82 0 0.45 202 21:21 25.02.2020
2314 Rain 4 994 81 0 0.89 225 20:59 25.02.2020
2315 Rain 4 994 80 0 13.84 249 20:40 25.02.2020
2316 Rain 4 994 80 0 14.26 246 20:21 25.02.2020
2317 Rain 4 994 81 0 0.45 270 19:59 25.02.2020
2318 Rain 4 994 80 0 0.89 270 19:40 25.02.2020
2319 Rain 4 994 80 0 2.68 292 19:19 25.02.2020
2320 Rain 4 994 79 0 2.68 225 18:42 25.02.2020
2321 Rain 4 994 80 0 2.24 247 18:22 25.02.2020
2322 Rain 4 994 80 0 14.84 243 17:59 25.02.2020
2323 Rain 6 994 76 0 1.34 247 17:38 25.02.2020
2324 Rain 7 994 69 0 1.34 225 17:20 25.02.2020
2325 Rain 7 993 70 0 0.89 337 16:59 25.02.2020
2326 Rain 7 994 71 0 1.34 247 16:40 25.02.2020
2327 Rain 7 994 71 0 1.34 247 16:40 25.02.2020
2328 Rain 7 994 71 0 0.45 270 16:22 25.02.2020
2329 Rain 8 994 71 0 1.34 247 15:59 25.02.2020
2330 Rain 8 994 71 0 0.89 247 15:41 25.02.2020
2331 Rain 7 994 74 0 1.34 292 15:19 25.02.2020
2332 Rain 7 994 75 0 0.89 292 14:57 25.02.2020
2333 Rain 8 994 68 0 2.24 225 14:37 25.02.2020
2334 Rain 5 991 80 0 12.71 235 14:18 25.02.2020
2335 Rain 5 991 80 0 12.71 235 14:18 25.02.2020
2336 Rain 8 995 72 0 2.24 225 13:55 25.02.2020
2337 Rain 8 995 72 0 0.89 225 13:37 25.02.2020
2338 Rain 8 995 72 0 2.24 225 13:19 25.02.2020
2339 Rain 8 996 70 0 0.89 247 12:42 25.02.2020
2340 Rain 8 996 72 0 1.79 225 12:22 25.02.2020
2341 Rain 7 996 74 0 0.45 270 11:57 25.02.2020
2342 Rain 7 997 73 0 1.79 292 11:39 25.02.2020
2343 Rain 8 997 74 0 0.89 247 11:19 25.02.2020
2344 Rain 7 997 76 0 0.45 247 10:59 25.02.2020
2345 Rain 7 997 77 0 0.89 225 10:40 25.02.2020
2346 Rain 7 997 78 0 1.34 247 10:21 25.02.2020
2347 Rain 6 997 81 0 1.79 225 09:42 25.02.2020
2348 Rain 6 997 81 0 0.45 247 09:22 25.02.2020
2349 Rain 6 997 81 0 0.45 270 08:55 25.02.2020
2350 Rain 6 998 82 0 0.89 247 08:37 25.02.2020
2351 Rain 5 997 83 0 0.89 247 08:19 25.02.2020
2352 Rain 5 998 84 0 0.45 247 07:40 25.02.2020
2353 Rain 5 998 84 0 0.89 270 07:20 25.02.2020
2354 Rain 6 997 84 0 0.89 315 06:41 25.02.2020
2355 Rain 7 997 90 0 0.89 247 05:37 25.02.2020
2356 Rain 6 997 92 0 0.89 225 03:44 25.02.2020
2357 Rain 3 998 91 0 0.89 180 02:00 25.02.2020
2358 Rain 3 999 91 0 1.79 135 00:48 25.02.2020
2359 Rain 3 999 91 0 1.79 135 00:48 25.02.2020
2360 Rain 3 1001 90 0 1.79 135 00:29 25.02.2020
2361 Rain 3 1002 89 0 1.34 157 23:44 24.02.2020
2362 Rain 3 1002 89 0 1.34 157 23:22 24.02.2020
2363 Rain 3 1004 89 0 0.89 157 22:43 24.02.2020
2364 Rain 3 1004 89 0 0.89 157 22:21 24.02.2020
2365 Rain 3 1005 88 0 2.24 135 21:58 24.02.2020
2366 Rain 3 1005 88 0 1.34 135 21:39 24.02.2020
2367 Rain 4 1006 87 0 1.34 157 21:20 24.02.2020
2368 Rain 4 1007 86 0 1.34 157 20:58 24.02.2020
2369 Rain 4 1008 86 0 1.34 135 20:40 24.02.2020
2370 Rain 4 1008 85 0 0.89 157 20:19 24.02.2020
2371 Rain 4 1009 84 0 0.89 180 19:58 24.02.2020
2372 Rain 4 1009 84 0 1.79 180 19:40 24.02.2020
2373 Rain 5 1010 84 0 0.89 180 19:21 24.02.2020
2374 Rain 5 1010 84 0 1.79 202 18:55 24.02.2020
2375 Rain 5 1011 84 0 0.89 180 18:37 24.02.2020
2376 Rain 5 1011 83 0 0.89 180 18:19 24.02.2020
2377 Rain 6 1012 82 0 0.45 180 17:42 24.02.2020
2378 Clouds 6 1012 82 0 0.89 180 17:21 24.02.2020
2379 Clouds 6 1013 81 0 0.89 202 16:58 24.02.2020
2380 Clouds 6 1013 81 0 0.89 202 16:39 24.02.2020
2381 Clouds 6 1014 80 0 0.45 180 16:20 24.02.2020
2382 Clouds 7 1015 79 0 0.45 202 15:59 24.02.2020
2383 Clouds 7 1015 79 0 0.89 225 15:40 24.02.2020
2384 Clouds 7 1015 79 0 0.89 225 15:40 24.02.2020
2385 -273 0 0 0 0 0 15:21 24.02.2020
2386 Clouds 7 1016 77 0 2.65 237 14:58 24.02.2020
2387 Clouds 7 1017 77 0 0.45 247 14:39 24.02.2020
2388 Clouds 7 1017 76 0 0.45 247 14:19 24.02.2020
2389 Clouds 7 1017 76 0 1.34 225 13:56 24.02.2020
2390 Clouds 7 1018 76 0 0.45 247 13:37 24.02.2020
2391 Clouds 7 1018 75 0 0.45 292 13:19 24.02.2020
2392 Clouds 7 1018 75 0 0.45 270 12:55 24.02.2020
2393 Clouds 7 1019 75 0 0.45 292 12:37 24.02.2020
2394 Clouds 7 1019 75 0 0.89 270 12:18 24.02.2020
2395 Clouds 7 1019 77 0 1.34 315 11:42 24.02.2020
2396 Clouds 7 1019 77 0 0.45 315 11:23 24.02.2020
2397 Clouds 6 1020 77 0 1.34 315 10:44 24.02.2020
2398 Clouds 6 1020 78 0 2.68 315 10:25 24.02.2020
2399 Clouds 6 1019 81 0 0.89 292 09:54 24.02.2020
2400 Clouds 5 1015 81 0 7.47 284 09:36 24.02.2020
2401 Clouds 6 1020 82 0 1.34 315 09:18 24.02.2020
2402 Clouds 5 1019 84 0 1.79 315 08:44 24.02.2020
2403 Clouds 5 1019 85 0 1.79 315 08:24 24.02.2020
2404 Clouds 5 1019 85 0 2.24 292 07:44 24.02.2020
2405 Clouds 5 1019 84 0 0.89 315 07:24 24.02.2020
2406 Clouds 5 1018 84 0 2.68 315 06:36 24.02.2020
2407 Clouds 5 1018 85 0 1.79 292 06:18 24.02.2020
2408 Clouds 6 1017 85 0 2.68 315 05:28 24.02.2020
2409 Clouds 4 1015 88 0 2.24 315 03:54 24.02.2020
2410 Clouds 4 1015 87 0 0.89 292 02:54 24.02.2020
2411 Clouds 5 1013 85 0 0.89 315 01:43 24.02.2020
2412 Clouds 4 1013 86 0 2.24 292 00:57 24.02.2020
2413 Clouds 4 1012 86 0 2.24 270 00:27 24.02.2020
2414 Clouds 4 1011 87 0 2.68 315 23:59 23.02.2020
2415 Clouds 4 1011 88 0 2.68 292 23:40 23.02.2020
2416 Rain 4 1011 88 0 2.68 315 23:19 23.02.2020
2417 Rain 3 1010 89 0 1.79 292 22:56 23.02.2020
2418 Rain 3 1010 89 0 1.79 292 22:37 23.02.2020
2419 Rain 3 1009 88 0 1.34 315 22:18 23.02.2020
2420 Rain 4 1008 89 0 2.68 292 21:45 23.02.2020
2421 Rain 4 1007 89 0 1.34 337 21:20 23.02.2020
2422 Rain 4 1007 89 0 0.89 292 20:57 23.02.2020
2423 Rain 4 1007 89 0 1.34 292 20:39 23.02.2020
2424 Rain 4 1006 90 0 2.68 315 20:20 23.02.2020
2425 Rain 4 1006 90 0 0.89 337 19:57 23.02.2020
2426 Rain 4 1005 90 0 0.45 337 19:39 23.02.2020
2427 Rain 4 1005 91 0 2.24 315 19:19 23.02.2020
2428 Rain 4 1004 90 0 0.89 315 18:57 23.02.2020
2429 Rain 4 1004 90 0 0.45 270 18:37 23.02.2020
2430 Rain 4 1003 90 0 0.89 292 18:18 23.02.2020
2431 Rain 4 1003 90 0 0.45 270 17:57 23.02.2020
2432 Rain 4 1003 90 0 0.45 270 17:38 23.02.2020
2433 Rain 4 1003 89 0 0.89 292 17:19 23.02.2020
2434 Rain 4 1003 88 0 0.45 292 16:46 23.02.2020
2435 Rain 4 1003 88 0 7.98 257 16:27 23.02.2020
2436 Rain 5 1003 87 0 7.98 257 15:59 23.02.2020
2437 Rain 5 1004 87 0 0.89 292 15:39 23.02.2020
2438 Rain 5 1004 87 0 7.98 257 15:20 23.02.2020
2439 Rain 6 1004 86 0 7.98 257 14:59 23.02.2020
2440 Rain 6 1005 86 0 7.98 257 14:40 23.02.2020
2441 Rain 6 1005 86 0 0.45 247 14:21 23.02.2020
2442 Rain 6 1005 86 0 0.45 247 14:21 23.02.2020
2443 Clouds 6 1005 86 0 0.89 225 13:57 23.02.2020
2444 Clouds 6 1006 85 0 1.34 225 13:39 23.02.2020
2445 Clouds 5 1006 85 0 0.45 225 13:20 23.02.2020
2446 Rain 6 1008 82 0 2.24 247 12:43 23.02.2020
2447 Rain 6 1008 82 0 2.24 247 12:43 23.02.2020
2448 Rain 6 1008 80 0 1.79 225 12:23 23.02.2020
2449 Rain 7 1009 77 0 8.92 251 11:58 23.02.2020
2450 Rain 7 1009 77 0 0.45 292 11:37 23.02.2020
2451 Rain 7 1009 78 0 0.89 225 11:19 23.02.2020
2452 Rain 7 1010 81 0 13.38 256 10:56 23.02.2020
2453 Rain 7 1010 81 0 13.38 256 10:56 23.02.2020
2454 Rain 6 1010 82 0 0.45 225 10:37 23.02.2020
2455 Rain 6 1010 82 0 0.89 270 10:19 23.02.2020
2456 Rain 6 1011 84 0 0.89 292 09:40 23.02.2020
2457 Rain 6 1011 85 0 0.89 270 09:21 23.02.2020
2458 Rain 5 1011 86 0 1.34 247 08:59 23.02.2020
2459 Rain 5 1012 86 0 0.45 292 08:41 23.02.2020
2460 Clouds 4 1011 87 0 0.45 315 08:21 23.02.2020
2461 Rain 4 1012 85 0 1.34 270 07:40 23.02.2020
2462 Rain 5 1012 83 0 1.79 292 07:18 23.02.2020
2463 Rain 4 1012 85 0 0.45 292 05:54 23.02.2020
2464 Clouds 5 1013 77 0 1.79 292 04:49 23.02.2020
2465 Clouds 5 1012 79 0 1.79 292 03:50 23.02.2020
2466 Clouds 6 1012 75 0 0.89 292 02:38 23.02.2020
2467 Clouds 6 1012 72 0 1.34 292 01:27 23.02.2020
2468 Clouds 6 1012 75 0 2.24 292 00:58 23.02.2020
2469 Clouds 7 1012 75 0 2.24 292 00:37 23.02.2020
2470 Clouds 6 1012 75 0 2.24 292 00:18 23.02.2020
2471 Clouds 7 1012 72 0 1.34 292 23:42 22.02.2020
2472 Rain 6 1012 72 0 2.68 292 23:20 22.02.2020
2473 Rain 7 1011 75 0 1.79 270 22:44 22.02.2020
2474 Rain 7 1011 75 0 1.34 270 22:19 22.02.2020
2475 Rain 6 1011 81 0 1.79 315 21:43 22.02.2020
2476 Rain 5 1011 86 0 2.68 247 21:25 22.02.2020
2477 Rain 5 1012 85 0 1.79 292 20:58 22.02.2020
2478 Rain 5 1012 85 0 1.79 270 20:39 22.02.2020
2479 Clouds 5 1012 81 0 2.24 292 20:21 22.02.2020
2480 Rain 8 1011 74 0 1.79 292 19:42 22.02.2020
2481 Rain 8 1011 75 0 2.68 315 19:23 22.02.2020
2482 Rain 8 1010 76 0 2.24 292 18:55 22.02.2020
2483 Rain 8 1010 78 0 2.24 225 18:37 22.02.2020
2484 Rain 8 1010 79 0 1.79 292 18:18 22.02.2020
2485 Rain 8 1009 79 0 1.79 292 17:44 22.02.2020
2486 Rain 8 1009 78 0 1.79 225 17:25 22.02.2020
2487 Rain 8 1009 78 0 1.34 292 16:59 22.02.2020
2488 Rain 9 1009 80 0 2.24 337 16:40 22.02.2020
2489 Rain 9 1009 81 0 4.02 292 16:20 22.02.2020
2490 Rain 8 1009 82 0 2.24 270 15:55 22.02.2020
2491 Rain 9 1009 83 0 1.79 270 15:37 22.02.2020
2492 Rain 9 1009 81 0 1.79 247 15:19 22.02.2020
2493 Rain 9 1009 79 0 1.34 337 14:41 22.02.2020
2494 Rain 8 1009 80 0 0.89 247 14:21 22.02.2020
2495 Rain 8 1009 81 0 2.24 225 13:43 22.02.2020
2496 Rain 8 1009 81 0 1.79 247 13:20 22.02.2020
2497 Rain 7 1010 81 0 0.45 270 12:59 22.02.2020
2498 Rain 7 1010 81 0 1.79 225 12:39 22.02.2020
2499 Rain 7 1010 79 0 1.79 225 12:20 22.02.2020
2500 Rain 7 1010 81 0 2.68 225 11:44 22.02.2020
2501 Rain 7 1010 81 0 0.45 247 11:26 22.02.2020
2502 Rain 7 1011 82 0 0.89 225 10:55 22.02.2020
2503 Rain 7 1011 83 0 2.68 225 10:37 22.02.2020
2504 Rain 7 1011 83 0 3.58 225 10:18 22.02.2020
2505 Rain 7 1013 84 0 2.68 225 09:55 22.02.2020
2506 Rain 7 1012 84 0 2.68 202 09:37 22.02.2020
2507 Rain 7 1013 83 0 2.24 225 09:18 22.02.2020
2508 Rain 7 1014 82 0 1.34 315 08:44 22.02.2020
2509 Rain 7 1014 82 0 2.24 247 08:25 22.02.2020
2510 Rain 7 1014 82 0 1.79 225 07:43 22.02.2020
2511 Rain 7 1015 82 0 2.68 202 07:18 22.02.2020
2512 Rain 7 1015 82 0 2.68 225 06:45 22.02.2020
2513 Rain 7 1016 83 0 2.68 247 05:44 22.02.2020
2514 Rain 6 1017 86 0 1.79 225 04:29 22.02.2020
2515 Rain 6 1019 87 0 2.68 225 02:43 22.02.2020
2516 Clouds 6 1020 85 0 1.79 225 01:57 22.02.2020
2517 Clouds 6 1020 84 0 2.24 225 01:39 22.02.2020
2518 Clouds 6 1020 84 0 2.68 225 01:21 22.02.2020
2519 Clouds 6 1021 84 0 1.79 225 00:39 22.02.2020
2520 Clouds 6 1021 83 0 2.24 225 00:19 22.02.2020
2521 Clouds 6 1022 82 0 0.45 247 23:41 21.02.2020
2522 Rain 6 1022 82 0 0.89 225 23:20 21.02.2020
2523 Rain 6 1022 81 0 1.79 225 22:42 21.02.2020
2524 Rain 6 1022 81 0 0.89 225 22:24 21.02.2020
2525 Rain 6 1022 81 0 1.34 225 21:56 21.02.2020
2526 Rain 6 1022 81 0 1.34 225 21:37 21.02.2020
2527 Rain 6 1022 81 0 1.79 225 21:19 21.02.2020
2528 Rain 6 1023 81 0 2.68 225 20:47 21.02.2020
2529 Rain 6 1022 80 0 2.24 225 20:27 21.02.2020
2530 Clouds 6 1023 80 0 1.79 247 19:41 21.02.2020
2531 Clouds 6 1023 79 0 0.89 225 19:23 21.02.2020
2532 Clouds 6 1023 79 0 1.79 225 18:55 21.02.2020
2533 Clouds 6 1023 79 0 1.79 225 18:55 21.02.2020
2534 Clouds 6 1023 79 0 1.79 225 18:36 21.02.2020
2535 Clouds 6 1023 78 0 1.34 225 18:18 21.02.2020
2536 Clouds 7 1023 78 0 0.45 247 17:39 21.02.2020
2537 Clouds 7 1023 78 0 1.79 225 17:21 21.02.2020
2538 Clouds 7 1023 79 0 1.34 247 16:57 21.02.2020
2539 Clouds 7 1023 79 0 0.89 22 16:39 21.02.2020
2540 Clouds 7 1023 80 0 0.89 225 16:20 21.02.2020
2541 Clouds 7 1023 80 0 0.89 225 16:20 21.02.2020
2542 Clouds 7 1022 81 0 1.79 292 15:45 21.02.2020
2543 Clouds 7 1022 81 0 1.34 270 15:19 21.02.2020
2544 Clouds 8 1022 75 0 1.79 292 14:57 21.02.2020
2545 Clouds 8 1022 76 0 0.89 315 14:39 21.02.2020
2546 Clouds 8 1022 78 0 1.34 225 14:19 21.02.2020
2547 Clouds 8 1021 75 0 1.79 315 13:42 21.02.2020
2548 Clouds 8 1021 75 0 1.79 315 13:23 21.02.2020
2549 Clear 8 1021 76 0 2.24 292 12:54 21.02.2020
2550 Clear 7 1021 77 0 1.34 270 12:36 21.02.2020
2551 Clear 7 1021 78 0 2.24 292 12:18 21.02.2020
2552 Clear 7 1020 80 0 1.34 292 11:40 21.02.2020
2553 Clear 7 1020 80 0 2.68 292 11:21 21.02.2020
2554 Clear 6 1020 82 0 0.89 315 10:56 21.02.2020
2555 Clear 6 1020 82 0 0.89 315 10:56 21.02.2020
2556 Clear 6 1019 83 0 0.89 270 10:38 21.02.2020
2557 Clear 6 1019 84 0 1.34 292 10:19 21.02.2020
2558 Clear 6 1019 84 0 1.34 292 10:19 21.02.2020
2559 Clear 5 1019 85 0 0.89 315 09:57 21.02.2020
2560 Clear 5 1019 86 0 1.34 247 09:37 21.02.2020
2561 Clear 4 1018 86 0 1.79 292 09:19 21.02.2020
2562 Clear 4 1017 87 0 0.89 315 08:42 21.02.2020
2563 Clear 4 1017 88 0 1.34 292 08:22 21.02.2020
2564 Clouds 3 1017 87 0 1.34 292 07:59 21.02.2020
2565 Clouds 3 1016 87 0 0.89 292 07:40 21.02.2020
2566 Clouds 3 1016 87 0 0.89 337 07:19 21.02.2020
2567 Clouds 4 1015 86 0 1.79 202 06:52 21.02.2020
2568 Clouds 4 1015 86 0 1.79 292 06:30 21.02.2020
2569 Clouds 4 1013 86 0 1.79 292 05:43 21.02.2020
2570 Rain 4 1011 87 0 2.68 337 04:38 21.02.2020
2571 Rain 4 1011 88 0 3.13 315 04:18 21.02.2020
2572 Rain 5 1009 89 0 2.68 337 03:39 21.02.2020
2573 Rain 6 1008 89 0 2.68 0 02:29 21.02.2020
2574 Rain 6 1006 90 0 1.79 180 01:24 21.02.2020
2575 Rain 6 1007 89 0 2.24 202 00:45 21.02.2020
2576 Rain 6 1007 88 0 2.24 202 00:23 21.02.2020
2577 Rain 6 1007 87 0 3.13 225 23:46 20.02.2020
2578 Rain 6 1007 87 0 3.13 225 23:46 20.02.2020
2579 Rain 6 1007 87 0 3.13 225 23:46 20.02.2020
2580 Rain 6 1007 87 0 3.13 225 23:46 20.02.2020
2581 Rain 6 1008 87 0 1.79 202 23:25 20.02.2020
2582 Rain 6 1008 87 0 2.24 180 22:57 20.02.2020
2583 Rain 6 1009 87 0 2.24 180 22:38 20.02.2020
2584 Rain 6 1009 88 0 1.79 202 22:20 20.02.2020
2585 Rain 6 1009 88 0 1.34 180 21:56 20.02.2020
2586 Rain 6 1009 88 0 1.34 180 21:56 20.02.2020
2587 Rain 6 1010 89 0 2.68 180 21:37 20.02.2020
2588 Rain 6 1010 89 0 2.68 180 21:37 20.02.2020
2589 Rain 6 1010 89 0 1.79 180 21:19 20.02.2020
2590 Rain 6 1010 89 0 1.34 180 20:55 20.02.2020
2591 Rain 6 1011 90 0 1.79 180 20:36 20.02.2020
2592 Rain 6 1011 90 0 2.24 180 20:18 20.02.2020
2593 Rain 6 1012 90 0 2.24 180 19:57 20.02.2020
2594 Rain 6 1012 90 0 1.79 180 19:39 20.02.2020
2595 Rain 6 1013 90 0 1.79 180 19:20 20.02.2020
2596 Rain 6 1013 89 0 2.24 180 18:39 20.02.2020
2597 Rain 6 1013 89 0 2.24 180 18:39 20.02.2020
2598 Rain 6 1014 89 0 1.79 180 18:20 20.02.2020
2599 Rain 6 1014 89 0 2.24 180 17:55 20.02.2020
2600 Rain 6 1014 89 0 1.79 180 17:36 20.02.2020
2601 Rain 6 1015 89 0 1.79 180 17:18 20.02.2020
2602 Rain 6 1015 89 0 2.24 180 16:55 20.02.2020
2603 Rain 6 1015 89 0 2.24 180 16:37 20.02.2020
2604 Rain 6 1015 89 0 1.79 180 16:18 20.02.2020
2605 Rain 6 1016 88 0 1.79 202 15:41 20.02.2020
2606 Rain 6 1016 88 0 2.68 180 15:21 20.02.2020
2607 Rain 6 1017 87 0 1.79 180 14:56 20.02.2020
2608 Rain 6 1017 87 0 1.34 202 14:38 20.02.2020
2609 Rain 6 1017 86 0 1.79 180 14:20 20.02.2020
2610 Rain 6 1017 82 0 1.79 202 13:45 20.02.2020
2611 Rain 6 1018 81 0 1.79 180 13:20 20.02.2020
2612 Rain 6 1018 79 0 1.79 225 12:59 20.02.2020
2613 Rain 6 1018 80 0 2.24 180 12:40 20.02.2020
2614 Rain 6 1019 81 0 2.24 180 12:19 20.02.2020
2615 Rain 6 1019 81 0 2.24 180 11:57 20.02.2020
2616 Rain 6 1019 82 0 2.68 180 11:39 20.02.2020
2617 Clouds 5 1020 83 0 1.79 202 11:19 20.02.2020
2618 Clouds 5 1020 85 0 1.79 180 10:55 20.02.2020
2619 Clouds 4 1020 86 0 2.24 202 10:36 20.02.2020
2620 Clouds 4 1020 87 0 2.24 180 10:18 20.02.2020
2621 Clouds 3 1020 89 0 1.79 180 09:38 20.02.2020
2622 Clouds 3 1021 89 0 1.34 180 09:19 20.02.2020
2623 Clouds 2 1021 90 0 1.34 180 08:41 20.02.2020
2624 Clouds 2 1021 89 0 1.34 180 08:23 20.02.2020
2625 Clear 1 1021 89 0 0.45 180 07:47 20.02.2020
2626 Clear 1 1021 88 0 0.89 180 07:27 20.02.2020
2627 Clear 1 1021 89 0 0.45 225 06:57 20.02.2020
2628 Clear 1 1021 88 0 6.77 210 06:38 20.02.2020
2629 Clear 2 1021 88 0 0.89 225 05:47 20.02.2020
2630 Clear 3 1021 89 0 0.45 225 05:24 20.02.2020
2631 Clear 3 1021 89 0 7.49 254 04:48 20.02.2020
2632 Clear 3 1021 88 0 0.89 247 03:46 20.02.2020
2633 Clear 4 1021 89 0 0.89 225 02:47 20.02.2020
2634 Rain 4 1020 90 0 0.45 270 01:25 20.02.2020
2635 Rain 4 1019 90 0 0.89 270 00:46 20.02.2020
2636 Rain 4 1019 91 0 0.89 292 00:24 20.02.2020
2637 Rain 4 1019 90 0 9.79 275 23:46 19.02.2020
2638 Rain 4 1019 90 0 0.89 270 23:18 19.02.2020
2639 Rain 4 1019 90 0 10.23 285 22:43 19.02.2020
2640 Rain 4 1019 90 0 10.23 285 22:43 19.02.2020
2641 Rain 4 1018 90 0 0.45 270 22:24 19.02.2020
2642 Rain 3 1018 90 0 0.45 270 21:58 19.02.2020
2643 Rain 3 1018 89 0 0.45 270 21:40 19.02.2020
2644 Rain 3 1018 89 0 0.45 292 21:19 19.02.2020
2645 Rain 3 1018 88 0 0.89 315 20:57 19.02.2020
2646 Rain 3 1017 88 0 0.89 292 20:38 19.02.2020
2647 Rain 3 1017 88 0 0.89 292 20:38 19.02.2020
2648 Clouds 3 1017 88 0 7.65 266 20:19 19.02.2020
2649 Clouds 3 1017 87 0 7.65 266 19:57 19.02.2020
2650 Clouds 3 1017 87 0 0.45 270 19:38 19.02.2020
2651 Clouds 4 1017 86 0 0.89 270 19:19 19.02.2020
2652 Clouds 4 1016 85 0 0.45 270 18:57 19.02.2020
2653 Clouds 4 1016 85 0 0.89 315 18:39 19.02.2020
2654 Clouds 5 1016 84 0 0.89 315 18:21 19.02.2020
2655 Clouds 5 1015 81 0 1.79 315 17:55 19.02.2020
2656 Clouds 5 1015 81 0 2.24 315 17:37 19.02.2020
2657 Rain 6 1015 80 0 1.79 292 17:18 19.02.2020
2658 Rain 6 1014 76 0 0.89 292 16:41 19.02.2020
2659 Rain 6 1014 75 0 1.79 292 16:18 19.02.2020
2660 Rain 7 1013 73 0 1.79 315 15:54 19.02.2020
2661 Rain 7 1013 71 0 1.79 292 15:36 19.02.2020
2662 Rain 8 1013 71 0 0.89 270 15:18 19.02.2020
2663 Rain 7 1012 75 0 2.24 315 14:40 19.02.2020
2664 Rain 7 1012 73 0 2.24 315 14:22 19.02.2020
2665 Clouds 7 1012 79 0 0.45 0 13:43 19.02.2020
2666 Clouds 7 1012 74 0 0.89 292 13:23 19.02.2020
2667 Clouds 7 1011 76 0 3.13 315 12:58 19.02.2020
2668 -273 0 0 0 0 0 12:37 19.02.2020
2669 Clouds 7 1011 79 0 1.79 292 12:18 19.02.2020
2670 Clouds 6 1011 81 0 1.79 315 11:39 19.02.2020
2671 Rain 6 1011 83 0 1.34 292 11:20 19.02.2020
2672 Rain 6 1011 85 0 0.89 315 10:59 19.02.2020
2673 Rain 6 1011 86 0 0.45 292 10:39 19.02.2020
2674 Rain 6 1011 87 0 0.45 292 10:20 19.02.2020
2675 Rain 6 1010 87 0 6.51 257 09:59 19.02.2020
2676 Rain 6 1010 86 0 0.45 247 09:41 19.02.2020
2677 Rain 6 1010 86 0 0.45 247 09:41 19.02.2020
2678 Rain 6 1010 86 0 0.89 247 09:20 19.02.2020
2679 Rain 5 1011 86 0 6.51 257 08:48 19.02.2020
2680 Rain 5 1010 85 0 1.34 225 08:24 19.02.2020
2681 Rain 5 1010 85 0 1.34 225 08:24 19.02.2020
2682 Rain 5 1010 85 0 1.34 225 08:24 19.02.2020
2683 Rain 5 1010 84 0 2.24 225 07:59 19.02.2020
2684 Rain 5 1010 84 0 1.79 225 07:39 19.02.2020
2685 Rain 5 1010 84 0 2.24 202 07:20 19.02.2020
2686 Rain 5 1010 84 0 1.79 225 06:45 19.02.2020
2687 Rain 5 1011 84 0 2.24 225 05:32 19.02.2020
2688 Clouds 5 1012 83 0 2.24 202 03:53 19.02.2020
2689 Clouds 5 1013 83 0 2.24 225 02:36 19.02.2020
2690 Rain 5 1014 83 0 1.79 225 01:53 19.02.2020
2691 Clouds 5 1014 82 0 2.24 225 01:23 19.02.2020
2692 Clouds 6 1015 83 0 1.79 225 00:41 19.02.2020
2693 Clouds 6 1015 83 0 1.79 225 00:41 19.02.2020
2694 Clouds 5 1015 83 0 1.79 247 00:22 19.02.2020
2695 Clouds 5 1015 83 0 1.34 225 23:40 18.02.2020
2696 Clouds 5 1016 83 0 2.24 225 23:20 18.02.2020
2697 Clouds 5 1016 82 0 0.89 247 22:55 18.02.2020
2698 Clouds 5 1016 82 0 0.89 247 22:37 18.02.2020
2699 Clouds 5 1017 82 0 2.24 225 22:19 18.02.2020
2700 Clouds 5 1017 81 0 0.89 225 21:55 18.02.2020
2701 Clouds 5 1017 81 0 1.79 225 21:36 18.02.2020
2702 Clouds 5 1017 81 0 1.34 225 21:18 18.02.2020
2703 Clouds 5 1017 81 0 1.79 247 20:54 18.02.2020
2704 Clouds 5 1017 82 0 0.45 225 20:36 18.02.2020
2705 Clouds 5 1017 82 0 1.79 225 20:18 18.02.2020
2706 Clouds 5 1017 83 0 1.34 225 19:42 18.02.2020
2707 Clouds 4 1017 83 0 1.34 225 19:19 18.02.2020
2708 Clouds 4 1017 82 0 0.89 292 18:57 18.02.2020
2709 Clouds 5 1017 80 0 11.49 241 18:39 18.02.2020
2710 Clouds 6 1018 78 0 1.79 247 18:19 18.02.2020
2711 Clouds 6 1017 74 0 0.45 225 17:42 18.02.2020
2712 Rain 6 1017 73 0 0.89 247 17:20 18.02.2020
2713 Rain 7 1017 75 0 0.45 292 16:41 18.02.2020
2714 Rain 7 1017 76 0 1.34 270 16:22 18.02.2020
2715 Rain 6 1017 78 0 0.45 292 15:59 18.02.2020
2716 Rain 6 1017 78 0 0.45 292 15:40 18.02.2020
2717 Rain 7 1017 78 0 0.89 270 15:19 18.02.2020
2718 Rain 7 1017 79 0 1.79 292 14:56 18.02.2020
2719 Rain 6 1017 79 0 2.68 247 14:38 18.02.2020
2720 Rain 6 1017 81 0 0.89 270 14:20 18.02.2020
2721 Rain 6 1017 84 0 0.89 270 13:41 18.02.2020
2722 Rain 6 1016 84 0 1.34 292 13:22 18.02.2020
2723 Rain 6 1017 81 0 2.24 292 12:56 18.02.2020
2724 Rain 7 1016 79 0 2.24 225 12:38 18.02.2020
2725 Rain 6 1016 80 0 0.45 292 12:19 18.02.2020
2726 Rain 7 1016 78 0 0.89 247 11:44 18.02.2020
2727 Rain 7 1016 77 0 1.34 292 11:26 18.02.2020
2728 Rain 7 1016 80 0 0.45 337 10:57 18.02.2020
2729 Rain 6 1016 83 0 0.45 315 10:39 18.02.2020
2730 Rain 6 1016 83 0 1.34 225 10:18 18.02.2020
2731 Rain 5 1016 82 0 0.89 292 09:56 18.02.2020
2732 Rain 5 1016 81 0 1.34 247 09:37 18.02.2020
2733 Rain 6 1016 84 0 1.34 202 09:18 18.02.2020
2734 Rain 6 1015 87 0 0.89 225 08:43 18.02.2020
2735 Rain 6 1015 87 0 1.79 225 08:21 18.02.2020
2736 Clouds 5 1015 87 0 1.34 225 07:57 18.02.2020
2737 Clouds 5 1015 87 0 0.45 225 07:36 18.02.2020
2738 Clouds 5 1015 86 0 1.34 225 07:18 18.02.2020
2739 Clouds 6 1014 86 0 0.89 225 06:41 18.02.2020
2740 Clouds 6 1014 86 0 0.45 225 06:21 18.02.2020
2741 Clouds 6 1014 86 0 0.45 225 05:46 18.02.2020
2742 Rain 6 1014 86 0 0.89 292 04:40 18.02.2020
2743 Rain 6 1014 84 0 1.34 225 03:36 18.02.2020
2744 Rain 6 1013 82 0 0.89 225 02:49 18.02.2020
2745 Clouds 6 1013 81 0 0.89 225 01:21 18.02.2020
2746 Clouds 6 1013 80 0 1.34 225 00:22 18.02.2020
2747 Clouds 6 1013 78 0 0.89 225 23:57 17.02.2020
2748 Clouds 6 1013 78 0 10.2 234 23:38 17.02.2020
2749 Clouds 6 1012 77 0 10.44 236 23:19 17.02.2020
2750 Clouds 6 1013 76 0 0.45 247 22:56 17.02.2020
2751 Clouds 6 1013 74 0 10.44 236 22:38 17.02.2020
2752 Clouds 6 1013 74 0 10.44 236 22:18 17.02.2020
2753 Clouds 7 1012 72 0 10.44 236 21:39 17.02.2020
2754 Clouds 7 1012 73 0 1.34 270 21:18 17.02.2020
2755 Clouds 7 1012 74 0 1.79 225 20:55 17.02.2020
2756 Clouds 7 1012 74 0 1.79 225 20:36 17.02.2020
2757 Clouds 7 1012 74 0 1.79 225 20:36 17.02.2020
2758 Clouds 7 1012 75 0 2.24 202 20:18 17.02.2020
2759 Clouds 7 1012 74 0 2.24 225 19:42 17.02.2020
2760 Clouds 7 1012 74 0 2.68 225 19:20 17.02.2020
2761 Clouds 7 1012 74 0 1.79 225 18:39 17.02.2020
2762 Clouds 7 1012 74 0 1.79 225 18:39 17.02.2020
2763 Clouds 7 1012 73 0 1.79 202 18:20 17.02.2020
2764 Clouds 8 1012 73 0 1.79 202 18:00 17.02.2020
2765 Clouds 8 1012 72 0 1.79 225 17:38 17.02.2020
2766 Clouds 8 1012 72 0 1.79 225 17:19 17.02.2020
2767 Clouds 8 1012 70 0 2.68 225 16:58 17.02.2020
2768 Clouds 9 1012 68 0 2.24 202 16:40 17.02.2020
2769 Clouds 9 1012 66 0 1.79 225 16:21 17.02.2020
2770 Clouds 9 1012 65 0 1.34 225 15:46 17.02.2020
2771 Clouds 9 1012 62 0 1.79 247 15:27 17.02.2020
2772 Clouds 10 1012 61 0 0.89 247 14:58 17.02.2020
2773 Clouds 10 1012 60 0 0.45 247 14:39 17.02.2020
2774 Clouds 11 1012 60 0 2.24 247 14:20 17.02.2020
2775 Clouds 10 1012 61 0 3.13 225 13:55 17.02.2020
2776 Clouds 10 1011 61 0 0.89 247 13:36 17.02.2020
2777 Clouds 10 1012 62 0 2.68 225 13:18 17.02.2020
2778 Clouds 9 1011 66 0 0.45 67 12:42 17.02.2020
2779 Clouds 9 1011 70 0 1.79 247 12:23 17.02.2020
2780 Clouds 8 1012 70 0 0.89 270 11:57 17.02.2020
2781 Clouds 8 1012 71 0 1.34 225 11:39 17.02.2020
2782 Clouds 8 1012 71 0 1.34 225 11:39 17.02.2020
2783 Clouds 8 1012 70 0 1.34 247 11:20 17.02.2020
2784 Clouds 8 1011 71 0 0.45 225 10:41 17.02.2020
2785 Clouds 8 1011 71 0 0.45 225 10:41 17.02.2020
2786 Clouds 8 1011 72 0 0.45 202 10:22 17.02.2020
2787 Clouds 8 1011 72 0 0.45 202 10:22 17.02.2020
2788 Clouds 8 1011 73 0 0.89 225 09:59 17.02.2020
2789 Clouds 8 1011 73 0 2.24 270 09:41 17.02.2020
2790 Clouds 8 1011 75 0 0.45 270 09:21 17.02.2020
2791 Clouds 7 1010 78 0 1.34 292 08:57 17.02.2020
2792 Clouds 7 1010 78 0 0.45 292 08:39 17.02.2020
2793 Rain 7 1010 79 0 2.24 270 08:19 17.02.2020
2794 Rain 7 1009 81 0 1.34 225 07:43 17.02.2020
2795 Rain 7 1009 82 0 0.89 225 07:23 17.02.2020
2796 Rain 7 1008 80 0 2.24 225 06:52 17.02.2020
2797 Rain 7 1008 79 0 1.34 225 06:32 17.02.2020
2798 Rain 7 1008 72 0 2.24 247 05:56 17.02.2020
2799 Rain 8 1007 71 0 0.45 315 05:37 17.02.2020
2800 Rain 8 1005 80 0 1.79 202 03:21 17.02.2020
2801 Rain 9 1003 83 0 2.68 247 01:58 17.02.2020
2802 Rain 9 1003 86 0 0.45 225 00:48 17.02.2020
2803 Rain 8 1002 86 0 1.79 225 00:22 17.02.2020
2804 Rain 8 1001 85 0 1.79 247 23:54 16.02.2020
2805 Rain 8 1001 85 0 1.79 247 23:54 16.02.2020
2806 Rain 8 1001 85 0 0.89 225 23:33 16.02.2020
2807 Rain 10 1001 81 0 2.68 315 22:58 16.02.2020
2808 Rain 10 1001 81 0 2.68 315 22:58 16.02.2020
2809 Rain 12 1000 71 0 2.24 292 22:39 16.02.2020
2810 Rain 12 1000 71 0 2.24 292 22:39 16.02.2020
2811 Rain 14 997 65 0 2.68 247 22:21 16.02.2020
2812 Rain 13 996 67 0 2.68 202 21:58 16.02.2020
2813 Rain 13 996 67 0 3.13 202 21:40 16.02.2020
2814 Rain 13 996 67 0 4.02 202 21:22 16.02.2020
2815 Rain 13 997 67 0 4.02 225 20:58 16.02.2020
2816 Rain 13 997 67 0 2.68 202 20:39 16.02.2020
2817 Rain 13 997 68 0 3.13 180 20:21 16.02.2020
2818 Rain 13 997 68 0 3.13 180 20:21 16.02.2020
2819 Rain 13 998 69 0 2.68 202 19:58 16.02.2020
2820 Rain 13 998 70 0 2.68 202 19:38 16.02.2020
2821 Rain 13 998 71 0 4.02 202 19:19 16.02.2020
2822 Rain 12 1000 75 0 2.24 202 18:45 16.02.2020
2823 Rain 12 1000 75 0 2.24 202 18:26 16.02.2020
2824 Rain 12 1001 77 0 2.68 202 17:58 16.02.2020
2825 Rain 12 1001 77 0 3.13 202 17:40 16.02.2020
2826 Rain 12 1001 79 0 2.24 202 17:19 16.02.2020
2827 Rain 12 1002 80 0 2.68 202 16:56 16.02.2020
2828 Rain 12 1002 80 0 2.68 202 16:38 16.02.2020
2829 Rain 12 1002 81 0 2.68 180 16:19 16.02.2020
2830 Rain 12 1002 83 0 2.68 202 15:41 16.02.2020
2831 Rain 12 1002 83 0 2.68 202 15:41 16.02.2020
2832 Rain 12 1003 83 0 2.24 202 15:23 16.02.2020
2833 Rain 11 1003 84 0 2.24 202 14:59 16.02.2020
2834 Rain 11 1003 85 0 2.24 225 14:38 16.02.2020
2835 Rain 11 1004 85 0 2.68 225 14:19 16.02.2020
2836 Rain 11 1004 85 0 2.68 202 13:45 16.02.2020
2837 Rain 11 1004 85 0 3.13 202 13:24 16.02.2020
2838 Rain 11 1005 87 0 2.68 225 12:54 16.02.2020
2839 Rain 10 1005 88 0 3.13 202 12:36 16.02.2020
2840 Rain 9 1005 88 0 2.68 202 12:18 16.02.2020
2841 Rain 9 1006 89 0 2.68 202 11:38 16.02.2020
2842 Rain 9 1006 89 0 3.13 180 11:18 16.02.2020
2843 Rain 9 1006 88 0 2.68 180 10:56 16.02.2020
2844 Rain 8 1007 87 0 2.24 202 10:38 16.02.2020
2845 Rain 8 1007 87 0 2.68 180 10:19 16.02.2020
2846 Rain 8 1007 84 0 3.13 202 09:55 16.02.2020
2847 Rain 8 1008 84 0 2.68 180 09:36 16.02.2020
2848 Rain 8 1008 82 0 2.68 202 09:18 16.02.2020
2849 Rain 8 1008 81 0 1.79 202 08:44 16.02.2020
2850 Clouds 8 1008 80 0 1.79 180 08:21 16.02.2020
2851 Clouds 8 1009 79 0 1.79 180 07:51 16.02.2020
2852 Clouds 8 1009 79 0 1.79 180 07:51 16.02.2020
2853 Clouds 8 1009 78 0 1.34 180 07:33 16.02.2020
2854 Clouds 8 1010 78 0 2.24 225 06:33 16.02.2020
2855 Rain 8 1011 78 0 1.79 202 04:44 16.02.2020
2856 Rain 8 1011 79 0 2.24 180 03:31 16.02.2020
2857 Rain 7 1012 80 0 1.79 180 02:32 16.02.2020
2858 Clouds 7 1012 82 0 2.68 180 01:43 16.02.2020
2859 Clouds 7 1013 82 0 2.24 202 01:23 16.02.2020
2860 Clouds 7 1014 83 0 2.24 202 00:58 16.02.2020
2861 Clouds 7 1013 84 0 2.24 180 00:34 16.02.2020
2862 Clouds 7 1014 84 0 1.79 202 23:58 15.02.2020
2863 Clouds 7 1015 84 0 1.79 202 23:40 15.02.2020
2864 Clouds 7 1015 84 0 2.24 180 23:22 15.02.2020
2865 Clouds 6 1015 85 0 2.24 225 22:56 15.02.2020
2866 Clouds 6 1015 85 0 2.24 180 22:37 15.02.2020
2867 Clouds 6 1016 85 0 1.79 202 22:18 15.02.2020
2868 Clouds 6 1016 87 0 1.79 180 21:42 15.02.2020
2869 Clouds 6 1017 87 0 1.79 180 21:23 15.02.2020
2870 Clouds 6 1017 87 0 1.79 202 20:55 15.02.2020
2871 Clouds 6 1017 87 0 1.34 180 20:36 15.02.2020
2872 Clouds 6 1017 87 0 1.79 180 20:18 15.02.2020
2873 Clouds 6 1018 87 0 2.24 202 19:40 15.02.2020
2874 Clouds 6 1018 87 0 1.79 202 19:21 15.02.2020
2875 Clouds 6 1019 86 0 0.89 180 18:40 15.02.2020
2876 Clouds 6 1019 86 0 1.79 180 18:20 15.02.2020
2877 Clouds 6 1019 84 0 0.89 180 17:55 15.02.2020
2878 Clouds 6 1020 84 0 0.89 180 17:37 15.02.2020
2879 Clear 7 1020 83 0 0.89 180 17:18 15.02.2020
2880 Clear 8 1020 82 0 0.89 180 16:41 15.02.2020
2881 Clear 8 1020 81 0 1.79 202 16:21 15.02.2020
2882 Clear 9 1020 80 0 1.34 202 15:54 15.02.2020
2883 Clear 9 1020 80 0 1.79 202 15:36 15.02.2020
2884 Clear 9 1020 80 0 1.79 202 15:18 15.02.2020
2885 Clear 9 1021 79 0 1.34 202 14:39 15.02.2020
2886 Clouds 9 1021 80 0 1.34 180 14:18 15.02.2020
2887 Clouds 8 1021 82 0 2.24 225 13:42 15.02.2020
2888 Clouds 8 1022 83 0 2.24 202 13:23 15.02.2020
2889 Clouds 8 1022 83 0 2.24 225 12:59 15.02.2020
2890 Clouds 8 1022 84 0 2.68 225 12:40 15.02.2020
2891 Clouds 7 1022 85 0 2.24 202 12:21 15.02.2020
2892 Clouds 6 1023 86 0 1.79 202 11:47 15.02.2020
2893 Clouds 6 1023 86 0 1.79 202 11:47 15.02.2020
2894 Clouds 6 1023 87 0 1.79 202 11:27 15.02.2020
2895 Clouds 5 1023 88 0 2.24 202 10:51 15.02.2020
2896 Clouds 5 1023 88 0 2.68 180 10:30 15.02.2020
2897 Clouds 4 1023 89 0 2.24 180 09:59 15.02.2020
2898 Clouds 4 1024 90 0 2.24 202 09:41 15.02.2020
2899 Clouds 4 1024 90 0 1.79 180 09:23 15.02.2020
2900 Clouds 3 1024 91 0 2.68 180 08:43 15.02.2020
2901 Clouds 3 1024 91 0 1.79 180 08:25 15.02.2020
2902 Clouds 3 1025 91 0 1.79 202 07:56 15.02.2020
2903 Clouds 3 1025 91 0 1.79 202 07:56 15.02.2020
2904 Clouds 3 1025 91 0 1.79 202 07:34 15.02.2020
2905 Clouds 3 1025 92 0 1.34 202 06:59 15.02.2020
2906 Clouds 3 1025 91 0 0.89 180 06:36 15.02.2020
2907 Clouds 3 1025 91 0 1.79 180 05:54 15.02.2020
2908 Clouds 2 1025 91 0 0.89 180 04:48 15.02.2020
2909 Clouds 3 1026 91 0 1.79 180 03:43 15.02.2020
2910 Clouds 2 1027 90 0 0.45 180 02:58 15.02.2020
2911 Clouds 2 1027 90 0 0.45 202 02:23 15.02.2020
2912 Clouds 2 1027 90 0 0.89 180 01:41 15.02.2020
2913 Clouds 1 1027 89 0 0.89 180 00:56 15.02.2020
2914 Clouds 1 1028 88 0 0.45 180 00:26 15.02.2020
2915 Clouds 1 1027 88 0 0.45 180 23:44 14.02.2020
2916 Clouds 1 1027 87 0 0.45 180 23:21 14.02.2020
2917 Clouds 1 1027 87 0 0.45 180 22:54 14.02.2020
2918 Clouds 1 1027 87 0 0.45 180 22:36 14.02.2020
2919 Clouds 1 1027 87 0 0.45 180 22:36 14.02.2020
2920 Clouds 1 1027 87 0 5.66 198 22:18 14.02.2020
2921 Clouds 1 1027 86 0 5.66 198 21:41 14.02.2020
2922 Clouds 1 1027 86 0 5.66 198 21:23 14.02.2020
2923 Clouds 1 1027 85 0 5.66 198 20:44 14.02.2020
2924 Clear 2 1027 85 0 3.19 166 20:20 14.02.2020
2925 Clear 2 1027 85 0 4.29 163 19:59 14.02.2020
2926 Clear 2 1026 85 0 4.29 163 19:40 14.02.2020
2927 Clear 2 1026 85 0 4.29 163 19:21 14.02.2020
2928 Clear 3 1026 84 0 4.29 163 18:56 14.02.2020
2929 Clear 3 1026 84 0 4.29 163 18:38 14.02.2020
2930 Clear 3 1025 84 0 4.29 163 18:19 14.02.2020
2931 Clear 4 1025 83 0 4.29 163 17:43 14.02.2020
2932 Clear 4 1024 83 0 4.29 163 17:21 14.02.2020
2933 Clear 6 1024 82 0 2.12 134 16:58 14.02.2020
2934 Clear 6 1024 82 0 2.12 134 16:39 14.02.2020
2935 Clear 6 1024 82 0 2.12 134 16:21 14.02.2020
2936 Clear 7 1024 82 0 0.45 315 15:56 14.02.2020
2937 Clear 7 1024 82 0 2.12 134 15:37 14.02.2020
2938 Clear 7 1024 82 0 2.12 134 15:37 14.02.2020
2939 Clear 7 1024 82 0 2.12 134 15:37 14.02.2020
2940 Clear 7 1024 82 0 2.12 134 15:37 14.02.2020
2941 Clear 7 1023 82 0 0.45 315 15:19 14.02.2020
2942 Clear 7 1023 84 0 2.12 134 14:58 14.02.2020
2943 Clear 7 1023 85 0 2.12 134 14:39 14.02.2020
2944 Clouds 6 1022 85 0 2.6 124 14:21 14.02.2020
2945 Clouds 6 1022 89 0 2.6 124 13:54 14.02.2020
2946 Clouds 5 1022 88 0 2.6 124 13:36 14.02.2020
2947 Clouds 5 1022 88 0 2.58 102 13:18 14.02.2020
2948 Clouds 5 1021 89 0 2.58 102 12:54 14.02.2020
2949 Clouds 5 1021 89 0 2.58 102 12:54 14.02.2020
2950 Clouds 5 1021 89 0 2.58 102 12:36 14.02.2020
2951 Clouds 5 1021 89 0 2.58 102 12:18 14.02.2020
2952 Clouds 5 1020 90 0 2.58 102 11:41 14.02.2020
2953 Clouds 6 1019 91 0 2.84 80 11:21 14.02.2020
2954 Clouds 5 1019 91 0 2.84 80 10:57 14.02.2020
2955 Clouds 5 1019 91 0 2.84 80 10:38 14.02.2020
2956 Clouds 4 1018 91 0 2.84 80 10:20 14.02.2020
2957 Clouds 4 1018 91 0 2.84 80 09:44 14.02.2020
2958 Clouds 3 1018 91 0 2.84 80 09:22 14.02.2020
2959 Clouds 3 1017 91 0 2.84 80 08:56 14.02.2020
2960 Clouds 2 1017 91 0 2.84 80 08:37 14.02.2020
2961 Rain 2 1016 90 0 2.4 99 08:18 14.02.2020
2962 Rain 2 1016 90 0 2.4 99 07:44 14.02.2020
2963 Rain 2 1015 90 0 2.4 99 07:24 14.02.2020
2964 Rain 2 1014 90 0 2.4 99 06:32 14.02.2020
2965 Rain 2 1013 90 0 0.45 135 05:59 14.02.2020
2966 Rain 2 1013 90 0 2.4 99 05:27 14.02.2020
2967 Rain 2 1012 90 0 0.45 135 03:31 14.02.2020
2968 Rain 2 1011 90 0 0.89 135 02:53 14.02.2020
2969 Snow 3 1010 90 0 1.34 135 01:55 14.02.2020
2970 Rain 3 1009 89 0 1.79 135 00:45 14.02.2020
2971 Rain 2 1009 89 0 0.89 135 00:25 14.02.2020
2972 Rain 2 1009 88 0 0.89 135 23:56 13.02.2020
2973 Rain 2 1009 87 0 0.89 135 23:37 13.02.2020
2974 Clouds 3 1009 86 0 1.34 135 23:18 13.02.2020
2975 Clouds 3 1009 84 0 0.89 157 22:38 13.02.2020
2976 Clouds 3 1009 83 0 0.89 157 22:19 13.02.2020
2977 Clouds 4 1009 82 0 0.45 135 21:56 13.02.2020
2978 Clouds 4 1009 81 0 0.89 135 21:37 13.02.2020
2979 Clouds 4 1008 81 0 0.89 135 21:19 13.02.2020
2980 Clouds 4 1009 82 0 1.34 135 20:42 13.02.2020
2981 Clouds 4 1009 82 0 0.89 135 20:22 13.02.2020
2982 Clouds 4 1009 83 0 0.89 135 19:57 13.02.2020
2983 Clouds 4 1009 83 0 0.89 135 19:38 13.02.2020
2984 Clouds 4 1009 83 0 1.34 157 19:20 13.02.2020
2985 Clouds 4 1009 83 0 0.89 157 18:57 13.02.2020
2986 Clouds 4 1009 83 0 0.89 135 18:39 13.02.2020
2987 Clouds 4 1009 83 0 1.79 135 18:20 13.02.2020
2988 Clouds 4 1009 83 0 1.79 157 17:57 13.02.2020
2989 Clouds 4 1009 83 0 1.79 157 17:37 13.02.2020
2990 Clouds 4 1010 82 0 0.89 157 17:18 13.02.2020
2991 Clouds 4 1010 81 0 0.89 157 16:42 13.02.2020
2992 Clouds 4 1010 81 0 1.34 157 16:21 13.02.2020
2993 Clouds 5 1010 80 0 0.89 157 15:58 13.02.2020
2994 Clouds 5 1010 81 0 0.45 157 15:39 13.02.2020
2995 Clouds 6 1010 80 0 0.45 157 15:20 13.02.2020
2996 Clouds 6 1011 79 0 1.34 180 14:59 13.02.2020
2997 Clouds 6 1012 79 0 0.89 180 14:40 13.02.2020
2998 Clouds 6 1012 79 0 0.89 180 14:40 13.02.2020
2999 Clouds 6 1012 79 0 0.89 180 14:22 13.02.2020
3000 Clouds 6 1012 81 0 1.34 180 13:59 13.02.2020
3001 Clouds 6 1012 81 0 0.89 225 13:41 13.02.2020
3002 Clouds 6 1013 81 0 1.34 202 13:18 13.02.2020
3003 Clouds 6 1013 81 0 1.34 225 12:48 13.02.2020
3004 Clouds 6 1014 82 0 1.79 202 12:30 13.02.2020
3005 Clouds 6 1014 82 0 1.79 202 12:30 13.02.2020
3006 Clouds 6 1014 83 0 1.34 202 11:58 13.02.2020
3007 Clouds 5 1014 84 0 1.79 225 11:40 13.02.2020
3008 Clouds 5 1014 84 0 0.89 225 11:19 13.02.2020
3009 Clouds 4 1014 86 0 1.79 225 10:43 13.02.2020
3010 Clouds 3 1014 87 0 0.45 225 10:25 13.02.2020
3011 Clouds 3 1014 88 0 0.89 225 09:50 13.02.2020
3012 Clouds 2 1015 88 0 0.89 225 09:24 13.02.2020
3013 Clouds 2 1015 89 0 1.34 225 08:48 13.02.2020
3014 Clouds 1 1015 89 0 1.79 225 08:20 13.02.2020
3015 Clouds 1 1014 89 0 0.45 247 07:57 13.02.2020
3016 Clouds 1 1014 89 0 0.89 292 07:38 13.02.2020
3017 Clouds 1 1014 89 0 11.02 258 07:19 13.02.2020
3018 Clouds 1 1014 89 0 0.45 292 06:44 13.02.2020
3019 Clouds 1 1014 89 0 1.79 292 06:18 13.02.2020
3020 Clouds 2 1014 88 0 0.89 337 05:25 13.02.2020
3021 Rain 2 1013 88 0 2.24 315 04:25 13.02.2020
3022 Rain 2 1013 88 0 2.24 270 03:47 13.02.2020
3023 Rain 3 1012 89 0 0.89 292 03:18 13.02.2020
3024 Rain 3 1012 89 0 0.89 292 02:48 13.02.2020
3025 Rain 2 1012 89 0 1.34 292 02:19 13.02.2020
3026 Rain 2 1011 88 0 0.45 292 01:28 13.02.2020
3027 Rain 3 1011 85 0 2.24 157 00:33 13.02.2020
3028 Rain 3 1011 84 0 1.34 270 23:59 12.02.2020
3029 Rain 3 1011 84 0 2.68 247 23:38 12.02.2020
3030 Rain 3 1011 84 0 1.34 270 23:20 12.02.2020
3031 Rain 3 1010 86 0 1.79 270 22:44 12.02.2020
3032 Rain 3 1010 86 0 0.89 270 22:24 12.02.2020
3033 Rain 3 1010 86 0 0.45 247 21:58 12.02.2020
3034 Rain 3 1010 86 0 2.24 270 21:40 12.02.2020
3035 Rain 3 1010 85 0 1.34 315 21:19 12.02.2020
3036 Rain 3 1009 86 0 1.34 292 20:56 12.02.2020
3037 Rain 3 1010 86 0 0.45 0 20:37 12.02.2020
3038 Clouds 3 1009 86 0 0.45 247 20:19 12.02.2020
3039 Rain 3 1009 85 0 2.68 292 19:55 12.02.2020
3040 Clouds 3 1009 85 0 2.68 292 19:36 12.02.2020
3041 Rain 3 1009 85 0 2.68 292 19:36 12.02.2020
3042 Rain 4 1007 86 0 0.45 337 19:18 12.02.2020
3043 Clouds 4 1007 86 0 0.45 337 18:45 12.02.2020
3044 Rain 4 1007 86 0 0.45 337 18:19 12.02.2020
3045 Rain 4 1006 86 0 1.79 247 17:43 12.02.2020
3046 Rain 4 1006 87 0 1.79 270 17:21 12.02.2020
3047 Rain 4 1006 85 0 1.34 270 16:59 12.02.2020
3048 Rain 4 1006 86 0 0.45 247 16:39 12.02.2020
3049 Rain 4 1006 87 0 0.89 292 16:19 12.02.2020
3050 Rain 4 1005 87 0 1.34 270 15:43 12.02.2020
3051 Rain 4 1005 87 0 1.34 270 15:43 12.02.2020
3052 Rain 4 1005 87 0 0.89 292 15:24 12.02.2020
3053 Rain 4 1004 87 0 1.79 292 14:59 12.02.2020
3054 Rain 4 1004 88 0 0.89 22 14:41 12.02.2020
3055 Rain 4 1004 88 0 0.89 292 14:20 12.02.2020
3056 Rain 4 1004 89 0 0.45 247 13:57 12.02.2020
3057 Rain 4 1004 90 0 1.34 270 13:39 12.02.2020
3058 Rain 4 1004 90 0 0.45 247 13:20 12.02.2020
3059 Rain 3 1004 90 0 1.34 202 12:57 12.02.2020
3060 Rain 3 1004 90 0 1.34 202 12:57 12.02.2020
3061 Rain 3 1004 90 0 1.34 270 12:38 12.02.2020
3062 Rain 3 1004 90 0 1.34 270 12:18 12.02.2020
3063 Rain 3 1004 90 0 0.45 225 11:58 12.02.2020
3064 Rain 3 1004 89 0 1.34 292 11:39 12.02.2020
3065 Rain 3 1003 89 0 0.89 225 11:20 12.02.2020
3066 Rain 3 1003 87 0 0.89 247 10:55 12.02.2020
3067 Rain 3 1003 85 0 0.89 292 10:37 12.02.2020
3068 Rain 3 1003 85 0 0.45 45 10:19 12.02.2020
3069 Rain 3 1003 85 0 0.45 45 10:19 12.02.2020
3070 Rain 3 1003 86 0 0.89 247 09:42 12.02.2020
3071 Rain 3 1002 87 0 2.24 292 09:24 12.02.2020
3072 Rain 3 1002 87 0 2.24 292 09:24 12.02.2020
3073 Rain 3 1003 87 0 0.89 270 08:58 12.02.2020
3074 Rain 3 1002 88 0 3.13 270 08:38 12.02.2020
3075 Rain 3 1002 88 0 2.24 225 08:20 12.02.2020
3076 Rain 2 1002 88 0 1.34 247 07:45 12.02.2020
3077 Rain 2 1002 88 0 0.89 315 07:24 12.02.2020
3078 Rain 2 1002 88 0 1.34 0 06:59 12.02.2020
3079 Rain 2 1001 89 0 1.34 270 06:25 12.02.2020
3080 Rain 2 1001 90 0 1.79 270 05:47 12.02.2020
3081 Rain 2 1001 90 0 1.34 315 05:21 12.02.2020
3082 Rain 2 1001 91 0 0.89 247 04:41 12.02.2020
3083 Rain 1 1001 90 0 0.89 292 03:57 12.02.2020
3084 Rain 2 1001 89 0 0.89 270 03:28 12.02.2020
3085 Rain 2 1001 88 0 0.45 135 02:43 12.02.2020
3086 Rain 2 1001 87 0 1.34 315 02:24 12.02.2020
3087 Rain 3 1000 86 0 0.45 292 01:30 12.02.2020
3088 Snow 3 1000 86 0 1.34 292 00:41 12.02.2020
3089 Snow 2 1000 87 0 0.89 270 00:22 12.02.2020
3090 Snow 2 1000 88 0 0.45 270 23:49 11.02.2020
3091 Snow 2 1000 88 0 2.24 292 23:31 11.02.2020
3092 Rain 2 999 89 0 1.79 270 22:58 11.02.2020
3093 Rain 2 999 90 0 1.34 270 22:39 11.02.2020
3094 Rain 2 999 90 0 0.45 180 22:20 11.02.2020
3095 Rain 3 999 89 0 0.45 292 21:57 11.02.2020
3096 Rain 3 998 90 0 1.79 202 21:39 11.02.2020
3097 Rain 3 998 90 0 0.89 270 21:19 11.02.2020
3098 Rain 3 998 91 0 1.34 292 20:58 11.02.2020
3099 Rain 2 998 91 0 0.89 315 20:39 11.02.2020
3100 Rain 2 998 91 0 0.89 315 20:39 11.02.2020
3101 Rain 2 998 91 0 0.45 247 20:19 11.02.2020
3102 Rain 3 997 91 0 0.45 292 19:58 11.02.2020
3103 Rain 3 997 91 0 2.68 292 19:39 11.02.2020
3104 Rain 3 997 91 0 2.68 292 19:39 11.02.2020
3105 Rain 3 997 91 0 1.34 292 19:21 11.02.2020
3106 Rain 3 996 89 0 1.34 270 18:45 11.02.2020
3107 Rain 3 996 90 0 0.45 202 18:27 11.02.2020
3108 Rain 3 996 89 0 3.58 292 17:57 11.02.2020
3109 Rain 4 995 89 0 2.68 315 17:39 11.02.2020
3110 Rain 4 995 89 0 1.34 292 17:19 11.02.2020
3111 Rain 4 995 89 0 1.34 292 16:58 11.02.2020
3112 Rain 4 995 89 0 1.34 292 16:58 11.02.2020
3113 Rain 4 995 89 0 2.24 180 16:39 11.02.2020
3114 Rain 4 995 89 0 1.34 292 16:21 11.02.2020
3115 Rain 4 994 90 0 0.89 202 15:58 11.02.2020
3116 Rain 4 995 90 0 1.79 270 15:39 11.02.2020
3117 Rain 4 994 90 0 1.79 292 15:21 11.02.2020
3118 Rain 3 994 90 0 0.89 292 14:42 11.02.2020
3119 Rain 4 994 90 0 1.79 292 14:19 11.02.2020
3120 Rain 3 994 89 0 1.79 270 13:58 11.02.2020
3121 Rain 4 994 90 0 0.89 292 13:39 11.02.2020
3122 Rain 4 993 90 0 1.79 247 13:20 11.02.2020
3123 Rain 4 993 90 0 1.79 247 13:20 11.02.2020
3124 Rain 3 993 91 0 2.24 292 12:57 11.02.2020
3125 Rain 3 993 90 0 1.79 315 12:38 11.02.2020
3126 Rain 4 993 91 0 2.24 247 12:19 11.02.2020
3127 Rain 3 993 91 0 2.68 45 11:41 11.02.2020
3128 Rain 3 993 91 0 1.79 270 11:20 11.02.2020
3129 Rain 3 993 91 0 1.79 270 11:20 11.02.2020
3130 Rain 3 992 91 0 2.68 337 10:55 11.02.2020
3131 Rain 3 992 91 0 1.79 315 10:36 11.02.2020
3132 Rain 3 991 91 0 2.24 225 10:18 11.02.2020
3133 Rain 2 991 90 0 1.34 67 09:55 11.02.2020
3134 Rain 2 991 89 0 2.24 225 09:37 11.02.2020
3135 Rain 2 991 89 0 0.89 270 09:18 11.02.2020
3136 Rain 3 991 89 0 0.45 225 08:42 11.02.2020
3137 Rain 3 992 88 0 2.24 247 08:23 11.02.2020
3138 Rain 3 992 89 0 1.79 225 07:48 11.02.2020
3139 Rain 2 992 89 0 1.79 247 07:26 11.02.2020
3140 Rain 2 991 89 0 0.45 247 06:44 11.02.2020
3141 Rain 2 991 89 0 1.79 270 06:22 11.02.2020
3142 Rain 3 990 89 0 2.24 225 05:56 11.02.2020
3143 Rain 2 990 88 0 13.39 258 05:24 11.02.2020
3144 Rain 2 990 88 0 1.34 270 04:42 11.02.2020
3145 Rain 3 989 88 0 0.89 292 03:26 11.02.2020
3146 Rain 3 989 87 0 1.34 225 02:33 11.02.2020
3147 Rain 4 989 86 0 1.34 225 01:38 11.02.2020
3148 Rain 4 990 85 0 1.34 225 00:43 11.02.2020
3149 Rain 4 990 85 0 0.89 225 00:22 11.02.2020
3150 Rain 3 990 85 0 0.89 225 23:39 10.02.2020
3151 Clouds 3 991 85 0 0.89 202 23:20 10.02.2020
3152 Clouds 3 991 85 0 0.89 225 22:43 10.02.2020
3153 Clouds 3 992 85 0 1.79 225 22:21 10.02.2020
3154 Clouds 3 992 85 0 0.89 225 21:58 10.02.2020
3155 Clouds 3 992 85 0 1.79 225 21:40 10.02.2020
3156 Clouds 3 993 85 0 12.19 241 21:22 10.02.2020
3157 Clouds 4 993 85 0 1.34 247 20:55 10.02.2020
3158 Clouds 4 993 85 0 0.45 45 20:37 10.02.2020
3159 Rain 4 993 85 0 0.89 315 20:19 10.02.2020
3160 Rain 4 994 85 0 0.45 247 19:57 10.02.2020
3161 Rain 4 994 85 0 1.34 270 19:36 10.02.2020
3162 Rain 4 994 85 0 0.89 292 19:18 10.02.2020
3163 Rain 4 994 86 0 1.79 247 18:55 10.02.2020
3164 Rain 4 994 86 0 0.45 270 18:37 10.02.2020
3165 Rain 4 994 85 0 0.89 225 18:18 10.02.2020
3166 Rain 4 993 84 0 0.89 315 17:54 10.02.2020
3167 Rain 4 993 85 0 2.68 292 17:36 10.02.2020
3168 Rain 4 993 85 0 0.89 292 17:18 10.02.2020
3169 Rain 5 992 87 0 1.34 292 16:41 10.02.2020
3170 Rain 5 992 87 0 1.34 292 16:41 10.02.2020
3171 Rain 5 991 87 0 2.24 292 16:20 10.02.2020
3172 Rain 5 991 87 0 1.79 292 15:59 10.02.2020
3173 Rain 5 991 87 0 1.79 292 15:59 10.02.2020
3174 Rain 6 991 86 0 1.79 292 15:41 10.02.2020
3175 Rain 6 990 87 0 2.68 315 15:22 10.02.2020
3176 Rain 6 989 85 0 1.79 292 14:58 10.02.2020
3177 Rain 7 989 84 0 0.89 292 14:39 10.02.2020
3178 Rain 7 989 85 0 1.34 315 14:19 10.02.2020
3179 Rain 7 989 85 0 1.34 315 14:19 10.02.2020
3180 Rain 6 988 88 0 2.24 292 13:55 10.02.2020
3181 Rain 6 988 88 0 1.79 292 13:37 10.02.2020
3182 Rain 6 988 84 0 1.79 315 13:18 10.02.2020
3183 Rain 7 987 84 0 1.34 292 12:43 10.02.2020
3184 Rain 7 987 86 0 1.79 292 12:24 10.02.2020
3185 Rain 7 987 88 0 2.24 292 11:54 10.02.2020
3186 Rain 6 986 88 0 1.34 292 11:36 10.02.2020
3187 Rain 6 986 87 0 0.89 292 11:18 10.02.2020
3188 Rain 7 985 88 0 0.89 225 10:44 10.02.2020
3189 Rain 6 985 89 0 0.45 315 10:26 10.02.2020
3190 Rain 6 985 88 0 0.89 292 09:45 10.02.2020
3191 Rain 7 985 89 0 2.68 292 09:24 10.02.2020
3192 Rain 7 984 88 0 12.89 247 08:43 10.02.2020
3193 Rain 7 984 88 0 1.79 225 08:22 10.02.2020
3194 Rain 7 984 88 0 0.89 225 07:58 10.02.2020
3195 Rain 7 983 89 0 1.34 270 07:36 10.02.2020
3196 Rain 7 983 90 0 1.79 270 06:59 10.02.2020
3197 Rain 7 983 88 0 1.79 292 05:42 10.02.2020
3198 Rain 8 982 87 0 2.24 225 04:26 10.02.2020
3199 Rain 8 982 88 0 2.24 247 03:31 10.02.2020
3200 Rain 8 982 88 0 2.24 225 02:54 10.02.2020
3201 Rain 7 985 88 0 0.45 270 01:38 10.02.2020
3202 Rain 9 986 79 0 1.79 292 00:48 10.02.2020
3203 Rain 11 984 78 0 2.68 225 00:30 10.02.2020
3204 Rain 11 985 76 0 3.13 202 23:55 09.02.2020
3205 Rain 11 986 72 0 3.13 202 23:36 09.02.2020
3206 Rain 11 986 72 0 3.58 202 23:18 09.02.2020
3207 Rain 11 988 73 0 2.68 202 22:39 09.02.2020
3208 Rain 11 988 74 0 3.58 180 22:20 09.02.2020
3209 Rain 11 990 76 0 2.68 202 21:42 09.02.2020
3210 Rain 11 990 75 0 3.58 180 21:23 09.02.2020
3211 Rain 11 991 72 0 4.02 225 20:48 09.02.2020
3212 Rain 11 992 73 0 4.02 202 20:28 09.02.2020
3213 Rain 11 993 70 0 3.13 202 19:58 09.02.2020
3214 Rain 11 993 69 0 4.92 180 19:39 09.02.2020
3215 Rain 11 993 68 0 2.68 202 19:21 09.02.2020
3216 Rain 11 994 68 0 3.58 202 18:57 09.02.2020
3217 Rain 11 994 68 0 5.36 180 18:38 09.02.2020
3218 Rain 11 995 68 0 3.58 180 18:20 09.02.2020
3219 Rain 11 997 68 0 4.92 180 17:42 09.02.2020
3220 Rain 11 997 69 0 3.58 202 17:23 09.02.2020
3221 Rain 10 998 71 0 3.58 180 16:56 09.02.2020
3222 Rain 10 999 72 0 2.68 202 16:38 09.02.2020
3223 Rain 10 1000 72 0 2.68 247 16:18 09.02.2020
3224 Rain 10 1001 73 0 2.68 202 15:56 09.02.2020
3225 Rain 10 1002 73 0 3.13 225 15:38 09.02.2020
3226 Rain 10 1003 74 0 2.68 180 15:19 09.02.2020
3227 Rain 9 1004 77 0 3.13 202 14:42 09.02.2020
3228 Rain 9 1004 77 0 2.68 180 14:23 09.02.2020
3229 Clouds 9 1006 77 0 2.24 202 13:55 09.02.2020
3230 Clouds 9 1006 77 0 2.24 157 13:36 09.02.2020
3231 Clouds 9 1007 77 0 2.68 180 13:18 09.02.2020
3232 Clouds 9 1009 78 0 3.13 180 12:42 09.02.2020
3233 Clouds 9 1010 78 0 2.68 180 12:20 09.02.2020
3234 Clouds 9 1010 78 0 2.68 180 12:20 09.02.2020
3235 Clouds 9 1011 79 0 2.68 202 11:57 09.02.2020
3236 Clouds 9 1012 80 0 2.68 202 11:38 09.02.2020
3237 Clouds 8 1012 80 0 2.68 180 11:18 09.02.2020
3238 Clouds 8 1012 80 0 2.68 180 11:18 09.02.2020
3239 Clouds 8 1014 83 0 1.79 180 10:42 09.02.2020
3240 Clouds 8 1014 83 0 1.79 180 10:42 09.02.2020
3241 Clouds 7 1014 83 0 1.34 180 10:23 09.02.2020
3242 Clouds 6 1015 85 0 2.68 180 09:57 09.02.2020
3243 Clouds 6 1015 86 0 1.79 180 09:38 09.02.2020
3244 Clouds 6 1010 82 0 10.59 190 09:19 09.02.2020
3245 Clouds 6 1010 82 0 10.59 190 08:39 09.02.2020
3246 Clouds 5 1014 89 0 7.9 207 08:20 09.02.2020
3247 Clouds 5 1014 89 0 7.9 207 07:51 09.02.2020
3248 Clouds 5 1014 89 0 7.9 207 07:26 09.02.2020
3249 Clouds 5 1014 89 0 7.9 207 06:37 09.02.2020
3250 Clouds 5 1014 89 0 7.9 207 05:55 09.02.2020
3251 Clouds 5 1014 89 0 7.9 207 05:33 09.02.2020
3252 Clouds 6 1016 87 0 7.69 217 04:48 09.02.2020
3253 Clouds 6 1016 87 0 7.69 217 02:58 09.02.2020
3254 Clouds 6 1016 87 0 7.69 217 02:38 09.02.2020
3255 Rain 6 1017 85 0 7.5 213 01:40 09.02.2020
3256 Rain 5 1017 88 0 7.57 211 01:19 09.02.2020
3257 Rain 5 1017 88 0 7.57 211 00:31 09.02.2020
3258 Rain 5 1017 88 0 7.57 211 23:55 08.02.2020
3259 Rain 5 1017 88 0 7.57 211 23:37 08.02.2020
3260 Clouds 6 1017 80 0 7.73 214 23:18 08.02.2020
3261 Clouds 6 1017 80 0 7.73 214 22:40 08.02.2020
3262 Clouds 6 1017 80 0 7.73 214 22:21 08.02.2020
3263 Clouds 6 1017 80 0 7.73 214 21:49 08.02.2020
3264 Clouds 6 1017 80 0 7.73 214 21:30 08.02.2020
3265 Clouds 6 1017 80 0 7.73 214 20:59 08.02.2020
3266 Clouds 6 1017 80 0 7.73 214 20:40 08.02.2020
3267 Clouds 5 1018 79 0 6.61 198 20:20 08.02.2020
3268 Clouds 5 1018 79 0 6.61 198 19:59 08.02.2020
3269 Clouds 5 1018 79 0 6.61 198 19:40 08.02.2020
3270 Clouds 5 1018 79 0 6.61 198 19:20 08.02.2020
3271 Clouds 5 1018 79 0 6.61 198 18:58 08.02.2020
3272 Clouds 5 1018 79 0 6.61 198 18:39 08.02.2020
3273 Clouds 6 1023 81 0 1.34 180 18:21 08.02.2020
3274 Clouds 6 1023 81 0 1.34 180 17:42 08.02.2020
3275 Clouds 6 1023 81 0 1.34 180 17:21 08.02.2020
3276 Clouds 6 1023 81 0 1.34 180 16:56 08.02.2020
3277 Clouds 6 1024 79 0 0.89 180 16:37 08.02.2020
3278 Clouds 6 1024 79 0 0.89 180 16:18 08.02.2020
3279 Clouds 7 1024 77 0 1.34 180 15:40 08.02.2020
3280 Clouds 8 1024 76 0 1.34 202 15:19 08.02.2020
3281 Clouds 8 1024 76 0 0.89 202 14:55 08.02.2020
3282 Clouds 8 1024 75 0 0.89 202 14:36 08.02.2020
3283 Clear 5 1020 76 0 6.75 197 14:18 08.02.2020
3284 Clear 7 1025 81 0 1.79 180 13:41 08.02.2020
3285 Clear 7 1025 81 0 1.79 180 13:23 08.02.2020
3286 Clear 7 1025 81 0 1.79 180 12:50 08.02.2020
3287 Clear 7 1025 80 0 1.34 202 12:25 08.02.2020
3288 Clear 6 1026 82 0 2.68 225 11:59 08.02.2020
3289 Clear 6 1026 83 0 2.68 180 11:40 08.02.2020
3290 Clear 6 1026 84 0 1.34 225 11:21 08.02.2020
3291 Clear 5 1026 87 0 2.68 180 10:43 08.02.2020
3292 Clear 4 1027 90 0 1.79 180 10:24 08.02.2020
3293 Clear 4 1027 90 0 1.79 180 09:53 08.02.2020
3294 Clear 4 1027 90 0 0.89 180 09:30 08.02.2020
3295 Clear 3 1027 90 0 1.34 180 08:59 08.02.2020
3296 Clear 3 1027 89 0 0.89 157 08:39 08.02.2020
3297 Clear 3 1027 89 0 1.34 157 08:21 08.02.2020
3298 Clear 3 1027 89 0 0.89 180 07:50 08.02.2020
3299 Clear 3 1027 88 0 0.45 157 07:31 08.02.2020
3300 Clear 3 1027 87 0 0.45 157 06:33 08.02.2020
3301 Clear 3 1028 86 0 0.45 157 05:57 08.02.2020
3302 Clear 4 1028 85 0 7.92 172 05:31 08.02.2020
3303 Clear 5 1029 86 0 0.89 180 04:51 08.02.2020
3304 Clear 5 1029 87 0 1.34 180 03:57 08.02.2020
3305 Clear 5 1030 87 0 0.89 180 02:58 08.02.2020
3306 Clear 5 1030 87 0 0.89 180 02:28 08.02.2020
3307 Clouds 5 1030 86 0 0.45 157 01:28 08.02.2020
3308 Clouds 5 1031 86 0 0.45 157 00:46 08.02.2020
3309 Clouds 5 1031 86 0 0.45 157 00:24 08.02.2020
3310 Clouds 5 1031 86 0 0.45 180 23:57 07.02.2020
3311 Clouds 5 1031 86 0 0.89 180 23:38 07.02.2020
3312 Clouds 5 1031 87 0 0.89 202 23:19 07.02.2020
3313 Clouds 5 1032 87 0 0.45 180 22:41 07.02.2020
3314 Clouds 5 1032 87 0 0.89 180 22:19 07.02.2020
3315 Clouds 5 1032 87 0 0.45 180 21:57 07.02.2020
3316 Clouds 4 1032 87 0 0.45 157 21:39 07.02.2020
3317 Clouds 4 1032 87 0 0.45 157 21:19 07.02.2020
3318 Clouds 4 1032 86 0 4.37 169 20:39 07.02.2020
3319 Clouds 4 1032 86 0 3.85 178 20:19 07.02.2020
3320 Clouds 4 1032 86 0 4.28 176 20:19 07.02.2020
3321 Clouds 5 1032 86 0 4.28 176 19:55 07.02.2020
3322 Clouds 5 1032 86 0 4.28 176 19:36 07.02.2020
3323 Clouds 5 1032 86 0 4.28 176 19:18 07.02.2020
3324 Clouds 6 1033 85 0 0.45 180 18:43 07.02.2020
3325 Clouds 6 1033 85 0 4.28 176 18:25 07.02.2020
3326 Clouds 6 1033 85 0 4.28 176 17:55 07.02.2020
3327 Clouds 6 1033 84 0 4.28 176 17:37 07.02.2020
3328 Clouds 6 1033 84 0 0.45 202 17:19 07.02.2020
3329 Clouds 6 1033 84 0 2.46 201 16:43 07.02.2020
3330 Clouds 7 1033 84 0 2.46 201 16:23 07.02.2020
3331 Clouds 7 1034 84 0 2.46 201 15:54 07.02.2020
3332 Clouds 7 1034 84 0 2.46 201 15:28 07.02.2020
3333 Clouds 7 1034 85 0 0.89 157 14:56 07.02.2020
3334 Clouds 7 1034 85 0 2.46 201 14:38 07.02.2020
3335 Clouds 7 1034 85 0 2.46 201 14:38 07.02.2020
3336 Clouds 7 1034 85 0 0.45 157 14:19 07.02.2020
3337 Clouds 7 1034 85 0 1.53 225 13:56 07.02.2020
3338 Clouds 7 1034 85 0 1.53 225 13:56 07.02.2020
3339 Clouds 7 1034 85 0 1.53 225 13:38 07.02.2020
3340 Clouds 6 1034 85 0 1.98 229 13:19 07.02.2020
3341 Clouds 7 1034 86 0 0.45 135 12:42 07.02.2020
3342 Clouds 7 1034 86 0 0.45 135 12:42 07.02.2020
3343 Clouds 7 1034 87 0 0.45 135 12:23 07.02.2020
3344 Clouds 7 1034 87 0 0.45 135 12:23 07.02.2020
3345 Clouds 7 1034 87 0 0.45 135 12:23 07.02.2020
3346 Clouds 7 1035 88 0 0.45 135 11:45 07.02.2020
3347 Clouds 7 1035 90 0 1.98 229 11:24 07.02.2020
3348 Clouds 6 1035 90 0 1.46 232 10:59 07.02.2020
3349 Clouds 6 1034 91 0 1.46 232 10:39 07.02.2020
3350 Clouds 6 1034 91 0 1.46 232 10:20 07.02.2020
3351 Clouds 6 1034 91 0 1.46 232 09:45 07.02.2020
3352 Clouds 6 1034 91 0 1.46 232 09:25 07.02.2020
3353 Clouds 5 1034 91 0 1.46 232 08:57 07.02.2020
3354 Clouds 5 1034 91 0 1.46 232 08:37 07.02.2020
3355 Clear 5 1034 91 0 0.98 44 08:19 07.02.2020
3356 Clear 5 1034 91 0 0.45 22 07:40 07.02.2020
3357 Clear 5 1033 91 0 0.98 44 07:19 07.02.2020
3358 Clear 5 1033 91 0 0.98 44 06:43 07.02.2020
3359 Clear 5 1033 91 0 0.98 44 06:22 07.02.2020
3360 Clear 5 1033 91 0 0.98 44 05:43 07.02.2020
3361 Clear 6 1032 90 0 3.9 340 03:57 07.02.2020
3362 Clear 6 1031 90 0 3.9 340 02:30 07.02.2020
3363 Clouds 6 1031 90 0 5.97 318 01:25 07.02.2020
3364 Clouds 6 1031 90 0 5.97 318 00:38 07.02.2020
3365 Clouds 6 1030 90 0 1.34 315 23:56 06.02.2020
3366 Clouds 6 1030 90 0 0.89 292 23:36 06.02.2020
3367 Clouds 6 1030 90 0 1.79 315 23:18 06.02.2020
3368 Clouds 6 1030 89 0 1.79 315 22:42 06.02.2020
3369 Clouds 6 1030 89 0 1.79 315 22:42 06.02.2020
3370 Clouds 6 1030 89 0 0.89 315 22:23 06.02.2020
3371 Clouds 6 1030 89 0 0.89 315 21:37 06.02.2020
3372 Clouds 6 1030 89 0 1.79 337 21:19 06.02.2020
3373 Clouds 6 1030 89 0 1.34 315 20:56 06.02.2020
3374 Clouds 6 1029 89 0 0.45 315 20:38 06.02.2020
3375 Clouds 6 1029 89 0 1.79 292 20:18 06.02.2020
3376 Clouds 6 1029 88 0 1.79 315 19:58 06.02.2020
3377 Clouds 6 1029 88 0 1.34 315 19:40 06.02.2020
3378 Clouds 6 1029 88 0 1.79 292 19:21 06.02.2020
3379 Clouds 6 1029 88 0 1.34 315 18:58 06.02.2020
3380 Clouds 6 1029 87 0 1.79 315 18:39 06.02.2020
3381 Clouds 6 1029 87 0 1.79 315 18:20 06.02.2020
3382 Clouds 7 1028 87 0 2.24 315 17:42 06.02.2020
3383 Clear 7 1028 87 0 2.24 315 17:21 06.02.2020
3384 Clear 7 1028 87 0 2.68 315 16:59 06.02.2020
3385 Clear 7 1028 86 0 1.34 315 16:40 06.02.2020
3386 Clear 7 1028 86 0 1.34 315 16:22 06.02.2020
3387 Clear 7 1028 86 0 1.34 292 15:42 06.02.2020
3388 Clear 7 1028 86 0 1.79 292 15:22 06.02.2020
3389 Clear 7 1028 85 0 1.79 270 14:50 06.02.2020
3390 Clear 7 1028 85 0 0.89 337 14:28 06.02.2020
3391 Clouds 7 1028 86 0 1.34 337 13:58 06.02.2020
3392 Clouds 7 1028 86 0 2.24 292 13:40 06.02.2020
3393 Clouds 7 1028 86 0 2.68 315 13:19 06.02.2020
3394 Clouds 7 1028 86 0 3.13 315 12:44 06.02.2020
3395 Clouds 7 1028 86 0 1.79 315 12:19 06.02.2020
3396 Clouds 7 1028 86 0 1.79 315 11:57 06.02.2020
3397 Clouds 6 1029 87 0 2.68 315 11:39 06.02.2020
3398 Clouds 6 1029 87 0 0.89 292 11:19 06.02.2020
3399 Clouds 6 1029 87 0 1.79 292 10:56 06.02.2020
3400 Clouds 6 1029 87 0 1.34 22 10:38 06.02.2020
3401 Clouds 6 1029 87 0 1.79 315 10:19 06.02.2020
3402 Clouds 6 1029 87 0 2.24 292 09:56 06.02.2020
3403 Clouds 6 1029 87 0 1.79 292 09:36 06.02.2020
3404 Clouds 6 1029 87 0 1.34 292 09:18 06.02.2020
3405 Clouds 5 1028 87 0 1.79 270 08:41 06.02.2020
3406 Clouds 5 1028 87 0 2.24 292 08:20 06.02.2020
3407 Clouds 5 1029 87 0 1.79 315 07:46 06.02.2020
3408 Clouds 5 1029 87 0 2.24 337 07:25 06.02.2020
3409 Clouds 5 1028 87 0 1.79 292 06:22 06.02.2020
3410 Clouds 5 1028 87 0 1.79 292 06:22 06.02.2020
3411 Clouds 5 1028 87 0 1.79 292 05:55 06.02.2020
3412 Clouds 4 1029 87 0 2.24 292 04:24 06.02.2020
3413 Clouds 4 1029 87 0 0.89 315 03:20 06.02.2020
3414 Clouds 4 1030 86 0 1.34 292 02:29 06.02.2020
3415 Clouds 4 1030 85 0 0.45 292 01:35 06.02.2020
3416 Clouds 4 1030 84 0 1.79 292 00:58 06.02.2020
3417 Clouds 4 1031 84 0 1.79 292 00:26 06.02.2020
3418 Clouds 4 1031 84 0 1.79 292 00:26 06.02.2020
3419 Clouds 4 1031 84 0 0.89 315 23:45 05.02.2020
3420 Clouds 4 1031 84 0 1.34 292 23:25 05.02.2020
3421 Clouds 4 1032 85 0 1.34 292 22:58 05.02.2020
3422 Clouds 3 1032 85 0 0.89 292 22:39 05.02.2020
3423 Clouds 3 1032 85 0 0.45 292 22:21 05.02.2020
3424 Clouds 3 1032 85 0 1.79 292 21:42 05.02.2020
3425 Clouds 3 1032 84 0 0.89 315 21:24 05.02.2020
3426 Clouds 3 1032 84 0 2.24 292 20:59 05.02.2020
3427 Clouds 3 1032 84 0 1.79 292 20:38 05.02.2020
3428 Clouds 3 1032 84 0 0.89 337 20:19 05.02.2020
3429 Clouds 3 1032 84 0 10.23 279 19:57 05.02.2020
3430 Clouds 3 1033 83 0 0.45 292 19:38 05.02.2020
3431 Clouds 3 1033 83 0 0.45 292 19:19 05.02.2020
3432 Clouds 3 1033 82 0 0.89 270 18:45 05.02.2020
3433 Clouds 3 1034 81 0 0.89 270 18:22 05.02.2020
3434 Clouds 3 1033 81 0 0.89 270 17:59 05.02.2020
3435 Clouds 3 1033 79 0 1.79 292 17:37 05.02.2020
3436 Clouds 3 1033 79 0 1.79 292 17:37 05.02.2020
3437 Clouds 3 1034 79 0 1.79 270 17:18 05.02.2020
3438 Clouds 4 1033 78 0 1.34 292 16:56 05.02.2020
3439 Clouds 4 1033 77 0 0.45 315 16:37 05.02.2020
3440 Clouds 4 1034 75 0 0.89 292 16:18 05.02.2020
3441 Clouds 5 1034 73 0 0.89 315 15:42 05.02.2020
3442 Clouds 5 1034 73 0 1.34 292 15:19 05.02.2020
3443 Clouds 5 1034 72 0 0.45 292 14:56 05.02.2020
3444 Clouds 6 1034 73 0 0.45 292 14:37 05.02.2020
3445 Clear 5 1035 73 0 1.34 292 14:19 05.02.2020
3446 Clear 6 1035 76 0 0.89 270 13:42 05.02.2020
3447 Clear 5 1035 75 0 1.79 315 13:22 05.02.2020
3448 Clear 5 1035 77 0 0.45 315 12:44 05.02.2020
3449 Clear 5 1035 75 0 0.89 22 12:25 05.02.2020
3450 Clear 4 1036 74 0 0.45 292 11:59 05.02.2020
3451 Clear 4 1036 78 0 0.89 337 11:41 05.02.2020
3452 Clear 4 1036 78 0 8.01 273 11:22 05.02.2020
3453 Clear 3 1035 82 0 0.45 315 10:44 05.02.2020
3454 Clear 3 1035 83 0 7.11 315 10:26 05.02.2020
3455 Clear 3 1035 84 0 0.89 315 09:59 05.02.2020
3456 Clear 2 1035 85 0 0.45 0 09:39 05.02.2020
3457 Clear 2 1035 85 0 7.11 315 09:21 05.02.2020
3458 Clear 2 1034 85 0 0.45 45 08:46 05.02.2020
3459 Clear 2 1033 85 0 0.89 45 08:25 05.02.2020
3460 Clouds 2 1033 84 0 0.89 0 07:57 05.02.2020
3461 Clouds 2 1033 84 0 0.89 0 07:57 05.02.2020
3462 Clouds 2 1033 83 0 0.89 22 07:37 05.02.2020
3463 Clouds 2 1032 84 0 0.45 45 07:18 05.02.2020
3464 Clouds 3 1031 82 0 0.89 337 06:39 05.02.2020
3465 Clouds 3 1031 81 0 1.34 45 06:20 05.02.2020
3466 Rain 3 1030 83 0 0.89 22 05:20 05.02.2020
3467 Rain 3 1029 84 0 0.89 22 04:54 05.02.2020
3468 Rain 3 1027 85 0 1.34 45 03:58 05.02.2020
3469 Rain 3 1025 91 0 0.89 45 02:39 05.02.2020
3470 Rain 3 1025 90 0 1.34 22 02:19 05.02.2020
3471 Rain 3 1022 91 0 1.34 45 01:25 05.02.2020
3472 Rain 3 1020 91 0 1.34 45 00:21 05.02.2020
3473 Rain 4 1018 89 0 1.79 22 23:40 04.02.2020
3474 Clouds 4 1018 88 0 0.89 22 23:19 04.02.2020
3475 Clouds 4 1018 88 0 0.89 22 23:19 04.02.2020
3476 Clouds 4 1017 87 0 0.45 22 22:57 04.02.2020
3477 Clouds 4 1016 87 0 0.89 315 22:39 04.02.2020
3478 Clouds 4 1016 88 0 0.45 67 22:20 04.02.2020
3479 Clouds 3 1016 89 0 16.11 349 21:55 04.02.2020
3480 Clouds 3 1015 89 0 0.89 337 21:37 04.02.2020
3481 Clouds 4 1015 88 0 2.24 22 21:18 04.02.2020
3482 Clouds 4 1014 87 0 0.89 337 20:44 04.02.2020
3483 Clouds 4 1014 88 0 2.24 337 20:22 04.02.2020
3484 Rain 4 1013 89 0 0.45 45 19:59 04.02.2020
3485 Rain 4 1013 89 0 0.45 45 19:41 04.02.2020
3486 Rain 4 1012 89 0 14.08 333 19:22 04.02.2020
3487 Rain 4 1012 88 0 1.34 247 18:59 04.02.2020
3488 Rain 4 1012 88 0 1.34 247 18:59 04.02.2020
3489 Rain 4 1012 88 0 0.45 0 18:39 04.02.2020
3490 Rain 4 1012 88 0 1.79 315 18:20 04.02.2020
3491 Rain 4 1011 89 0 0.89 22 17:54 04.02.2020
3492 Rain 4 1011 90 0 1.34 315 17:36 04.02.2020
3493 Rain 4 1010 90 0 0.89 315 17:18 04.02.2020
3494 Rain 4 1010 89 0 3.13 315 16:38 04.02.2020
3495 Rain 4 1010 88 0 1.79 315 16:20 04.02.2020
3496 Rain 4 1009 87 0 2.68 315 15:56 04.02.2020
3497 Rain 4 1009 87 0 2.68 315 15:56 04.02.2020
3498 Rain 4 1009 87 0 2.68 315 15:56 04.02.2020
3499 Rain 5 1009 85 0 3.13 315 15:38 04.02.2020
3500 Rain 6 1009 83 0 3.13 315 15:20 04.02.2020
3501 Rain 6 1009 83 0 3.13 315 15:20 04.02.2020
3502 Rain 6 1008 82 0 2.24 315 14:45 04.02.2020
3503 Rain 6 1008 82 0 1.79 315 14:26 04.02.2020
3504 Clouds 6 1008 82 0 2.24 315 13:59 04.02.2020
3505 Clouds 6 1008 81 0 1.79 315 13:40 04.02.2020
3506 Clouds 6 1008 81 0 1.79 315 13:22 04.02.2020
3507 Clouds 6 1007 81 0 1.79 337 12:57 04.02.2020
3508 Clouds 6 1007 81 0 1.79 315 12:37 04.02.2020
3509 Clouds 6 1007 83 0 2.68 315 12:19 04.02.2020
3510 Clouds 6 1007 84 0 1.34 315 11:55 04.02.2020
3511 Clouds 5 1007 85 0 4.47 315 11:36 04.02.2020
3512 Clouds 5 1006 86 0 1.79 292 11:18 04.02.2020
3513 Clouds 5 1006 89 0 0.89 315 10:44 04.02.2020
3514 Clouds 4 1006 90 0 1.34 315 10:24 04.02.2020
3515 Clouds 4 1005 91 0 1.79 292 09:55 04.02.2020
3516 Clouds 3 1005 92 0 0.89 292 09:37 04.02.2020
3517 Clouds 3 1005 92 0 0.89 292 09:18 04.02.2020
3518 Clouds 3 1004 92 0 1.34 292 08:43 04.02.2020
3519 Clouds 3 1004 92 0 0.45 292 08:24 04.02.2020
3520 Clouds 3 1003 92 0 0.89 292 07:49 04.02.2020
3521 Clouds 3 1003 92 0 0.89 270 07:24 04.02.2020
3522 Clouds 3 1002 91 0 1.34 292 06:44 04.02.2020
3523 Clouds 3 1002 91 0 0.89 292 06:26 04.02.2020
3524 Clouds 3 1002 91 0 0.45 292 05:29 04.02.2020
3525 Rain 3 1002 90 0 8.5 270 03:56 04.02.2020
3526 Rain 3 1002 90 0 0.45 292 03:37 04.02.2020
3527 Rain 3 1003 90 0 8.5 270 03:19 04.02.2020
3528 Rain 4 1003 90 0 0.45 270 02:34 04.02.2020
3529 Clouds 4 1003 90 0 8.83 263 01:56 04.02.2020
3530 Clouds 4 1003 90 0 8.83 263 01:36 04.02.2020
3531 Clouds 4 1004 90 0 0.45 270 00:52 04.02.2020
3532 Clouds 4 1005 90 0 8.79 262 00:22 04.02.2020
3533 Clouds 5 1006 90 0 0.45 292 23:42 03.02.2020
3534 Clouds 5 1006 90 0 0.45 292 23:42 03.02.2020
3535 Clouds 5 1006 90 0 0.89 247 23:23 03.02.2020
3536 Clouds 6 1007 91 0 0.89 292 22:40 03.02.2020
3537 Clouds 6 1007 91 0 0.89 292 22:22 03.02.2020
3538 Clouds 6 1007 91 0 0.45 270 21:59 03.02.2020
3539 Clouds 5 1007 91 0 0.45 270 21:40 03.02.2020
3540 Clouds 6 1007 91 0 10.44 263 21:19 03.02.2020
3541 Clouds 6 1007 90 0 0.45 270 20:42 03.02.2020
3542 Rain 6 1007 91 0 1.34 247 20:20 03.02.2020
3543 Rain 7 1007 92 0 13 268 19:59 03.02.2020
3544 Rain 7 1007 92 0 0.89 315 19:41 03.02.2020
3545 Rain 7 1007 92 0 0.89 292 19:22 03.02.2020
3546 Rain 7 1007 92 0 0.45 292 18:57 03.02.2020
3547 Rain 7 1007 92 0 0.89 270 18:38 03.02.2020
3548 Rain 7 1007 92 0 0.45 292 18:20 03.02.2020
3549 Rain 7 1007 92 0 0.45 270 17:56 03.02.2020
3550 Rain 7 1007 92 0 0.89 292 17:38 03.02.2020
3551 Rain 7 1007 92 0 0.89 270 17:19 03.02.2020
3552 Rain 7 1007 92 0 1.34 270 16:40 03.02.2020
3553 Rain 7 1008 92 0 0.45 292 16:21 03.02.2020
3554 Rain 8 1008 92 0 0.45 292 15:56 03.02.2020
3555 Rain 8 1008 92 0 5.86 253 15:38 03.02.2020
3556 Rain 8 1008 92 0 0.45 270 15:19 03.02.2020
3557 Rain 7 1008 91 0 5.86 253 14:57 03.02.2020
3558 Rain 7 1008 91 0 5.86 253 14:38 03.02.2020
3559 Rain 7 1008 91 0 2.88 176 14:19 03.02.2020
3560 Rain 7 1008 91 0 0.89 225 13:42 03.02.2020
3561 Rain 7 1008 90 0 0.45 292 13:21 03.02.2020
3562 Rain 6 1008 90 0 0.45 202 12:58 03.02.2020
3563 Rain 6 1009 90 0 0.45 202 12:39 03.02.2020
3564 Rain 6 1008 90 0 0.45 202 12:21 03.02.2020
3565 Rain 6 1009 90 0 0.89 225 11:55 03.02.2020
3566 Rain 6 1009 90 0 0.89 225 11:36 03.02.2020
3567 Clouds 6 1009 90 0 0.89 225 11:18 03.02.2020
3568 Clouds 6 1009 90 0 0.89 225 10:40 03.02.2020
3569 Clouds 5 1009 90 0 0.89 225 10:22 03.02.2020
3570 Clouds 4 1009 90 0 0.89 225 09:46 03.02.2020
3571 Clouds 4 1009 90 0 0.89 225 09:23 03.02.2020
3572 Clouds 4 1009 90 0 0.45 247 08:55 03.02.2020
3573 Clouds 4 1009 90 0 4.84 203 08:37 03.02.2020
3574 Clouds 4 1009 89 0 0.45 247 08:18 03.02.2020
3575 Clouds 4 1009 90 0 3.88 249 07:40 03.02.2020
3576 Clouds 4 1009 90 0 3.88 249 07:21 03.02.2020
3577 Clouds 4 1009 90 0 3.88 249 06:50 03.02.2020
3578 Clouds 4 1008 90 0 3.88 249 06:28 03.02.2020
3579 Clouds 3 1008 89 0 3.88 249 05:37 03.02.2020
3580 Clouds 3 1009 89 0 6.77 269 05:18 03.02.2020
3581 Clouds 3 1008 89 0 0.45 292 03:51 03.02.2020
3582 Clouds 3 1008 89 0 6.77 269 02:36 03.02.2020
3583 Clouds 3 1008 89 0 0.45 292 01:42 03.02.2020
3584 Clouds 3 1008 89 0 0.45 292 00:47 03.02.2020
3585 Clouds 3 1008 88 0 0.45 292 00:25 03.02.2020
3586 Clouds 3 1008 87 0 0.45 270 23:39 02.02.2020
3587 Clouds 4 1008 87 0 0.45 292 23:21 02.02.2020
3588 Clouds 4 1007 88 0 6.22 287 22:58 02.02.2020
3589 Clouds 4 1008 88 0 0.89 292 22:39 02.02.2020
3590 Clouds 4 1008 88 0 6.22 287 22:21 02.02.2020
3591 Clouds 4 1008 88 0 6.22 287 22:21 02.02.2020
3592 Clouds 4 1007 87 0 0.89 292 21:57 02.02.2020
3593 Clouds 4 1007 86 0 0.45 292 21:38 02.02.2020
3594 Clouds 4 1007 86 0 1.34 315 21:20 02.02.2020
3595 Clouds 4 1007 87 0 0.89 292 20:57 02.02.2020
3596 Clouds 4 1007 87 0 6.22 287 20:38 02.02.2020
3597 Clouds 4 1007 88 0 0.45 247 20:20 02.02.2020
3598 Clouds 4 1007 87 0 0.45 292 19:56 02.02.2020
3599 Clouds 4 1007 86 0 7.1 268 19:38 02.02.2020
3600 Clouds 4 1007 86 0 7.1 268 19:38 02.02.2020
3601 Clouds 4 1007 86 0 7.1 268 19:19 02.02.2020
3602 Clouds 4 1007 85 0 7.1 268 18:54 02.02.2020
3603 Clouds 4 1007 85 0 7.1 268 18:36 02.02.2020
3604 Clouds 4 1007 85 0 7.1 268 18:18 02.02.2020
3605 Clouds 5 1007 85 0 0.45 270 17:55 02.02.2020
3606 Clouds 5 1007 84 0 0.45 292 17:36 02.02.2020
3607 Clouds 5 1007 84 0 8.16 270 17:18 02.02.2020
3608 Clouds 6 1007 83 0 0.89 270 16:54 02.02.2020
3609 Clouds 6 1006 82 0 0.45 292 16:36 02.02.2020
3610 Clouds 6 1006 81 0 0.89 270 16:18 02.02.2020
3611 Clouds 6 1006 81 0 0.89 292 15:40 02.02.2020
3612 Clouds 7 1006 81 0 0.89 292 15:20 02.02.2020
3613 Clouds 7 1006 81 0 0.89 292 15:20 02.02.2020
3614 Clouds 7 1006 81 0 1.34 292 14:59 02.02.2020
3615 Clouds 7 1006 81 0 0.45 315 14:41 02.02.2020
3616 Clouds 7 1006 81 0 0.89 292 14:18 02.02.2020
3617 Clouds 7 1006 80 0 1.34 292 13:58 02.02.2020
3618 Clouds 7 1007 81 0 0.45 315 13:38 02.02.2020
3619 Clouds 7 1007 81 0 0.89 270 13:19 02.02.2020
3620 Clouds 7 1007 81 0 1.79 292 12:55 02.02.2020
3621 Clouds 7 1007 82 0 2.24 292 12:36 02.02.2020
3622 Clouds 6 1007 82 0 1.79 292 12:18 02.02.2020
3623 Clouds 6 1007 81 0 1.79 292 11:41 02.02.2020
3624 Clouds 6 1007 81 0 1.79 292 11:41 02.02.2020
3625 Clear 6 1007 82 0 3.13 315 11:19 02.02.2020
3626 Clear 6 1006 81 0 1.79 315 10:57 02.02.2020
3627 Clear 6 1006 81 0 1.79 315 10:57 02.02.2020
3628 Clear 6 1006 81 0 1.79 292 10:38 02.02.2020
3629 Clear 6 1006 82 0 1.79 292 10:20 02.02.2020
3630 Clear 6 1006 82 0 0.45 292 09:57 02.02.2020
3631 Clear 6 1006 83 0 1.34 292 09:38 02.02.2020
3632 Clear 6 1006 83 0 1.34 292 09:38 02.02.2020
3633 Clear 5 1006 83 0 1.34 292 09:20 02.02.2020
3634 Clear 5 1005 83 0 1.34 315 08:44 02.02.2020
3635 Clear 5 1005 83 0 1.34 292 08:25 02.02.2020
3636 Clouds 5 1005 83 0 2.24 292 07:47 02.02.2020
3637 Clouds 5 1004 85 0 2.68 292 07:29 02.02.2020
3638 Clouds 6 1004 86 0 1.34 292 06:46 02.02.2020
3639 Clouds 6 1004 85 0 1.34 292 06:28 02.02.2020
3640 Clouds 6 1004 86 0 2.24 292 05:49 02.02.2020
3641 Rain 6 1003 89 0 2.24 315 04:52 02.02.2020
3642 Rain 7 1002 92 0 2.24 292 03:40 02.02.2020
3643 Rain 6 1001 90 0 1.34 202 02:39 02.02.2020
3644 Rain 7 1001 86 0 0.89 292 01:57 02.02.2020
3645 Rain 7 1001 85 0 0.89 315 01:35 02.02.2020
3646 Rain 7 1000 84 0 0.45 315 00:45 02.02.2020
3647 Rain 7 1001 83 0 1.34 225 00:23 02.02.2020
3648 Rain 8 1000 82 0 15.95 246 23:55 01.02.2020
3649 Rain 8 1000 82 0 0.45 247 23:36 01.02.2020
3650 Rain 8 1000 81 0 0.45 247 23:18 01.02.2020
3651 Rain 7 1000 84 0 12.78 246 22:42 01.02.2020
3652 Rain 7 1001 85 0 0.45 270 22:18 01.02.2020
3653 Rain 7 1000 85 0 0.89 292 21:40 01.02.2020
3654 Rain 8 1000 86 0 2.24 292 21:19 01.02.2020
3655 Rain 8 1000 88 0 1.79 292 20:43 01.02.2020
3656 Rain 8 1000 89 0 0.45 292 20:21 01.02.2020
3657 Rain 8 1000 89 0 0.45 292 19:58 01.02.2020
3658 Rain 8 1000 90 0 0.45 270 19:40 01.02.2020
3659 Rain 8 1000 89 0 1.34 292 19:20 01.02.2020
3660 Rain 9 1000 90 0 2.24 292 18:59 01.02.2020
3661 Rain 9 1000 90 0 2.24 292 18:59 01.02.2020
3662 Rain 9 999 92 0 0.89 292 18:41 01.02.2020
3663 Rain 9 999 92 0 0.89 292 18:23 01.02.2020
3664 Rain 9 999 92 0 0.45 270 17:59 01.02.2020
3665 Rain 9 999 92 0 10.25 250 17:40 01.02.2020
3666 Rain 9 999 91 0 8.54 249 17:20 01.02.2020
3667 Rain 9 999 91 0 8.54 249 16:58 01.02.2020
3668 Rain 10 999 91 0 0.89 225 16:38 01.02.2020
3669 Rain 10 999 91 0 8.54 249 16:20 01.02.2020
3670 Rain 11 999 91 0 8.54 249 15:43 01.02.2020
3671 Rain 11 999 91 0 0.89 270 15:25 01.02.2020
3672 Rain 11 999 90 0 0.89 202 14:58 01.02.2020
3673 Rain 11 999 90 0 0.89 225 14:39 01.02.2020
3674 Clouds 11 1000 89 0 0.89 225 14:20 01.02.2020
3675 Clouds 11 1000 89 0 0.89 225 13:45 01.02.2020
3676 Clouds 11 1000 89 0 1.34 225 13:21 01.02.2020
3677 Rain 11 1000 89 0 0.89 225 12:44 01.02.2020
3678 Rain 11 1001 90 0 1.79 225 12:26 01.02.2020
3679 Rain 11 1001 90 0 0.45 225 11:58 01.02.2020
3680 Rain 11 1001 90 0 1.79 225 11:38 01.02.2020
3681 Rain 11 1001 90 0 0.89 225 11:19 01.02.2020
3682 Rain 11 1001 91 0 0.89 225 10:56 01.02.2020
3683 Rain 11 1001 91 0 1.34 225 10:38 01.02.2020
3684 Rain 11 1001 91 0 2.24 247 10:20 01.02.2020
3685 Rain 10 1001 92 0 1.34 225 09:54 01.02.2020
3686 Rain 10 1002 92 0 1.34 225 09:36 01.02.2020
3687 Rain 10 1002 92 0 1.79 225 09:18 01.02.2020
3688 Rain 10 1002 92 0 0.45 247 08:41 01.02.2020
3689 Rain 10 1002 92 0 0.45 247 07:48 01.02.2020
3690 Rain 10 1002 92 0 0.45 292 07:26 01.02.2020
3691 Rain 10 1002 92 0 2.24 225 06:55 01.02.2020
3692 Rain 10 1002 92 0 2.24 225 06:55 01.02.2020
3693 Rain 10 1002 92 0 0.89 247 06:32 01.02.2020
3694 Rain 10 1002 92 0 1.34 225 05:51 01.02.2020
3695 Rain 9 1004 92 0 1.34 225 03:53 01.02.2020
3696 Rain 9 1004 92 0 9.85 234 03:21 01.02.2020
3697 Rain 9 1004 92 0 1.34 225 02:45 01.02.2020
3698 Rain 9 1004 92 0 0.89 225 02:26 01.02.2020
3699 Rain 9 1005 92 0 0.89 225 01:52 01.02.2020
3700 Rain 9 1005 92 0 0.45 225 01:31 01.02.2020
3701 Rain 8 1006 91 0 0.89 225 00:30 01.02.2020
3702 Rain 8 1005 91 0 0.45 225 23:43 31.01.2020
3703 Rain 8 1005 91 0 0.89 225 23:20 31.01.2020
3704 Rain 8 1006 90 0 1.79 225 22:59 31.01.2020
3705 Rain 8 1006 90 0 0.45 225 22:41 31.01.2020
3706 Rain 8 1006 90 0 1.34 225 22:22 31.01.2020
3707 Rain 8 1006 90 0 1.34 225 21:57 31.01.2020
3708 Rain 8 1006 89 0 0.45 225 21:39 31.01.2020
3709 Rain 8 1006 89 0 0.45 270 21:19 31.01.2020
3710 Rain 8 1006 88 0 9.87 249 20:56 31.01.2020
3711 Rain 8 1006 88 0 9.87 249 20:38 31.01.2020
3712 Rain 8 1006 88 0 0.45 247 20:20 31.01.2020
3713 Rain 8 1006 89 0 0.45 247 19:56 31.01.2020
3714 Rain 8 1006 88 0 0.45 225 19:38 31.01.2020
3715 Rain 8 1006 88 0 1.79 225 19:19 31.01.2020
3716 Rain 8 1006 88 0 8.77 237 18:43 31.01.2020
3717 Rain 8 1007 88 0 0.89 225 18:25 31.01.2020
3718 Rain 8 1007 88 0 0.45 225 17:56 31.01.2020
3719 Rain 8 1007 87 0 0.89 225 17:38 31.01.2020
3720 Rain 8 1007 87 0 0.45 247 17:19 31.01.2020
3721 Rain 8 1007 87 0 10.53 264 16:56 31.01.2020
3722 Rain 8 1007 87 0 10.53 264 16:37 31.01.2020
3723 Rain 8 1007 87 0 10.53 264 16:18 31.01.2020
3724 Rain 8 1007 86 0 1.79 292 15:41 31.01.2020
3725 Rain 8 1007 86 0 1.79 292 15:21 31.01.2020
3726 Rain 8 1007 84 0 1.79 292 14:59 31.01.2020
3727 Rain 8 1007 84 0 1.79 292 14:40 31.01.2020
3728 Clouds 8 1006 84 0 1.34 270 14:20 31.01.2020
3729 Clouds 9 1006 83 0 1.79 270 13:45 31.01.2020
3730 Clouds 9 1005 82 0 0.89 292 13:27 31.01.2020
3731 Clouds 9 1005 82 0 2.24 315 12:54 31.01.2020
3732 Clouds 9 1005 82 0 2.24 292 12:36 31.01.2020
3733 Clouds 9 1005 83 0 1.79 292 12:18 31.01.2020
3734 Clouds 9 1004 84 0 2.24 292 11:41 31.01.2020
3735 Clouds 8 1004 85 0 1.34 292 11:23 31.01.2020
3736 Clouds 8 1004 86 0 2.68 292 10:58 31.01.2020
3737 Clouds 8 1004 86 0 2.68 315 10:37 31.01.2020
3738 Clouds 8 1003 86 0 2.68 315 10:19 31.01.2020
3739 Clouds 8 1002 86 0 3.58 315 09:43 31.01.2020
3740 Clouds 8 1002 87 0 2.24 292 09:22 31.01.2020
3741 Clouds 8 1001 87 0 1.79 292 08:59 31.01.2020
3742 Clouds 8 1001 87 0 1.79 315 08:41 31.01.2020
3743 Clouds 8 1001 86 0 1.79 292 08:23 31.01.2020
3744 Clouds 8 1000 86 0 1.79 337 07:52 31.01.2020
3745 Clouds 7 994 86 0 13.79 276 07:20 31.01.2020
3746 Clouds 7 994 86 0 13.79 276 06:38 31.01.2020
3747 Clouds 7 994 86 0 13.79 276 05:58 31.01.2020
3748 Clouds 7 994 86 0 13.79 276 05:33 31.01.2020
3749 Rain 7 990 91 0 13.66 267 04:41 31.01.2020
3750 Rain 6 996 93 0 1.79 225 02:55 31.01.2020
3751 Rain 6 996 92 0 1.79 225 01:32 31.01.2020
3752 Rain 6 997 92 0 2.24 225 00:42 31.01.2020
3753 Rain 6 997 92 0 1.79 180 00:23 31.01.2020
3754 Rain 6 999 91 0 1.34 202 23:44 30.01.2020
3755 Rain 6 999 91 0 2.24 202 23:23 30.01.2020
3756 Clouds 6 997 89 0 8.43 197 22:56 30.01.2020
3757 Clouds 6 997 89 0 8.43 197 22:56 30.01.2020
3758 Clouds 6 997 89 0 8.43 197 22:36 30.01.2020
3759 Clouds 6 997 89 0 8.43 197 22:18 30.01.2020
3760 Clouds 6 997 89 0 8.43 197 21:43 30.01.2020
3761 Clouds 6 997 89 0 8.43 197 21:19 30.01.2020
3762 Clouds 6 997 89 0 8.43 197 20:59 30.01.2020
3763 Clouds 6 997 89 0 8.43 197 20:38 30.01.2020
3764 Clouds 6 1000 92 0 7.27 242 20:20 30.01.2020
3765 Clouds 6 1000 92 0 7.27 242 19:55 30.01.2020
3766 Clouds 6 1000 92 0 7.27 242 19:36 30.01.2020
3767 Clouds 6 1000 92 0 7.27 242 19:18 30.01.2020
3768 Clouds 6 1000 92 0 7.27 242 18:39 30.01.2020
3769 Clouds 6 1000 92 0 7.27 242 18:20 30.01.2020
3770 Clouds 6 1000 92 0 7.27 242 17:55 30.01.2020
3771 Clouds 6 1000 92 0 7.27 242 17:36 30.01.2020
3772 Rain 6 1001 91 0 12.44 262 17:18 30.01.2020
3773 Rain 6 1001 91 0 12.44 262 16:56 30.01.2020
3774 Rain 6 1001 91 0 12.44 262 16:37 30.01.2020
3775 Rain 6 1001 91 0 12.44 262 16:18 30.01.2020
3776 Rain 6 1001 91 0 12.44 262 15:42 30.01.2020
3777 Rain 6 1001 91 0 12.44 262 15:19 30.01.2020
3778 Rain 6 1001 91 0 12.44 262 14:50 30.01.2020
3779 Rain 6 1001 91 0 12.44 262 14:27 30.01.2020
3780 Rain 6 1000 93 0 12.3 261 13:56 30.01.2020
3781 Rain 6 1000 93 0 12.3 261 13:36 30.01.2020
3782 Rain 6 1000 93 0 12.29 261 13:18 30.01.2020
3783 Rain 6 1000 93 0 12.29 261 12:42 30.01.2020
3784 Rain 6 1000 93 0 12.29 261 12:24 30.01.2020
3785 Rain 6 1000 93 0 12.29 261 11:57 30.01.2020
3786 Rain 6 1000 93 0 12.29 261 11:39 30.01.2020
3787 Rain 6 998 91 0 14.53 260 11:21 30.01.2020
3788 Rain 6 998 91 0 14.53 260 10:42 30.01.2020
3789 Rain 6 998 91 0 14.53 260 10:24 30.01.2020
3790 Rain 6 998 91 0 14.53 260 09:49 30.01.2020
3791 Rain 4 1005 92 0 1.79 247 09:30 30.01.2020
3792 Rain 4 1005 92 0 1.79 247 08:59 30.01.2020
3793 Rain 4 1005 92 0 1.79 247 08:41 30.01.2020
3794 Rain 4 1005 92 0 1.79 247 08:20 30.01.2020
3795 Rain 3 1005 92 0 1.34 247 07:51 30.01.2020
3796 Rain 3 1005 91 0 1.79 225 07:32 30.01.2020
3797 Rain 3 1006 91 0 1.79 225 06:47 30.01.2020
3798 Rain 3 1006 91 0 1.79 202 06:29 30.01.2020
3799 Rain 3 1007 91 0 2.68 225 05:47 30.01.2020
3800 Rain 3 1007 91 0 1.79 225 05:25 30.01.2020
3801 Clouds 3 1008 90 0 1.34 225 03:56 30.01.2020
3802 Clouds 3 1008 90 0 1.34 225 03:37 30.01.2020
3803 Clouds 3 1009 91 0 0.45 292 02:48 30.01.2020
3804 Clouds 3 1009 91 0 2.24 270 00:54 30.01.2020
3805 Clouds 3 1009 91 0 1.79 292 00:23 30.01.2020
3806 Clouds 3 1008 91 0 0.89 247 23:49 29.01.2020
3807 Clouds 4 1008 91 0 0.45 270 23:22 29.01.2020
3808 Clouds 4 1008 92 0 1.34 315 22:59 29.01.2020
3809 Clouds 4 1008 92 0 1.34 315 22:59 29.01.2020
3810 Clouds 4 1008 92 0 0.89 270 22:39 29.01.2020
3811 Clouds 4 1008 92 0 0.45 270 22:19 29.01.2020
3812 Clouds 4 1007 92 0 0.89 270 21:59 29.01.2020
3813 Clouds 4 1007 92 0 1.34 292 21:40 29.01.2020
3814 Clouds 4 1007 92 0 0.45 292 21:19 29.01.2020
3815 Clouds 4 1006 92 0 2.24 315 20:59 29.01.2020
3816 Clouds 4 1006 92 0 1.34 292 20:39 29.01.2020
3817 Rain 4 1006 92 0 0.89 292 20:21 29.01.2020
3818 Rain 4 1005 92 0 1.34 292 19:57 29.01.2020
3819 Rain 4 1005 92 0 0.45 270 19:38 29.01.2020
3820 Rain 4 1005 92 0 1.34 292 19:20 29.01.2020
3821 Rain 4 1004 92 0 0.45 270 18:56 29.01.2020
3822 Rain 4 1004 92 0 0.89 225 18:37 29.01.2020
3823 Rain 4 1004 92 0 1.34 270 18:18 29.01.2020
3824 Rain 4 1003 92 0 0.45 292 17:40 29.01.2020
3825 Rain 3 1003 92 0 0.89 292 17:22 29.01.2020
3826 Rain 3 1002 92 0 8.07 281 16:43 29.01.2020
3827 Rain 3 1002 92 0 0.45 292 16:23 29.01.2020
3828 Rain 3 1002 92 0 8.07 281 15:59 29.01.2020
3829 Rain 3 1001 91 0 0.89 292 15:38 29.01.2020
3830 Rain 3 1001 91 0 0.89 225 15:20 29.01.2020
3831 Rain 3 1001 91 0 0.89 225 15:20 29.01.2020
3832 Rain 3 1001 91 0 0.45 270 14:45 29.01.2020
3833 Rain 3 1001 91 0 0.45 270 14:23 29.01.2020
3834 Rain 4 1000 90 0 0.89 292 13:57 29.01.2020
3835 Rain 4 1000 90 0 1.79 292 13:39 29.01.2020
3836 Rain 4 1000 91 0 1.34 315 13:21 29.01.2020
3837 Rain 4 1000 91 0 1.79 292 12:56 29.01.2020
3838 Rain 4 1000 91 0 11.1 252 12:37 29.01.2020
3839 Rain 4 1000 91 0 11.1 252 12:19 29.01.2020
3840 Rain 4 1000 90 0 1.79 315 11:47 29.01.2020
3841 Rain 4 1000 90 0 11.1 252 11:24 29.01.2020
3842 Clouds 4 999 90 0 0.45 247 10:56 29.01.2020
3843 Clouds 4 999 90 0 0.45 247 10:37 29.01.2020
3844 Clouds 4 999 90 0 0.45 247 10:19 29.01.2020
3845 Clouds 4 999 91 0 0.45 225 09:40 29.01.2020
3846 Clouds 4 999 91 0 0.45 225 09:21 29.01.2020
3847 Clouds 3 999 91 0 1.34 292 08:57 29.01.2020
3848 Clouds 3 999 91 0 11.77 243 08:39 29.01.2020
3849 Clouds 3 999 91 0 11.84 255 08:20 29.01.2020
3850 Clouds 3 998 91 0 0.89 292 07:44 29.01.2020
3851 Clouds 3 998 91 0 0.89 292 07:24 29.01.2020
3852 Clouds 2 998 91 0 1.79 292 06:55 29.01.2020
3853 Clouds 2 998 91 0 0.45 270 06:37 29.01.2020
3854 Clouds 3 998 92 0 0.45 270 06:18 29.01.2020
3855 Clouds 2 997 92 0 3.13 292 05:44 29.01.2020
3856 Clouds 2 997 93 0 0.89 292 05:25 29.01.2020
3857 Rain 2 996 93 0 1.34 292 04:37 29.01.2020
3858 Rain 2 996 93 0 0.89 270 03:49 29.01.2020
3859 Rain 1 995 91 0 0.89 270 02:33 29.01.2020
3860 Rain 3 994 90 0 0.45 270 00:43 29.01.2020
3861 Rain 3 993 90 0 0.45 292 00:25 29.01.2020
3862 Rain 3 993 90 0 0.89 315 23:58 28.01.2020
3863 Rain 3 993 89 0 10.14 290 23:37 28.01.2020
3864 Rain 3 993 89 0 0.45 315 23:18 28.01.2020
3865 Rain 3 993 89 0 0.89 247 22:41 28.01.2020
3866 Rain 3 993 89 0 0.45 292 22:21 28.01.2020
3867 Rain 3 992 89 0 0.45 292 21:54 28.01.2020
3868 Rain 3 992 89 0 0.45 247 21:36 28.01.2020
3869 Rain 4 992 89 0 0.45 292 21:18 28.01.2020
3870 Rain 4 992 90 0 0.45 225 20:42 28.01.2020
3871 Clouds 4 992 90 0 6.7 245 20:23 28.01.2020
3872 Rain 5 992 91 0 6.25 232 19:39 28.01.2020
3873 Rain 5 992 91 0 6.25 232 19:39 28.01.2020
3874 Rain 5 992 90 0 0.89 247 19:21 28.01.2020
3875 Rain 5 992 90 0 0.89 225 18:59 28.01.2020
3876 Rain 5 992 90 0 0.45 225 18:40 28.01.2020
3877 Rain 5 992 90 0 0.89 225 18:22 28.01.2020
3878 Rain 6 992 90 0 0.89 225 17:59 28.01.2020
3879 Rain 6 992 90 0 0.89 202 17:38 28.01.2020
3880 Rain 6 991 90 0 0.89 180 17:19 28.01.2020
3881 Rain 6 991 90 0 0.45 157 16:56 28.01.2020
3882 Rain 6 991 89 0 0.45 202 16:37 28.01.2020
3883 Rain 6 992 89 0 0.45 202 16:19 28.01.2020
3884 Rain 7 992 90 0 4.95 200 15:44 28.01.2020
3885 Rain 7 992 90 0 0.45 180 15:19 28.01.2020
3886 Rain 7 992 91 0 1.34 225 14:57 28.01.2020
3887 Rain 7 992 91 0 1.34 225 14:39 28.01.2020
3888 Rain 7 992 91 0 1.34 225 14:39 28.01.2020
3889 Rain 7 992 91 0 1.34 225 14:39 28.01.2020
3890 Rain 7 992 91 0 1.34 225 14:18 28.01.2020
3891 Rain 7 992 91 0 1.34 225 13:41 28.01.2020
3892 Rain 7 992 91 0 0.89 225 13:23 28.01.2020
3893 Rain 7 993 92 0 1.34 225 12:43 28.01.2020
3894 Rain 7 993 92 0 0.89 202 12:24 28.01.2020
3895 Rain 6 993 92 0 1.34 180 11:56 28.01.2020
3896 Rain 6 993 92 0 0.89 202 11:38 28.01.2020
3897 Rain 6 993 92 0 1.34 202 11:19 28.01.2020
3898 Rain 6 994 93 0 1.34 202 10:41 28.01.2020
3899 Rain 5 994 93 0 1.34 202 10:23 28.01.2020
3900 Rain 5 994 93 0 1.34 180 09:58 28.01.2020
3901 Rain 5 994 92 0 1.34 180 09:38 28.01.2020
3902 Rain 5 994 92 0 0.89 180 09:19 28.01.2020
3903 Rain 5 995 93 0 1.34 202 08:43 28.01.2020
3904 Rain 5 995 93 0 1.34 180 08:22 28.01.2020
3905 Rain 5 995 93 0 0.89 180 07:42 28.01.2020
3906 Rain 5 996 93 0 1.34 157 07:23 28.01.2020
3907 Rain 5 996 93 0 0.89 180 06:44 28.01.2020
3908 Rain 5 997 93 0 1.34 180 06:23 28.01.2020
3909 Rain 5 997 93 0 0.89 180 05:35 28.01.2020
3910 Rain 5 999 93 0 1.34 180 04:41 28.01.2020
3911 Rain 5 999 93 0 0.89 180 03:46 28.01.2020
3912 Rain 5 1001 92 0 7.06 178 02:44 28.01.2020
3913 Rain 5 1001 92 0 0.45 157 02:24 28.01.2020
3914 Rain 5 1002 92 0 6.97 165 01:52 28.01.2020
3915 Rain 5 1002 92 0 0.89 180 01:20 28.01.2020
3916 Rain 6 1003 91 0 1.79 157 00:41 28.01.2020
3917 Rain 6 1004 91 0 0.89 157 00:19 28.01.2020
3918 Rain 6 1004 91 0 0.89 157 23:42 27.01.2020
3919 Clouds 6 1005 91 0 1.34 157 23:19 27.01.2020
3920 Clouds 6 1006 91 0 0.45 157 22:45 27.01.2020
3921 Clouds 6 1006 91 0 0.89 180 22:20 27.01.2020
3922 Clouds 6 1006 91 0 0.89 180 22:20 27.01.2020
3923 Clouds 6 1007 91 0 0.45 180 21:57 27.01.2020
3924 Clouds 6 1007 92 0 0.89 180 21:39 27.01.2020
3925 Clouds 6 1007 92 0 0.89 157 21:19 27.01.2020
3926 Clouds 6 1007 92 0 0.89 180 20:56 27.01.2020
3927 Clouds 6 1007 92 0 0.89 180 20:37 27.01.2020
3928 Clouds 6 1008 92 0 0.89 157 20:19 27.01.2020
3929 Clouds 6 1008 92 0 0.89 180 19:55 27.01.2020
3930 Clouds 6 1008 92 0 0.89 180 19:37 27.01.2020
3931 Clouds 6 1008 91 0 0.89 180 19:19 27.01.2020
3932 Clouds 6 1009 91 0 0.89 180 18:39 27.01.2020
3933 Clouds 6 1009 91 0 0.89 180 18:21 27.01.2020
3934 Clouds 6 1009 91 0 0.89 180 17:57 27.01.2020
3935 Clouds 6 1009 91 0 0.89 180 17:38 27.01.2020
3936 Rain 6 1010 91 0 1.34 180 17:19 27.01.2020
3937 Rain 6 1010 91 0 1.34 180 16:56 27.01.2020
3938 Rain 6 1010 91 0 0.89 180 16:37 27.01.2020
3939 Rain 6 1010 91 0 0.89 180 16:19 27.01.2020
3940 Rain 6 1010 91 0 0.89 202 15:41 27.01.2020
3941 Rain 6 1010 91 0 0.89 202 15:20 27.01.2020
3942 Rain 6 1011 91 0 0.89 202 14:57 27.01.2020
3943 Rain 6 1011 91 0 1.34 202 14:39 27.01.2020
3944 Rain 6 1011 91 0 0.89 202 14:20 27.01.2020
3945 Rain 5 1011 91 0 1.34 202 13:42 27.01.2020
3946 Rain 5 1012 92 0 1.79 202 13:23 27.01.2020
3947 Rain 5 1012 92 0 0.89 180 12:58 27.01.2020
3948 Rain 5 1012 92 0 1.34 180 12:39 27.01.2020
3949 Rain 4 1012 92 0 1.34 180 12:21 27.01.2020
3950 Rain 4 1013 92 0 1.34 180 11:43 27.01.2020
3951 Rain 4 1013 93 0 1.34 202 11:22 27.01.2020
3952 Clouds 4 1013 93 0 1.34 180 10:56 27.01.2020
3953 Clouds 3 1013 93 0 0.89 180 10:38 27.01.2020
3954 Clouds 3 1013 93 0 1.34 180 10:20 27.01.2020
3955 Clouds 2 1014 93 0 0.89 180 09:39 27.01.2020
3956 Clouds 2 1014 93 0 1.34 180 09:19 27.01.2020
3957 Clouds 2 1014 93 0 1.34 180 08:56 27.01.2020
3958 Clouds 1 1014 93 0 0.89 180 08:38 27.01.2020
3959 Clouds 1 1015 93 0 0.89 180 08:18 27.01.2020
3960 Clouds 1 1015 93 0 0.89 180 07:46 27.01.2020
3961 Clouds 1 1015 92 0 1.34 180 07:26 27.01.2020
3962 Clouds 1 1015 92 0 1.34 180 06:38 27.01.2020
3963 Clouds 1 1016 92 0 1.34 180 05:46 27.01.2020
3964 Clouds 1 1017 92 0 1.79 202 04:37 27.01.2020
3965 Clouds 1 1017 92 0 0.89 180 03:35 27.01.2020
3966 Clouds 1 1017 91 0 1.34 180 01:56 27.01.2020
3967 Clouds 1 1018 91 0 1.34 180 01:27 27.01.2020
3968 Clouds 1 1018 91 0 0.45 180 00:42 27.01.2020
3969 Clouds 1 1018 91 0 0.45 157 00:22 27.01.2020
3970 Clouds 1 1018 91 0 0.89 157 23:46 26.01.2020
3971 Clouds 1 1019 91 0 1.34 157 23:27 26.01.2020
3972 Clouds 1 1019 91 0 0.89 180 22:59 26.01.2020
3973 Clouds 1 1019 91 0 1.34 180 22:39 26.01.2020
3974 Clouds 1 1019 91 0 1.34 180 22:20 26.01.2020
3975 Clouds 1 1019 91 0 0.89 180 21:58 26.01.2020
3976 Clouds 1 1019 91 0 0.89 157 21:40 26.01.2020
3977 Clouds 1 1020 91 0 0.89 180 21:21 26.01.2020
3978 Clouds 1 1020 91 0 0.89 180 20:58 26.01.2020
3979 Clouds 1 1020 90 0 0.89 180 20:39 26.01.2020
3980 Clouds 1 1020 90 0 0.89 180 20:20 26.01.2020
3981 Clouds 1 1020 90 0 0.89 202 19:59 26.01.2020
3982 Clouds 1 1020 90 0 0.89 202 19:59 26.01.2020
3983 Clouds 1 1020 90 0 0.89 202 19:39 26.01.2020
3984 Clouds 1 1020 90 0 0.89 180 19:21 26.01.2020
3985 Clouds 1 1020 90 0 0.89 180 18:58 26.01.2020
3986 Clouds 2 1020 90 0 0.45 180 18:39 26.01.2020
3987 Clouds 2 1020 90 0 0.45 180 18:39 26.01.2020
3988 Clouds 2 1020 90 0 0.45 180 18:21 26.01.2020
3989 Clouds 2 1021 90 0 0.45 202 17:57 26.01.2020
3990 Clouds 2 1021 90 0 0.89 180 17:38 26.01.2020
3991 Clouds 2 1021 90 0 0.89 202 17:18 26.01.2020
3992 Clouds 2 1021 90 0 0.89 202 17:18 26.01.2020
3993 Clouds 2 1021 90 0 0.89 202 17:18 26.01.2020
3994 Clouds 2 1021 90 0 0.89 202 16:57 26.01.2020
3995 Clouds 2 1021 90 0 0.89 202 16:57 26.01.2020
3996 Clouds 2 1021 90 0 0.89 180 16:39 26.01.2020
3997 Clouds 2 1021 90 0 0.89 202 16:20 26.01.2020
3998 Clouds 2 1021 90 0 0.89 202 16:20 26.01.2020
3999 Clouds 2 1021 89 0 0.89 180 15:46 26.01.2020
4000 Clouds 2 1021 89 0 0.89 180 15:22 26.01.2020
4001 Clouds 2 1021 89 0 0.45 225 14:58 26.01.2020
4002 Clouds 2 1021 89 0 0.89 225 14:39 26.01.2020
4003 Clouds 2 1021 90 0 0.89 225 14:19 26.01.2020
4004 Clouds 2 1022 90 0 1.34 225 13:42 26.01.2020
4005 Clouds 2 1022 90 0 0.45 225 13:20 26.01.2020
4006 Clouds 2 1022 90 0 0.89 225 12:57 26.01.2020
4007 Clouds 2 1022 90 0 0.89 225 12:39 26.01.2020
4008 Clouds 2 1022 90 0 0.89 225 12:21 26.01.2020
4009 Clouds 2 1022 90 0 1.34 225 11:57 26.01.2020
4010 Clouds 2 1022 90 0 0.89 225 11:38 26.01.2020
4011 Clouds 2 1023 90 0 0.89 225 11:18 26.01.2020
4012 Clouds 2 1023 90 0 0.89 225 10:58 26.01.2020
4013 Clouds 2 1023 91 0 0.45 225 10:38 26.01.2020
4014 Clouds 2 1023 91 0 0.45 225 10:38 26.01.2020
4015 Clouds 2 1023 91 0 0.45 225 10:20 26.01.2020
4016 Clouds 2 1023 91 0 0.45 225 10:20 26.01.2020
4017 Clouds 2 1023 91 0 0.89 225 09:56 26.01.2020
4018 Clouds 2 1023 91 0 0.89 225 09:38 26.01.2020
4019 Clouds 2 1023 90 0 0.89 225 09:20 26.01.2020
4020 Clouds 2 1023 90 0 0.89 225 08:42 26.01.2020
4021 Clouds 2 1023 90 0 0.45 225 08:22 26.01.2020
4022 Clouds 2 1022 90 0 0.45 292 07:56 26.01.2020
4023 Clouds 2 1022 90 0 0.89 225 07:38 26.01.2020
4024 Clouds 2 1022 90 0 0.89 225 07:19 26.01.2020
4025 Clouds 2 1022 91 0 0.89 225 06:29 26.01.2020
4026 Clouds 3 1022 91 0 0.89 225 05:30 26.01.2020
4027 Clouds 3 1023 91 0 0.89 225 04:44 26.01.2020
4028 Clouds 3 1023 91 0 0.45 225 02:40 26.01.2020
4029 Clouds 3 1023 91 0 6.43 235 01:47 26.01.2020
4030 Clouds 3 1023 91 0 0.89 225 01:24 26.01.2020
4031 Clouds 3 1023 91 0 0.45 225 00:44 26.01.2020
4032 Clouds 3 1023 91 0 0.45 225 00:26 26.01.2020
4033 Clouds 3 1024 92 0 0.45 225 23:41 25.01.2020
4034 Clouds 3 1024 92 0 0.45 225 23:21 25.01.2020
4035 Clouds 3 1024 92 0 0.45 225 22:58 25.01.2020
4036 Clouds 4 1024 92 0 6.77 242 22:40 25.01.2020
4037 Clouds 4 1024 92 0 0.45 225 22:19 25.01.2020
4038 Clouds 4 1024 92 0 0.89 225 21:57 25.01.2020
4039 Clouds 4 1024 92 0 0.45 225 21:38 25.01.2020
4040 Clouds 4 1019 91 0 6.77 242 21:19 25.01.2020
4041 Clouds 4 1024 92 0 0.89 225 20:44 25.01.2020
4042 Clouds 4 1019 91 0 6.77 242 20:25 25.01.2020
4043 Clouds 5 1019 92 0 7.42 247 19:55 25.01.2020
4044 Clouds 4 1024 92 0 7.42 247 19:37 25.01.2020
4045 Clouds 4 1024 92 0 7.42 247 19:18 25.01.2020
4046 Clouds 4 1024 92 0 7.42 247 18:42 25.01.2020
4047 Clouds 4 1024 92 0 0.45 247 18:22 25.01.2020
4048 Clouds 4 1023 92 0 6.92 248 17:58 25.01.2020
4049 Clouds 4 1023 92 0 1.34 225 17:38 25.01.2020
4050 Clouds 4 1023 91 0 8.07 255 17:19 25.01.2020
4051 Clouds 4 1023 91 0 0.89 225 16:56 25.01.2020
4052 Clouds 4 1023 91 0 0.89 225 16:36 25.01.2020
4053 Clouds 4 1023 91 0 0.45 225 16:18 25.01.2020
4054 Clouds 4 1023 91 0 0.89 225 15:42 25.01.2020
4055 Clouds 4 1023 91 0 8.07 255 15:23 25.01.2020
4056 Clouds 4 1023 92 0 8.07 255 14:46 25.01.2020
4057 Clouds 4 1024 92 0 7.77 256 14:19 25.01.2020
4058 Clouds 4 1024 92 0 1.34 292 13:57 25.01.2020
4059 Clouds 4 1024 92 0 7.77 256 13:39 25.01.2020
4060 Clouds 4 1024 92 0 0.45 270 13:18 25.01.2020
4061 Rain 4 1024 93 0 1.34 292 12:42 25.01.2020
4062 Rain 4 1024 93 0 0.45 292 12:21 25.01.2020
4063 Rain 4 1024 93 0 8.13 254 11:45 25.01.2020
4064 Rain 4 1024 93 0 1.34 315 11:21 25.01.2020
4065 Rain 4 1024 93 0 8.88 250 10:56 25.01.2020
4066 Rain 3 1024 93 0 8.88 250 10:38 25.01.2020
4067 Rain 3 1024 93 0 0.45 270 10:19 25.01.2020
4068 Rain 3 1024 93 0 0.45 270 09:40 25.01.2020
4069 Rain 3 1024 93 0 0.45 247 09:21 25.01.2020
4070 Rain 3 1023 93 0 8.88 250 08:44 25.01.2020
4071 Clouds 3 1023 93 0 0.45 292 08:21 25.01.2020
4072 Clouds 3 1023 93 0 1.34 225 07:43 25.01.2020
4073 Clouds 3 1023 93 0 9.33 255 06:51 25.01.2020
4074 Clouds 3 1022 93 0 0.45 270 06:27 25.01.2020
4075 Clouds 3 1022 93 0 0.89 247 05:45 25.01.2020
4076 Rain 3 1022 93 0 10.05 258 04:43 25.01.2020
4077 Rain 3 1022 92 0 1.79 247 03:51 25.01.2020
4078 Rain 3 1022 92 0 10.05 258 02:54 25.01.2020
4079 Clouds 3 1022 92 0 0.45 225 02:18 25.01.2020
4080 Clouds 3 1022 92 0 0.45 292 01:37 25.01.2020
4081 Clouds 3 1022 92 0 0.45 247 00:44 25.01.2020
4082 Clouds 3 1022 92 0 0.45 247 00:25 25.01.2020
4083 Clouds 3 1022 92 0 10.66 257 23:57 24.01.2020
4084 Clouds 3 1023 92 0 10.66 257 23:39 24.01.2020
4085 Clouds 3 1022 92 0 0.45 270 23:21 24.01.2020
4086 Clouds 3 1023 92 0 10.47 255 22:44 24.01.2020
4087 Clouds 3 1023 92 0 0.45 247 22:25 24.01.2020
4088 Clouds 3 1023 92 0 0.89 292 21:43 24.01.2020
4089 Clouds 3 1023 91 0 10.47 255 21:21 24.01.2020
4090 Clouds 3 1023 91 0 10.47 255 21:21 24.01.2020
4091 Clouds 3 1023 91 0 1.34 225 20:59 24.01.2020
4092 Clouds 3 1023 91 0 10.47 255 20:40 24.01.2020
4093 Clouds 3 1023 91 0 0.45 270 20:20 24.01.2020
4094 Clouds 3 1023 91 0 10.3 250 19:57 24.01.2020
4095 Clouds 3 1023 91 0 0.45 225 19:38 24.01.2020
4096 Clouds 3 1023 91 0 0.89 225 19:20 24.01.2020
4097 Clouds 3 1022 90 0 10.3 250 18:43 24.01.2020
4098 Clouds 3 1023 90 0 0.45 225 18:24 24.01.2020
4099 Clouds 4 1023 90 0 0.89 247 17:56 24.01.2020
4100 Clouds 4 1023 90 0 10.3 250 17:38 24.01.2020
4101 Clouds 4 1023 89 0 0.89 247 17:18 24.01.2020
4102 Clouds 4 1023 89 0 0.45 225 16:39 24.01.2020
4103 Clouds 4 1023 89 0 0.89 225 16:21 24.01.2020
4104 Clouds 4 1023 89 0 8.58 250 15:43 24.01.2020
4105 Clouds 4 1023 89 0 8.58 250 15:23 24.01.2020
4106 Clouds 5 1022 89 0 0.89 270 14:59 24.01.2020
4107 Clouds 4 1022 89 0 8.58 250 14:40 24.01.2020
4108 Clouds 4 1022 89 0 0.89 270 14:22 24.01.2020
4109 Clouds 5 1023 89 0 0.45 225 13:43 24.01.2020
4110 Clouds 5 1023 89 0 0.89 225 13:23 24.01.2020
4111 Clouds 4 1023 89 0 1.34 225 12:45 24.01.2020
4112 Clouds 4 1023 89 0 1.34 225 12:45 24.01.2020
4113 Clouds 4 1024 89 0 1.34 225 12:23 24.01.2020
4114 Clouds 4 1024 90 0 9.17 256 11:58 24.01.2020
4115 Clouds 4 1024 90 0 0.45 225 11:39 24.01.2020
4116 Clouds 4 1025 90 0 9.36 254 11:18 24.01.2020
4117 Clouds 3 1025 89 0 9.36 254 10:43 24.01.2020
4118 Clouds 3 1025 89 0 1.34 202 10:21 24.01.2020
4119 Clouds 3 1025 89 0 1.34 225 09:55 24.01.2020
4120 Clouds 3 1025 90 0 0.89 270 09:37 24.01.2020
4121 Clouds 3 1025 89 0 9.36 254 09:18 24.01.2020
4122 Clouds 3 1025 89 0 0.45 247 08:40 24.01.2020
4123 Clouds 3 1025 89 0 0.45 225 08:19 24.01.2020
4124 Clouds 3 1025 89 0 0.89 247 07:49 24.01.2020
4125 Clouds 3 1025 89 0 0.45 292 07:28 24.01.2020
4126 Clouds 3 1025 90 0 0.45 247 06:46 24.01.2020
4127 Clouds 3 1025 90 0 1.34 225 06:28 24.01.2020
4128 Clouds 3 1026 89 0 1.79 247 05:43 24.01.2020
4129 Clouds 3 1026 89 0 0.89 247 04:52 24.01.2020
4130 Clouds 4 1028 89 0 0.45 247 02:53 24.01.2020
4131 Clouds 4 1028 89 0 0.45 270 02:23 24.01.2020
4132 Clouds 4 1028 89 0 0.89 247 01:40 24.01.2020
4133 Clouds 4 1028 88 0 0.89 270 01:19 24.01.2020
4134 Clouds 4 1029 88 0 0.89 270 00:19 24.01.2020
4135 Clouds 4 1029 88 0 8.49 247 23:45 23.01.2020
4136 Clouds 4 1029 88 0 8.49 247 23:45 23.01.2020
4137 Clouds 4 1029 88 0 0.45 270 23:27 23.01.2020
4138 Clouds 4 1030 88 0 8.64 241 22:59 23.01.2020
4139 Clouds 4 1030 88 0 8.64 241 22:37 23.01.2020
4140 Clouds 4 1030 88 0 8.64 241 22:37 23.01.2020
4141 Clouds 4 1030 88 0 0.45 315 22:19 23.01.2020
4142 Clouds 4 1025 89 0 8.64 241 21:57 23.01.2020
4143 Clouds 4 1030 88 0 8.64 241 21:38 23.01.2020
4144 Clouds 4 1030 88 0 0.45 270 21:20 23.01.2020
4145 Clouds 4 1031 88 0 8.64 241 20:58 23.01.2020
4146 Clouds 4 1031 88 0 0.45 270 20:38 23.01.2020
4147 Rain 4 1031 89 0 0.45 270 20:19 23.01.2020
4148 Rain 4 1031 89 0 0.45 292 19:54 23.01.2020
4149 Rain 4 1031 89 0 8.71 254 19:36 23.01.2020
4150 Rain 4 1031 89 0 8.71 254 19:18 23.01.2020
4151 Rain 4 1032 89 0 0.45 247 18:41 23.01.2020
4152 Rain 4 1032 89 0 8.71 254 18:20 23.01.2020
4153 Rain 4 1032 89 0 8.71 254 18:20 23.01.2020
4154 Rain 4 1032 89 0 0.45 292 17:58 23.01.2020
4155 Rain 4 1032 90 0 8.71 254 17:40 23.01.2020
4156 Clouds 4 1032 90 0 9.45 252 17:19 23.01.2020
4157 Clouds 4 1032 90 0 9.45 252 16:56 23.01.2020
4158 Clouds 4 1032 90 0 9.45 252 16:36 23.01.2020
4159 Clouds 4 1032 90 0 0.45 292 16:18 23.01.2020
4160 Clouds 4 1032 90 0 9.45 252 15:54 23.01.2020
4161 Clouds 4 1033 90 0 9.45 252 15:36 23.01.2020
4162 Clouds 4 1033 91 0 0.45 270 15:18 23.01.2020
4163 Clouds 4 1033 91 0 1.34 292 14:54 23.01.2020
4164 Clouds 4 1033 92 0 0.45 292 14:36 23.01.2020
4165 Clouds 4 1033 92 0 0.89 292 14:18 23.01.2020
4166 Clouds 4 1034 93 0 0.45 270 13:39 23.01.2020
4167 Clouds 4 1034 93 0 0.45 292 13:20 23.01.2020
4168 Clouds 4 1035 93 0 8.62 254 12:47 23.01.2020
4169 Clouds 4 1035 93 0 8.78 252 12:25 23.01.2020
4170 Clouds 4 1035 94 0 1.34 292 11:59 23.01.2020
4171 Clouds 4 1036 94 0 0.45 292 11:39 23.01.2020
4172 Clouds 4 1036 94 0 0.45 270 11:19 23.01.2020
4173 Clouds 4 1036 94 0 0.45 270 11:19 23.01.2020
4174 Clouds 4 1036 94 0 0.89 292 10:45 23.01.2020
4175 Clouds 4 1037 94 0 0.45 270 10:23 23.01.2020
4176 Clouds 5 1031 88 0 7.64 264 09:59 23.01.2020
4177 Clouds 3 1037 93 0 7.64 264 09:39 23.01.2020
4178 Clouds 3 1037 94 0 7.64 264 09:20 23.01.2020
4179 Clouds 3 1037 94 0 7.64 264 08:42 23.01.2020
4180 Clouds 3 1037 94 0 8.04 257 08:24 23.01.2020
4181 Clouds 3 1036 94 0 0.45 247 07:49 23.01.2020
4182 Clouds 3 1036 93 0 6.43 262 07:27 23.01.2020
4183 Clouds 3 1037 93 0 6.43 262 06:54 23.01.2020
4184 Clouds 2 1037 93 0 6.43 262 06:24 23.01.2020
4185 Clouds 2 1037 93 0 6.43 262 05:58 23.01.2020
4186 Clear 1 1037 93 0 4.64 266 04:24 23.01.2020
4187 Clear 1 1037 92 0 4.64 266 02:48 23.01.2020
4188 Clear 1 1038 92 0 3.64 282 01:50 23.01.2020
4189 Clear 1 1038 92 0 0.45 270 00:41 23.01.2020
4190 Clear 1 1038 92 0 2.25 284 00:20 23.01.2020
4191 Clear 1 1038 91 0 2.25 284 23:45 22.01.2020
4192 Clear 1 1038 91 0 2.25 284 23:27 22.01.2020
4193 Clear 2 1037 92 0 3.92 329 22:43 22.01.2020
4194 Clear 2 1037 92 0 3.92 329 22:24 22.01.2020
4195 Clear 5 1032 86 0 3.92 329 21:58 22.01.2020
4196 Clear 3 1037 92 0 0.45 315 21:36 22.01.2020
4197 Clear 3 1037 92 0 0.45 315 21:36 22.01.2020
4198 Clear 2 1036 92 0 3.92 329 21:18 22.01.2020
4199 Clear 2 1036 91 0 3.92 329 20:41 22.01.2020
4200 Clear 2 1036 91 0 3.92 329 20:41 22.01.2020
4201 Clear 2 1036 91 0 0.45 292 20:23 22.01.2020
4202 Clouds 3 1036 91 0 0.89 292 19:59 22.01.2020
4203 Clouds 3 1035 91 0 0.45 292 19:41 22.01.2020
4204 Clouds 3 1035 91 0 0.89 292 19:20 22.01.2020
4205 Clouds 3 1035 90 0 5.29 333 18:58 22.01.2020
4206 Clouds 3 1035 90 0 5.29 333 18:39 22.01.2020
4207 Clouds 3 1035 90 0 0.45 292 18:21 22.01.2020
4208 Clouds 4 1035 90 0 0.45 292 17:57 22.01.2020
4209 Clouds 4 1034 90 0 1.34 292 17:39 22.01.2020
4210 Clouds 4 1034 89 0 0.89 292 17:19 22.01.2020
4211 Clouds 4 1034 89 0 1.34 337 16:54 22.01.2020
4212 Clouds 4 1034 88 0 0.89 315 16:36 22.01.2020
4213 Clouds 5 1034 87 0 0.89 315 16:18 22.01.2020
4214 Clouds 6 1033 87 0 0.89 315 15:41 22.01.2020
4215 Clouds 6 1033 86 0 1.34 315 15:23 22.01.2020
4216 Clouds 6 1033 85 0 0.45 315 14:59 22.01.2020
4217 Clouds 6 1033 85 0 6.2 316 14:38 22.01.2020
4218 Clouds 6 1033 86 0 1.79 292 14:20 22.01.2020
4219 Clouds 6 1033 86 0 0.45 292 13:56 22.01.2020
4220 Clouds 6 1033 86 0 0.45 337 13:37 22.01.2020
4221 Clouds 6 1033 86 0 1.79 315 13:19 22.01.2020
4222 Clouds 7 1033 86 0 0.45 292 12:56 22.01.2020
4223 Clouds 7 1033 86 0 0.45 292 12:56 22.01.2020
4224 Clouds 7 1033 86 0 1.34 22 12:38 22.01.2020
4225 Clouds 6 1033 86 0 0.45 315 12:19 22.01.2020
4226 Clouds 6 1033 85 0 2.68 315 11:56 22.01.2020
4227 Clouds 7 1033 86 0 2.24 315 11:38 22.01.2020
4228 Clouds 6 1033 87 0 1.79 337 11:19 22.01.2020
4229 Clouds 6 1033 87 0 1.79 292 10:45 22.01.2020
4230 Clouds 6 1033 88 0 0.89 292 10:21 22.01.2020
4231 Clouds 6 1033 89 0 0.89 292 09:58 22.01.2020
4232 Clouds 6 1033 89 0 1.34 315 09:40 22.01.2020
4233 Clouds 6 1032 89 0 2.24 315 09:21 22.01.2020
4234 Clouds 6 1032 89 0 1.34 315 08:55 22.01.2020
4235 Clouds 6 1032 90 0 1.79 315 08:36 22.01.2020
4236 Rain 6 1032 91 0 2.68 315 08:18 22.01.2020
4237 Rain 6 1032 91 0 1.79 292 07:44 22.01.2020
4238 Rain 6 1032 92 0 0.89 292 07:26 22.01.2020
4239 Rain 6 1032 93 0 1.79 292 06:34 22.01.2020
4240 Rain 6 1032 93 0 2.68 315 05:54 22.01.2020
4241 Clouds 6 1033 93 0 1.34 292 04:25 22.01.2020
4242 Clouds 5 1032 93 0 2.24 292 03:26 22.01.2020
4243 Clouds 5 1033 93 0 1.34 270 02:42 22.01.2020
4244 Clouds 5 1034 92 0 12.94 272 00:47 22.01.2020
4245 Clouds 5 1035 92 0 1.79 292 00:28 22.01.2020
4246 Clouds 5 1035 91 0 1.34 292 23:57 21.01.2020
4247 Clouds 5 1035 91 0 0.89 292 23:37 21.01.2020
4248 Rain 5 1035 91 0 0.45 292 23:19 21.01.2020
4249 Rain 5 1036 90 0 0.89 292 22:41 21.01.2020
4250 Rain 5 1036 90 0 0.89 315 22:23 21.01.2020
4251 Rain 6 1036 89 0 0.45 292 21:58 21.01.2020
4252 Rain 6 1036 89 0 1.34 292 21:39 21.01.2020
4253 Rain 6 1037 89 0 1.79 292 21:20 21.01.2020
4254 Rain 6 1037 89 0 1.34 292 20:57 21.01.2020
4255 Rain 6 1037 89 0 0.45 292 20:39 21.01.2020
4256 Clouds 6 1037 89 0 1.79 270 20:20 21.01.2020
4257 Clouds 6 1037 89 0 0.45 292 19:58 21.01.2020
4258 Clouds 5 1037 89 0 0.89 292 19:39 21.01.2020
4259 Clouds 5 1037 89 0 1.79 292 19:21 21.01.2020
4260 Clouds 5 1037 89 0 1.34 270 18:57 21.01.2020
4261 Clouds 5 1037 89 0 1.34 315 18:39 21.01.2020
4262 Clouds 5 1038 89 0 1.79 292 18:20 21.01.2020
4263 Clouds 5 1038 89 0 1.79 270 17:56 21.01.2020
4264 Clouds 5 1038 89 0 0.45 292 17:38 21.01.2020
4265 Clouds 5 1038 88 0 0.45 292 17:18 21.01.2020
4266 Clouds 5 1038 88 0 0.89 270 16:38 21.01.2020
4267 Clouds 6 1038 88 0 1.34 292 16:19 21.01.2020
4268 Clouds 6 1038 88 0 1.34 292 16:19 21.01.2020
4269 Clouds 6 1039 88 0 0.45 292 15:59 21.01.2020
4270 Clouds 6 1039 88 0 0.89 225 15:38 21.01.2020
4271 Clouds 6 1039 88 0 0.89 292 15:19 21.01.2020
4272 Clouds 5 1039 88 0 0.89 292 14:40 21.01.2020
4273 Clouds 5 1039 88 0 2.24 292 14:21 21.01.2020
4274 Clouds 5 1038 89 0 0.89 225 13:43 21.01.2020
4275 Clouds 5 1039 88 0 12.52 265 13:21 21.01.2020
4276 Clouds 5 1040 88 0 1.34 292 12:59 21.01.2020
4277 Clouds 4 1040 88 0 1.34 315 12:41 21.01.2020
4278 Clouds 4 1041 88 0 0.45 292 12:23 21.01.2020
4279 Clouds 4 1041 88 0 1.34 292 11:56 21.01.2020
4280 Clouds 4 1041 88 0 0.45 292 11:37 21.01.2020
4281 Clouds 4 1041 88 0 1.34 292 11:18 21.01.2020
4282 Clouds 4 1041 89 0 0.89 247 10:42 21.01.2020
4283 Clouds 4 1041 89 0 0.45 292 10:23 21.01.2020
4284 Clouds 4 1041 89 0 0.45 292 10:23 21.01.2020
4285 Clouds 4 1041 89 0 0.45 292 10:23 21.01.2020
4286 Clouds 4 1041 89 0 0.89 292 09:56 21.01.2020
4287 Clouds 4 1041 89 0 0.45 292 09:38 21.01.2020
4288 Clouds 4 1041 89 0 0.45 292 09:19 21.01.2020
4289 Clouds 3 1041 89 0 0.89 247 08:41 21.01.2020
4290 Clouds 3 1041 89 0 1.79 292 08:22 21.01.2020
4291 Clouds 3 1041 90 0 0.45 292 07:43 21.01.2020
4292 Clouds 3 1041 90 0 0.89 292 07:24 21.01.2020
4293 Clouds 3 1041 91 0 1.79 292 06:57 21.01.2020
4294 Clouds 3 1041 91 0 1.79 292 06:38 21.01.2020
4295 Clouds 3 1041 91 0 1.79 292 05:55 21.01.2020
4296 Clouds 3 1041 91 0 0.89 270 05:32 21.01.2020
4297 Clouds 3 1042 91 0 0.89 292 04:38 21.01.2020
4298 Clouds 3 1043 91 0 0.45 292 02:27 21.01.2020
4299 Clouds 3 1043 91 0 11.01 260 01:36 21.01.2020
4300 Clouds 3 1044 91 0 0.45 225 00:45 21.01.2020
4301 Clouds 3 1044 91 0 11.12 258 00:25 21.01.2020
4302 Clouds 3 1044 91 0 0.89 247 23:56 20.01.2020
4303 Clouds 3 1044 91 0 0.45 225 23:36 20.01.2020
4304 Clear 3 1045 91 0 0.89 270 23:18 20.01.2020
4305 Clear 3 1045 91 0 0.45 225 22:54 20.01.2020
4306 Clear 4 1045 91 0 1.79 225 22:36 20.01.2020
4307 Clear 4 1045 91 0 0.89 225 22:18 20.01.2020
4308 Clear 4 1045 91 0 11.11 255 21:54 20.01.2020
4309 Clear 4 1045 91 0 0.45 225 21:36 20.01.2020
4310 Clear 4 1045 91 0 0.89 225 21:18 20.01.2020
4311 Clear 4 1046 91 0 0.89 225 20:42 20.01.2020
4312 Clouds 4 1046 91 0 10.91 251 20:20 20.01.2020
4313 Clouds 4 1046 91 0 0.89 225 19:58 20.01.2020
4314 Clouds 4 1046 91 0 0.45 247 19:40 20.01.2020
4315 Clouds 4 1046 91 0 10.91 251 19:19 20.01.2020
4316 Clouds 4 1046 92 0 0.45 247 18:56 20.01.2020
4317 Clouds 4 1046 92 0 0.89 315 18:38 20.01.2020
4318 Clouds 4 1046 92 0 0.45 292 18:19 20.01.2020
4319 Clouds 4 1046 92 0 0.45 292 18:19 20.01.2020
4320 Clouds 4 1046 92 0 10.91 251 17:39 20.01.2020
4321 Clouds 4 1046 92 0 0.89 225 17:19 20.01.2020
4322 Clouds 4 1046 92 0 0.45 225 16:47 20.01.2020
4323 Clouds 4 1046 92 0 0.45 225 16:47 20.01.2020
4324 Clouds 4 1047 92 0 0.89 225 16:26 20.01.2020
4325 Clouds 5 1047 93 0 1.34 225 15:59 20.01.2020
4326 Clouds 5 1047 93 0 1.34 225 15:59 20.01.2020
4327 Clouds 5 1047 93 0 1.34 225 15:40 20.01.2020
4328 Clouds 5 1047 93 0 0.45 225 15:22 20.01.2020
4329 Clouds 5 1042 87 0 10.55 253 14:59 20.01.2020
4330 Clouds 5 1047 93 0 1.34 225 14:40 20.01.2020
4331 Clouds 5 1048 93 0 9.13 252 14:21 20.01.2020
4332 Clouds 5 1048 94 0 0.45 225 13:57 20.01.2020
4333 Clouds 5 1048 94 0 1.79 225 13:38 20.01.2020
4334 Clouds 5 1048 94 0 0.45 225 13:20 20.01.2020
4335 Clouds 4 1049 94 0 0.89 247 12:42 20.01.2020
4336 Clouds 4 1049 94 0 9.44 253 12:23 20.01.2020
4337 Clouds 4 1048 94 0 9.44 253 11:56 20.01.2020
4338 Clouds 4 1049 94 0 0.89 292 11:37 20.01.2020
4339 Clouds 4 1049 94 0 0.89 292 11:18 20.01.2020
4340 Clouds 4 1049 93 0 7.39 258 10:46 20.01.2020
4341 Clouds 3 1049 93 0 0.45 292 10:21 20.01.2020
4342 Clouds 3 1048 93 0 7.39 258 09:42 20.01.2020
4343 Clouds 2 1048 93 0 0.45 292 09:24 20.01.2020
4344 Clouds 2 1048 93 0 7.39 258 08:56 20.01.2020
4345 Clouds 2 1048 93 0 0.45 292 08:35 20.01.2020
4346 Clouds 2 1048 93 0 5.91 261 07:59 20.01.2020
4347 Clouds 2 1048 92 0 0.45 292 07:41 20.01.2020
4348 Clouds 2 1048 92 0 0.89 270 07:21 20.01.2020
4349 Clouds 1 1047 92 0 5.91 261 06:44 20.01.2020
4350 Clouds 1 1047 92 0 5.91 261 06:24 20.01.2020
4351 Clouds 1 1047 91 0 5.91 261 05:41 20.01.2020
4352 Clouds 1 1047 91 0 5.44 288 05:20 20.01.2020
4353 Clouds 0 1047 91 0 5.44 288 04:24 20.01.2020
4354 Clouds 0 1047 90 0 5.44 288 02:33 20.01.2020
4355 Clear 0 1046 90 0 4.46 297 01:42 20.01.2020
4356 Clear 0 1046 90 0 5.16 299 01:23 20.01.2020
4357 Clear 0 1046 90 0 5.16 299 00:43 20.01.2020
4358 Clear 0 1046 89 0 5.16 299 00:22 20.01.2020
4359 Clear 1 1045 89 0 5.16 299 23:39 19.01.2020
4360 Clear 1 1045 89 0 4.06 305 23:19 19.01.2020
4361 Clear 1 1044 89 0 4.06 305 22:56 19.01.2020
4362 Clear 1 1044 89 0 4.06 305 22:37 19.01.2020
4363 Clear 1 1044 89 0 4.06 305 22:19 19.01.2020
4364 Clear 1 1044 89 0 4.06 305 21:56 19.01.2020
4365 Clear 1 1044 89 0 4.06 305 21:38 19.01.2020
4366 Clear 1 1044 89 0 4.06 305 21:19 19.01.2020
4367 Clear 2 1044 89 0 4.06 305 20:57 19.01.2020
4368 Clear 2 1043 88 0 4.06 305 20:38 19.01.2020
4369 Clear 2 1043 88 0 5.05 305 20:20 19.01.2020
4370 Clear 3 1043 88 0 5.43 301 19:57 19.01.2020
4371 Clear 3 1042 88 0 5.43 301 19:38 19.01.2020
4372 Clear 3 1042 89 0 5.43 301 19:20 19.01.2020
4373 Clear 4 1042 89 0 0.45 292 18:56 19.01.2020
4374 Clear 4 1041 89 0 5.43 301 18:38 19.01.2020
4375 Clear 4 1041 89 0 5.43 301 18:20 19.01.2020
4376 Clear 4 1041 89 0 0.89 292 17:58 19.01.2020
4377 Clear 4 1041 89 0 0.45 292 17:40 19.01.2020
4378 Clear 4 1040 89 0 4.23 287 17:21 19.01.2020
4379 Clear 4 1040 88 0 4.23 287 16:59 19.01.2020
4380 Clear 4 1040 88 0 4.23 287 16:39 19.01.2020
4381 Clear 4 1040 88 0 4.23 287 16:21 19.01.2020
4382 Clear 4 1039 88 0 4.23 287 15:58 19.01.2020
4383 Clear 4 1039 88 0 4.23 287 15:58 19.01.2020
4384 Clear 4 1039 88 0 4.23 287 15:38 19.01.2020
4385 Clear 5 1038 88 0 0.45 315 15:20 19.01.2020
4386 Clear 5 1038 88 0 0.45 315 14:58 19.01.2020
4387 Clear 5 1038 89 0 4.23 287 14:39 19.01.2020
4388 Clear 5 1037 90 0 0.45 292 14:18 19.01.2020
4389 Clear 5 1037 91 0 0.45 292 13:57 19.01.2020
4390 Clear 5 1037 91 0 0.89 292 13:38 19.01.2020
4391 Clear 5 1037 91 0 0.45 292 13:19 19.01.2020
4392 Clear 4 1037 91 0 5.48 294 12:55 19.01.2020
4393 Clear 4 1037 91 0 5.48 294 12:37 19.01.2020
4394 Clear 4 1037 91 0 5.48 294 12:37 19.01.2020
4395 Clear 4 1037 91 0 5.48 294 12:19 19.01.2020
4396 Clear 3 1036 92 0 0.45 292 11:42 19.01.2020
4397 Clear 5 1030 88 0 5.34 279 11:21 19.01.2020
4398 Clear 3 1035 92 0 5.34 279 10:57 19.01.2020
4399 Clear 3 1035 92 0 0.89 292 10:39 19.01.2020
4400 Clear 2 1035 92 0 0.89 292 10:19 19.01.2020
4401 Clear 2 1035 92 0 0.89 292 09:56 19.01.2020
4402 Clear 2 1035 92 0 0.89 292 09:56 19.01.2020
4403 Clear 2 1035 92 0 0.89 292 09:56 19.01.2020
4404 Clear 2 1035 92 0 0.89 292 09:56 19.01.2020
4405 Clear 2 1035 92 0 0.89 292 09:56 19.01.2020
4406 Clear 2 1034 92 0 0.45 247 09:37 19.01.2020
4407 Clear 1 1034 92 0 5.34 279 09:19 19.01.2020
4408 Clear 1 1034 91 0 0.45 270 08:52 19.01.2020
4409 Clear 1 1033 91 0 0.45 270 08:30 19.01.2020
4410 Clear 1 1032 91 0 0.45 270 07:46 19.01.2020
4411 Clear 1 1032 91 0 6.07 272 07:26 19.01.2020
4412 Clear 1 1032 91 0 0.89 315 06:54 19.01.2020
4413 Clear 1 1031 91 0 0.45 270 06:21 19.01.2020
4414 Clouds 2 1029 90 0 6.79 273 03:51 19.01.2020
4415 Clouds 3 1029 89 0 0.45 292 02:28 19.01.2020
4416 Clouds 3 1028 88 0 1.34 247 01:38 19.01.2020
4417 Clouds 3 1028 88 0 7.77 264 01:18 19.01.2020
4418 Clouds 3 1028 88 0 7.77 264 01:18 19.01.2020
4419 Clouds 4 1027 87 0 0.45 292 00:41 19.01.2020
4420 Clouds 4 1027 87 0 0.45 292 00:41 19.01.2020
4421 Clouds 4 1027 87 0 0.89 247 00:19 19.01.2020
4422 Clouds 4 1027 87 0 7.77 264 23:42 18.01.2020
4423 Clouds 4 1026 87 0 7.77 264 23:24 18.01.2020
4424 Clouds 4 1026 86 0 10.18 252 22:58 18.01.2020
4425 Clouds 4 1026 86 0 10.18 252 22:40 18.01.2020
4426 Clouds 4 1026 86 0 0.45 270 22:21 18.01.2020
4427 Clouds 4 1026 85 0 0.89 270 21:58 18.01.2020
4428 Clouds 4 1026 85 0 0.45 270 21:38 18.01.2020
4429 Clouds 4 1026 85 0 10.18 252 21:20 18.01.2020
4430 Clouds 4 1026 85 0 10.18 252 21:20 18.01.2020
4431 Clouds 4 1025 83 0 0.45 225 20:55 18.01.2020
4432 Clouds 4 1025 83 0 0.45 247 20:36 18.01.2020
4433 Clouds 5 1025 83 0 0.45 292 20:18 18.01.2020
4434 Clouds 5 1025 82 0 0.45 225 19:42 18.01.2020
4435 Clouds 5 1025 82 0 9.86 233 19:24 18.01.2020
4436 Clouds 5 1025 81 0 0.89 225 18:43 18.01.2020
4437 Clouds 5 1025 81 0 0.45 247 18:24 18.01.2020
4438 Clouds 6 1024 81 0 1.34 225 17:58 18.01.2020
4439 Clouds 6 1024 81 0 0.45 225 17:40 18.01.2020
4440 Clouds 6 1024 81 0 0.45 247 17:20 18.01.2020
4441 Clouds 5 1024 81 0 0.45 247 16:56 18.01.2020
4442 Clouds 6 1024 81 0 0.89 225 16:38 18.01.2020
4443 Clouds 6 1024 81 0 2.24 225 16:19 18.01.2020
4444 Clouds 6 1024 80 0 0.89 225 15:44 18.01.2020
4445 Clouds 6 1023 80 0 1.34 225 15:26 18.01.2020
4446 Clouds 6 1023 79 0 0.89 225 14:59 18.01.2020
4447 Clouds 6 1023 79 0 1.34 225 14:40 18.01.2020
4448 Clouds 6 1023 78 0 0.45 247 14:19 18.01.2020
4449 Clouds 7 1023 78 0 0.89 247 13:56 18.01.2020
4450 Clouds 7 1023 77 0 0.45 225 13:36 18.01.2020
4451 Clouds 7 1023 78 0 2.24 225 13:18 18.01.2020
4452 Clouds 7 1023 78 0 2.24 225 13:18 18.01.2020
4453 Clouds 7 1023 78 0 0.89 270 12:41 18.01.2020
4454 Clouds 7 1023 79 0 0.89 247 12:21 18.01.2020
4455 Clouds 7 1022 80 0 0.89 202 11:57 18.01.2020
4456 Clouds 7 1023 80 0 0.89 225 11:38 18.01.2020
4457 Clouds 6 1023 81 0 1.79 247 11:19 18.01.2020
4458 Clouds 6 1023 82 0 10.97 234 10:43 18.01.2020
4459 Clouds 6 1023 82 0 1.34 225 10:21 18.01.2020
4460 Clouds 6 1023 82 0 1.34 225 09:55 18.01.2020
4461 Clouds 6 1023 82 0 10.97 234 09:37 18.01.2020
4462 Clouds 5 1022 82 0 0.89 315 09:18 18.01.2020
4463 Clouds 6 1022 83 0 0.89 270 08:42 18.01.2020
4464 Clouds 5 1022 83 0 0.45 247 08:20 18.01.2020
4465 Clouds 5 1021 83 0 0.89 247 07:58 18.01.2020
4466 Clouds 6 1021 82 0 1.34 292 07:37 18.01.2020
4467 Clouds 6 1021 86 0 10.95 246 06:50 18.01.2020
4468 Clouds 6 1020 85 0 1.34 292 06:27 18.01.2020
4469 Clouds 6 1020 88 0 1.34 270 05:49 18.01.2020
4470 Rain 6 1019 91 0 0.45 225 04:24 18.01.2020
4471 Rain 6 1018 90 0 0.45 247 02:34 18.01.2020
4472 Rain 5 1017 88 0 0.89 225 01:40 18.01.2020
4473 Rain 4 1017 88 0 0.89 225 00:39 18.01.2020
4474 Rain 4 1017 88 0 1.34 225 00:19 18.01.2020
4475 Rain 4 1017 88 0 1.34 225 23:58 17.01.2020
4476 Rain 4 1017 88 0 0.89 225 23:39 17.01.2020
4477 Clouds 4 1017 88 0 0.89 202 23:18 17.01.2020
4478 Clouds 3 1017 88 0 0.89 180 22:41 17.01.2020
4479 Clouds 3 1017 87 0 0.89 180 22:20 17.01.2020
4480 Clouds 3 1016 87 0 0.45 157 21:56 17.01.2020
4481 Clouds 3 1017 87 0 0.45 157 21:37 17.01.2020
4482 Clouds 3 1017 87 0 0.45 157 21:19 17.01.2020
4483 Clouds 4 1017 86 0 0.89 157 20:43 17.01.2020
4484 Clear 4 1017 86 0 0.89 157 20:21 17.01.2020
4485 Clear 4 1017 86 0 0.89 157 20:21 17.01.2020
4486 Clear 4 1017 86 0 0.45 180 19:58 17.01.2020
4487 Clear 4 1018 86 0 0.89 157 19:39 17.01.2020
4488 Clear 4 1018 86 0 0.89 157 19:20 17.01.2020
4489 Clear 5 1018 85 0 0.89 157 18:58 17.01.2020
4490 Clear 5 1018 85 0 1.34 180 18:40 17.01.2020
4491 Clear 5 1018 85 0 0.89 180 18:21 17.01.2020
4492 Clear 5 1018 84 0 1.34 157 17:54 17.01.2020
4493 Clear 6 1019 84 0 0.89 180 17:36 17.01.2020
4494 Clear 6 1019 84 0 0.89 157 17:18 17.01.2020
4495 Clear 6 1019 84 0 0.89 180 16:41 17.01.2020
4496 Clear 6 1019 84 0 1.79 180 16:19 17.01.2020
4497 Clear 7 1019 84 0 1.34 180 15:48 17.01.2020
4498 Clear 7 1019 84 0 0.89 157 15:26 17.01.2020
4499 Clear 6 1015 81 0 7.56 169 14:54 17.01.2020
4500 Clear 7 1020 84 0 0.89 157 14:36 17.01.2020
4501 Clear 7 1020 84 0 1.79 157 14:18 17.01.2020
4502 Clear 7 1021 84 0 0.89 157 13:39 17.01.2020
4503 Clear 7 1021 85 0 0.89 157 13:20 17.01.2020
4504 Clear 7 1022 85 0 0.89 157 12:45 17.01.2020
4505 Clear 7 1022 86 0 0.89 157 12:23 17.01.2020
4506 Clear 6 1023 88 0 0.89 157 11:41 17.01.2020
4507 Clear 6 1023 88 0 1.34 157 11:19 17.01.2020
4508 Clear 5 1024 89 0 1.34 157 10:55 17.01.2020
4509 Clear 5 1024 90 0 1.79 157 10:36 17.01.2020
4510 Clear 4 1025 90 0 1.34 135 10:18 17.01.2020
4511 Clear 3 1025 90 0 1.34 135 09:42 17.01.2020
4512 Clear 3 1025 90 0 0.89 157 09:21 17.01.2020
4513 Clear 2 1026 90 0 0.45 157 08:55 17.01.2020
4514 Clear 2 1026 90 0 0.89 135 08:37 17.01.2020
4515 Clear 2 1026 90 0 0.89 135 08:18 17.01.2020
4516 Clear 2 1026 90 0 1.34 135 07:43 17.01.2020
4517 Clear 2 1026 90 0 1.79 180 07:25 17.01.2020
4518 Clear 2 1026 90 0 1.34 135 06:51 17.01.2020
4519 Clear 2 1026 90 0 0.89 135 06:30 17.01.2020
4520 Clear 3 1027 89 0 0.89 180 04:27 17.01.2020
4521 Clear 3 1028 89 0 0.89 157 02:56 17.01.2020
4522 Clear 3 1028 89 0 0.89 157 02:32 17.01.2020
4523 Clouds 3 1028 88 0 0.89 157 01:44 17.01.2020
4524 Clouds 3 1028 88 0 0.89 157 01:25 17.01.2020
4525 Clouds 3 1029 88 0 0.45 135 00:37 17.01.2020
4526 Clouds 4 1029 88 0 0.45 135 00:19 17.01.2020
4527 Clouds 3 1030 88 0 0.45 157 23:41 16.01.2020
4528 Clouds 3 1030 88 0 0.45 157 23:22 16.01.2020
4529 Clouds 3 1030 87 0 0.89 157 22:41 16.01.2020
4530 Clouds 3 1030 87 0 0.45 157 22:21 16.01.2020
4531 Clouds 3 1030 87 0 0.89 135 21:57 16.01.2020
4532 Clouds 3 1031 87 0 0.89 180 21:38 16.01.2020
4533 Clouds 3 1031 87 0 6.92 172 21:19 16.01.2020
4534 Clouds 3 1031 87 0 0.45 180 20:58 16.01.2020
4535 Clouds 3 1031 87 0 0.45 157 20:39 16.01.2020
4536 Clouds 3 1031 87 0 0.45 157 20:19 16.01.2020
4537 Clouds 3 1031 86 0 0.45 180 19:56 16.01.2020
4538 Clouds 4 1031 86 0 0.45 180 19:38 16.01.2020
4539 Clouds 4 1031 86 0 0.45 180 19:19 16.01.2020
4540 Clouds 4 1031 85 0 0.45 180 18:55 16.01.2020
4541 Clouds 4 1031 85 0 0.45 180 18:37 16.01.2020
4542 Clouds 4 1031 85 0 0.45 180 18:37 16.01.2020
4543 Clouds 4 1031 85 0 5.11 196 18:18 16.01.2020
4544 Clouds 5 1031 85 0 0.45 202 17:42 16.01.2020
4545 Clouds 5 1031 84 0 0.45 202 17:23 16.01.2020
4546 Clouds 6 1031 84 0 0.45 202 16:57 16.01.2020
4547 Clouds 6 1031 84 0 0.89 202 16:39 16.01.2020
4548 Clouds 6 1031 83 0 0.89 225 16:20 16.01.2020
4549 Clouds 7 1031 82 0 0.45 225 15:44 16.01.2020
4550 Clouds 7 1031 82 0 0.45 225 15:44 16.01.2020
4551 Clouds 7 1031 81 0 0.45 225 15:24 16.01.2020
4552 Clouds 7 1031 81 0 0.45 225 15:24 16.01.2020
4553 Clouds 8 1030 81 0 0.89 225 14:59 16.01.2020
4554 Clouds 8 1030 81 0 0.45 225 14:41 16.01.2020
4555 Clouds 9 1030 81 0 0.89 225 14:22 16.01.2020
4556 Clear 8 1030 82 0 0.45 247 13:45 16.01.2020
4557 Clear 8 1030 83 0 6.9 237 13:26 16.01.2020
4558 Clear 8 1030 84 0 0.89 225 12:57 16.01.2020
4559 Clear 8 1030 84 0 0.89 225 12:38 16.01.2020
4560 Clear 8 1030 85 0 1.34 225 12:20 16.01.2020
4561 Clear 7 1031 86 0 0.89 225 11:41 16.01.2020
4562 Clear 7 1030 86 0 6.9 237 11:23 16.01.2020
4563 Clear 7 1030 87 0 8.37 237 10:55 16.01.2020
4564 Clear 6 1030 87 0 0.45 225 10:37 16.01.2020
4565 Clear 6 1030 88 0 0.45 225 10:19 16.01.2020
4566 Clear 6 1029 88 0 1.34 270 09:43 16.01.2020
4567 Clear 5 1029 88 0 0.89 225 09:24 16.01.2020
4568 Clear 5 1029 88 0 0.45 225 08:58 16.01.2020
4569 Clear 4 1029 88 0 0.45 247 08:40 16.01.2020
4570 Clouds 4 1029 88 0 0.45 225 08:20 16.01.2020
4571 Clouds 5 1028 87 0 0.45 225 07:43 16.01.2020
4572 Clouds 5 1027 87 0 0.89 225 07:24 16.01.2020
4573 Clouds 5 1027 87 0 1.34 225 06:55 16.01.2020
4574 Clouds 5 1027 88 0 0.45 225 06:35 16.01.2020
4575 Clouds 5 1026 88 0 9.73 246 05:56 16.01.2020
4576 Clouds 5 1026 88 0 0.45 270 05:25 16.01.2020
4577 Clouds 5 1025 86 0 9.92 249 04:23 16.01.2020
4578 Clouds 6 1024 86 0 0.45 225 03:27 16.01.2020
4579 Clouds 6 1023 87 0 9.92 249 02:24 16.01.2020
4580 Rain 8 1021 85 0 8.36 275 00:44 16.01.2020
4581 Rain 8 1020 84 0 0.45 337 00:24 16.01.2020
4582 Rain 9 1019 77 0 4.47 315 23:46 15.01.2020
4583 Rain 10 1018 75 0 0.45 225 23:22 15.01.2020
4584 Rain 10 1017 74 0 1.79 225 22:57 15.01.2020
4585 Rain 10 1017 74 0 2.24 225 22:39 15.01.2020
4586 Rain 10 1016 74 0 1.79 225 22:19 15.01.2020
4587 Rain 10 1016 74 0 2.24 225 21:57 15.01.2020
4588 Rain 10 1016 74 0 2.24 225 21:37 15.01.2020
4589 Rain 10 1016 74 0 1.79 225 21:19 15.01.2020
4590 Rain 10 1016 75 0 1.79 225 20:57 15.01.2020
4591 Rain 10 1015 75 0 1.79 202 20:39 15.01.2020
4592 Rain 10 1015 75 0 1.79 202 20:39 15.01.2020
4593 Clouds 9 1015 75 0 1.79 202 20:20 15.01.2020
4594 Clouds 9 1015 76 0 2.24 225 19:55 15.01.2020
4595 Clouds 9 1015 76 0 1.79 202 19:37 15.01.2020
4596 Clouds 9 1010 72 0 10.18 220 19:19 15.01.2020
4597 Clouds 10 1014 75 0 2.24 202 18:56 15.01.2020
4598 Clouds 10 1014 75 0 1.34 225 18:38 15.01.2020
4599 Clouds 10 1014 75 0 2.24 202 18:19 15.01.2020
4600 Clouds 10 1014 76 0 2.68 225 17:58 15.01.2020
4601 Clouds 10 1014 76 0 2.24 202 17:38 15.01.2020
4602 Clouds 10 1014 76 0 1.79 202 17:19 15.01.2020
4603 Clouds 11 1014 76 0 1.79 202 16:41 15.01.2020
4604 Clouds 11 1014 76 0 1.79 202 16:41 15.01.2020
4605 Clouds 11 1014 76 0 1.79 180 16:22 15.01.2020
4606 Clouds 11 1014 75 0 1.79 180 15:59 15.01.2020
4607 Clouds 12 1014 74 0 1.79 225 15:41 15.01.2020
4608 Clouds 12 1013 74 0 1.34 225 15:20 15.01.2020
4609 Clouds 12 1013 73 0 2.68 225 14:44 15.01.2020
4610 Clouds 12 1013 73 0 0.89 247 14:21 15.01.2020
4611 Clouds 12 1013 74 0 2.24 202 13:56 15.01.2020
4612 Clouds 12 1013 74 0 2.24 225 13:38 15.01.2020
4613 Clouds 12 1013 74 0 2.24 225 13:19 15.01.2020
4614 Clouds 12 1013 73 0 2.24 225 12:54 15.01.2020
4615 Clouds 12 1013 73 0 2.24 225 12:36 15.01.2020
4616 Clouds 12 1013 73 0 1.79 225 12:18 15.01.2020
4617 Clouds 12 1013 75 0 3.13 225 11:38 15.01.2020
4618 Clouds 12 1013 76 0 2.68 225 11:19 15.01.2020
4619 Clouds 11 1013 80 0 2.24 225 10:47 15.01.2020
4620 Clouds 11 1013 81 0 2.24 225 10:28 15.01.2020
4621 Clouds 10 1013 82 0 2.24 225 09:58 15.01.2020
4622 Clouds 9 1013 83 0 2.68 225 09:39 15.01.2020
4623 Clouds 9 1013 83 0 1.79 202 09:19 15.01.2020
4624 Clouds 9 1013 82 0 2.24 202 08:44 15.01.2020
4625 Clouds 9 1013 82 0 2.24 225 08:24 15.01.2020
4626 Clouds 9 1012 82 0 2.24 202 07:54 15.01.2020
4627 Clouds 9 1012 83 0 1.79 247 07:33 15.01.2020
4628 Clouds 9 1012 83 0 2.24 225 06:52 15.01.2020
4629 Clouds 9 1012 83 0 2.24 225 06:28 15.01.2020
4630 Clouds 9 1011 84 0 1.79 202 04:57 15.01.2020
4631 Clouds 9 1011 82 0 2.24 225 03:20 15.01.2020
4632 Clouds 9 1011 82 0 2.24 180 01:48 15.01.2020
4633 Clouds 9 1011 82 0 1.79 225 01:21 15.01.2020
4634 Clouds 8 1010 82 0 1.79 202 00:37 15.01.2020
4635 Clouds 8 1010 82 0 1.79 225 00:19 15.01.2020
4636 Clouds 8 1010 81 0 1.79 202 23:46 14.01.2020
4637 Clouds 8 1010 81 0 1.79 202 23:27 14.01.2020
4638 Clouds 8 1010 82 0 1.79 202 22:57 14.01.2020
4639 Clouds 8 1010 82 0 1.79 180 22:39 14.01.2020
4640 Clouds 8 1010 83 0 2.24 202 22:18 14.01.2020
4641 Clouds 8 1010 83 0 2.68 180 21:57 14.01.2020
4642 Clouds 8 1010 83 0 1.34 202 21:39 14.01.2020
4643 Clouds 8 1010 83 0 1.79 202 21:19 14.01.2020
4644 Clouds 8 1010 84 0 1.79 202 20:54 14.01.2020
4645 Clouds 8 1011 84 0 1.79 202 20:36 14.01.2020
4646 Clouds 8 1011 85 0 1.34 202 20:18 14.01.2020
4647 Clouds 8 1011 85 0 1.79 202 19:55 14.01.2020
4648 Clouds 8 1011 85 0 1.34 180 19:37 14.01.2020
4649 Clouds 9 1011 85 0 1.34 180 19:18 14.01.2020
4650 Clouds 9 1011 85 0 1.34 202 18:41 14.01.2020
4651 Clouds 9 1011 85 0 1.34 202 18:20 14.01.2020
4652 Clouds 9 1011 85 0 1.79 180 17:58 14.01.2020
4653 Clouds 9 1011 85 0 1.79 180 17:37 14.01.2020
4654 Rain 9 1011 86 0 1.79 202 17:18 14.01.2020
4655 Rain 9 1011 86 0 1.79 225 16:54 14.01.2020
4656 Rain 9 1011 86 0 1.79 225 16:36 14.01.2020
4657 Rain 9 1011 86 0 2.68 180 16:18 14.01.2020
4658 Rain 9 1011 86 0 1.79 202 15:42 14.01.2020
4659 Rain 8 1010 87 0 2.24 225 15:19 14.01.2020
4660 Rain 9 1010 87 0 2.24 225 14:46 14.01.2020
4661 Rain 8 1010 87 0 1.79 202 14:23 14.01.2020
4662 Rain 8 1010 88 0 1.79 202 13:59 14.01.2020
4663 Rain 8 1009 88 0 1.79 225 13:40 14.01.2020
4664 Rain 8 1010 89 0 2.24 225 13:19 14.01.2020
4665 Rain 8 1010 89 0 2.24 225 13:19 14.01.2020
4666 Rain 8 1009 90 0 2.24 202 12:42 14.01.2020
4667 Rain 7 1009 90 0 1.79 202 12:23 14.01.2020
4668 Rain 7 1010 91 0 2.68 202 11:57 14.01.2020
4669 Rain 7 1010 91 0 1.79 202 11:39 14.01.2020
4670 Rain 6 1010 92 0 1.79 180 11:20 14.01.2020
4671 Rain 6 1010 91 0 1.79 180 10:56 14.01.2020
4672 Rain 6 1010 91 0 2.24 180 10:37 14.01.2020
4673 Rain 5 1010 91 0 1.79 180 10:19 14.01.2020
4674 Rain 4 1010 91 0 1.34 180 09:42 14.01.2020
4675 Rain 4 1010 91 0 1.34 180 09:23 14.01.2020
4676 Rain 4 1010 92 0 2.24 180 08:58 14.01.2020
4677 Rain 4 1010 92 0 1.79 180 08:39 14.01.2020
4678 Clouds 4 1010 92 0 1.79 180 08:20 14.01.2020
4679 Clouds 3 1011 91 0 1.79 157 07:46 14.01.2020
4680 Clouds 3 1011 92 0 1.34 157 07:18 14.01.2020
4681 Clouds 3 1011 92 0 1.79 180 06:42 14.01.2020
4682 Clouds 3 1012 92 0 1.79 180 05:57 14.01.2020
4683 Clouds 3 1013 92 0 1.34 180 04:50 14.01.2020
4684 Clouds 3 1014 92 0 1.34 157 03:46 14.01.2020
4685 Clouds 2 1015 92 0 1.34 180 02:33 14.01.2020
4686 Clouds 3 1017 92 0 0.89 157 01:19 14.01.2020
4687 Clouds 3 1017 92 0 1.34 157 00:47 14.01.2020
4688 Clouds 3 1017 91 0 0.89 157 00:21 14.01.2020
4689 Clouds 3 1018 91 0 0.45 180 23:44 13.01.2020
4690 Clouds 3 1018 91 0 0.89 180 23:19 13.01.2020
4691 Clouds 3 1018 91 0 0.89 157 22:57 13.01.2020
4692 Clouds 3 1018 91 0 0.89 157 22:39 13.01.2020
4693 Clouds 3 1018 91 0 0.89 180 22:19 13.01.2020
4694 Clouds 3 1018 91 0 0.89 180 21:55 13.01.2020
4695 Clouds 3 1019 91 0 0.45 157 21:37 13.01.2020
4696 Clouds 3 1019 90 0 0.89 180 21:18 13.01.2020
4697 Clouds 3 1019 90 0 0.45 180 20:56 13.01.2020
4698 Clouds 3 1019 90 0 0.45 180 20:38 13.01.2020
4699 Rain 3 1020 90 0 0.89 180 20:19 13.01.2020
4700 Rain 4 1020 90 0 4.78 215 19:41 13.01.2020
4701 Rain 4 1020 90 0 0.45 180 19:21 13.01.2020
4702 Rain 4 1020 90 0 0.45 180 18:59 13.01.2020
4703 Rain 4 1020 90 0 0.45 180 18:40 13.01.2020
4704 Rain 4 1020 90 0 0.45 180 18:20 13.01.2020
4705 Rain 4 1020 90 0 0.45 180 18:20 13.01.2020
4706 Rain 4 1020 90 0 0.45 180 18:20 13.01.2020
4707 Rain 4 1020 89 0 0.45 180 17:59 13.01.2020
4708 Rain 4 1020 89 0 0.45 180 17:40 13.01.2020
4709 Clouds 4 1020 89 0 0.89 180 17:21 13.01.2020
4710 Clouds 4 1020 89 0 0.89 180 17:21 13.01.2020
4711 Clouds 5 1020 88 0 0.45 202 16:55 13.01.2020
4712 Clouds 5 1020 89 0 0.45 202 16:36 13.01.2020
4713 Clouds 6 1020 88 0 0.45 202 16:18 13.01.2020
4714 Clouds 6 1021 88 0 1.34 225 15:42 13.01.2020
4715 Clouds 7 1021 88 0 0.89 180 15:22 13.01.2020
4716 Clouds 7 1021 88 0 0.89 202 14:57 13.01.2020
4717 Clouds 7 1021 88 0 0.45 202 14:37 13.01.2020
4718 Clouds 7 1021 88 0 0.89 202 14:18 13.01.2020
4719 Clouds 7 1021 88 0 0.89 225 13:40 13.01.2020
4720 Clouds 7 1021 88 0 0.89 225 13:40 13.01.2020
4721 Clouds 7 1022 88 0 0.89 225 13:22 13.01.2020
4722 Clouds 7 1022 89 0 6.19 244 12:58 13.01.2020
4723 Clouds 7 1022 89 0 0.45 247 12:40 13.01.2020
4724 Clouds 7 1022 90 0 0.89 225 12:21 13.01.2020
4725 Clouds 7 1022 91 0 0.89 225 11:56 13.01.2020
4726 Clouds 7 1022 91 0 0.45 225 11:37 13.01.2020
4727 Clouds 7 1023 92 0 7.64 242 11:18 13.01.2020
4728 Clouds 6 1023 92 0 0.89 202 10:55 13.01.2020
4729 Clouds 6 1023 92 0 0.45 225 10:36 13.01.2020
4730 Clouds 6 1023 92 0 0.89 247 10:18 13.01.2020
4731 Clouds 6 1023 92 0 0.89 247 10:18 13.01.2020
4732 Clouds 6 1022 92 0 0.89 247 09:42 13.01.2020
4733 Clouds 6 1022 92 0 7.64 242 09:23 13.01.2020
4734 Clouds 6 1022 92 0 7.64 242 08:44 13.01.2020
4735 Clouds 6 1022 93 0 8.43 256 08:22 13.01.2020
4736 Clouds 6 1022 93 0 8.19 254 07:59 13.01.2020
4737 Clouds 6 1022 93 0 8.19 254 07:41 13.01.2020
4738 Clouds 6 1021 93 0 8.19 254 07:19 13.01.2020
4739 Clouds 6 1021 93 0 8.19 254 06:37 13.01.2020
4740 Clouds 6 1021 93 0 8.19 254 05:37 13.01.2020
4741 Clouds 6 1021 92 0 8.32 271 04:26 13.01.2020
4742 Clouds 7 1021 92 0 8.32 271 03:38 13.01.2020
4743 Clouds 7 1020 92 0 8.32 271 02:49 13.01.2020
4744 Clouds 7 1020 92 0 0.45 292 02:30 13.01.2020
4745 Clouds 7 1020 92 0 0.45 292 02:30 13.01.2020
4746 Rain 7 1019 92 0 0.45 292 01:33 13.01.2020
4747 Clouds 7 1018 92 0 1.79 270 00:44 13.01.2020
4748 Clouds 7 1018 92 0 1.34 292 00:26 13.01.2020
4749 Clouds 7 1018 90 0 0.89 225 23:57 12.01.2020
4750 Clouds 7 1018 90 0 0.45 247 23:39 12.01.2020
4751 Rain 7 1017 90 0 0.89 315 23:21 12.01.2020
4752 Rain 6 1017 90 0 0.45 225 22:43 12.01.2020
4753 Rain 6 1017 90 0 0.45 225 22:43 12.01.2020
4754 Rain 6 1017 90 0 1.79 225 22:25 12.01.2020
4755 Rain 6 1017 90 0 1.79 225 21:59 12.01.2020
4756 Rain 6 1016 90 0 0.89 247 21:40 12.01.2020
4757 Rain 6 1016 90 0 2.24 247 21:20 12.01.2020
4758 Rain 6 1017 90 0 0.45 247 20:59 12.01.2020
4759 Rain 5 1017 90 0 1.34 225 20:39 12.01.2020
4760 Rain 5 1017 90 0 1.79 225 20:21 12.01.2020
4761 Rain 4 1017 90 0 2.24 225 19:57 12.01.2020
4762 Rain 4 1017 90 0 1.34 225 19:38 12.01.2020
4763 Rain 4 1017 90 0 1.79 225 19:19 12.01.2020
4764 Rain 4 1017 90 0 1.79 225 19:19 12.01.2020
4765 Rain 4 1017 89 0 1.79 202 18:58 12.01.2020
4766 Rain 4 1017 89 0 2.24 225 18:40 12.01.2020
4767 Rain 4 1017 89 0 1.79 225 18:22 12.01.2020
4768 Rain 4 1018 89 0 2.24 225 17:59 12.01.2020
4769 Rain 4 1018 88 0 1.79 225 17:41 12.01.2020
4770 Rain 4 1018 88 0 1.79 225 17:19 12.01.2020
4771 Rain 4 1018 88 0 1.34 202 16:57 12.01.2020
4772 Rain 5 1018 88 0 0.89 225 16:37 12.01.2020
4773 Rain 5 1018 88 0 1.79 225 16:19 12.01.2020
4774 Rain 5 1018 86 0 1.34 225 15:43 12.01.2020
4775 Rain 6 1018 86 0 1.34 225 15:25 12.01.2020
4776 Rain 6 1018 85 0 1.34 225 14:59 12.01.2020
4777 Rain 6 1018 85 0 1.79 225 14:41 12.01.2020
4778 Rain 6 1019 85 0 1.34 225 14:21 12.01.2020
4779 Rain 6 1019 85 0 1.79 225 13:56 12.01.2020
4780 Rain 6 1019 85 0 1.34 225 13:38 12.01.2020
4781 Rain 6 1019 85 0 1.34 225 13:20 12.01.2020
4782 Rain 6 1019 85 0 1.34 225 13:20 12.01.2020
4783 Rain 6 1019 85 0 1.79 225 12:44 12.01.2020
4784 Rain 6 1019 85 0 1.79 225 12:21 12.01.2020
4785 Rain 6 1020 85 0 1.79 225 11:59 12.01.2020
4786 Rain 6 1020 85 0 1.79 225 11:59 12.01.2020
4787 Rain 6 1020 85 0 2.24 247 11:40 12.01.2020
4788 Rain 6 1020 85 0 1.79 225 11:22 12.01.2020
4789 Rain 6 1020 86 0 1.79 225 10:56 12.01.2020
4790 Rain 6 1021 86 0 2.24 225 10:37 12.01.2020
4791 Rain 6 1021 86 0 1.79 225 10:18 12.01.2020
4792 Rain 5 1021 86 0 1.79 225 09:41 12.01.2020
4793 Rain 5 1021 86 0 1.79 225 09:22 12.01.2020
4794 Rain 5 1021 86 0 1.34 225 08:48 12.01.2020
4795 Rain 5 1021 86 0 1.79 225 08:24 12.01.2020
4796 Clouds 5 1021 86 0 2.68 202 07:49 12.01.2020
4797 Clouds 4 1021 86 0 1.79 225 07:30 12.01.2020
4798 Clouds 4 1022 86 0 2.24 225 06:59 12.01.2020
4799 Clouds 4 1022 86 0 2.24 225 06:59 12.01.2020
4800 Clouds 4 1022 86 0 1.79 225 06:38 12.01.2020
4801 Clouds 4 1022 86 0 1.79 225 05:55 12.01.2020
4802 Clouds 4 1023 86 0 1.79 225 04:56 12.01.2020
4803 Clouds 4 1024 85 0 1.79 225 03:43 12.01.2020
4804 Clouds 5 1024 85 0 1.79 225 02:52 12.01.2020
4805 Clouds 5 1025 85 0 0.45 225 02:27 12.01.2020
4806 Clouds 4 1025 85 0 1.79 202 01:35 12.01.2020
4807 Clouds 4 1025 86 0 1.79 225 00:49 12.01.2020
4808 Clouds 4 1025 86 0 1.79 225 00:22 12.01.2020
4809 Clouds 4 1025 86 0 1.79 225 00:22 12.01.2020
4810 Clouds 4 1026 86 0 1.34 225 23:59 11.01.2020
4811 Clouds 4 1026 86 0 1.79 225 23:41 11.01.2020
4812 Clouds 4 1026 86 0 2.24 225 23:18 11.01.2020
4813 Clouds 5 1021 81 0 11.89 232 22:56 11.01.2020
4814 -273 0 0 0 0 0 22:38 11.01.2020
4815 Clouds 4 1027 86 0 1.79 225 22:20 11.01.2020
4816 Clouds 4 1027 86 0 1.34 225 21:54 11.01.2020
4817 Clouds 4 1027 86 0 1.79 225 21:36 11.01.2020
4818 Clouds 4 1027 86 0 1.34 225 21:18 11.01.2020
4819 Clouds 4 1028 87 0 1.79 225 20:39 11.01.2020
4820 Clouds 4 1028 87 0 1.79 225 20:20 11.01.2020
4821 Clouds 4 1028 87 0 1.79 225 19:58 11.01.2020
4822 Clouds 4 1028 87 0 1.79 225 19:38 11.01.2020
4823 Clouds 4 1028 87 0 1.79 225 19:20 11.01.2020
4824 Clouds 4 1028 88 0 1.79 225 18:57 11.01.2020
4825 Clouds 4 1029 88 0 2.24 225 18:37 11.01.2020
4826 Clouds 4 1029 87 0 1.79 225 18:19 11.01.2020
4827 Clouds 4 1029 87 0 2.24 225 17:57 11.01.2020
4828 Clouds 5 1024 83 0 11.06 224 17:39 11.01.2020
4829 Clouds 5 1025 81 0 9.73 219 17:19 11.01.2020
4830 Clouds 5 1025 81 0 9.73 219 16:44 11.01.2020
4831 Clouds 5 1025 81 0 9.73 219 16:25 11.01.2020
4832 Clouds 5 1025 81 0 9.73 219 15:58 11.01.2020
4833 Clouds 5 1025 81 0 9.73 219 15:40 11.01.2020
4834 Clouds 5 1025 81 0 9.73 219 15:20 11.01.2020
4835 Clouds 5 1025 81 0 9.73 219 14:56 11.01.2020
4836 Clouds 5 1025 81 0 9.73 219 14:37 11.01.2020
4837 Clouds 5 1027 82 0 7.99 221 14:19 11.01.2020
4838 Clouds 6 1032 91 0 0.89 225 13:39 11.01.2020
4839 Clouds 6 1032 91 0 0.89 225 13:20 11.01.2020
4840 Clouds 6 1032 91 0 0.89 225 12:57 11.01.2020
4841 Clouds 6 1032 91 0 0.89 225 12:38 11.01.2020
4842 Clouds 6 1032 91 0 0.89 225 12:20 11.01.2020
4843 Clouds 5 1027 83 0 8.05 220 11:46 11.01.2020
4844 Clouds 5 1027 83 0 8.05 220 11:25 11.01.2020
4845 Clouds 5 1027 83 0 6.29 243 10:50 11.01.2020
4846 Clouds 5 1027 83 0 6.29 243 10:30 11.01.2020
4847 Clouds 5 1027 83 0 6.29 243 09:57 11.01.2020
4848 Clouds 5 1027 83 0 6.29 243 09:37 11.01.2020
4849 Clouds 5 1027 83 0 6.29 243 09:19 11.01.2020
4850 Clouds 5 1027 83 0 6.29 243 08:42 11.01.2020
4851 Clouds 5 1027 91 0 7.26 292 08:21 11.01.2020
4852 Clouds 5 1027 91 0 7.26 292 07:44 11.01.2020
4853 Clouds 5 1027 91 0 7.26 292 07:25 11.01.2020
4854 Clouds 5 1027 91 0 7.26 292 06:50 11.01.2020
4855 Clouds 5 1027 91 0 7.26 292 05:40 11.01.2020
4856 Clouds 6 1024 94 0 3.35 317 04:46 11.01.2020
4857 Clouds 6 1024 94 0 3.35 317 04:27 11.01.2020
4858 Clouds 6 1024 94 0 3.35 317 02:49 11.01.2020
4859 Clouds 6 1024 94 0 3.35 317 02:49 11.01.2020
4860 Clouds 6 1024 94 0 3.35 317 02:27 11.01.2020
4861 Rain 6 1022 94 0 5.95 322 01:43 11.01.2020
4862 Rain 6 1022 95 0 5 332 01:19 11.01.2020
4863 Rain 6 1022 95 0 5 332 00:40 11.01.2020
4864 Rain 6 1022 95 0 5 332 23:59 10.01.2020
4865 Rain 6 1022 95 0 5 332 23:40 10.01.2020
4866 Rain 6 1017 93 0 7.27 326 23:22 10.01.2020
4867 Rain 6 1017 93 0 7.27 326 22:58 10.01.2020
4868 Rain 6 1017 93 0 7.27 326 22:40 10.01.2020
4869 Rain 6 1017 93 0 7.27 326 22:20 10.01.2020
4870 Rain 6 1017 93 0 7.27 326 21:57 10.01.2020
4871 Rain 6 1017 93 0 7.27 326 21:37 10.01.2020
4872 Rain 6 1017 93 0 7.27 326 21:19 10.01.2020
4873 Rain 6 1017 93 0 7.27 326 20:43 10.01.2020
4874 Rain 6 1017 93 0 7.27 326 20:24 10.01.2020
4875 Rain 6 1013 94 0 10.53 316 19:59 10.01.2020
4876 Rain 6 1013 94 0 10.53 316 19:38 10.01.2020
4877 Rain 6 1013 94 0 10.53 316 19:19 10.01.2020
4878 Rain 6 1013 94 0 10.53 316 18:43 10.01.2020
4879 Rain 6 1013 94 0 10.53 316 18:19 10.01.2020
4880 Rain 6 1013 94 0 10.53 316 17:58 10.01.2020
4881 Rain 6 1013 94 0 10.53 316 17:39 10.01.2020
4882 Clouds 7 1010 84 0 8.04 249 17:20 10.01.2020
4883 Clouds 7 1010 84 0 8.04 249 16:59 10.01.2020
4884 Clouds 7 1010 84 0 8.04 249 16:39 10.01.2020
4885 Clouds 7 1010 84 0 8.04 249 16:20 10.01.2020
4886 Clouds 7 1010 84 0 8.04 249 15:56 10.01.2020
4887 Clouds 7 1010 84 0 8.04 249 15:37 10.01.2020
4888 Clouds 7 1010 84 0 8.04 249 15:18 10.01.2020
4889 Clouds 7 1010 84 0 8.04 249 14:56 10.01.2020
4890 Clouds 7 1010 84 0 8.04 249 14:38 10.01.2020
4891 Rain 7 1009 91 0 7.12 256 14:19 10.01.2020
4892 Rain 7 1009 91 0 7.12 256 13:44 10.01.2020
4893 Rain 7 1009 91 0 7.12 256 13:26 10.01.2020
4894 Rain 7 1009 91 0 7.12 256 13:26 10.01.2020
4895 Rain 7 1009 89 0 10.49 258 12:59 10.01.2020
4896 Rain 7 1009 89 0 10.49 258 12:40 10.01.2020
4897 Rain 7 1009 89 0 10.49 258 12:21 10.01.2020
4898 Rain 7 1009 89 0 10.49 258 11:57 10.01.2020
4899 Rain 7 1009 89 0 10.49 258 11:39 10.01.2020
4900 Rain 8 1008 97 0 7.92 249 11:19 10.01.2020
4901 Rain 8 1008 97 0 7.92 249 10:59 10.01.2020
4902 Rain 10 1012 94 0 0.45 225 10:38 10.01.2020
4903 Rain 10 1012 94 0 0.45 225 10:19 10.01.2020
4904 Rain 10 1012 94 0 0.45 225 09:46 10.01.2020
4905 Rain 10 1012 94 0 0.45 225 09:26 10.01.2020
4906 Rain 10 1012 93 0 0.45 225 08:57 10.01.2020
4907 Rain 9 1012 93 0 7.92 249 08:38 10.01.2020
4908 Rain 9 1012 93 0 1.34 225 08:20 10.01.2020
4909 Rain 9 1011 93 0 1.34 225 07:41 10.01.2020
4910 Rain 9 1011 93 0 1.34 225 07:22 10.01.2020
4911 Rain 9 1011 93 0 0.89 202 06:42 10.01.2020
4912 Rain 9 1011 93 0 1.34 202 06:24 10.01.2020
4913 Rain 9 1011 93 0 0.89 202 05:33 10.01.2020
4914 Rain 9 1011 93 0 0.89 202 05:33 10.01.2020
4915 Clouds 9 1012 93 0 0.89 202 03:34 10.01.2020
4916 Clouds 9 1012 93 0 0.89 202 02:54 10.01.2020
4917 Clouds 9 1012 93 0 0.89 180 02:36 10.01.2020
4918 Clouds 9 1012 93 0 0.89 202 01:34 10.01.2020
4919 Rain 9 1012 93 0 0.89 202 00:57 10.01.2020
4920 Rain 9 1012 93 0 0.89 202 00:38 10.01.2020
4921 Rain 9 1012 93 0 1.34 225 23:57 09.01.2020
4922 Rain 9 1012 93 0 0.89 225 23:38 09.01.2020
4923 Rain 9 1012 93 0 0.89 225 23:38 09.01.2020
4924 Rain 9 1012 93 0 0.89 225 23:38 09.01.2020
4925 Rain 9 1012 93 0 0.89 225 23:38 09.01.2020
4926 Rain 9 1012 93 0 0.89 225 23:19 09.01.2020
4927 Rain 9 1012 93 0 0.89 202 22:57 09.01.2020
4928 Rain 9 1012 93 0 0.89 225 22:37 09.01.2020
4929 Rain 9 1012 93 0 0.89 225 22:18 09.01.2020
4930 Rain 9 1012 93 0 0.89 225 21:56 09.01.2020
4931 Rain 9 1012 93 0 0.89 225 21:37 09.01.2020
4932 Rain 9 1012 93 0 0.89 225 21:37 09.01.2020
4933 Rain 9 1013 93 0 1.34 225 21:18 09.01.2020
4934 Rain 9 1013 93 0 0.89 225 20:56 09.01.2020
4935 Rain 9 1013 93 0 1.34 225 20:38 09.01.2020
4936 Rain 9 1013 93 0 1.34 225 20:19 09.01.2020
4937 Rain 9 1013 93 0 1.34 225 20:19 09.01.2020
4938 Rain 9 1013 93 0 1.34 225 20:19 09.01.2020
4939 Rain 9 1012 93 0 1.34 225 19:56 09.01.2020
4940 Rain 9 1012 93 0 1.34 225 19:37 09.01.2020
4941 Rain 9 1013 93 0 1.34 225 19:18 09.01.2020
4942 Rain 9 1012 93 0 1.34 225 18:54 09.01.2020
4943 Rain 9 1013 93 0 1.34 202 18:36 09.01.2020
4944 Rain 8 1013 93 0 1.79 225 18:18 09.01.2020
4945 Rain 8 1013 93 0 1.34 202 17:41 09.01.2020
4946 Rain 8 1013 93 0 1.34 180 17:18 09.01.2020
4947 Rain 8 1013 93 0 1.34 202 16:48 09.01.2020
4948 Rain 8 1013 93 0 1.34 202 16:24 09.01.2020
4949 Rain 8 1013 93 0 0.89 202 15:59 09.01.2020
4950 Rain 8 1013 93 0 1.79 180 15:40 09.01.2020
4951 Rain 8 1014 93 0 1.79 180 15:19 09.01.2020
4952 Rain 8 1014 93 0 1.79 180 14:42 09.01.2020
4953 Rain 8 1014 94 0 1.34 202 14:22 09.01.2020
4954 Rain 8 1014 94 0 1.79 202 13:57 09.01.2020
4955 Rain 8 1015 94 0 1.34 202 13:39 09.01.2020
4956 Rain 8 1015 94 0 1.34 202 13:20 09.01.2020
4957 Rain 8 1015 94 0 1.79 180 12:59 09.01.2020
4958 Rain 8 1016 94 0 1.34 180 12:40 09.01.2020
4959 Rain 8 1016 94 0 1.34 180 12:40 09.01.2020
4960 Rain 8 1016 94 0 1.34 180 12:20 09.01.2020
4961 Rain 8 1017 94 0 0.89 157 11:57 09.01.2020
4962 Rain 7 1018 94 0 0.89 157 11:38 09.01.2020
4963 Rain 7 1019 94 0 0.89 180 11:20 09.01.2020
4964 Rain 7 1020 94 0 1.34 157 10:44 09.01.2020
4965 Rain 6 1020 93 0 0.89 135 10:22 09.01.2020
4966 Rain 6 1020 93 0 0.89 135 09:59 09.01.2020
4967 Rain 6 1020 93 0 1.34 135 09:39 09.01.2020
4968 Rain 6 1021 93 0 1.34 135 09:21 09.01.2020
4969 Rain 6 1021 93 0 0.45 135 08:55 09.01.2020
4970 Rain 6 1022 93 0 0.45 135 08:37 09.01.2020
4971 Clouds 5 1022 93 0 0.45 135 08:19 09.01.2020
4972 Clouds 5 1022 93 0 0.45 135 07:42 09.01.2020
4973 Clouds 4 1022 92 0 0.45 157 07:24 09.01.2020
4974 Clouds 4 1023 92 0 0.45 157 06:39 09.01.2020
4975 Clouds 4 1023 92 0 0.45 157 06:20 09.01.2020
4976 Clouds 4 1023 92 0 3.8 182 05:50 09.01.2020
4977 Clouds 4 1023 92 0 3.8 182 05:50 09.01.2020
4978 Clouds 3 1024 92 0 0.45 180 04:45 09.01.2020
4979 Clouds 3 1025 92 0 3.41 251 03:54 09.01.2020
4980 Clouds 3 1025 92 0 3.41 251 02:55 09.01.2020
4981 Clouds 4 1025 92 0 3.41 251 02:30 09.01.2020
4982 Clouds 5 1025 92 0 5.16 268 01:40 09.01.2020
4983 Clouds 6 1025 93 0 0.45 270 00:44 09.01.2020
4984 Clouds 6 1025 93 0 4.7 277 00:22 09.01.2020
4985 Clouds 6 1025 93 0 4.7 277 23:58 08.01.2020
4986 Clouds 7 1025 93 0 4.7 277 23:38 08.01.2020
4987 Clouds 7 1025 93 0 6.55 272 23:19 08.01.2020
4988 Clouds 7 1024 93 0 6.55 272 22:40 08.01.2020
4989 Clouds 7 1024 93 0 6.55 272 22:40 08.01.2020
4990 Clouds 7 1024 93 0 6.55 272 22:21 08.01.2020
4991 Clouds 8 1024 93 0 0.45 292 21:58 08.01.2020
4992 Clouds 8 1024 93 0 0.45 292 21:40 08.01.2020
4993 Clouds 8 1024 93 0 0.45 292 21:20 08.01.2020
4994 Clouds 8 1024 93 0 6.55 272 20:59 08.01.2020
4995 Clouds 8 1024 93 0 0.89 270 20:40 08.01.2020
4996 Clouds 8 1024 93 0 7.3 265 20:20 08.01.2020
4997 Clouds 8 1024 93 0 7.3 265 20:20 08.01.2020
4998 Clouds 8 1023 93 0 0.45 247 19:58 08.01.2020
4999 Clouds 8 1023 93 0 0.45 225 19:38 08.01.2020
5000 Clouds 8 1023 93 0 0.45 247 19:19 08.01.2020
5001 Clouds 8 1023 93 0 0.45 247 18:57 08.01.2020
5002 Clouds 8 1023 93 0 7.64 266 18:38 08.01.2020
5003 Clouds 8 1023 93 0 7.64 266 18:19 08.01.2020
5004 Clouds 8 1023 93 0 7.64 266 17:56 08.01.2020
5005 Clouds 8 1023 93 0 7.64 266 17:38 08.01.2020
5006 Clouds 8 1023 93 0 0.45 247 17:19 08.01.2020
5007 Clouds 8 1022 93 0 0.45 270 16:55 08.01.2020
5008 Clouds 8 1022 93 0 9.64 256 16:37 08.01.2020
5009 Clouds 8 1022 92 0 9.64 256 16:18 08.01.2020
5010 Clouds 8 1022 92 0 0.45 225 15:44 08.01.2020
5011 Clouds 8 1022 92 0 9.64 256 15:21 08.01.2020
5012 Clouds 8 1021 92 0 0.89 225 14:58 08.01.2020
5013 Clouds 8 1021 92 0 0.89 225 14:58 08.01.2020
5014 Clouds 8 1021 92 0 1.79 225 14:40 08.01.2020
5015 Clouds 8 1021 92 0 0.89 247 14:20 08.01.2020
5016 Clouds 7 1021 92 0 0.45 270 13:41 08.01.2020
5017 Rain 7 1021 92 0 0.45 247 13:21 08.01.2020
5018 Rain 7 1021 92 0 0.45 247 13:21 08.01.2020
5019 Rain 7 1021 91 0 0.89 247 12:55 08.01.2020
5020 Rain 7 1021 91 0 0.45 247 12:36 08.01.2020
5021 Rain 7 1021 91 0 0.89 247 12:18 08.01.2020
5022 Rain 6 1021 91 0 0.89 225 11:47 08.01.2020
5023 Clouds 6 1021 91 0 2.68 225 11:19 08.01.2020
5024 Clouds 6 1021 91 0 2.24 225 10:59 08.01.2020
5025 Clouds 6 1021 91 0 2.24 225 10:59 08.01.2020
5026 Clouds 6 1021 90 0 2.24 202 10:40 08.01.2020
5027 Clouds 6 1021 90 0 1.79 225 10:21 08.01.2020
5028 Clouds 6 1021 90 0 1.79 225 10:21 08.01.2020
5029 Clouds 6 1022 90 0 1.79 225 09:43 08.01.2020
5030 Clouds 6 1022 89 0 2.24 225 09:20 08.01.2020
5031 Clouds 6 1022 88 0 1.79 225 08:59 08.01.2020
5032 Clouds 6 1021 88 0 2.68 225 08:41 08.01.2020
5033 Rain 6 1022 87 0 2.24 225 08:22 08.01.2020
5034 Rain 6 1021 87 0 2.24 225 07:58 08.01.2020
5035 Rain 6 1021 86 0 1.79 225 07:39 08.01.2020
5036 Rain 6 1021 86 0 2.24 225 07:18 08.01.2020
5037 Rain 6 1022 86 0 2.68 225 06:41 08.01.2020
5038 Rain 5 1022 87 0 2.68 225 05:56 08.01.2020
5039 Rain 5 1022 88 0 2.68 225 05:26 08.01.2020
5040 Rain 5 1022 87 0 1.79 202 04:37 08.01.2020
5041 Rain 5 1024 90 0 2.24 202 02:46 08.01.2020
5042 Rain 5 1024 90 0 2.24 202 02:28 08.01.2020
5043 Clouds 5 1024 91 0 1.79 202 01:57 08.01.2020
5044 Clouds 4 1025 91 0 1.79 202 01:32 08.01.2020
5045 Clouds 4 1025 92 0 1.34 180 00:51 08.01.2020
5046 Clouds 4 1026 92 0 1.34 202 00:23 08.01.2020
5047 Clouds 4 1027 92 0 1.34 225 23:46 07.01.2020
5048 Clouds 4 1027 92 0 1.79 202 23:21 07.01.2020
5049 Clouds 3 1027 91 0 0.89 202 22:56 07.01.2020
5050 Clouds 3 1027 91 0 0.89 202 22:37 07.01.2020
5051 Clouds 3 1027 91 0 1.79 225 22:19 07.01.2020
5052 Clouds 3 1027 91 0 0.89 202 21:42 07.01.2020
5053 Clouds 4 1027 92 0 0.89 225 21:22 07.01.2020
5054 Clouds 3 1027 91 0 0.89 225 20:58 07.01.2020
5055 Clouds 3 1028 92 0 0.89 225 20:40 07.01.2020
5056 Clouds 4 1028 92 0 1.34 225 20:22 07.01.2020
5057 Clouds 4 1028 91 0 0.89 225 19:58 07.01.2020
5058 Clouds 4 1028 91 0 0.89 225 19:38 07.01.2020
5059 Clouds 4 1028 91 0 0.89 225 19:19 07.01.2020
5060 Clouds 4 1028 91 0 0.89 225 18:56 07.01.2020
5061 Clouds 5 1028 92 0 0.89 202 18:38 07.01.2020
5062 Clouds 5 1028 92 0 8.77 241 18:18 07.01.2020
5063 Clouds 5 1028 92 0 0.89 225 17:57 07.01.2020
5064 Clouds 5 1028 92 0 8.77 241 17:37 07.01.2020
5065 Clouds 5 1028 92 0 8.96 248 17:19 07.01.2020
5066 Clouds 5 1028 92 0 0.89 225 16:55 07.01.2020
5067 Clouds 5 1028 92 0 8.96 248 16:37 07.01.2020
5068 Clouds 5 1028 92 0 8.96 248 16:18 07.01.2020
5069 Clouds 5 1028 92 0 0.45 247 15:43 07.01.2020
5070 Clouds 5 1027 92 0 0.89 225 15:24 07.01.2020
5071 Clouds 5 1027 92 0 0.89 225 15:24 07.01.2020
5072 Clouds 6 1022 90 0 8.96 248 14:59 07.01.2020
5073 Clouds 5 1027 92 0 0.45 225 14:41 07.01.2020
5074 Clouds 5 1027 92 0 0.45 247 14:22 07.01.2020
5075 Clouds 5 1027 92 0 0.45 247 14:22 07.01.2020
5076 Clouds 4 1027 92 0 0.45 225 13:56 07.01.2020
5077 Clouds 4 1027 92 0 8.14 243 13:37 07.01.2020
5078 Clouds 4 1026 92 0 0.45 247 13:18 07.01.2020
5079 Clouds 4 1027 91 0 0.45 225 12:40 07.01.2020
5080 Clouds 4 1027 91 0 0.45 225 12:40 07.01.2020
5081 Clouds 3 1026 91 0 8.36 239 12:19 07.01.2020
5082 Clouds 3 1026 91 0 0.89 225 11:43 07.01.2020
5083 Clouds 3 1027 91 0 0.89 225 11:23 07.01.2020
5084 Clouds 2 1026 91 0 0.45 225 10:59 07.01.2020
5085 Clouds 2 1026 90 0 0.45 225 10:40 07.01.2020
5086 Clouds 2 1026 90 0 0.45 225 10:40 07.01.2020
5087 Clouds 2 1026 90 0 0.45 225 10:22 07.01.2020
5088 Clouds 2 1026 90 0 7.43 240 09:56 07.01.2020
5089 Clouds 2 1026 90 0 0.45 202 09:37 07.01.2020
5090 Clouds 1 1025 90 0 7.43 240 09:19 07.01.2020
5091 Clouds 1 1025 90 0 0.45 202 08:42 07.01.2020
5092 Clouds 1 1025 90 0 0.45 202 08:21 07.01.2020
5093 Clouds 1 1024 90 0 0.89 202 07:51 07.01.2020
5094 Clouds 1 1024 89 0 0.89 202 07:26 07.01.2020
5095 Clouds 1 1024 89 0 0.89 225 06:53 07.01.2020
5096 Clouds 1 1023 90 0 0.89 225 06:32 07.01.2020
5097 Clouds 2 1023 89 0 0.89 180 05:49 07.01.2020
5098 Clouds 3 1023 90 0 0.89 180 04:31 07.01.2020
5099 Clouds 4 1023 91 0 0.89 180 03:26 07.01.2020
5100 Clouds 4 1024 91 0 0.89 180 02:21 07.01.2020
5101 Clouds 4 1024 91 0 0.89 180 01:51 07.01.2020
5102 Clouds 4 1023 91 0 0.89 180 01:28 07.01.2020
5103 Clouds 4 1024 92 0 0.45 180 00:37 07.01.2020
5104 Clouds 4 1024 92 0 0.45 180 00:18 07.01.2020
5105 Clouds 4 1024 92 0 0.45 180 23:39 06.01.2020
5106 Clouds 4 1024 92 0 0.45 180 23:21 06.01.2020
5107 Clouds 4 1025 92 0 0.89 180 22:58 06.01.2020
5108 Clouds 4 1025 92 0 0.89 180 22:39 06.01.2020
5109 Clouds 5 1020 85 0 6.81 216 22:21 06.01.2020
5110 Clouds 4 1025 92 0 0.45 180 21:56 06.01.2020
5111 Clouds 4 1025 92 0 0.45 202 21:38 06.01.2020
5112 Clouds 4 1026 92 0 0.89 202 21:19 06.01.2020
5113 Clouds 4 1026 92 0 0.45 202 20:56 06.01.2020
5114 Clouds 4 1026 92 0 0.45 202 20:37 06.01.2020
5115 Clouds 5 1026 92 0 0.89 225 20:19 06.01.2020
5116 Clouds 5 1026 92 0 0.89 225 19:55 06.01.2020
5117 Clouds 5 1026 92 0 0.89 202 19:37 06.01.2020
5118 Clouds 5 1026 92 0 0.45 225 19:19 06.01.2020
5119 Clouds 5 1026 92 0 0.89 225 18:45 06.01.2020
5120 Clouds 5 1026 92 0 0.89 225 18:21 06.01.2020
5121 Clouds 5 1027 91 0 0.45 225 17:57 06.01.2020
5122 Clouds 5 1027 91 0 0.45 225 17:37 06.01.2020
5123 Clouds 5 1027 91 0 0.89 225 17:18 06.01.2020
5124 Clouds 5 1027 91 0 0.45 225 16:44 06.01.2020
5125 Clouds 5 1027 91 0 0.45 225 16:24 06.01.2020
5126 Clouds 5 1027 91 0 6.41 235 15:59 06.01.2020
5127 Clouds 5 1022 93 0 6.41 235 15:38 06.01.2020
5128 Clouds 5 1028 91 0 6.41 235 15:18 06.01.2020
5129 Clouds 6 1028 91 0 0.45 247 14:56 06.01.2020
5130 Clouds 6 1028 91 0 0.89 270 14:37 06.01.2020
5131 Rain 5 1024 92 0 7.5 238 14:18 06.01.2020
5132 Rain 5 1024 92 0 7.5 238 14:18 06.01.2020
5133 Rain 6 1028 91 0 0.89 225 13:41 06.01.2020
5134 Rain 6 1028 91 0 7.79 239 13:22 06.01.2020
5135 Rain 5 1029 91 0 0.45 292 12:59 06.01.2020
5136 Rain 5 1029 91 0 0.89 292 12:41 06.01.2020
5137 Rain 5 1029 91 0 0.45 292 12:20 06.01.2020
5138 Rain 5 1029 91 0 0.45 292 12:20 06.01.2020
5139 Rain 5 1029 92 0 0.89 225 11:56 06.01.2020
5140 Rain 5 1029 91 0 0.45 225 11:38 06.01.2020
5141 Rain 4 1029 91 0 0.45 247 11:20 06.01.2020
5142 Rain 4 1029 91 0 0.45 247 11:20 06.01.2020
5143 Rain 4 1029 92 0 0.89 225 10:43 06.01.2020
5144 Rain 4 1030 92 0 0.45 225 10:24 06.01.2020
5145 Rain 4 1030 92 0 1.34 225 09:57 06.01.2020
5146 Rain 4 1030 92 0 1.34 225 09:37 06.01.2020
5147 Rain 4 1030 92 0 0.89 225 09:19 06.01.2020
5148 Rain 4 1030 92 0 0.45 225 08:42 06.01.2020
5149 Rain 4 1030 92 0 1.34 225 08:23 06.01.2020
5150 Clouds 4 1030 91 0 0.89 225 07:48 06.01.2020
5151 Clouds 4 1030 91 0 0.45 225 07:23 06.01.2020
5152 Clouds 4 1030 91 0 8.74 244 06:44 06.01.2020
5153 Clouds 4 1030 91 0 8.74 244 06:18 06.01.2020
5154 Clouds 4 1030 91 0 0.89 225 05:40 06.01.2020
5155 Clouds 4 1031 92 0 9.69 247 04:30 06.01.2020
5156 Clouds 4 1031 92 0 0.45 225 03:58 06.01.2020
5157 Clouds 4 1031 92 0 0.89 202 02:46 06.01.2020
5158 Clouds 4 1032 92 0 0.45 225 02:22 06.01.2020
5159 Clouds 4 1032 92 0 0.45 247 01:43 06.01.2020
5160 Clouds 4 1032 92 0 0.89 247 01:21 06.01.2020
5161 Clouds 4 1032 92 0 1.79 225 00:41 06.01.2020
5162 Clouds 4 1032 91 0 0.89 225 00:19 06.01.2020
5163 Clouds 3 1033 91 0 0.89 225 23:41 05.01.2020
5164 Clouds 3 1033 91 0 0.89 225 23:22 05.01.2020
5165 Clouds 3 1033 91 0 9.2 230 22:55 05.01.2020
5166 Clouds 3 1033 91 0 0.89 225 22:37 05.01.2020
5167 Clouds 3 1033 91 0 0.89 247 22:19 05.01.2020
5168 Clouds 3 1033 91 0 0.89 225 21:54 05.01.2020
5169 Clouds 3 1033 91 0 0.89 225 21:36 05.01.2020
5170 Clouds 3 1034 90 0 0.89 225 21:18 05.01.2020
5171 Clouds 3 1034 90 0 0.89 225 21:18 05.01.2020
5172 Clouds 2 1034 90 0 1.34 225 20:54 05.01.2020
5173 Clouds 2 1034 90 0 1.79 225 20:36 05.01.2020
5174 Clouds 2 1034 90 0 1.79 225 20:36 05.01.2020
5175 Clouds 2 1034 90 0 1.34 225 20:18 05.01.2020
5176 Rain 2 1034 89 0 1.34 225 19:54 05.01.2020
5177 Rain 2 1034 89 0 1.34 225 19:36 05.01.2020
5178 Rain 2 1035 88 0 1.34 225 19:18 05.01.2020
5179 Rain 2 1035 88 0 1.34 225 18:54 05.01.2020
5180 Rain 2 1035 88 0 1.34 225 18:36 05.01.2020
5181 Rain 2 1035 88 0 0.89 225 18:18 05.01.2020
5182 Rain 2 1035 88 0 0.89 202 17:39 05.01.2020
5183 Clouds 2 1035 88 0 0.89 202 17:20 05.01.2020
5184 Clouds 2 1035 88 0 0.89 225 16:58 05.01.2020
5185 Clouds 2 1035 88 0 0.45 202 16:40 05.01.2020
5186 Clouds 2 1035 88 0 0.45 202 16:20 05.01.2020
5187 Clouds 2 1035 88 0 0.89 225 15:41 05.01.2020
5188 Clouds 2 1035 88 0 0.89 202 15:22 05.01.2020
5189 Clouds 3 1036 89 0 0.89 225 14:58 05.01.2020
5190 Clouds 3 1036 89 0 0.89 225 14:40 05.01.2020
5191 Clouds 3 1036 89 0 0.45 202 14:22 05.01.2020
5192 Clouds 3 1036 89 0 0.45 225 13:59 05.01.2020
5193 Clouds 3 1036 89 0 0.45 225 13:39 05.01.2020
5194 Clouds 3 1036 90 0 0.89 202 13:21 05.01.2020
5195 Clouds 3 1036 90 0 0.45 247 12:57 05.01.2020
5196 Clouds 3 1036 90 0 0.45 247 12:57 05.01.2020
5197 Clouds 3 1036 90 0 0.45 247 12:39 05.01.2020
5198 Clouds 3 1036 90 0 0.45 247 12:39 05.01.2020
5199 Clouds 2 1036 90 0 0.45 270 12:21 05.01.2020
5200 Clouds 2 1036 90 0 0.45 270 12:21 05.01.2020
5201 Clouds 2 1036 90 0 6.47 252 11:55 05.01.2020
5202 Clouds 2 1037 90 0 6.47 252 11:37 05.01.2020
5203 Clear 2 1037 90 0 5.96 287 11:19 05.01.2020
5204 Clear 2 1037 90 0 0.89 270 10:55 05.01.2020
5205 Clear 1 1037 90 0 5.96 287 10:36 05.01.2020
5206 Clear 1 1037 90 0 5.96 287 10:36 05.01.2020
5207 Clear 1 1037 90 0 0.45 247 10:18 05.01.2020
5208 Clear 0 1037 90 0 5.96 287 09:41 05.01.2020
5209 Clear 0 1037 90 0 0.45 292 09:21 05.01.2020
5210 Clear -1 1037 90 0 5.96 287 08:46 05.01.2020
5211 Clear -1 1036 89 0 5.74 281 08:27 05.01.2020
5212 Clear -1 1036 89 0 6.86 295 07:55 05.01.2020
5213 Clear -1 1036 89 0 6.86 295 07:35 05.01.2020
5214 Clear 0 1035 89 0 6.86 295 06:58 05.01.2020
5215 Clear 1 1034 89 0 6.86 295 05:58 05.01.2020
5216 Clear 1 1034 89 0 6.86 295 05:30 05.01.2020
5217 Clear 1 1034 89 0 0.89 292 04:43 05.01.2020
5218 Clear 0 1033 87 0 7.12 317 03:47 05.01.2020
5219 Clear 1 1032 86 0 0.89 315 02:46 05.01.2020
5220 Clear 1 1032 86 0 1.79 315 02:22 05.01.2020
5221 Clear 2 1031 87 0 0.89 292 01:46 05.01.2020
5222 Clear 2 1030 86 0 0.45 0 01:18 05.01.2020
5223 Clear 2 1030 86 0 8.87 326 00:41 05.01.2020
5224 Clear 2 1030 86 0 8.87 326 00:23 05.01.2020
5225 Clear 2 1029 86 0 0.45 0 23:59 04.01.2020
5226 Clear 2 1029 85 0 8.87 326 23:39 04.01.2020
5227 Clear 2 1029 85 0 10.5 326 23:19 04.01.2020
5228 Clear 2 1028 84 0 0.45 0 22:40 04.01.2020
5229 Clear 2 1028 84 0 0.45 0 22:40 04.01.2020
5230 Clear 2 1028 84 0 10.5 326 22:21 04.01.2020
5231 Clear 3 1027 84 0 0.45 337 21:57 04.01.2020
5232 Clear 3 1027 84 0 0.45 337 21:57 04.01.2020
5233 Clear 3 1027 84 0 0.89 315 21:39 04.01.2020
5234 Clear 3 1026 83 0 1.79 315 21:20 04.01.2020
5235 Clear 3 1026 83 0 1.79 315 21:20 04.01.2020
5236 Clear 3 1026 83 0 1.34 292 20:58 04.01.2020
5237 Clear 3 1025 82 0 1.34 315 20:39 04.01.2020
5238 Clear 3 1025 82 0 1.34 315 20:39 04.01.2020
5239 Clear 3 1025 82 0 1.79 337 20:21 04.01.2020
5240 Clear 3 1024 82 0 0.89 292 19:56 04.01.2020
5241 Clear 3 1024 82 0 1.79 315 19:38 04.01.2020
5242 Clear 3 1023 82 0 0.89 315 19:19 04.01.2020
5243 Clear 3 1023 82 0 0.89 337 18:54 04.01.2020
5244 Clear 3 1022 82 0 0.45 270 18:36 04.01.2020
5245 Clear 4 1021 82 0 13.93 325 18:18 04.01.2020
5246 Clear 4 1021 82 0 13.93 325 18:18 04.01.2020
5247 Clear 4 1021 83 0 13.93 325 17:41 04.01.2020
5248 Clear 4 1020 83 0 0.45 22 17:23 04.01.2020
5249 Clear 4 1020 83 0 0.89 315 16:58 04.01.2020
5250 Clear 4 1019 82 0 0.89 315 16:39 04.01.2020
5251 Clear 4 1019 82 0 1.34 292 16:21 04.01.2020
5252 Clear 4 1018 82 0 2.24 315 15:55 04.01.2020
5253 Clear 4 1018 82 0 2.68 315 15:37 04.01.2020
5254 Clear 4 1017 82 0 1.34 292 15:18 04.01.2020
5255 Clear 4 1017 83 0 2.24 315 14:42 04.01.2020
5256 Clear 4 1017 83 0 2.24 315 14:42 04.01.2020
5257 Rain 4 1017 83 0 2.68 315 14:20 04.01.2020
5258 Rain 4 1016 85 0 3.58 315 13:59 04.01.2020
5259 Rain 4 1016 86 0 1.79 315 13:38 04.01.2020
5260 Rain 4 1016 91 0 2.68 315 13:19 04.01.2020
5261 Snow 3 1016 91 0 2.68 337 12:57 04.01.2020
5262 Snow 3 1015 91 0 1.79 315 12:39 04.01.2020
5263 Snow 3 1015 89 0 1.34 292 12:19 04.01.2020
5264 Snow 3 1016 87 0 1.34 315 11:57 04.01.2020
5265 Snow 5 1014 90 0 1.34 292 11:38 04.01.2020
5266 Rain 6 1014 88 0 2.24 270 11:18 04.01.2020
5267 Rain 6 1016 88 0 1.34 202 10:41 04.01.2020
5268 Rain 6 1016 89 0 0.45 0 10:22 04.01.2020
5269 Rain 4 1017 89 0 1.79 247 09:50 04.01.2020
5270 Rain 4 1017 90 0 0.89 292 09:26 04.01.2020
5271 Rain 4 1017 90 0 0.89 270 08:58 04.01.2020
5272 Rain 4 1017 90 0 0.89 247 08:39 04.01.2020
5273 Clouds 4 1018 90 0 0.89 315 08:20 04.01.2020
5274 Clouds 4 1018 90 0 0.89 225 07:42 04.01.2020
5275 Clouds 4 1018 90 0 1.34 292 07:19 04.01.2020
5276 Clouds 4 1019 90 0 1.79 225 06:33 04.01.2020
5277 Clear 3 1019 90 0 1.34 292 05:19 04.01.2020
5278 Clear 3 1019 91 0 0.89 337 04:34 04.01.2020
5279 Clear 3 1019 91 0 14.71 272 03:43 04.01.2020
5280 Clear 3 1020 91 0 14.71 272 03:18 04.01.2020
5281 Clouds 3 1020 91 0 0.89 292 02:21 04.01.2020
5282 Clouds 3 1020 91 0 0.89 292 02:21 04.01.2020
5283 Clouds 3 1020 91 0 0.89 292 01:55 04.01.2020
5284 Clouds 3 1019 91 0 12.3 281 01:31 04.01.2020
5285 Clouds 4 1019 92 0 1.79 292 00:44 04.01.2020
5286 Clouds 3 1019 92 0 1.79 292 00:23 04.01.2020
5287 Clouds 3 1019 92 0 0.89 292 23:46 03.01.2020
5288 Clouds 3 1018 91 0 0.45 292 23:25 03.01.2020
5289 Rain 6 1013 80 0 9.15 297 22:54 03.01.2020
5290 Rain 3 1018 91 0 0.45 292 22:36 03.01.2020
5291 Rain 4 1018 92 0 9.15 297 22:18 03.01.2020
5292 Rain 4 1017 92 0 0.45 292 21:54 03.01.2020
5293 Rain 4 1017 92 0 0.89 292 21:36 03.01.2020
5294 Rain 4 1017 92 0 0.45 315 21:18 03.01.2020
5295 Rain 4 1016 92 0 9.15 297 20:42 03.01.2020
5296 Rain 4 1016 92 0 7.7 340 20:19 03.01.2020
5297 Rain 4 1016 92 0 7.7 340 19:58 03.01.2020
5298 Rain 5 1015 93 0 7.7 340 19:39 03.01.2020
5299 Rain 6 1015 93 0 0.89 337 19:21 03.01.2020
5300 Rain 6 1014 92 0 0.89 225 18:44 03.01.2020
5301 Rain 6 1014 92 0 7.7 340 18:26 03.01.2020
5302 Rain 6 1014 92 0 0.89 225 17:57 03.01.2020
5303 Rain 6 1014 92 0 7.7 340 17:39 03.01.2020
5304 Rain 6 1014 92 0 0.45 247 17:19 03.01.2020
5305 Rain 6 1014 92 0 1.34 225 16:43 03.01.2020
5306 Rain 6 1014 92 0 0.89 225 16:24 03.01.2020
5307 Rain 6 1014 92 0 0.89 225 15:58 03.01.2020
5308 Rain 6 1014 92 0 0.89 225 15:40 03.01.2020
5309 Rain 5 1014 91 0 1.34 225 15:18 03.01.2020
5310 Rain 5 1014 91 0 0.89 225 14:39 03.01.2020
5311 Rain 5 1015 91 0 0.89 225 14:20 03.01.2020
5312 Rain 5 1015 91 0 1.79 225 13:57 03.01.2020
5313 Rain 5 1015 91 0 1.34 247 13:38 03.01.2020
5314 Rain 4 1015 91 0 1.79 225 13:20 03.01.2020
5315 Rain 4 1015 90 0 1.34 247 12:40 03.01.2020
5316 Rain 4 1016 90 0 1.79 225 12:21 03.01.2020
5317 Rain 4 1017 90 0 1.79 225 11:49 03.01.2020
5318 Rain 4 1016 90 0 2.68 225 11:30 03.01.2020
5319 Rain 4 1017 89 0 1.79 225 10:57 03.01.2020
5320 Rain 4 1017 89 0 2.24 225 10:38 03.01.2020
5321 Rain 4 1017 89 0 2.24 225 10:20 03.01.2020
5322 Rain 4 1018 89 0 2.24 225 09:54 03.01.2020
5323 Rain 4 1018 89 0 1.79 225 09:36 03.01.2020
5324 Rain 3 1018 89 0 1.79 225 09:18 03.01.2020
5325 Rain 3 1018 89 0 2.24 225 08:44 03.01.2020
5326 Rain 3 1018 89 0 1.34 225 08:21 03.01.2020
5327 Rain 3 1019 90 0 2.24 202 07:43 03.01.2020
5328 Rain 3 1019 90 0 1.79 202 07:19 03.01.2020
5329 Rain 3 1019 90 0 1.79 202 06:59 03.01.2020
5330 Rain 3 1019 90 0 1.79 180 06:40 03.01.2020
5331 Rain 3 1019 90 0 1.79 202 06:22 03.01.2020
5332 Rain 3 1019 90 0 1.79 202 06:22 03.01.2020
5333 Rain 3 1019 90 0 1.79 202 06:22 03.01.2020
5334 Clouds 3 1020 91 0 1.79 225 04:59 03.01.2020
5335 Clouds 2 1022 91 0 1.79 225 03:38 03.01.2020
5336 Clouds 2 1022 91 0 1.34 180 02:53 03.01.2020
5337 Clouds 2 1022 91 0 1.34 180 02:53 03.01.2020
5338 Clouds 2 1023 91 0 0.89 202 01:51 03.01.2020
5339 Clouds 1 1023 91 0 0.89 202 01:31 03.01.2020
5340 Clouds 1 1024 90 0 0.89 225 00:43 03.01.2020
5341 Clouds 1 1024 90 0 1.34 225 00:24 03.01.2020
5342 Clouds 1 1024 90 0 1.34 225 23:39 02.01.2020
5343 Clear 1 1025 91 0 10.41 240 23:20 02.01.2020
5344 Clear 0 1025 90 0 10.41 240 22:59 02.01.2020
5345 Clear 1 1025 90 0 1.79 225 22:41 02.01.2020
5346 Clear 0 1025 89 0 1.34 247 22:20 02.01.2020
5347 Clear 0 1025 88 0 1.34 270 21:57 02.01.2020
5348 Clear 0 1025 87 0 0.45 225 21:38 02.01.2020
5349 Clear 0 1025 86 0 0.45 225 21:19 02.01.2020
5350 Clear 0 1025 86 0 0.45 247 20:56 02.01.2020
5351 Clear 0 1025 85 0 0.89 247 20:37 02.01.2020
5352 Clear 1 1025 85 0 0.89 225 20:19 02.01.2020
5353 Clear 1 1025 85 0 9.08 236 19:54 02.01.2020
5354 Clear 1 1025 85 0 9.08 236 19:36 02.01.2020
5355 Clear 1 1025 85 0 0.45 247 19:18 02.01.2020
5356 Clear 1 1025 85 0 0.45 247 18:54 02.01.2020
5357 Clear 1 1025 85 0 0.45 247 18:36 02.01.2020
5358 Clear 1 1025 85 0 0.45 225 18:18 02.01.2020
5359 Clear 1 1025 85 0 0.89 225 17:55 02.01.2020
5360 Clear 1 1025 85 0 0.45 225 17:36 02.01.2020
5361 Clear 1 1026 84 0 0.45 225 17:18 02.01.2020
5362 Clear 1 1026 83 0 0.45 225 16:41 02.01.2020
5363 Clear 1 1026 83 0 7.93 233 16:21 02.01.2020
5364 Clear 2 1026 83 0 0.45 225 15:59 02.01.2020
5365 Clear 2 1026 83 0 7.93 233 15:40 02.01.2020
5366 Clear 2 1026 83 0 7.93 233 15:40 02.01.2020
5367 Clear 3 1026 83 0 0.45 225 15:22 02.01.2020
5368 Clear 3 1027 83 0 0.45 225 14:57 02.01.2020
5369 Clear 3 1027 83 0 0.89 225 14:37 02.01.2020
5370 Clear 3 1027 84 0 0.45 225 14:18 02.01.2020
5371 Clear 3 1027 84 0 0.45 225 13:55 02.01.2020
5372 Clear 3 1027 85 0 8.2 241 13:36 02.01.2020
5373 Clear 3 1028 85 0 0.45 225 12:59 02.01.2020
5374 Clear 3 1028 86 0 0.89 225 12:40 02.01.2020
5375 Clear 3 1028 86 0 0.45 225 12:20 02.01.2020
5376 Clear 2 1029 88 0 8.2 241 11:41 02.01.2020
5377 Clear 2 1029 88 0 8.64 238 11:21 02.01.2020
5378 Clear 1 1030 89 0 0.89 225 10:46 02.01.2020
5379 Clear 1 1030 89 0 0.45 225 10:27 02.01.2020
5380 Clear 0 1030 89 0 0.89 247 09:56 02.01.2020
5381 Clear 0 1030 89 0 0.45 225 09:35 02.01.2020
5382 Clear -1 1030 89 0 0.89 225 08:58 02.01.2020
5383 Clear -1 1030 89 0 0.89 225 08:39 02.01.2020
5384 Clouds -1 1030 89 0 7.99 244 08:19 02.01.2020
5385 Clouds -1 1030 89 0 7.99 244 07:47 02.01.2020
5386 Clouds -1 1030 89 0 0.45 225 07:26 02.01.2020
5387 Clouds -1 1030 89 0 0.45 225 06:41 02.01.2020
5388 Clouds -1 1030 89 0 0.45 225 06:41 02.01.2020
5389 Clouds -1 1030 89 0 0.45 225 05:40 02.01.2020
5390 Clouds -1 1031 90 0 8.54 252 04:34 02.01.2020
5391 Clouds -1 1031 90 0 0.89 225 03:29 02.01.2020
5392 Clear -1 1031 90 0 0.89 225 02:21 02.01.2020
5393 Clear -1 1031 90 0 0.89 225 01:53 02.01.2020
5394 Clear -1 1031 90 0 0.89 225 01:53 02.01.2020
5395 Clear -1 1031 90 0 0.45 225 01:25 02.01.2020
5396 Clear -1 1032 90 0 0.45 225 00:49 02.01.2020
5397 Clear -1 1032 90 0 8.47 245 00:26 02.01.2020
5398 Clear -1 1032 90 0 8.47 245 00:26 02.01.2020
5399 Clear -1 1032 90 0 0.45 247 23:43 01.01.2020
5400 Clear -1 1032 90 0 0.45 247 23:43 01.01.2020
5401 Clear 0 1032 90 0 8.47 245 23:23 01.01.2020
5402 Clear 0 1032 90 0 0.45 247 22:39 01.01.2020
5403 Clear 0 1032 90 0 8.52 253 22:21 01.01.2020
5404 Clear 0 1033 90 0 8.52 253 21:59 01.01.2020
5405 Clear 0 1033 90 0 8.52 253 21:40 01.01.2020
5406 Clear 0 1033 90 0 8.52 253 21:21 01.01.2020
5407 Clear 0 1033 90 0 8.52 253 20:58 01.01.2020
5408 Clear 0 1033 90 0 0.45 247 20:39 01.01.2020
5409 Clear 0 1033 90 0 0.45 270 20:20 01.01.2020
5410 Clear 1 1033 90 0 9.57 258 19:57 01.01.2020
5411 Clear 1 1033 90 0 9.57 258 19:39 01.01.2020
5412 Clear 1 1033 90 0 9.57 258 19:20 01.01.2020
5413 Clear 1 1034 90 0 0.45 292 18:57 01.01.2020
5414 Clear 2 1034 90 0 0.45 270 18:38 01.01.2020
5415 Clear 1 1034 90 0 0.45 292 18:20 01.01.2020
5416 Clear 1 1034 90 0 0.89 292 17:58 01.01.2020
5417 Clear 1 1034 89 0 9.57 258 17:40 01.01.2020
5418 Clear 1 1034 88 0 0.45 292 17:20 01.01.2020
5419 Clear 1 1034 88 0 10.29 259 16:58 01.01.2020
5420 Clear 1 1034 87 0 0.45 292 16:38 01.01.2020
5421 Clear 1 1034 87 0 10.29 259 16:19 01.01.2020
5422 Clear 2 1034 87 0 0.89 292 15:57 01.01.2020
5423 Clear 2 1034 87 0 0.89 292 15:57 01.01.2020
5424 Clear 2 1034 86 0 10.29 259 15:37 01.01.2020
5425 Clear 3 1034 86 0 1.34 292 15:19 01.01.2020
5426 Clear 4 1029 85 0 10.29 259 14:56 01.01.2020
5427 Clear 3 1034 86 0 0.89 225 14:37 01.01.2020
5428 Clear 3 1034 86 0 0.45 292 14:19 01.01.2020
5429 Clear 3 1035 86 0 0.89 292 13:55 01.01.2020
5430 Clear 3 1035 86 0 1.79 315 13:36 01.01.2020
5431 Clear 4 1035 87 0 9.68 265 13:18 01.01.2020
5432 Clear 4 1035 87 0 0.89 292 12:54 01.01.2020
5433 Clear 4 1035 87 0 1.34 270 12:36 01.01.2020
5434 Clear 4 1035 89 0 1.34 292 12:18 01.01.2020
5435 Clear 3 1035 89 0 0.45 292 11:41 01.01.2020
5436 Clear 3 1036 90 0 0.89 292 11:21 01.01.2020
5437 Clear 3 1036 90 0 0.89 292 11:21 01.01.2020
5438 Clear 3 1036 91 0 8.99 278 10:56 01.01.2020
5439 Clear 3 1036 91 0 0.45 247 10:38 01.01.2020
5440 Clear 3 1036 91 0 0.45 270 10:19 01.01.2020
5441 Clear 3 1036 92 0 0.45 270 09:42 01.01.2020
5442 Clear 2 1036 92 0 0.89 292 09:22 01.01.2020
5443 Clear 2 1036 92 0 8.99 278 08:57 01.01.2020
5444 Clear 2 1036 92 0 0.45 247 08:39 01.01.2020
5445 Clear 2 1036 92 0 0.45 247 08:20 01.01.2020
5446 Clear 2 1036 92 0 8.92 285 07:58 01.01.2020
5447 Clear 1 1036 92 0 0.45 292 07:40 01.01.2020
5448 Clear 5 1031 85 0 8.92 285 07:20 01.01.2020
5449 Clear 1 1036 91 0 0.45 270 06:40 01.01.2020
5450 Clear 5 1031 85 0 8.92 285 06:18 01.01.2020
5451 Clear 5 1031 84 0 8.3 287 04:36 01.01.2020
5452 Clear 1 1035 90 0 8.3 287 03:41 01.01.2020
5453 Clear 1 1036 90 0 8.3 287 03:22 01.01.2020
5454 Clear 2 1036 90 0 8.3 287 02:54 01.01.2020
5455 Clear 2 1035 90 0 0.89 315 02:30 01.01.2020
5456 Clouds 2 1035 90 0 0.89 292 01:45 01.01.2020
5457 Clouds 2 1035 90 0 0.89 292 01:23 01.01.2020
5458 Clouds 2 1035 90 0 1.34 292 00:56 01.01.2020
5459 Clouds 2 1035 90 0 1.34 292 00:37 01.01.2020
5460 Clouds 1 1035 89 0 0.45 292 00:18 01.01.2020
5461 Clouds 1 1035 88 0 0.45 292 23:39 31.12.2019
5462 Clouds 5 1031 81 0 7.9 300 23:19 31.12.2019
5463 Clouds 5 1031 81 0 7.9 300 22:57 31.12.2019
5464 Clouds 5 1031 81 0 7.9 300 22:38 31.12.2019
5465 Clouds 1 1035 87 0 7.9 300 22:18 31.12.2019
5466 Clouds 1 1035 87 0 7.9 300 21:54 31.12.2019
5467 Clouds 2 1035 88 0 7.9 300 21:36 31.12.2019
5468 Clouds 2 1034 87 0 0.45 292 21:18 31.12.2019
5469 Clouds 3 1035 88 0 0.89 292 20:40 31.12.2019
5470 Clouds 3 1035 88 0 1.34 315 20:21 31.12.2019
5471 Clear 3 1035 87 0 1.34 292 19:59 31.12.2019
5472 Clear 3 1034 86 0 0.89 292 19:40 31.12.2019
5473 Clear 3 1034 86 0 0.45 292 19:22 31.12.2019
5474 Clear 3 1034 87 0 0.89 292 18:58 31.12.2019
5475 Clear 3 1034 86 0 1.34 292 18:40 31.12.2019
5476 Clear 4 1034 86 0 0.45 292 18:20 31.12.2019
5477 Clear 4 1033 85 0 0.89 292 17:56 31.12.2019
5478 Clear 4 1033 85 0 1.34 292 17:38 31.12.2019
5479 Clear 4 1033 85 0 0.89 292 17:19 31.12.2019
5480 Clear 4 1032 85 0 1.34 292 16:57 31.12.2019
5481 Clear 4 1032 84 0 0.89 292 16:38 31.12.2019
5482 Clear 5 1032 84 0 2.24 292 16:19 31.12.2019
5483 Clear 6 1027 80 0 8.43 299 15:56 31.12.2019
5484 Clear 5 1032 84 0 2.24 292 15:38 31.12.2019
5485 Clear 5 1032 84 0 2.24 292 15:38 31.12.2019
5486 Clear 6 1031 83 0 1.79 315 15:20 31.12.2019
5487 Clear 6 1031 83 0 1.34 337 14:58 31.12.2019
5488 Clear 6 1031 82 0 1.79 315 14:38 31.12.2019
5489 Clear 7 1030 81 0 1.79 315 14:19 31.12.2019
5490 Clear 7 1030 81 0 1.79 315 13:57 31.12.2019
5491 Clear 7 1030 80 0 2.24 292 13:39 31.12.2019
5492 Clear 7 1029 80 0 1.79 270 13:21 31.12.2019
5493 Clear 7 1029 81 0 1.79 337 12:58 31.12.2019
5494 Clear 7 1029 81 0 1.79 315 12:40 31.12.2019
5495 Clear 7 1029 82 0 1.79 315 12:20 31.12.2019
5496 Clear 7 1029 82 0 1.79 292 11:56 31.12.2019
5497 Clear 7 1029 83 0 2.68 315 11:38 31.12.2019
5498 Clear 6 1028 84 0 2.68 292 11:20 31.12.2019
5499 Clear 6 1028 84 0 2.68 315 10:57 31.12.2019
5500 Clear 6 1028 84 0 1.79 292 10:38 31.12.2019
5501 Clear 6 1027 84 0 1.79 292 10:20 31.12.2019
5502 Clear 6 1027 84 0 2.68 337 09:59 31.12.2019
5503 Clear 6 1027 84 0 1.79 292 09:39 31.12.2019
5504 Clear 6 1025 84 0 3.13 337 09:20 31.12.2019
5505 Clear 6 1025 84 0 2.24 337 08:57 31.12.2019
5506 Clear 6 1025 84 0 2.68 292 08:39 31.12.2019
5507 Clouds 6 1024 85 0 1.79 292 08:19 31.12.2019
5508 Clouds 6 1024 85 0 1.34 315 07:43 31.12.2019
5509 Clouds 6 1024 85 0 2.68 315 07:20 31.12.2019
5510 Clouds 6 1024 84 0 2.68 292 06:50 31.12.2019
5511 Clouds 6 1023 84 0 2.24 45 05:57 31.12.2019
5512 Rain 7 1023 89 0 1.79 315 04:29 31.12.2019
5513 Rain 6 1022 90 0 4.02 315 03:38 31.12.2019
5514 Rain 7 1018 85 0 11.6 295 02:55 31.12.2019
5515 Clouds 5 1022 84 0 1.34 270 02:19 31.12.2019
5516 Clouds 5 1022 82 0 0.45 292 01:48 31.12.2019
5517 Clouds 5 1022 81 0 1.79 292 01:27 31.12.2019
5518 Clouds 4 1022 77 0 0.89 315 00:46 31.12.2019
5519 Clouds 4 1022 77 0 0.45 270 00:22 31.12.2019
5520 Clouds 4 1022 73 0 1.34 292 23:57 30.12.2019
5521 Clouds 4 1022 71 0 0.89 292 23:38 30.12.2019
5522 Clouds 4 1022 66 0 0.45 270 23:20 30.12.2019
5523 Clouds 4 1023 64 0 1.34 292 22:58 30.12.2019
5524 Clouds 4 1022 62 0 1.34 292 22:40 30.12.2019
5525 Clouds 4 1022 61 0 0.89 270 22:20 30.12.2019
5526 Clouds 4 1022 59 0 0.89 292 21:57 30.12.2019
5527 Clouds 4 1022 58 0 1.34 270 21:39 30.12.2019
5528 Clouds 4 1022 58 0 1.34 270 21:39 30.12.2019
5529 Clouds 4 1022 56 0 0.45 337 21:19 30.12.2019
5530 Clouds 4 1022 55 0 0.45 270 20:58 30.12.2019
5531 Clouds 5 1022 55 0 1.34 247 20:40 30.12.2019
5532 Clear 4 1023 55 0 0.89 292 20:20 30.12.2019
5533 Clear 5 1023 55 0 0.89 270 19:58 30.12.2019
5534 Clear 5 1023 55 0 0.89 225 19:39 30.12.2019
5535 Clear 4 1023 57 0 1.34 225 19:19 30.12.2019
5536 Clear 4 1023 58 0 1.79 225 18:59 30.12.2019
5537 Clear 4 1023 58 0 0.89 225 18:40 30.12.2019
5538 Clear 5 1024 57 0 0.45 247 18:20 30.12.2019
5539 Clear 5 1024 57 0 0.45 247 18:20 30.12.2019
5540 Clear 5 1024 57 0 1.34 225 17:57 30.12.2019
5541 Clear 5 1024 57 0 0.89 225 17:39 30.12.2019
5542 Clear 5 1024 57 0 0.45 225 17:19 30.12.2019
5543 Clear 5 1024 58 0 0.45 225 16:58 30.12.2019
5544 Clear 5 1025 58 0 1.34 225 16:37 30.12.2019
5545 Clear 5 1025 58 0 0.89 225 16:19 30.12.2019
5546 Clear 6 1025 57 0 0.89 225 15:56 30.12.2019
5547 Clear 6 1025 56 0 0.89 315 15:37 30.12.2019
5548 Clear 7 1025 53 0 0.89 270 15:19 30.12.2019
5549 Clear 7 1025 52 0 0.45 292 14:43 30.12.2019
5550 Clouds 7 1026 51 0 0.89 247 14:21 30.12.2019
5551 Clouds 7 1026 53 0 12.9 252 13:59 30.12.2019
5552 Clouds 7 1026 53 0 0.45 292 13:40 30.12.2019
5553 Clouds 7 1026 52 0 0.45 225 13:22 30.12.2019
5554 Clouds 6 1026 56 0 13.02 251 12:57 30.12.2019
5555 Clouds 6 1026 57 0 0.45 247 12:37 30.12.2019
5556 Clouds 6 1027 58 0 1.34 225 12:18 30.12.2019
5557 Clouds 6 1027 58 0 1.34 225 12:18 30.12.2019
5558 Clouds 6 1028 57 0 0.89 247 11:46 30.12.2019
5559 Clouds 6 1028 58 0 0.89 247 11:22 30.12.2019
5560 Clouds 5 1028 58 0 0.45 247 10:59 30.12.2019
5561 Clouds 5 1028 57 0 1.79 247 10:40 30.12.2019
5562 Clouds 5 1028 58 0 1.34 247 10:20 30.12.2019
5563 Clouds 5 1029 58 0 1.79 225 09:44 30.12.2019
5564 Clouds 5 1029 57 0 0.89 225 09:21 30.12.2019
5565 Clouds 5 1029 57 0 1.79 225 08:57 30.12.2019
5566 Clouds 4 1029 58 0 1.79 225 08:39 30.12.2019
5567 Clouds 4 1029 59 0 0.89 225 08:21 30.12.2019
5568 Clouds 4 1029 61 0 1.79 225 07:53 30.12.2019
5569 Clouds 4 1030 64 0 1.34 225 07:32 30.12.2019
5570 Clouds 4 1030 64 0 0.45 225 06:39 30.12.2019
5571 Clouds 3 1031 72 0 2.24 225 04:45 30.12.2019
5572 Clouds 2 1032 74 0 2.24 225 03:52 30.12.2019
5573 Clouds 2 1033 75 0 2.24 225 02:47 30.12.2019
5574 Clouds 2 1033 75 0 1.79 225 02:29 30.12.2019
5575 Clouds 2 1034 76 0 2.24 225 01:47 30.12.2019
5576 Clouds 2 1034 76 0 2.24 225 01:19 30.12.2019
5577 Clouds 2 1034 77 0 2.68 225 00:42 30.12.2019
5578 Clouds 2 1035 79 0 0.89 202 23:59 29.12.2019
5579 Clouds 2 1035 79 0 1.34 225 23:38 29.12.2019
5580 Clouds 1 1036 80 0 1.34 225 23:20 29.12.2019
5581 Clouds 1 1036 80 0 1.79 225 22:42 29.12.2019
5582 Clouds 4 1030 66 0 10.43 231 22:22 29.12.2019
5583 Clouds 2 1036 79 0 2.24 225 21:58 29.12.2019
5584 Clouds 2 1036 79 0 1.79 225 21:40 29.12.2019
5585 Clouds 1 1037 80 0 1.79 225 21:20 29.12.2019
5586 Clouds 1 1037 80 0 1.79 225 21:20 29.12.2019
5587 Clouds 1 1037 81 0 1.34 225 20:57 29.12.2019
5588 Clouds 1 1037 81 0 1.79 225 20:39 29.12.2019
5589 Clouds 1 1038 81 0 1.34 202 20:20 29.12.2019
5590 Clouds 1 1038 81 0 2.24 225 19:58 29.12.2019
5591 Clouds 1 1038 81 0 1.34 202 19:40 29.12.2019
5592 Clouds 1 1038 81 0 1.34 202 19:21 29.12.2019
5593 Clouds 1 1038 81 0 1.79 180 18:57 29.12.2019
5594 Clouds 1 1038 81 0 1.34 225 18:38 29.12.2019
5595 Clouds 1 1038 82 0 1.34 202 18:19 29.12.2019
5596 Clouds 1 1038 83 0 1.34 202 17:58 29.12.2019
5597 Clouds 1 1039 83 0 0.89 202 17:39 29.12.2019
5598 Clouds 1 1039 83 0 1.34 225 17:20 29.12.2019
5599 Clouds 1 1039 83 0 1.34 225 16:56 29.12.2019
5600 Clouds 1 1039 83 0 1.79 225 16:38 29.12.2019
5601 Clouds 1 1039 83 0 1.34 225 16:20 29.12.2019
5602 Clouds 1 1039 82 0 1.79 225 15:58 29.12.2019
5603 Clouds 1 1040 82 0 1.34 225 15:39 29.12.2019
5604 Clouds 1 1039 82 0 1.34 202 15:20 29.12.2019
5605 Clouds 1 1040 82 0 1.34 225 14:58 29.12.2019
5606 Clouds 1 1040 82 0 0.89 225 14:39 29.12.2019
5607 Clouds 1 1040 81 0 1.34 225 14:18 29.12.2019
5608 Clouds 1 1040 81 0 1.34 202 13:57 29.12.2019
5609 Clouds 1 1040 81 0 1.79 225 13:39 29.12.2019
5610 Clouds 1 1040 81 0 0.89 202 13:20 29.12.2019
5611 Clouds 1 1041 82 0 1.34 225 12:46 29.12.2019
5612 Clouds 1 1041 82 0 1.34 225 12:28 29.12.2019
5613 Clouds 1 1042 82 0 1.34 225 11:59 29.12.2019
5614 Clouds 1 1042 82 0 1.34 202 11:40 29.12.2019
5615 Clouds 1 1042 83 0 1.34 225 11:20 29.12.2019
5616 Clouds 1 1043 83 0 2.24 180 10:56 29.12.2019
5617 Clouds 0 1043 83 0 0.89 225 10:37 29.12.2019
5618 Clouds 0 1043 84 0 1.34 180 10:18 29.12.2019
5619 Clouds -1 1043 84 0 1.34 202 09:44 29.12.2019
5620 Clouds -1 1043 84 0 1.34 225 09:26 29.12.2019
5621 Clouds -1 1043 84 0 1.34 225 08:52 29.12.2019
5622 Clouds -1 1043 84 0 0.89 202 08:29 29.12.2019
5623 Clouds -1 1043 85 0 1.34 225 07:59 29.12.2019
5624 Clouds -1 1043 85 0 1.34 225 07:32 29.12.2019
5625 Clouds -1 1043 85 0 0.89 225 06:59 29.12.2019
5626 Clouds -1 1043 85 0 1.34 225 06:27 29.12.2019
5627 Clouds -1 1044 85 0 0.89 225 05:55 29.12.2019
5628 Clouds -1 1045 85 0 0.45 180 04:47 29.12.2019
5629 Clouds -1 1045 85 0 0.89 180 04:28 29.12.2019
5630 Clouds -1 1045 86 0 1.34 180 03:32 29.12.2019
5631 Clouds -1 1045 85 0 0.45 202 02:27 29.12.2019
5632 Clouds -1 1045 85 0 0.45 202 01:47 29.12.2019
5633 Clouds -1 1045 85 0 5.85 224 01:28 29.12.2019
5634 Clouds -1 1046 85 0 0.45 202 00:45 29.12.2019
5635 Clouds -1 1046 84 0 5.85 220 00:24 29.12.2019
5636 Clouds -1 1046 84 0 5.85 220 23:55 28.12.2019
5637 Clouds -1 1047 84 0 5.85 220 23:37 28.12.2019
5638 Clouds -1 1047 84 0 4.49 213 23:18 28.12.2019
5639 Clouds -1 1046 84 0 0.45 202 22:37 28.12.2019
5640 Clouds -1 1047 84 0 0.45 292 22:18 28.12.2019
5641 Clouds -1 1047 84 0 4.49 213 21:56 28.12.2019
5642 Clouds -1 1047 83 0 4.49 213 21:37 28.12.2019
5643 Clouds -1 1047 83 0 4.49 213 21:19 28.12.2019
5644 Clouds -1 1048 83 0 4.49 213 20:42 28.12.2019
5645 Clouds -1 1048 82 0 4.51 222 20:23 28.12.2019
5646 Clouds -1 1047 82 0 2.86 222 19:59 28.12.2019
5647 Clouds -1 1047 82 0 2.86 222 19:41 28.12.2019
5648 Clouds -1 1047 82 0 2.86 222 19:23 28.12.2019
5649 Clouds -1 1047 81 0 2.86 222 18:59 28.12.2019
5650 Clouds -1 1047 81 0 2.86 222 18:40 28.12.2019
5651 Clouds 0 1047 81 0 2.86 222 18:20 28.12.2019
5652 Clouds 0 1047 81 0 2.86 222 17:58 28.12.2019
5653 Clouds 0 1047 80 0 2.86 222 17:39 28.12.2019
5654 Clouds 1 1047 80 0 0.64 177 17:20 28.12.2019
5655 Clouds 1 1047 79 0 0.64 177 16:48 28.12.2019
5656 Clouds 1 1047 79 0 0.64 177 16:26 28.12.2019
5657 Clouds 1 1047 77 0 0.45 292 15:57 28.12.2019
5658 Clouds 1 1047 77 0 0.64 177 15:39 28.12.2019
5659 Clouds 2 1047 77 0 0.64 177 15:21 28.12.2019
5660 Clouds 2 1047 77 0 0.45 315 14:46 28.12.2019
5661 Clouds 2 1047 77 0 0.45 337 14:24 28.12.2019
5662 Clouds 2 1047 77 0 0.89 0 13:58 28.12.2019
5663 Clouds 2 1047 77 0 0.45 292 13:39 28.12.2019
5664 Clouds 2 1047 76 0 0.45 315 13:20 28.12.2019
5665 Clouds 2 1047 76 0 0.45 315 13:20 28.12.2019
5666 Clouds 3 1047 76 0 0.75 30 12:56 28.12.2019
5667 Clouds 3 1047 76 0 0.75 30 12:37 28.12.2019
5668 Clouds 3 1047 76 0 0.75 30 12:19 28.12.2019
5669 Clouds 2 1047 77 0 0.75 30 11:40 28.12.2019
5670 Clear 2 1047 77 0 0.89 0 11:21 28.12.2019
5671 Clear 2 1047 77 0 2.14 9 10:55 28.12.2019
5672 Clear 2 1047 78 0 2.14 9 10:36 28.12.2019
5673 Clear 2 1047 77 0 0.45 22 10:18 28.12.2019
5674 Clear 2 1047 77 0 0.45 22 10:18 28.12.2019
5675 Clear 2 1047 78 0 2.14 9 09:45 28.12.2019
5676 Clear 2 1046 77 0 2.14 9 09:23 28.12.2019
5677 Clear 2 1046 77 0 2.14 9 08:58 28.12.2019
5678 Clear 2 1046 77 0 0.89 22 08:39 28.12.2019
5679 Clouds 2 1046 75 0 2.19 28 08:20 28.12.2019
5680 Clouds 2 1046 74 0 2.19 28 07:43 28.12.2019
5681 Clouds 2 1045 74 0 0.45 45 06:59 28.12.2019
5682 Clouds 2 1045 74 0 0.89 22 05:45 28.12.2019
5683 Clouds 2 1045 75 0 0.45 45 03:48 28.12.2019
5684 Clouds 2 1044 77 0 4.15 30 02:50 28.12.2019
5685 Clouds 2 1044 80 0 0.45 45 02:20 28.12.2019
5686 Clouds 2 1043 82 0 0.45 45 01:54 28.12.2019
5687 Clouds 2 1043 79 0 2.24 45 01:22 28.12.2019
5688 Clouds 2 1042 76 0 0.45 45 00:45 28.12.2019
5689 Clouds 2 1043 76 0 0.89 45 00:27 28.12.2019
5690 Clouds 2 1043 75 0 4.94 17 23:58 27.12.2019
5691 Clouds 2 1043 74 0 0.45 45 23:38 27.12.2019
5692 Clouds 2 1042 76 0 0.89 45 23:18 27.12.2019
5693 Clouds 3 1038 70 0 5.86 358 22:55 27.12.2019
5694 Clouds 2 1041 82 0 5.86 358 22:37 27.12.2019
5695 Clouds 2 1041 82 0 5.86 358 22:19 27.12.2019
5696 Clouds 2 1041 82 0 5.86 358 21:43 27.12.2019
5697 Clouds 2 1041 82 0 5.86 358 21:24 27.12.2019
5698 Clouds 2 1041 82 0 0.89 22 20:57 27.12.2019
5699 Clouds 2 1041 81 0 0.89 45 20:38 27.12.2019
5700 Clouds 3 1040 80 0 0.45 45 20:20 27.12.2019
5701 Clouds 3 1036 72 0 4.91 24 19:41 27.12.2019
5702 Clouds 3 1038 84 0 4.91 24 19:20 27.12.2019
5703 Clouds 3 1038 84 0 4.91 24 18:57 27.12.2019
5704 Clouds 3 1038 84 0 4.91 24 18:37 27.12.2019
5705 Clouds 3 1038 84 0 4.91 24 18:19 27.12.2019
5706 Clouds 3 1036 72 0 4.91 24 17:55 27.12.2019
5707 Clouds 3 1037 87 0 1.79 22 17:37 27.12.2019
5708 Clouds 3 1037 87 0 1.79 22 17:18 27.12.2019
5709 Clouds 3 1037 87 0 1.79 22 16:44 27.12.2019
5710 Clouds 3 1037 87 0 1.79 22 16:26 27.12.2019
5711 Clouds 3 1037 87 0 0.89 45 15:59 27.12.2019
5712 Clouds 3 1037 86 0 1.34 45 15:40 27.12.2019
5713 Clouds 3 1033 76 0 6.83 31 15:20 27.12.2019
5714 Clouds 3 1033 76 0 6.83 31 14:57 27.12.2019
5715 Clouds 3 1033 76 0 6.83 31 14:38 27.12.2019
5716 Snow 3 1031 78 0 7.61 37 14:20 27.12.2019
5717 Snow 3 1031 78 0 7.61 37 13:48 27.12.2019
5718 Snow 3 1034 89 0 7.61 37 13:25 27.12.2019
5719 Snow 3 1034 89 0 6.39 34 12:58 27.12.2019
5720 Snow 3 1034 89 0 6.39 34 12:39 27.12.2019
5721 Snow 3 1034 89 0 6.39 34 12:21 27.12.2019
5722 Snow 3 1034 88 0 6.39 34 11:44 27.12.2019
5723 Snow 3 1034 88 0 0.89 45 11:24 27.12.2019
5724 Rain 3 1033 91 0 0.45 22 10:56 27.12.2019
5725 Rain 3 1033 91 0 0.45 22 10:38 27.12.2019
5726 Rain 3 1033 91 0 0.45 22 10:20 27.12.2019
5727 Rain 3 1033 91 0 0.45 22 09:43 27.12.2019
5728 Rain 3 1031 91 0 0.45 45 09:21 27.12.2019
5729 Rain 3 1031 91 0 0.45 45 08:58 27.12.2019
5730 Rain 3 1031 91 0 0.45 45 08:36 27.12.2019
5731 Clouds 3 1031 91 0 0.45 45 07:52 27.12.2019
5732 Clouds 3 1030 90 0 0.45 22 07:33 27.12.2019
5733 Clouds 3 1030 89 0 6.41 18 06:38 27.12.2019
5734 Clouds 2 1030 88 0 0.45 315 05:38 27.12.2019
5735 Clouds 2 1029 87 0 5.17 28 03:47 27.12.2019
5736 Clouds 2 1029 87 0 5.17 28 03:47 27.12.2019
5737 Clouds 2 1029 86 0 0.89 0 02:23 27.12.2019
5738 Clouds 3 1028 87 0 1.34 22 01:42 27.12.2019
5739 Clouds 3 1028 87 0 1.34 22 01:20 27.12.2019
5740 Clouds 3 1028 88 0 0.89 22 00:46 27.12.2019
5741 Clouds 3 1028 88 0 0.45 45 00:24 27.12.2019
5742 Clouds 3 1028 88 0 5.12 7 23:42 26.12.2019
5743 Clouds 3 1028 87 0 5.12 7 23:24 26.12.2019
5744 Clouds 4 1027 85 0 5.09 351 22:58 26.12.2019
5745 Clouds 4 1027 84 0 5.09 351 22:38 26.12.2019
5746 Clouds 4 1027 87 0 5.09 351 22:18 26.12.2019
5747 Clouds 4 1027 88 0 5.09 351 21:39 26.12.2019
5748 Clouds 4 1027 88 0 5.09 351 21:21 26.12.2019
5749 Clouds 4 1027 88 0 5.09 351 20:54 26.12.2019
5750 Clouds 4 1027 88 0 5.09 351 20:36 26.12.2019
5751 Clouds 4 1027 88 0 5.23 342 20:18 26.12.2019
5752 Clouds 4 1027 88 0 5.23 342 20:18 26.12.2019
5753 Clouds 4 1026 88 0 5.23 342 19:54 26.12.2019
5754 Clouds 4 1026 88 0 0.45 315 19:36 26.12.2019
5755 Clouds 4 1026 88 0 0.45 315 19:18 26.12.2019
5756 Clouds 4 1026 88 0 0.45 315 19:18 26.12.2019
5757 Clouds 4 1026 87 0 5.23 342 18:55 26.12.2019
5758 Clouds 4 1026 88 0 5.23 342 18:36 26.12.2019
5759 Clouds 4 1026 87 0 5.23 342 18:18 26.12.2019
5760 Clouds 4 1026 87 0 5.23 342 17:41 26.12.2019
5761 Clouds 4 1026 87 0 0.45 0 17:21 26.12.2019
5762 Clouds 4 1026 87 0 4.29 324 16:49 26.12.2019
5763 Clouds 4 1026 87 0 4.29 324 16:26 26.12.2019
5764 Clouds 5 1026 87 0 4.29 324 15:57 26.12.2019
5765 Clouds 5 1026 87 0 4.29 324 15:38 26.12.2019
5766 Clouds 5 1025 86 0 0.89 315 15:19 26.12.2019
5767 Clouds 5 1025 86 0 0.45 315 14:41 26.12.2019
5768 Clouds 5 1025 87 0 4.29 324 14:23 26.12.2019
5769 Clouds 6 1025 87 0 0.89 292 13:55 26.12.2019
5770 Clouds 6 1025 88 0 0.89 315 13:36 26.12.2019
5771 Clouds 6 1025 89 0 0.89 315 13:18 26.12.2019
5772 Clouds 6 1025 90 0 0.45 315 12:45 26.12.2019
5773 Clouds 6 1025 91 0 1.79 292 12:25 26.12.2019
5774 Clouds 6 1025 92 0 0.89 315 11:59 26.12.2019
5775 Clouds 6 1025 93 0 0.89 315 11:40 26.12.2019
5776 Clouds 6 1025 93 0 0.45 292 11:22 26.12.2019
5777 Clouds 5 1025 93 0 0.45 292 10:51 26.12.2019
5778 Clouds 5 1025 93 0 0.45 292 10:27 26.12.2019
5779 Clouds 5 1025 93 0 0.45 270 09:59 26.12.2019
5780 Clouds 5 1025 93 0 0.89 270 09:41 26.12.2019
5781 Clouds 4 1025 93 0 0.45 292 09:22 26.12.2019
5782 Clouds 4 1024 93 0 6.38 305 08:40 26.12.2019
5783 Clouds 4 1024 93 0 6.91 296 08:21 26.12.2019
5784 Clouds 4 1024 93 0 0.45 292 07:46 26.12.2019
5785 Clouds 4 1024 93 0 0.45 292 07:26 26.12.2019
5786 Clouds 4 1024 93 0 6.75 295 06:44 26.12.2019
5787 Clouds 4 1024 93 0 0.45 292 06:25 26.12.2019
5788 Clouds 4 1024 93 0 0.89 292 05:43 26.12.2019
5789 Clouds 4 1024 93 0 0.89 292 05:43 26.12.2019
5790 Clear 4 1024 93 0 0.45 270 04:38 26.12.2019
5791 Clear 4 1024 92 0 0.45 292 03:46 26.12.2019
5792 Clear 4 1024 92 0 7.82 286 02:49 26.12.2019
5793 Clear 4 1024 92 0 0.45 292 02:31 26.12.2019
5794 Clear 4 1024 92 0 0.45 292 02:31 26.12.2019
5795 Clouds 4 1024 92 0 0.45 292 01:45 26.12.2019
5796 Clouds 4 1024 92 0 0.45 292 01:26 26.12.2019
5797 Clouds 4 1024 91 0 0.45 292 00:48 26.12.2019
5798 Clouds 4 1023 91 0 8.37 281 00:24 26.12.2019
5799 Clouds 4 1023 91 0 8.37 281 00:24 26.12.2019
5800 Clouds 4 1023 91 0 0.45 247 23:58 25.12.2019
5801 Clouds 4 1023 91 0 8.37 281 23:38 25.12.2019
5802 Clouds 4 1023 90 0 5.79 277 23:20 25.12.2019
5803 Clouds 4 1023 91 0 0.45 292 22:57 25.12.2019
5804 Clouds 4 1023 91 0 0.45 292 22:38 25.12.2019
5805 Clouds 4 1023 91 0 0.45 292 22:38 25.12.2019
5806 Clouds 4 1023 91 0 1.34 315 22:19 25.12.2019
5807 Clouds 4 1023 91 0 1.34 315 21:57 25.12.2019
5808 Clouds 4 1023 91 0 1.34 315 21:39 25.12.2019
5809 Clouds 4 1023 92 0 0.45 315 21:19 25.12.2019
5810 Clouds 4 1022 92 0 1.34 315 20:54 25.12.2019
5811 Clouds 4 1022 92 0 0.45 337 20:36 25.12.2019
5812 Rain 4 1022 92 0 0.89 315 20:18 25.12.2019
5813 Rain 5 1022 92 0 1.34 292 19:42 25.12.2019
5814 Rain 5 1022 93 0 0.45 315 19:23 25.12.2019
5815 Rain 5 1022 93 0 0.45 315 18:58 25.12.2019
5816 Rain 5 1022 93 0 1.34 292 18:36 25.12.2019
5817 Rain 5 1021 92 0 0.89 315 18:18 25.12.2019
5818 Rain 6 1021 92 0 0.45 292 17:40 25.12.2019
5819 Clouds 6 1021 92 0 5.21 285 17:19 25.12.2019
5820 Clouds 6 1021 92 0 0.45 315 16:57 25.12.2019
5821 Clouds 6 1021 92 0 0.45 315 16:37 25.12.2019
5822 Clouds 6 1020 92 0 0.45 315 16:18 25.12.2019
5823 Clouds 6 1020 92 0 5.21 285 15:57 25.12.2019
5824 Clouds 6 1020 92 0 0.45 315 15:38 25.12.2019
5825 Clouds 6 1020 93 0 5.21 285 15:20 25.12.2019
5826 Clouds 6 1019 93 0 5.21 285 14:57 25.12.2019
5827 Clouds 6 1019 93 0 5.21 285 14:39 25.12.2019
5828 Clouds 6 1019 93 0 0.89 315 14:20 25.12.2019
5829 Clouds 6 1018 93 0 0.45 315 13:44 25.12.2019
5830 Clouds 6 1018 93 0 4.11 290 13:21 25.12.2019
5831 Clouds 6 1018 93 0 0.89 315 12:57 25.12.2019
5832 Clouds 6 1018 93 0 3.45 287 12:38 25.12.2019
5833 Clouds 6 1018 93 0 3.45 287 12:38 25.12.2019
5834 Clouds 5 1018 93 0 0.45 315 12:19 25.12.2019
5835 Clouds 5 1017 92 0 0.45 315 11:43 25.12.2019
5836 Clouds 5 1017 92 0 3.45 287 11:22 25.12.2019
5837 Clouds 5 1017 92 0 0.45 315 10:59 25.12.2019
5838 Clouds 5 1017 92 0 0.45 292 10:37 25.12.2019
5839 Clouds 5 1016 92 0 0.89 315 10:19 25.12.2019
5840 Clouds 5 1016 92 0 1.75 331 09:45 25.12.2019
5841 Clouds 4 1016 92 0 1.75 331 09:27 25.12.2019
5842 Clouds 4 1015 92 0 1.75 331 08:47 25.12.2019
5843 Clouds 4 1015 92 0 1.75 331 08:28 25.12.2019
5844 Rain 4 1014 92 0 2.62 236 07:49 25.12.2019
5845 Rain 4 1014 92 0 2.62 236 07:31 25.12.2019
5846 Rain 4 1014 91 0 2.62 236 06:49 25.12.2019
5847 Rain 4 1014 91 0 2.62 236 06:22 25.12.2019
5848 Rain 4 1013 91 0 0.34 206 05:18 25.12.2019
5849 Rain 4 1013 91 0 0.34 206 04:39 25.12.2019
5850 Rain 4 1013 91 0 0.34 206 04:20 25.12.2019
5851 Rain 4 1012 91 0 0.34 206 03:41 25.12.2019
5852 Rain 4 1012 91 0 0.34 206 02:51 25.12.2019
5853 Rain 4 1012 91 0 1.63 110 02:20 25.12.2019
5854 Rain 4 1011 91 0 0.5 176 01:25 25.12.2019
5855 Rain 4 1011 91 0 0.5 176 00:54 25.12.2019
5856 Rain 4 1011 91 0 0.5 176 00:32 25.12.2019
5857 Rain 4 1011 91 0 0.5 176 23:57 24.12.2019
5858 Rain 4 1011 91 0 0.5 176 23:38 24.12.2019
5859 Rain 4 1011 91 0 0.45 157 23:20 24.12.2019
5860 Rain 4 1010 91 0 0.45 157 22:41 24.12.2019
5861 Rain 4 1010 91 0 0.45 157 22:21 24.12.2019
5862 Rain 4 1010 90 0 2.6 156 21:44 24.12.2019
5863 Rain 4 1010 90 0 2.6 156 21:44 24.12.2019
5864 Rain 4 1010 90 0 2.6 156 21:23 24.12.2019
5865 Rain 4 1010 90 0 2.6 156 20:59 24.12.2019
5866 Rain 4 1010 90 0 2.6 156 20:41 24.12.2019
5867 Clouds 4 1010 90 0 3.06 171 20:19 24.12.2019
5868 Clouds 4 1010 90 0 2.91 181 20:19 24.12.2019
5869 Clouds 4 1010 90 0 0.45 202 19:45 24.12.2019
5870 Clouds 5 1010 90 0 3.06 171 19:22 24.12.2019
5871 Clouds 5 1010 90 0 3.06 171 18:58 24.12.2019
5872 Clouds 4 1010 90 0 3.06 171 18:40 24.12.2019
5873 Clouds 5 1010 89 0 0.45 202 18:18 24.12.2019
5874 Clouds 5 1010 89 0 3.06 171 17:42 24.12.2019
5875 Clouds 5 1010 89 0 4.18 206 17:21 24.12.2019
5876 Clouds 6 1010 89 0 4.18 206 16:58 24.12.2019
5877 Clouds 6 1010 89 0 4.18 206 16:58 24.12.2019
5878 Clouds 6 1010 89 0 4.18 206 16:39 24.12.2019
5879 Clouds 6 1010 89 0 4.18 206 16:39 24.12.2019
5880 Clouds 6 1010 89 0 4.18 206 16:20 24.12.2019
5881 Clouds 6 1011 89 0 4.18 206 15:57 24.12.2019
5882 Clouds 6 1010 89 0 0.45 202 15:37 24.12.2019
5883 Clouds 6 1011 90 0 0.45 202 15:19 24.12.2019
5884 Clouds 7 1011 90 0 0.45 202 14:58 24.12.2019
5885 Clouds 7 1011 90 0 0.89 202 14:39 24.12.2019
5886 Clouds 7 1011 90 0 0.89 202 14:21 24.12.2019
5887 Clouds 7 1011 90 0 0.89 202 14:21 24.12.2019
5888 Clouds 7 1011 90 0 0.45 225 13:56 24.12.2019
5889 Clouds 7 1011 90 0 0.89 225 13:37 24.12.2019
5890 Clouds 7 1012 90 0 0.45 225 13:19 24.12.2019
5891 Clouds 7 1012 90 0 0.45 225 13:19 24.12.2019
5892 Clouds 7 1012 90 0 0.89 225 12:56 24.12.2019
5893 Clouds 7 1012 90 0 0.89 225 12:56 24.12.2019
5894 Clouds 7 1012 90 0 0.45 225 12:37 24.12.2019
5895 Clouds 7 1012 90 0 0.89 225 12:19 24.12.2019
5896 Clouds 7 1012 90 0 0.89 225 12:19 24.12.2019
5897 Clouds 7 1012 90 0 0.89 225 12:19 24.12.2019
5898 Clouds 6 1012 91 0 0.45 225 11:56 24.12.2019
5899 Clouds 6 1013 91 0 0.45 225 11:37 24.12.2019
5900 Clouds 6 1013 91 0 0.45 225 11:37 24.12.2019
5901 Clouds 6 1013 91 0 0.45 225 11:19 24.12.2019
5902 Clouds 6 1013 91 0 0.89 225 10:56 24.12.2019
5903 Clouds 6 1013 91 0 7.73 233 10:37 24.12.2019
5904 Clouds 6 1013 91 0 0.89 247 10:19 24.12.2019
5905 Clouds 6 1013 91 0 0.89 225 09:55 24.12.2019
5906 Clouds 6 1014 91 0 0.89 225 09:37 24.12.2019
5907 Clouds 6 1013 91 0 0.45 247 09:19 24.12.2019
5908 Clouds 6 1014 91 0 7.73 233 08:46 24.12.2019
5909 Clouds 6 1014 91 0 0.89 225 08:24 24.12.2019
5910 Clouds 6 1014 91 0 0.45 270 07:46 24.12.2019
5911 Clouds 6 1013 91 0 0.45 247 07:27 24.12.2019
5912 Clouds 6 1014 91 0 8.88 248 06:59 24.12.2019
5913 Clouds 6 1014 91 0 8.88 248 06:39 24.12.2019
5914 Clouds 6 1014 91 0 0.45 270 06:19 24.12.2019
5915 Clouds 6 1013 92 0 8.88 248 05:49 24.12.2019
5916 Clouds 6 1013 92 0 0.89 247 05:18 24.12.2019
5917 Clouds 6 1013 92 0 0.45 292 03:55 24.12.2019
5918 Clouds 6 1013 91 0 0.89 247 03:33 24.12.2019
5919 Clouds 5 1013 91 0 0.45 270 02:28 24.12.2019
5920 Clouds 4 1012 90 0 0.45 270 01:53 24.12.2019
5921 Clouds 5 1012 90 0 8.4 252 01:25 24.12.2019
5922 Clouds 5 1012 90 0 8.4 252 00:56 24.12.2019
5923 Clouds 5 1012 90 0 0.45 270 00:37 24.12.2019
5924 Clouds 6 1012 90 0 8.4 252 00:19 24.12.2019
5925 Clouds 6 1011 90 0 0.45 270 23:42 23.12.2019
5926 Clouds 6 1011 90 0 0.89 270 23:24 23.12.2019
5927 Clouds 6 1011 90 0 0.45 270 22:57 23.12.2019
5928 Clouds 6 1011 90 0 0.89 270 22:38 23.12.2019
5929 Clouds 6 1010 90 0 0.45 270 22:20 23.12.2019
5930 Clouds 6 1010 90 0 8.79 252 21:56 23.12.2019
5931 Clouds 6 1010 90 0 8.79 252 21:37 23.12.2019
5932 Clouds 6 1010 90 0 8.79 252 21:37 23.12.2019
5933 Clouds 6 1010 90 0 0.45 292 21:19 23.12.2019
5934 Clouds 6 1010 90 0 0.45 292 20:58 23.12.2019
5935 Clouds 6 1009 90 0 8.79 252 20:40 23.12.2019
5936 Clouds 6 1009 90 0 8.41 240 20:19 23.12.2019
5937 Clouds 6 1009 90 0 8.41 240 19:58 23.12.2019
5938 Clouds 6 1009 90 0 8.41 240 19:40 23.12.2019
5939 Clouds 6 1008 90 0 8.41 240 19:21 23.12.2019
5940 Clouds 6 1008 90 0 8.41 240 18:58 23.12.2019
5941 Clouds 7 1008 90 0 0.45 270 18:39 23.12.2019
5942 Clouds 7 1008 91 0 8.41 240 18:20 23.12.2019
5943 Clouds 7 1008 91 0 0.45 270 17:59 23.12.2019
5944 Clouds 7 1007 91 0 8.41 240 17:40 23.12.2019
5945 Rain 7 1007 91 0 0.45 270 17:19 23.12.2019
5946 Rain 7 1007 91 0 8.85 248 16:57 23.12.2019
5947 Rain 6 1007 91 0 8.85 248 16:39 23.12.2019
5948 Rain 6 1006 91 0 0.45 292 16:19 23.12.2019
5949 Rain 6 1006 91 0 0.45 292 16:19 23.12.2019
5950 Rain 7 1006 91 0 0.45 270 15:58 23.12.2019
5951 Rain 7 1006 91 0 0.45 292 15:37 23.12.2019
5952 Rain 7 1005 91 0 0.45 292 15:19 23.12.2019
5953 Rain 7 1001 86 0 8.85 248 14:56 23.12.2019
5954 Rain 7 1005 92 0 0.89 270 14:38 23.12.2019
5955 Clouds 7 1004 92 0 7.8 248 14:19 23.12.2019
5956 Clouds 7 1004 92 0 7.8 248 14:19 23.12.2019
5957 Clouds 7 1004 93 0 0.89 270 13:57 23.12.2019
5958 Clouds 7 1004 93 0 0.45 292 13:39 23.12.2019
5959 Clouds 7 1004 94 0 0.89 292 13:20 23.12.2019
5960 Rain 7 1003 94 0 1.34 315 12:55 23.12.2019
5961 Rain 7 1003 94 0 0.89 315 12:36 23.12.2019
5962 Rain 7 1003 94 0 0.89 292 12:18 23.12.2019
5963 Rain 6 1002 94 0 0.89 292 11:42 23.12.2019
5964 Rain 6 1002 94 0 0.89 292 11:42 23.12.2019
5965 Rain 6 1002 94 0 0.45 292 11:24 23.12.2019
5966 Rain 6 1002 94 0 4.95 198 10:56 23.12.2019
5967 Rain 6 1002 94 0 0.89 225 10:38 23.12.2019
5968 Rain 5 1002 94 0 0.45 180 10:20 23.12.2019
5969 Rain 5 1002 94 0 0.45 180 09:58 23.12.2019
5970 Rain 5 1002 94 0 0.89 180 09:39 23.12.2019
5971 Rain 5 1001 94 0 0.45 157 09:20 23.12.2019
5972 Rain 4 1001 94 0 0.45 157 08:55 23.12.2019
5973 Rain 4 1001 94 0 0.45 157 08:37 23.12.2019
5974 Rain 4 1000 94 0 0.45 157 08:18 23.12.2019
5975 Rain 4 1000 94 0 0.45 157 07:43 23.12.2019
5976 Rain 4 1000 94 0 0.45 157 07:20 23.12.2019
5977 Rain 4 999 94 0 0.45 135 06:51 23.12.2019
5978 Rain 4 999 94 0 0.45 135 06:24 23.12.2019
5979 Rain 4 998 94 0 0.45 135 05:49 23.12.2019
5980 Clouds 4 998 94 0 5.64 143 05:22 23.12.2019
5981 Clouds 4 998 94 0 0.45 157 04:27 23.12.2019
5982 Clouds 4 997 94 0 0.45 157 02:56 23.12.2019
5983 Clouds 4 997 94 0 0.89 157 02:32 23.12.2019
5984 Rain 4 996 94 0 0.89 135 01:56 23.12.2019
5985 Rain 4 997 94 0 0.89 135 01:38 23.12.2019
5986 Rain 4 996 94 0 1.34 157 01:19 23.12.2019
5987 Rain 4 996 94 0 0.89 135 00:41 23.12.2019
5988 Rain 3 996 94 0 1.34 135 00:19 23.12.2019
5989 Rain 3 996 94 0 0.45 135 23:39 22.12.2019
5990 Rain 3 996 94 0 0.45 135 23:39 22.12.2019
5991 Rain 4 996 94 0 0.45 135 23:21 22.12.2019
5992 Rain 4 996 94 0 0.89 157 22:58 22.12.2019
5993 Rain 4 996 94 0 0.89 135 22:39 22.12.2019
5994 Rain 4 995 94 0 0.89 135 22:19 22.12.2019
5995 Rain 4 995 94 0 0.89 135 21:57 22.12.2019
5996 Rain 4 995 94 0 1.34 135 21:39 22.12.2019
5997 Rain 4 995 94 0 0.89 135 21:21 22.12.2019
5998 Rain 4 995 94 0 0.89 135 20:58 22.12.2019
5999 Rain 4 995 94 0 1.34 135 20:38 22.12.2019
6000 Clouds 4 995 94 0 1.34 135 20:18 22.12.2019
6001 Clouds 4 995 94 0 1.34 135 19:56 22.12.2019
6002 Clouds 4 995 94 0 1.34 112 19:37 22.12.2019
6003 Clouds 4 995 94 0 0.45 135 19:19 22.12.2019
6004 Clouds 4 995 94 0 0.45 135 18:41 22.12.2019
6005 Clouds 4 995 94 0 0.89 135 18:23 22.12.2019
6006 Clouds 4 995 94 0 0.89 135 17:56 22.12.2019
6007 Clouds 4 994 94 0 1.34 157 17:38 22.12.2019
6008 Clouds 4 994 94 0 0.89 135 17:19 22.12.2019
6009 Clouds 4 994 94 0 0.89 135 16:57 22.12.2019
6010 Clouds 4 994 94 0 0.89 135 16:38 22.12.2019
6011 Clouds 4 994 94 0 1.34 135 16:20 22.12.2019
6012 Clouds 4 994 94 0 1.34 135 15:56 22.12.2019
6013 Clouds 4 994 94 0 1.34 135 15:38 22.12.2019
6014 Clouds 4 994 94 0 0.89 135 15:19 22.12.2019
6015 Clouds 4 994 94 0 1.79 135 14:55 22.12.2019
6016 Clouds 3 994 94 0 0.89 135 14:37 22.12.2019
6017 Clouds 3 994 94 0 0.89 157 14:18 22.12.2019
6018 Clouds 3 994 94 0 1.79 135 13:55 22.12.2019
6019 Clouds 3 994 94 0 1.79 135 13:36 22.12.2019
6020 Clouds 3 994 94 0 1.79 135 13:36 22.12.2019
6021 Clouds 3 994 94 0 0.89 135 13:18 22.12.2019
6022 Clouds 3 994 94 0 0.89 135 12:56 22.12.2019
6023 Clouds 3 994 94 0 1.34 157 12:37 22.12.2019
6024 Clouds 3 994 94 0 1.34 135 12:18 22.12.2019
6025 Clouds 3 994 94 0 1.79 135 11:56 22.12.2019
6026 Clouds 3 994 94 0 1.34 135 11:38 22.12.2019
6027 Clouds 3 994 94 0 1.34 135 11:18 22.12.2019
6028 Clouds 3 994 94 0 1.34 135 10:55 22.12.2019
6029 Clouds 3 994 94 0 1.34 135 10:36 22.12.2019
6030 Clouds 3 994 94 0 1.34 135 10:18 22.12.2019
6031 Clouds 3 994 94 0 0.89 135 09:57 22.12.2019
6032 Clouds 3 994 94 0 0.89 135 09:38 22.12.2019
6033 Clouds 2 994 94 0 1.34 157 09:20 22.12.2019
6034 Clouds 2 993 94 0 0.89 135 08:42 22.12.2019
6035 Clouds 2 993 94 0 1.34 135 08:22 22.12.2019
6036 Clouds 2 993 94 0 0.89 135 07:43 22.12.2019
6037 Clouds 2 993 93 0 0.89 135 07:21 22.12.2019
6038 Clouds 1 993 93 0 0.89 135 06:52 22.12.2019
6039 Clouds 1 993 93 0 0.89 135 06:25 22.12.2019
6040 Clouds 5 988 88 0 6.29 146 05:32 22.12.2019
6041 Clouds 5 989 90 0 6.23 148 04:46 22.12.2019
6042 Clouds 5 989 90 0 6.23 148 04:25 22.12.2019
6043 Clouds 5 989 90 0 6.23 148 02:45 22.12.2019
6044 Clouds 5 990 90 0 5.26 167 02:20 22.12.2019
6045 Clouds 2 994 91 0 0.89 135 01:31 22.12.2019
6046 Clouds 2 994 91 0 0.45 135 00:56 22.12.2019
6047 Clouds 2 994 91 0 0.45 135 00:36 22.12.2019
6048 Clouds 2 995 91 0 0.45 135 00:18 22.12.2019
6049 Clouds 2 995 91 0 0.45 135 23:40 21.12.2019
6050 Clear 3 995 91 0 0.45 135 23:21 21.12.2019
6051 Clear 3 995 91 0 0.89 135 22:57 21.12.2019
6052 Clear 3 995 91 0 0.45 157 22:37 21.12.2019
6053 Clear 3 995 91 0 0.45 157 22:18 21.12.2019
6054 Clear 3 995 91 0 0.45 157 21:54 21.12.2019
6055 Clear 3 995 90 0 0.45 157 21:36 21.12.2019
6056 Clear 3 995 90 0 0.45 157 21:18 21.12.2019
6057 Clear 3 995 90 0 4.93 170 20:56 21.12.2019
6058 Clear 4 995 90 0 4.93 170 20:37 21.12.2019
6059 Clouds 4 995 90 0 5.55 193 20:19 21.12.2019
6060 Clouds 4 995 90 0 5.55 193 19:55 21.12.2019
6061 Clouds 4 996 90 0 0.45 180 19:36 21.12.2019
6062 Clouds 5 996 91 0 0.45 180 19:18 21.12.2019
6063 Clouds 5 996 90 0 0.89 180 18:41 21.12.2019
6064 Clouds 5 996 90 0 0.89 180 18:23 21.12.2019
6065 Clouds 5 996 90 0 0.45 180 17:56 21.12.2019
6066 Clouds 6 996 90 0 0.45 180 17:38 21.12.2019
6067 Clouds 6 996 90 0 0.89 180 17:20 21.12.2019
6068 Clouds 6 997 89 0 0.45 180 16:57 21.12.2019
6069 Clouds 6 997 89 0 0.45 180 16:38 21.12.2019
6070 Clouds 6 996 90 0 0.45 202 16:18 21.12.2019
6071 Clouds 7 996 90 0 3.51 219 15:56 21.12.2019
6072 Clouds 8 996 90 0 3.51 219 15:37 21.12.2019
6073 Clouds 8 996 90 0 3.51 219 15:18 21.12.2019
6074 Clouds 8 997 90 0 0.45 225 14:43 21.12.2019
6075 Clouds 8 997 90 0 0.45 225 14:24 21.12.2019
6076 Clouds 8 997 91 0 0.89 225 13:59 21.12.2019
6077 Clouds 8 997 91 0 0.89 225 13:40 21.12.2019
6078 Clouds 8 997 91 0 0.45 225 13:20 21.12.2019
6079 Clouds 8 997 91 0 0.89 225 12:57 21.12.2019
6080 Clouds 8 997 91 0 0.45 225 12:39 21.12.2019
6081 Clouds 8 997 92 0 0.89 225 12:21 21.12.2019
6082 Clouds 8 996 92 0 0.45 225 11:57 21.12.2019
6083 Clouds 8 997 92 0 5.22 240 11:39 21.12.2019
6084 Clouds 8 997 93 0 6.35 240 11:21 21.12.2019
6085 Clouds 7 996 92 0 6.35 240 10:42 21.12.2019
6086 Clouds 7 996 92 0 6.35 240 10:23 21.12.2019
6087 Clouds 7 996 92 0 6.35 240 09:59 21.12.2019
6088 Clouds 7 996 92 0 6.35 240 09:41 21.12.2019
6089 Clouds 7 996 92 0 6.35 240 09:20 21.12.2019
6090 Clouds 7 996 92 0 0.45 270 08:56 21.12.2019
6091 Clouds 7 996 93 0 0.45 270 08:37 21.12.2019
6092 Clouds 7 996 93 0 7.47 253 08:18 21.12.2019
6093 Clouds 7 995 92 0 7.47 253 07:41 21.12.2019
6094 Clouds 7 995 92 0 7.47 253 07:21 21.12.2019
6095 Clouds 7 995 92 0 7.47 253 06:43 21.12.2019
6096 Clouds 7 995 92 0 7.47 253 06:25 21.12.2019
6097 Clouds 7 995 92 0 7.47 253 05:47 21.12.2019
6098 Clouds 7 995 92 0 7.47 253 05:47 21.12.2019
6099 Rain 7 994 93 0 0.89 292 04:58 21.12.2019
6100 Rain 7 994 92 0 0.45 225 03:57 21.12.2019
6101 Rain 7 994 92 0 0.89 225 02:51 21.12.2019
6102 Clouds 7 993 92 0 0.89 202 01:57 21.12.2019
6103 Clouds 7 993 92 0 1.34 202 01:27 21.12.2019
6104 Clouds 7 993 92 0 0.89 180 00:52 21.12.2019
6105 Clouds 6 993 93 0 1.34 180 00:32 21.12.2019
6106 Clouds 6 993 92 0 0.89 180 23:59 20.12.2019
6107 Clouds 6 993 92 0 0.45 180 23:38 20.12.2019
6108 Clouds 6 993 93 0 0.45 180 23:18 20.12.2019
6109 Clouds 6 993 93 0 0.89 180 22:41 20.12.2019
6110 Clouds 6 994 93 0 0.89 202 22:21 20.12.2019
6111 Clouds 6 994 93 0 0.89 180 21:59 20.12.2019
6112 Clouds 6 994 93 0 0.89 180 21:40 20.12.2019
6113 Clouds 6 994 93 0 0.89 180 21:20 20.12.2019
6114 Clouds 6 994 93 0 0.45 157 20:55 20.12.2019
6115 Clouds 6 994 93 0 0.45 157 20:36 20.12.2019
6116 Clouds 6 994 93 0 0.45 157 20:18 20.12.2019
6117 Clouds 6 995 93 0 5.4 161 19:41 20.12.2019
6118 Clouds 6 994 93 0 0.45 157 19:20 20.12.2019
6119 Clouds 6 994 93 0 0.89 135 18:58 20.12.2019
6120 Clouds 6 995 93 0 0.89 135 18:38 20.12.2019
6121 Clouds 5 995 93 0 0.89 135 18:20 20.12.2019
6122 Clouds 5 995 93 0 0.45 135 17:54 20.12.2019
6123 Clouds 5 996 93 0 0.89 157 17:36 20.12.2019
6124 Clear 6 996 93 0 0.89 135 17:18 20.12.2019
6125 Clear 6 996 93 0 1.34 135 16:40 20.12.2019
6126 Clear 5 997 93 0 0.89 135 16:20 20.12.2019
6127 Clear 5 997 93 0 0.89 135 15:57 20.12.2019
6128 Clear 6 997 93 0 1.34 157 15:39 20.12.2019
6129 Clear 6 997 93 0 0.45 157 15:20 20.12.2019
6130 Clear 6 998 93 0 0.89 157 14:59 20.12.2019
6131 Clear 6 998 93 0 0.45 157 14:40 20.12.2019
6132 Clear 6 998 93 0 0.45 135 14:22 20.12.2019
6133 Clear 6 998 93 0 0.89 135 13:56 20.12.2019
6134 Clear 7 999 93 0 0.89 135 13:36 20.12.2019
6135 Clear 6 999 93 0 1.34 157 13:18 20.12.2019
6136 Clear 6 999 93 0 0.45 157 12:55 20.12.2019
6137 Clear 6 1000 93 0 0.89 180 12:36 20.12.2019
6138 Clear 6 1000 93 0 0.89 180 12:18 20.12.2019
6139 Clear 6 1001 93 0 0.89 157 11:56 20.12.2019
6140 Clear 6 1001 93 0 0.89 157 11:37 20.12.2019
6141 Clear 6 1001 93 0 0.89 135 11:18 20.12.2019
6142 Clear 6 1001 93 0 1.34 135 10:54 20.12.2019
6143 Clear 5 1002 93 0 0.89 157 10:36 20.12.2019
6144 Clear 5 1003 93 0 0.89 157 10:18 20.12.2019
6145 Clear 5 1003 93 0 0.89 135 09:41 20.12.2019
6146 Clear 5 1003 93 0 0.45 157 09:21 20.12.2019
6147 Clear 5 1003 93 0 0.45 157 09:21 20.12.2019
6148 Clear 5 1003 93 0 0.89 157 08:54 20.12.2019
6149 Clear 5 1004 93 0 0.45 180 08:36 20.12.2019
6150 Clouds 5 1005 93 0 0.89 180 08:18 20.12.2019
6151 Clouds 5 1005 93 0 0.89 180 07:41 20.12.2019
6152 Clouds 5 1004 93 0 0.45 157 07:23 20.12.2019
6153 Clouds 5 1005 93 0 0.89 157 06:55 20.12.2019
6154 Clouds 5 1005 93 0 0.89 157 06:36 20.12.2019
6155 Clouds 5 1005 93 0 0.89 157 06:18 20.12.2019
6156 Clouds 5 1006 93 0 1.34 157 05:45 20.12.2019
6157 Clouds 5 1007 93 0 0.89 135 04:46 20.12.2019
6158 Clouds 5 1009 93 0 1.34 180 03:33 20.12.2019
6159 Clouds 5 1009 93 0 0.45 157 02:45 20.12.2019
6160 Clouds 5 1010 92 0 1.34 157 01:55 20.12.2019
6161 Clouds 5 1010 92 0 0.89 135 01:35 20.12.2019
6162 Clouds 5 1010 93 0 0.89 135 00:54 20.12.2019
6163 Clouds 5 1011 93 0 0.89 135 00:35 20.12.2019
6164 Clouds 5 1012 93 0 0.45 157 23:57 19.12.2019
6165 Clouds 5 1013 92 0 0.45 157 23:39 19.12.2019
6166 Clouds 5 1013 92 0 0.89 157 23:19 19.12.2019
6167 Clouds 5 1013 92 0 0.89 157 23:19 19.12.2019
6168 Clouds 4 1013 92 0 0.89 157 22:40 19.12.2019
6169 Clouds 4 1013 92 0 0.89 135 22:22 19.12.2019
6170 Clouds 4 1014 92 0 0.89 135 21:57 19.12.2019
6171 Clouds 4 1014 92 0 0.89 135 21:39 19.12.2019
6172 Clouds 5 1014 92 0 1.34 157 21:19 19.12.2019
6173 Clouds 5 1015 92 0 1.79 157 20:57 19.12.2019
6174 Clouds 5 1015 92 0 1.34 135 20:38 19.12.2019
6175 Clouds 5 1015 92 0 1.79 135 20:20 19.12.2019
6176 Clouds 5 1016 92 0 1.34 157 19:58 19.12.2019
6177 Clouds 5 1016 92 0 1.79 157 19:40 19.12.2019
6178 Clouds 5 1016 92 0 1.79 135 19:19 19.12.2019
6179 Clouds 5 1016 92 0 1.79 135 19:19 19.12.2019
6180 Clouds 5 1016 92 0 1.79 135 19:19 19.12.2019
6181 Clouds 5 1016 92 0 1.79 135 18:58 19.12.2019
6182 Clouds 5 1017 92 0 1.79 157 18:40 19.12.2019
6183 Clouds 5 1017 92 0 0.89 157 18:19 19.12.2019
6184 Clouds 5 1017 92 0 0.89 135 17:56 19.12.2019
6185 Clouds 5 1018 92 0 1.34 157 17:38 19.12.2019
6186 Clouds 5 1018 92 0 0.89 135 17:18 19.12.2019
6187 Clouds 5 1018 92 0 1.34 135 16:56 19.12.2019
6188 Clouds 5 1018 92 0 1.34 157 16:37 19.12.2019
6189 Clouds 5 1018 92 0 1.79 157 16:19 19.12.2019
6190 Clouds 5 1019 92 0 0.89 157 15:57 19.12.2019
6191 Clouds 5 1019 92 0 1.34 135 15:38 19.12.2019
6192 Clouds 5 1019 92 0 0.89 135 15:19 19.12.2019
6193 Clouds 6 1019 92 0 1.34 135 14:57 19.12.2019
6194 Clouds 6 1019 92 0 0.89 157 14:38 19.12.2019
6195 Clouds 6 1019 92 0 1.34 157 14:18 19.12.2019
6196 Clouds 6 1020 92 0 0.89 157 13:39 19.12.2019
6197 Clouds 6 1021 93 0 1.34 135 13:20 19.12.2019
6198 Clouds 6 1021 93 0 0.89 135 12:58 19.12.2019
6199 Clouds 6 1021 93 0 1.79 157 12:40 19.12.2019
6200 Clouds 6 1022 93 0 1.34 157 12:19 19.12.2019
6201 Clouds 5 1022 93 0 1.34 157 11:59 19.12.2019
6202 Clouds 5 1022 93 0 1.79 135 11:41 19.12.2019
6203 Clouds 5 1022 93 0 1.34 135 11:19 19.12.2019
6204 Clouds 4 1023 93 0 1.79 157 10:59 19.12.2019
6205 Clouds 4 1023 93 0 1.34 135 10:38 19.12.2019
6206 Clouds 4 1023 93 0 1.34 135 10:38 19.12.2019
6207 Clouds 3 1023 92 0 1.34 135 10:20 19.12.2019
6208 Clouds 3 1023 92 0 1.79 157 09:56 19.12.2019
6209 Clouds 2 1024 92 0 1.34 135 09:37 19.12.2019
6210 Clouds 2 1024 92 0 1.34 135 09:19 19.12.2019
6211 Clouds 6 1018 85 0 8.94 152 08:55 19.12.2019
6212 Clouds 6 1018 85 0 8.94 152 08:37 19.12.2019
6213 Clouds 2 1024 92 0 0.89 135 08:18 19.12.2019
6214 Clouds 2 1024 92 0 0.89 135 07:54 19.12.2019
6215 Clouds 2 1024 92 0 1.34 157 07:36 19.12.2019
6216 Clouds 2 1024 92 0 1.34 135 07:18 19.12.2019
6217 Clouds 2 1024 91 0 0.89 135 06:42 19.12.2019
6218 Clouds 1 1024 91 0 0.89 135 06:23 19.12.2019
6219 Clouds 2 1024 91 0 0.89 135 05:45 19.12.2019
6220 Clouds 2 1025 90 0 0.89 135 05:20 19.12.2019
6221 Clouds 2 1025 90 0 0.45 135 03:58 19.12.2019
6222 Clouds 2 1025 89 0 0.45 202 02:30 19.12.2019
6223 Clouds 2 1026 89 0 0.45 202 01:27 19.12.2019
6224 Clouds 2 1025 89 0 4.02 203 00:59 19.12.2019
6225 Clouds 2 1025 89 0 4.02 203 00:39 19.12.2019
6226 Clouds 2 1025 89 0 4.02 203 00:39 19.12.2019
6227 Clouds 2 1026 88 0 4.02 203 00:19 19.12.2019
6228 Clouds 2 1026 88 0 4.02 203 23:45 18.12.2019
6229 Clouds 2 1025 88 0 5.54 223 23:19 18.12.2019
6230 Clouds 2 1025 88 0 5.54 223 23:19 18.12.2019
6231 Clouds 2 1025 88 0 0.45 202 22:58 18.12.2019
6232 Clouds 3 1025 89 0 5.54 223 22:40 18.12.2019
6233 Clouds 2 1025 88 0 5.54 223 22:22 18.12.2019
6234 Clouds 2 1025 88 0 5.54 223 21:59 18.12.2019
6235 Clouds 2 1025 88 0 0.45 202 21:41 18.12.2019
6236 Clouds 2 1025 88 0 0.45 202 21:21 18.12.2019
6237 Clouds 2 1025 88 0 0.45 202 21:21 18.12.2019
6238 Clouds 2 1024 87 0 0.45 202 20:58 18.12.2019
6239 Clouds 3 1024 88 0 5.54 223 20:39 18.12.2019
6240 Clouds 3 1024 87 0 7.08 247 20:20 18.12.2019
6241 Clouds 3 1024 87 0 7.08 247 19:57 18.12.2019
6242 Clouds 3 1024 87 0 0.45 247 19:39 18.12.2019
6243 Clouds 3 1023 87 0 0.45 247 19:19 18.12.2019
6244 Clouds 4 1023 87 0 0.45 247 18:59 18.12.2019
6245 Clouds 4 1023 87 0 0.45 247 18:41 18.12.2019
6246 Clouds 4 1023 86 0 7.08 247 18:22 18.12.2019
6247 Clouds 4 1023 86 0 0.45 247 17:56 18.12.2019
6248 Clouds 4 1023 86 0 7.08 247 17:38 18.12.2019
6249 Clouds 4 1022 86 0 8.5 249 17:19 18.12.2019
6250 Clouds 5 1022 85 0 8.5 249 16:43 18.12.2019
6251 Clouds 5 1022 85 0 0.45 225 16:24 18.12.2019
6252 Clouds 6 1021 84 0 0.45 270 15:59 18.12.2019
6253 Clouds 6 1021 84 0 0.45 270 15:40 18.12.2019
6254 Clouds 6 1021 83 0 8.5 249 15:21 18.12.2019
6255 Clouds 7 1021 83 0 0.45 292 14:59 18.12.2019
6256 Clouds 7 1020 82 0 0.45 292 14:40 18.12.2019
6257 Clouds 7 1020 82 0 0.45 270 14:20 18.12.2019
6258 Clouds 7 1020 83 0 10.27 252 13:56 18.12.2019
6259 Clouds 7 1019 83 0 0.89 292 13:37 18.12.2019
6260 Clouds 7 1019 84 0 0.45 270 13:19 18.12.2019
6261 Clouds 7 1019 84 0 0.45 270 12:57 18.12.2019
6262 Clouds 8 1019 85 0 0.45 270 12:37 18.12.2019
6263 Clouds 7 1019 85 0 1.79 292 12:19 18.12.2019
6264 Clouds 7 1018 86 0 0.89 292 11:55 18.12.2019
6265 Clouds 7 1018 87 0 0.45 292 11:37 18.12.2019
6266 Clouds 6 1018 87 0 0.89 292 11:18 18.12.2019
6267 Clouds 6 1018 87 0 0.45 270 10:55 18.12.2019
6268 Clouds 6 1017 87 0 10.48 255 10:37 18.12.2019
6269 Clouds 6 1017 87 0 0.45 270 10:18 18.12.2019
6270 Clouds 6 1016 86 0 0.89 225 09:43 18.12.2019
6271 Clouds 6 1016 85 0 0.45 225 09:18 18.12.2019
6272 Clouds 6 1015 85 0 0.89 247 08:40 18.12.2019
6273 Rain 6 1014 84 0 0.89 315 08:21 18.12.2019
6274 Rain 7 1014 82 0 1.34 292 07:43 18.12.2019
6275 Rain 8 1013 83 0 1.79 292 07:23 18.12.2019
6276 Rain 8 1012 82 0 1.79 292 06:55 18.12.2019
6277 Rain 9 1011 82 0 2.24 292 06:27 18.12.2019
6278 Rain 11 1010 85 0 1.34 270 05:47 18.12.2019
6279 Rain 11 1008 86 0 0.89 225 04:57 18.12.2019
6280 Rain 11 1007 82 0 2.24 225 02:55 18.12.2019
6281 Rain 10 1007 82 0 1.79 225 02:36 18.12.2019
6282 Clouds 9 1006 82 0 1.79 225 02:18 18.12.2019
6283 Clouds 9 1006 83 0 1.79 202 01:40 18.12.2019
6284 Clouds 9 1006 84 0 1.79 180 01:21 18.12.2019
6285 Clouds 9 1006 84 0 1.79 180 00:41 18.12.2019
6286 Clouds 9 1006 84 0 1.79 180 00:23 18.12.2019
6287 Clouds 9 1006 84 0 1.79 180 00:23 18.12.2019
6288 Clouds 9 1007 84 0 1.34 180 23:57 17.12.2019
6289 Clouds 9 1007 83 0 1.34 180 23:38 17.12.2019
6290 Clouds 9 1007 83 0 0.89 180 23:19 17.12.2019
6291 Clouds 9 1008 82 0 1.34 202 22:56 17.12.2019
6292 Clouds 9 1008 83 0 1.34 180 22:38 17.12.2019
6293 Clouds 9 1008 83 0 1.34 202 22:19 17.12.2019
6294 Clouds 9 1008 84 0 1.34 180 21:55 17.12.2019
6295 Clouds 9 1008 84 0 1.34 202 21:37 17.12.2019
6296 Clouds 9 1008 84 0 0.89 202 21:19 17.12.2019
6297 Clouds 8 1008 86 0 1.79 202 20:57 17.12.2019
6298 Clouds 8 1008 86 0 0.89 180 20:38 17.12.2019
6299 Clouds 8 1008 86 0 1.34 180 20:18 17.12.2019
6300 Clouds 8 1008 86 0 1.34 180 20:18 17.12.2019
6301 Clouds 8 1008 87 0 1.79 180 19:56 17.12.2019
6302 Clouds 8 1008 87 0 1.34 180 19:37 17.12.2019
6303 Clouds 8 1008 87 0 1.34 157 19:18 17.12.2019
6304 Clouds 8 1008 87 0 0.89 180 18:54 17.12.2019
6305 Clouds 7 1008 88 0 0.89 180 18:36 17.12.2019
6306 Clouds 7 1008 88 0 1.34 180 18:18 17.12.2019
6307 Clouds 7 1008 88 0 1.34 180 18:18 17.12.2019
6308 Clouds 7 1008 87 0 0.89 180 17:42 17.12.2019
6309 Clouds 7 1008 87 0 0.89 180 17:21 17.12.2019
6310 Clouds 7 1008 87 0 0.89 180 16:56 17.12.2019
6311 Clouds 7 1008 87 0 1.79 180 16:38 17.12.2019
6312 Clouds 7 1008 87 0 0.89 180 16:19 17.12.2019
6313 Clouds 7 1008 87 0 0.89 180 15:58 17.12.2019
6314 Clouds 7 1008 87 0 1.34 180 15:37 17.12.2019
6315 Clouds 7 1008 87 0 0.45 180 15:19 17.12.2019
6316 Clouds 8 1008 86 0 0.89 180 14:56 17.12.2019
6317 Clouds 8 1007 86 0 0.45 180 14:37 17.12.2019
6318 Clouds 8 1007 86 0 0.89 180 14:18 17.12.2019
6319 Clouds 8 1007 86 0 0.89 202 13:56 17.12.2019
6320 Clouds 8 1007 86 0 0.89 180 13:38 17.12.2019
6321 Clouds 8 1007 87 0 1.34 180 13:19 17.12.2019
6322 Clouds 8 1007 88 0 0.89 180 12:56 17.12.2019
6323 Clouds 7 1007 88 0 0.89 180 12:37 17.12.2019
6324 Clouds 7 1007 89 0 0.89 180 12:18 17.12.2019
6325 Clouds 7 1007 90 0 0.89 202 11:56 17.12.2019
6326 Clouds 7 1007 90 0 1.34 180 11:36 17.12.2019
6327 Clouds 7 1008 90 0 0.45 202 11:18 17.12.2019
6328 Clouds 7 1008 90 0 0.45 202 11:18 17.12.2019
6329 Clouds 7 1008 90 0 0.45 202 11:18 17.12.2019
6330 Clouds 6 1008 91 0 1.34 180 10:55 17.12.2019
6331 Clouds 6 1008 91 0 1.34 180 10:37 17.12.2019
6332 Clouds 7 1003 88 0 6.59 177 10:18 17.12.2019
6333 Clouds 5 1007 92 0 0.89 157 09:42 17.12.2019
6334 Clouds 5 1008 92 0 1.34 157 09:21 17.12.2019
6335 Clouds 4 1008 92 0 1.34 157 08:58 17.12.2019
6336 Clouds 4 1008 92 0 0.89 157 08:40 17.12.2019
6337 Rain 4 1008 92 0 1.34 135 08:21 17.12.2019
6338 Rain 4 1008 92 0 1.34 135 07:58 17.12.2019
6339 Rain 4 1008 92 0 0.89 157 07:39 17.12.2019
6340 Rain 4 1008 92 0 0.89 135 07:20 17.12.2019
6341 Rain 4 1008 92 0 0.45 135 06:42 17.12.2019
6342 Rain 4 1008 92 0 0.89 135 06:24 17.12.2019
6343 Rain 4 1008 92 0 0.89 135 06:24 17.12.2019
6344 Rain 4 1009 91 0 0.45 135 05:41 17.12.2019
6345 Rain 5 1009 91 0 0.45 135 04:53 17.12.2019
6346 Rain 5 1010 91 0 0.45 135 03:51 17.12.2019
6347 Rain 6 1010 90 0 0.45 135 02:25 17.12.2019
6348 Clouds 6 1010 90 0 0.45 157 01:22 17.12.2019
6349 Clouds 6 1011 90 0 3.44 199 00:47 17.12.2019
6350 Clouds 6 1010 90 0 3.44 199 00:21 17.12.2019
6351 Clouds 6 1010 90 0 3.44 199 00:21 17.12.2019
6352 Clouds 6 1011 90 0 3.44 199 23:57 16.12.2019
6353 Clouds 6 1011 90 0 0.45 180 23:38 16.12.2019
6354 Clouds 6 1011 90 0 0.45 180 23:18 16.12.2019
6355 Clouds 6 1011 90 0 5.05 207 22:54 16.12.2019
6356 Clouds 6 1011 90 0 0.45 180 22:36 16.12.2019
6357 Clouds 7 1006 91 0 5.05 207 22:18 16.12.2019
6358 Clouds 6 1011 90 0 0.89 180 21:54 16.12.2019
6359 Clouds 6 1011 90 0 0.89 180 21:36 16.12.2019
6360 Clouds 6 1011 89 0 0.45 202 21:18 16.12.2019
6361 Clouds 6 1011 89 0 0.45 202 20:55 16.12.2019
6362 Clouds 6 1011 89 0 0.45 202 20:37 16.12.2019
6363 Clouds 6 1011 90 0 0.45 202 20:18 16.12.2019
6364 Clouds 6 1011 89 0 0.89 180 19:55 16.12.2019
6365 Clouds 6 1011 89 0 0.89 180 19:36 16.12.2019
6366 Clouds 6 1011 89 0 1.34 180 19:18 16.12.2019
6367 Clouds 6 1011 89 0 0.89 180 18:54 16.12.2019
6368 Clouds 6 1011 89 0 0.89 180 18:36 16.12.2019
6369 Clouds 6 1011 89 0 0.89 180 18:18 16.12.2019
6370 Clouds 6 1011 89 0 0.89 180 17:55 16.12.2019
6371 Clouds 6 1011 89 0 0.89 180 17:37 16.12.2019
6372 Clouds 6 1011 89 0 0.89 180 17:19 16.12.2019
6373 Clouds 6 1011 88 0 0.89 180 16:54 16.12.2019
6374 Clouds 5 1011 88 0 0.89 180 16:36 16.12.2019
6375 Clouds 5 1011 88 0 0.89 180 16:18 16.12.2019
6376 Clouds 6 1011 87 0 0.45 180 15:55 16.12.2019
6377 Clouds 6 1011 87 0 0.45 180 15:37 16.12.2019
6378 Clouds 6 1011 87 0 0.89 202 15:18 16.12.2019
6379 Clouds 6 1011 87 0 0.89 202 14:54 16.12.2019
6380 Clouds 6 1011 87 0 0.89 180 14:36 16.12.2019
6381 Clouds 6 1011 87 0 0.89 180 14:18 16.12.2019
6382 Clouds 6 1011 87 0 0.89 180 13:38 16.12.2019
6383 Clouds 6 1011 87 0 1.34 180 13:20 16.12.2019
6384 Clouds 5 1012 87 0 1.34 180 12:59 16.12.2019
6385 Clouds 5 1012 87 0 1.34 180 12:40 16.12.2019
6386 Clouds 5 1012 87 0 0.89 180 12:20 16.12.2019
6387 Clouds 5 1012 87 0 0.89 180 11:59 16.12.2019
6388 Clouds 5 1012 87 0 0.89 180 11:59 16.12.2019
6389 Clouds 5 1012 87 0 1.79 180 11:41 16.12.2019
6390 Clouds 4 1012 87 0 1.79 180 11:22 16.12.2019
6391 Clouds 4 1013 88 0 0.89 180 10:59 16.12.2019
6392 Clouds 4 1013 87 0 0.89 180 10:40 16.12.2019
6393 Clouds 3 1013 87 0 0.89 180 10:21 16.12.2019
6394 Clouds 3 1013 88 0 0.89 157 09:55 16.12.2019
6395 Clouds 3 1013 87 0 0.89 157 09:37 16.12.2019
6396 Clouds 3 1013 87 0 0.89 180 09:19 16.12.2019
6397 Clouds 3 1013 87 0 0.89 180 08:39 16.12.2019
6398 Clouds 3 1013 87 0 0.45 180 08:19 16.12.2019
6399 Clouds 3 1013 87 0 0.45 180 08:19 16.12.2019
6400 Clouds 3 1013 87 0 0.89 180 07:51 16.12.2019
6401 Clouds 3 1012 87 0 0.89 202 07:31 16.12.2019
6402 Clouds 3 1012 87 0 0.89 225 06:49 16.12.2019
6403 Clouds 3 1012 87 0 1.79 180 06:27 16.12.2019
6404 Clouds 3 1012 87 0 1.34 180 05:59 16.12.2019
6405 Clouds 3 1012 87 0 0.89 202 05:40 16.12.2019
6406 Clear 3 1012 87 0 0.89 202 05:22 16.12.2019
6407 Clear 4 1011 86 0 0.89 225 02:59 16.12.2019
6408 Rain 4 1010 85 0 0.89 225 01:46 16.12.2019
6409 Clouds 5 1009 85 0 0.45 225 00:57 16.12.2019
6410 Clouds 5 1009 84 0 0.45 225 00:38 16.12.2019
6411 Clouds 5 1009 84 0 0.45 225 00:19 16.12.2019
6412 Clouds 5 1008 84 0 0.45 292 23:43 15.12.2019
6413 Clouds 6 1008 84 0 10.37 251 23:25 15.12.2019
6414 Clear 6 1007 83 0 0.89 270 22:57 15.12.2019
6415 Clear 6 1007 83 0 0.45 270 22:38 15.12.2019
6416 Clear 6 1007 83 0 0.45 270 22:38 15.12.2019
6417 Clear 6 1007 83 0 12.44 255 22:19 15.12.2019
6418 Clear 6 1006 81 0 0.45 292 21:58 15.12.2019
6419 Clear 6 1006 81 0 12.44 255 21:38 15.12.2019
6420 Clear 6 1005 80 0 0.45 225 21:20 15.12.2019
6421 Clear 6 1005 79 0 0.45 225 20:58 15.12.2019
6422 Clear 6 1004 78 0 1.34 225 20:40 15.12.2019
6423 Clear 6 1004 78 0 0.45 247 20:21 15.12.2019
6424 Clear 6 1004 78 0 0.45 247 20:21 15.12.2019
6425 Clear 6 1004 78 0 0.45 247 20:21 15.12.2019
6426 Clouds 6 1004 77 0 1.34 225 19:58 15.12.2019
6427 Clear 6 1004 77 0 1.34 225 19:40 15.12.2019
6428 Clear 6 1003 77 0 0.89 292 19:20 15.12.2019
6429 Clouds 6 1002 77 0 2.24 270 18:58 15.12.2019
6430 Clouds 6 1002 78 0 0.89 247 18:39 15.12.2019
6431 Clear 6 1002 77 0 0.45 247 18:19 15.12.2019
6432 Clear 6 1001 76 0 2.24 225 17:57 15.12.2019
6433 Clouds 6 1001 75 0 3.13 225 17:38 15.12.2019
6434 Clear 6 1001 75 0 2.24 225 17:19 15.12.2019
6435 Clear 6 1000 76 0 1.79 225 16:59 15.12.2019
6436 Clear 6 1000 76 0 2.68 225 16:41 15.12.2019
6437 Clear 6 1000 75 0 1.79 247 16:21 15.12.2019
6438 Clear 7 1000 75 0 1.34 225 15:57 15.12.2019
6439 Clear 7 999 73 0 1.34 292 15:38 15.12.2019
6440 Clear 7 999 77 0 0.89 202 15:19 15.12.2019
6441 Clear 7 999 77 0 0.89 202 15:19 15.12.2019
6442 Clear 7 998 82 0 0.89 225 14:56 15.12.2019
6443 Clear 7 998 84 0 0.89 202 14:37 15.12.2019
6444 Rain 7 998 85 0 0.89 225 14:19 15.12.2019
6445 Rain 7 997 88 0 1.34 225 13:58 15.12.2019
6446 Rain 7 997 88 0 0.45 225 13:38 15.12.2019
6447 Rain 7 997 89 0 1.34 225 13:19 15.12.2019
6448 Rain 6 997 90 0 2.24 225 12:57 15.12.2019
6449 Rain 6 997 91 0 2.24 247 12:39 15.12.2019
6450 Rain 6 997 91 0 1.79 202 12:20 15.12.2019
6451 Rain 6 997 91 0 1.79 202 12:20 15.12.2019
6452 Rain 4 997 91 0 1.79 202 11:58 15.12.2019
6453 Rain 4 997 91 0 2.24 180 11:37 15.12.2019
6454 Clouds 4 997 90 0 2.68 180 11:19 15.12.2019
6455 Clouds 3 997 89 0 2.24 180 10:55 15.12.2019
6456 Clouds 3 997 89 0 1.79 180 10:37 15.12.2019
6457 Clouds 3 997 88 0 2.24 157 10:19 15.12.2019
6458 Clouds 3 998 88 0 1.79 135 09:41 15.12.2019
6459 Clouds 3 998 89 0 1.34 157 09:20 15.12.2019
6460 Clouds 2 999 89 0 0.89 157 08:59 15.12.2019
6461 Clouds 2 999 89 0 1.79 157 08:41 15.12.2019
6462 Clouds 2 999 89 0 1.34 180 08:22 15.12.2019
6463 Clouds 2 999 89 0 1.34 180 08:22 15.12.2019
6464 Clouds 2 999 89 0 1.79 180 07:56 15.12.2019
6465 Clouds 2 999 89 0 1.79 180 07:36 15.12.2019
6466 Clouds 2 1000 89 0 1.34 180 06:57 15.12.2019
6467 Clouds 2 1001 88 0 1.34 202 06:23 15.12.2019
6468 Clouds 2 1001 88 0 0.89 202 05:39 15.12.2019
6469 Rain 2 1001 88 0 0.89 202 05:19 15.12.2019
6470 Rain 3 1001 87 0 0.89 225 04:18 15.12.2019
6471 Rain 3 1000 88 0 11.94 245 02:35 15.12.2019
6472 Rain 4 999 88 0 1.79 247 01:57 15.12.2019
6473 Rain 4 999 88 0 0.45 247 01:39 15.12.2019
6474 Rain 4 998 88 0 0.45 292 01:18 15.12.2019
6475 Rain 4 998 88 0 1.34 247 00:47 15.12.2019
6476 Rain 4 997 89 0 1.79 225 00:29 15.12.2019
6477 Rain 4 997 89 0 1.34 225 23:41 14.12.2019
6478 Rain 4 996 90 0 1.34 225 23:22 14.12.2019
6479 Rain 4 996 90 0 1.34 225 22:59 14.12.2019
6480 Rain 4 996 90 0 1.34 225 22:41 14.12.2019
6481 Rain 6 989 77 0 13.45 239 22:22 14.12.2019
6482 Rain 4 995 90 0 1.34 225 21:58 14.12.2019
6483 Rain 4 994 90 0 1.34 225 21:39 14.12.2019
6484 Rain 4 994 91 0 0.89 225 21:19 14.12.2019
6485 Rain 4 994 91 0 1.79 225 20:59 14.12.2019
6486 Rain 4 994 91 0 2.24 225 20:41 14.12.2019
6487 Rain 3 994 91 0 0.89 225 20:20 14.12.2019
6488 Rain 3 994 91 0 1.34 225 19:57 14.12.2019
6489 Rain 3 993 91 0 1.79 225 19:39 14.12.2019
6490 Rain 3 993 91 0 1.34 225 19:20 14.12.2019
6491 Rain 3 993 91 0 1.34 225 18:56 14.12.2019
6492 Rain 3 993 91 0 1.79 225 18:38 14.12.2019
6493 Rain 3 993 91 0 1.79 225 18:20 14.12.2019
6494 Rain 3 992 91 0 1.34 225 17:54 14.12.2019
6495 Rain 3 992 91 0 1.34 225 17:36 14.12.2019
6496 Rain 3 992 91 0 1.34 225 17:18 14.12.2019
6497 Rain 3 992 91 0 0.89 202 16:40 14.12.2019
6498 Rain 3 991 91 0 0.89 225 16:19 14.12.2019
6499 Rain 3 991 91 0 0.45 247 15:55 14.12.2019
6500 Rain 3 991 91 0 1.34 225 15:36 14.12.2019
6501 Rain 3 991 91 0 0.89 225 15:18 14.12.2019
6502 Rain 3 990 91 0 0.89 225 14:54 14.12.2019
6503 Rain 3 990 91 0 1.34 225 14:36 14.12.2019
6504 Rain 3 990 91 0 0.89 225 14:18 14.12.2019
6505 Rain 3 989 92 0 0.89 180 13:42 14.12.2019
6506 Rain 3 989 92 0 1.34 202 13:19 14.12.2019
6507 Rain 3 989 92 0 1.34 202 13:19 14.12.2019
6508 Clouds 3 989 92 0 1.79 202 12:57 14.12.2019
6509 Clouds 3 989 92 0 1.34 202 12:38 14.12.2019
6510 Clouds 3 988 92 0 1.34 202 12:20 14.12.2019
6511 Clouds 3 988 92 0 1.34 180 11:58 14.12.2019
6512 Clouds 3 988 92 0 1.34 180 11:39 14.12.2019
6513 Rain 3 988 92 0 1.34 180 11:19 14.12.2019
6514 Rain 2 988 92 0 1.34 180 10:56 14.12.2019
6515 Rain 2 988 92 0 0.89 202 10:38 14.12.2019
6516 Rain 2 988 92 0 0.89 202 10:20 14.12.2019
6517 Rain 2 988 92 0 0.89 202 09:55 14.12.2019
6518 Rain 2 988 92 0 1.34 180 09:36 14.12.2019
6519 Rain 1 988 91 0 1.34 180 09:18 14.12.2019
6520 Rain 1 988 91 0 0.89 180 08:41 14.12.2019
6521 Rain 1 988 91 0 0.89 180 08:19 14.12.2019
6522 Rain 1 987 91 0 0.89 180 07:43 14.12.2019
6523 Rain 1 987 91 0 0.89 180 07:23 14.12.2019
6524 Rain 1 987 90 0 0.45 180 06:55 14.12.2019
6525 Rain 1 987 90 0 0.45 180 06:36 14.12.2019
6526 Rain 1 987 90 0 0.89 180 05:56 14.12.2019
6527 Clouds 1 987 90 0 0.89 180 04:42 14.12.2019
6528 Clouds 1 988 90 0 0.45 157 02:31 14.12.2019
6529 Clear 1 988 90 0 0.89 135 01:49 14.12.2019
6530 Clear 1 988 90 0 0.89 135 01:31 14.12.2019
6531 Clouds 2 988 90 0 0.89 135 00:45 14.12.2019
6532 Clouds 2 988 90 0 0.45 135 00:27 14.12.2019
6533 Clouds 2 988 90 0 0.45 135 23:54 13.12.2019
6534 Clouds 2 988 90 0 0.45 135 23:36 13.12.2019
6535 Clouds 2 989 90 0 0.89 135 23:18 13.12.2019
6536 Clouds 1 989 90 0 0.45 157 22:40 13.12.2019
6537 Clouds 1 989 90 0 0.89 135 22:19 13.12.2019
6538 Clouds 1 989 89 0 0.89 135 21:56 13.12.2019
6539 Clouds 1 989 89 0 0.89 135 21:37 13.12.2019
6540 Clouds 1 988 89 0 0.89 135 21:19 13.12.2019
6541 Clouds 1 988 89 0 0.45 135 20:42 13.12.2019
6542 Clear 1 988 89 0 0.45 135 20:23 13.12.2019
6543 Clouds 2 988 88 0 0.45 135 19:59 13.12.2019
6544 Clouds 2 988 89 0 0.45 135 19:41 13.12.2019
6545 Clouds 2 988 88 0 0.89 135 19:22 13.12.2019
6546 Clouds 2 989 88 0 0.45 157 18:59 13.12.2019
6547 Clouds 2 989 88 0 0.89 157 18:41 13.12.2019
6548 Clouds 2 988 89 0 0.45 135 18:19 13.12.2019
6549 Clouds 2 988 88 0 0.89 135 17:57 13.12.2019
6550 Clouds 2 989 89 0 0.89 135 17:38 13.12.2019
6551 Clear 2 989 89 0 0.89 135 17:18 13.12.2019
6552 Clear 2 989 89 0 0.89 135 16:54 13.12.2019
6553 Clear 2 988 89 0 0.89 135 16:36 13.12.2019
6554 Clear 2 988 89 0 1.34 157 16:18 13.12.2019
6555 Clear 2 988 89 0 1.34 157 15:38 13.12.2019
6556 Clear 2 988 89 0 1.79 135 15:20 13.12.2019
6557 Clear 4 984 84 0 8.9 126 14:55 13.12.2019
6558 Clear 2 988 90 0 1.34 135 14:36 13.12.2019
6559 Clouds 2 988 90 0 2.24 135 14:18 13.12.2019
6560 Clouds 1 989 90 0 1.34 135 13:41 13.12.2019
6561 Clouds 2 989 90 0 2.24 135 13:21 13.12.2019
6562 Clear 2 989 89 0 1.79 135 12:45 13.12.2019
6563 Clear 2 989 90 0 1.79 135 12:24 13.12.2019
6564 Clear 2 990 90 0 1.79 135 11:59 13.12.2019
6565 Clear 2 990 90 0 1.79 135 11:41 13.12.2019
6566 Clear 2 990 91 0 1.34 135 11:23 13.12.2019
6567 Clear 1 991 91 0 1.79 135 10:56 13.12.2019
6568 Clear 1 991 92 0 1.79 135 10:38 13.12.2019
6569 Clear 1 991 92 0 1.34 135 10:19 13.12.2019
6570 Clear 0 992 92 0 1.79 135 09:41 13.12.2019
6571 Clear 0 992 92 0 0.89 135 09:20 13.12.2019
6572 Clear 0 992 92 0 1.34 135 08:44 13.12.2019
6573 Clear 0 992 92 0 1.79 135 08:26 13.12.2019
6574 Clouds 0 993 92 0 1.79 157 07:48 13.12.2019
6575 Clouds 1 993 92 0 1.34 135 07:25 13.12.2019
6576 Clouds 1 993 92 0 2.24 135 06:57 13.12.2019
6577 Clouds 1 994 92 0 1.79 135 06:31 13.12.2019
6578 Clouds 1 994 91 0 0.89 135 05:51 13.12.2019
6579 Clouds 1 995 91 0 0.89 135 05:31 13.12.2019
6580 Clouds 1 995 91 0 1.34 135 04:53 13.12.2019
6581 Clouds 1 997 91 0 1.79 135 03:52 13.12.2019
6582 Clouds 2 998 91 0 1.34 135 02:35 13.12.2019
6583 Clouds 2 998 91 0 1.34 157 01:51 13.12.2019
6584 Clouds 2 999 91 0 0.89 135 01:27 13.12.2019
6585 Clouds 3 1000 91 0 1.34 135 00:47 13.12.2019
6586 Clouds 3 1000 91 0 0.89 157 00:26 13.12.2019
6587 Clouds 3 1001 91 0 0.89 157 23:42 12.12.2019
6588 Clouds 3 1001 91 0 1.34 157 23:24 12.12.2019
6589 Clouds 3 1001 91 0 0.89 157 22:56 12.12.2019
6590 Clouds 3 1001 91 0 0.89 157 22:38 12.12.2019
6591 Clouds 3 1001 91 0 0.89 157 22:38 12.12.2019
6592 Clouds 3 1002 91 0 0.89 157 22:20 12.12.2019
6593 Clouds 3 1002 91 0 0.45 180 21:56 12.12.2019
6594 Clouds 3 1002 91 0 0.89 180 21:37 12.12.2019
6595 Clouds 3 1002 91 0 0.89 180 21:19 12.12.2019
6596 Clouds 3 1003 91 0 1.34 180 20:59 12.12.2019
6597 Clouds 3 1003 91 0 0.89 180 20:40 12.12.2019
6598 Clouds 3 1003 91 0 1.34 180 20:21 12.12.2019
6599 Clouds 3 1003 91 0 1.34 180 19:56 12.12.2019
6600 Clouds 3 1003 91 0 0.89 157 19:37 12.12.2019
6601 Clouds 3 1003 91 0 0.89 180 19:18 12.12.2019
6602 Clouds 3 1003 91 0 0.89 180 18:56 12.12.2019
6603 Clouds 3 1003 91 0 1.79 180 18:38 12.12.2019
6604 Clouds 3 1003 91 0 0.89 180 18:19 12.12.2019
6605 Clouds 3 1004 91 0 0.89 180 17:57 12.12.2019
6606 Clouds 3 1003 91 0 0.89 180 17:38 12.12.2019
6607 Clouds 3 1004 91 0 0.89 180 17:19 12.12.2019
6608 Clouds 3 1004 91 0 0.89 180 16:55 12.12.2019
6609 Clouds 3 1004 91 0 0.89 180 16:37 12.12.2019
6610 Clouds 3 1004 91 0 0.89 180 16:18 12.12.2019
6611 Clouds 3 1004 91 0 0.89 202 15:54 12.12.2019
6612 Clouds 3 1004 91 0 0.89 202 15:36 12.12.2019
6613 Clouds 3 1004 91 0 0.89 202 15:18 12.12.2019
6614 Clouds 3 1004 91 0 0.89 225 14:38 12.12.2019
6615 Clouds 3 1004 91 0 0.89 225 14:19 12.12.2019
6616 Clouds 4 1005 91 0 0.89 225 13:57 12.12.2019
6617 Clouds 4 1005 91 0 0.45 225 13:38 12.12.2019
6618 Clouds 4 1005 92 0 0.89 225 13:20 12.12.2019
6619 Clouds 3 1005 91 0 0.89 225 12:57 12.12.2019
6620 Clouds 3 1005 91 0 0.89 225 12:38 12.12.2019
6621 Clouds 3 1005 91 0 0.45 225 12:20 12.12.2019
6622 Clouds 3 1005 91 0 0.89 225 11:55 12.12.2019
6623 Clouds 5 1000 86 0 7.31 220 11:37 12.12.2019
6624 Rain 3 1005 91 0 6.64 232 11:19 12.12.2019
6625 Rain 2 1005 91 0 0.89 225 10:55 12.12.2019
6626 Rain 2 1005 91 0 0.89 225 10:37 12.12.2019
6627 Rain 2 1005 91 0 0.45 202 10:18 12.12.2019
6628 Rain 2 1005 91 0 0.45 202 10:18 12.12.2019
6629 Rain 2 1005 91 0 0.45 225 09:41 12.12.2019
6630 Rain 1 1005 91 0 0.89 202 09:23 12.12.2019
6631 Rain 1 1005 91 0 0.89 225 08:56 12.12.2019
6632 Rain 1 1005 91 0 0.89 225 08:38 12.12.2019
6633 Rain 1 1005 91 0 0.89 225 08:20 12.12.2019
6634 Rain 1 1005 91 0 0.89 202 07:46 12.12.2019
6635 Rain 1 1005 91 0 0.45 202 07:25 12.12.2019
6636 Rain 1 1005 91 0 0.45 180 06:54 12.12.2019
6637 Rain 1 1005 91 0 0.45 180 06:33 12.12.2019
6638 Rain 1 1006 90 0 0.45 157 05:39 12.12.2019
6639 Rain 1 1006 90 0 0.45 157 04:52 12.12.2019
6640 Rain 2 1006 91 0 0.45 157 03:37 12.12.2019
6641 Rain 2 1007 91 0 0.45 157 02:39 12.12.2019
6642 Rain 2 1007 91 0 5.76 186 02:20 12.12.2019
6643 Rain 2 1007 91 0 0.45 157 01:43 12.12.2019
6644 Rain 2 1007 91 0 4.9 185 01:24 12.12.2019
6645 Rain 2 1008 91 0 0.89 180 00:47 12.12.2019
6646 Rain 2 1008 91 0 1.34 157 00:20 12.12.2019
6647 Rain 2 1009 90 0 0.45 180 23:44 11.12.2019
6648 Rain 2 1009 90 0 0.45 180 23:21 11.12.2019
6649 Rain 2 1009 90 0 0.89 180 22:58 11.12.2019
6650 Rain 2 1009 90 0 0.89 202 22:39 11.12.2019
6651 Rain 3 1004 93 0 6.63 193 22:20 11.12.2019
6652 Rain 2 1009 90 0 0.45 180 21:59 11.12.2019
6653 Rain 2 1010 90 0 0.89 180 21:39 11.12.2019
6654 Rain 2 1010 90 0 0.89 180 21:20 11.12.2019
6655 Rain 2 1010 90 0 0.89 180 20:57 11.12.2019
6656 Rain 2 1010 90 0 0.89 157 20:39 11.12.2019
6657 Rain 2 1010 90 0 0.89 180 20:19 11.12.2019
6658 Rain 2 1010 90 0 0.89 180 19:58 11.12.2019
6659 Rain 2 1010 90 0 0.89 180 19:40 11.12.2019
6660 Rain 2 1010 90 0 0.89 157 19:21 11.12.2019
6661 Rain 2 1011 90 0 1.34 180 18:57 11.12.2019
6662 Rain 2 1011 90 0 0.89 180 18:38 11.12.2019
6663 Rain 2 1011 90 0 1.34 180 18:18 11.12.2019
6664 Rain 2 1011 90 0 0.89 180 17:55 11.12.2019
6665 Rain 2 1011 90 0 0.89 180 17:37 11.12.2019
6666 Rain 2 1012 90 0 0.89 180 17:18 11.12.2019
6667 Rain 2 1012 90 0 1.34 180 16:55 11.12.2019
6668 Rain 2 1012 90 0 0.89 180 16:36 11.12.2019
6669 Rain 2 1012 90 0 1.34 180 16:18 11.12.2019
6670 Rain 2 1012 90 0 1.34 180 15:55 11.12.2019
6671 Rain 2 1012 90 0 1.34 180 15:36 11.12.2019
6672 Rain 2 1012 90 0 1.34 202 15:18 11.12.2019
6673 Rain 3 1012 90 0 1.34 180 14:54 11.12.2019
6674 Rain 3 1012 90 0 1.34 180 14:36 11.12.2019
6675 Rain 2 1013 89 0 1.79 180 14:18 11.12.2019
6676 Rain 2 1013 89 0 0.89 180 13:42 11.12.2019
6677 Rain 2 1013 89 0 0.89 180 13:21 11.12.2019
6678 Rain 2 1013 88 0 1.79 202 12:57 11.12.2019
6679 Rain 2 1014 88 0 1.79 180 12:39 11.12.2019
6680 Rain 3 1014 89 0 1.79 202 12:21 11.12.2019
6681 Rain 3 1014 89 0 1.79 202 12:21 11.12.2019
6682 Rain 3 1014 89 0 1.79 180 11:58 11.12.2019
6683 Rain 3 1014 89 0 2.24 180 11:39 11.12.2019
6684 Rain 2 1014 89 0 1.34 180 11:19 11.12.2019
6685 Rain 2 1014 89 0 1.34 180 11:19 11.12.2019
6686 Rain 2 1015 88 0 1.79 180 10:57 11.12.2019
6687 Rain 2 1015 88 0 1.79 180 10:39 11.12.2019
6688 Rain 2 1015 88 0 1.79 180 10:39 11.12.2019
6689 Rain 2 1015 87 0 1.79 180 10:20 11.12.2019
6690 Rain 2 1015 87 0 1.79 180 10:20 11.12.2019
6691 Rain 3 1015 87 0 2.24 180 09:55 11.12.2019
6692 Rain 2 1015 87 0 1.79 202 09:37 11.12.2019
6693 Rain 2 1015 87 0 1.79 180 09:19 11.12.2019
6694 Rain 2 1015 86 0 1.79 180 08:55 11.12.2019
6695 Rain 2 1015 86 0 1.79 180 08:36 11.12.2019
6696 Rain 2 1015 85 0 1.79 180 08:18 11.12.2019
6697 Rain 2 1015 85 0 1.34 180 07:42 11.12.2019
6698 Rain 2 1015 85 0 1.34 180 07:42 11.12.2019
6699 Rain 2 1015 85 0 1.79 180 07:22 11.12.2019
6700 Rain 2 1016 84 0 1.79 180 06:45 11.12.2019
6701 Rain 3 1016 83 0 1.34 202 06:24 11.12.2019
6702 Rain 2 1016 83 0 2.24 202 05:53 11.12.2019
6703 Rain 2 1016 84 0 2.24 202 05:28 11.12.2019
6704 Clouds 2 1016 84 0 2.68 180 04:48 11.12.2019
6705 Clouds 2 1017 86 0 2.24 180 03:18 11.12.2019
6706 Clouds 2 1018 87 0 1.79 180 02:31 11.12.2019
6707 Clouds 1 1019 88 0 1.79 157 01:21 11.12.2019
6708 Clouds 1 1020 89 0 0.89 180 00:37 11.12.2019
6709 Clouds 1 1020 89 0 1.34 157 00:18 11.12.2019
6710 Clouds 1 1021 89 0 1.79 180 23:43 10.12.2019
6711 Clouds 1 1022 89 0 0.89 180 23:22 10.12.2019
6712 Clouds 1 1022 89 0 0.89 180 22:56 10.12.2019
6713 Clouds 1 1022 89 0 1.79 180 22:38 10.12.2019
6714 Clouds 1 1023 89 0 0.89 180 22:20 10.12.2019
6715 Clouds 1 1023 88 0 0.89 180 21:54 10.12.2019
6716 Clouds 1 1023 88 0 0.89 180 21:36 10.12.2019
6717 Clouds 1 1024 88 0 1.34 180 21:18 10.12.2019
6718 Clouds 1 1024 87 0 0.89 180 20:54 10.12.2019
6719 Clouds 1 1024 87 0 0.89 180 20:36 10.12.2019
6720 Clouds 1 1024 87 0 0.89 180 20:18 10.12.2019
6721 Clouds 1 1024 87 0 0.89 180 19:42 10.12.2019
6722 Clouds 1 1024 86 0 0.89 180 19:24 10.12.2019
6723 Clouds 1 1025 86 0 0.45 180 18:57 10.12.2019
6724 Clouds 1 1025 85 0 0.89 180 18:38 10.12.2019
6725 Clouds 1 1025 85 0 0.45 180 18:19 10.12.2019
6726 Clouds 2 1025 85 0 0.45 180 17:54 10.12.2019
6727 Clouds 2 1025 85 0 0.45 180 17:36 10.12.2019
6728 Clouds 2 1026 83 0 0.45 180 17:18 10.12.2019
6729 Clouds 2 1025 83 0 0.45 202 16:42 10.12.2019
6730 Clouds 2 1026 82 0 0.45 202 16:20 10.12.2019
6731 Clouds 3 1026 82 0 0.45 202 15:54 10.12.2019
6732 Clouds 4 1026 82 0 0.45 202 15:36 10.12.2019
6733 Clouds 4 1025 81 0 0.45 202 15:18 10.12.2019
6734 Clouds 4 1025 81 0 0.45 202 15:18 10.12.2019
6735 Clouds 4 1025 81 0 0.45 202 15:18 10.12.2019
6736 Clouds 5 1025 80 0 0.45 202 14:54 10.12.2019
6737 Clouds 5 1026 80 0 0.45 225 14:36 10.12.2019
6738 Clear 6 1025 80 0 4.86 261 14:18 10.12.2019
6739 Clear 6 1025 80 0 4.86 261 14:18 10.12.2019
6740 Clear 6 1025 80 0 4.86 261 13:54 10.12.2019
6741 Clear 5 1025 80 0 4.86 261 13:36 10.12.2019
6742 Clouds 5 1025 80 0 5.09 251 13:18 10.12.2019
6743 Clouds 5 1025 80 0 5.09 251 12:38 10.12.2019
6744 Clouds 5 1025 80 0 5.09 251 12:20 10.12.2019
6745 Clouds 4 1025 80 0 0.45 292 11:42 10.12.2019
6746 Clouds 4 1025 81 0 0.45 292 11:23 10.12.2019
6747 Clouds 4 1025 82 0 5.79 309 10:56 10.12.2019
6748 Clouds 3 1025 82 0 5.79 309 10:37 10.12.2019
6749 Clouds 3 1025 82 0 5.79 309 10:19 10.12.2019
6750 Clouds 3 1024 82 0 0.89 315 09:55 10.12.2019
6751 Clouds 3 1024 82 0 0.89 292 09:37 10.12.2019
6752 Clouds 3 1024 82 0 5.79 309 09:19 10.12.2019
6753 Clouds 3 1023 82 0 1.34 315 08:54 10.12.2019
6754 Clouds 3 1023 82 0 5.79 309 08:36 10.12.2019
6755 Clear 3 1022 81 0 0.45 337 08:18 10.12.2019
6756 Clear 3 1022 81 0 0.45 337 08:18 10.12.2019
6757 Clear 3 1021 81 0 10.06 331 07:43 10.12.2019
6758 Clear 3 1021 81 0 0.89 337 07:24 10.12.2019
6759 Clear 3 1020 80 0 10.06 331 06:46 10.12.2019
6760 Clear 4 1019 79 0 10.06 331 06:19 10.12.2019
6761 Clear 4 1018 79 0 0.89 22 05:55 10.12.2019
6762 Clear 4 1017 76 0 0.89 0 04:55 10.12.2019
6763 Clear 4 1015 79 0 0.89 292 03:39 10.12.2019
6764 Clear 4 1013 76 0 1.34 292 02:46 10.12.2019
6765 Clouds 4 1012 77 0 2.24 315 01:45 10.12.2019
6766 Clouds 4 1011 78 0 2.24 315 01:24 10.12.2019
6767 Clouds 4 1010 80 0 2.24 337 00:42 10.12.2019
6768 Clouds 4 1010 80 0 2.68 292 00:22 10.12.2019
6769 Clouds 4 1009 82 0 2.24 315 23:43 09.12.2019
6770 Clouds 4 1008 82 0 2.24 315 23:24 09.12.2019
6771 Clouds 5 1007 82 0 2.24 315 22:58 09.12.2019
6772 Clouds 5 1007 83 0 1.79 315 22:40 09.12.2019
6773 Clouds 5 1006 86 0 0.89 315 22:20 09.12.2019
6774 Clouds 4 1006 88 0 0.45 292 21:57 09.12.2019
6775 Clouds 4 1006 88 0 0.45 292 21:39 09.12.2019
6776 Clouds 5 1005 89 0 0.45 292 21:19 09.12.2019
6777 Clouds 5 1005 89 0 0.89 270 20:57 09.12.2019
6778 Clouds 5 1005 89 0 0.89 270 20:57 09.12.2019
6779 Clouds 5 1004 89 0 0.45 292 20:39 09.12.2019
6780 Rain 5 1004 89 0 0.89 270 20:20 09.12.2019
6781 Rain 5 1004 89 0 0.89 270 20:20 09.12.2019
6782 Rain 6 1004 87 0 0.89 292 19:56 09.12.2019
6783 Rain 6 1004 87 0 1.79 292 19:38 09.12.2019
6784 Rain 6 1003 88 0 1.79 292 19:20 09.12.2019
6785 Rain 6 1003 87 0 0.45 247 18:59 09.12.2019
6786 Rain 6 1002 86 0 7.67 275 18:40 09.12.2019
6787 Rain 6 1002 86 0 0.89 247 18:20 09.12.2019
6788 Rain 6 1002 85 0 0.45 225 17:59 09.12.2019
6789 Rain 6 1002 85 0 0.45 225 17:59 09.12.2019
6790 Rain 6 1002 85 0 1.34 225 17:41 09.12.2019
6791 Clouds 6 1002 85 0 0.89 225 17:21 09.12.2019
6792 Clouds 6 1001 85 0 1.34 225 16:57 09.12.2019
6793 Clouds 6 1001 85 0 0.89 225 16:39 09.12.2019
6794 Clouds 6 1001 85 0 1.34 225 16:21 09.12.2019
6795 Clouds 6 1001 84 0 1.34 225 15:56 09.12.2019
6796 Clouds 7 1001 84 0 0.89 225 15:38 09.12.2019
6797 Clouds 6 1000 84 0 0.89 225 15:19 09.12.2019
6798 Clouds 7 1000 82 0 0.89 225 14:59 09.12.2019
6799 Clouds 7 1000 82 0 0.45 225 14:41 09.12.2019
6800 Clouds 7 1000 82 0 0.45 225 14:41 09.12.2019
6801 Clouds 7 1000 82 0 1.34 225 14:18 09.12.2019
6802 Clouds 8 1000 81 0 0.89 225 13:56 09.12.2019
6803 Clouds 8 1000 82 0 1.34 225 13:37 09.12.2019
6804 Rain 8 1000 82 0 0.89 225 13:19 09.12.2019
6805 Rain 8 999 82 0 1.34 225 12:55 09.12.2019
6806 Rain 8 999 82 0 1.34 225 12:55 09.12.2019
6807 Rain 7 999 82 0 0.89 225 12:37 09.12.2019
6808 Rain 7 999 83 0 1.79 225 12:18 09.12.2019
6809 Rain 7 999 84 0 1.79 225 11:41 09.12.2019
6810 Rain 7 999 84 0 1.34 225 11:22 09.12.2019
6811 Rain 7 999 84 0 1.34 225 11:22 09.12.2019
6812 Rain 7 999 85 0 2.24 225 10:59 09.12.2019
6813 Rain 6 999 85 0 2.24 225 10:39 09.12.2019
6814 Rain 6 999 86 0 0.45 225 10:20 09.12.2019
6815 Rain 6 999 87 0 2.24 225 09:56 09.12.2019
6816 Rain 6 999 87 0 2.24 225 09:37 09.12.2019
6817 Rain 5 999 87 0 1.79 225 09:19 09.12.2019
6818 Rain 5 999 88 0 1.79 225 08:40 09.12.2019
6819 Rain 5 999 88 0 1.79 225 08:22 09.12.2019
6820 Rain 5 998 88 0 2.24 225 07:53 09.12.2019
6821 Rain 5 998 88 0 1.79 225 07:34 09.12.2019
6822 Rain 4 998 88 0 1.79 225 06:59 09.12.2019
6823 Rain 4 998 88 0 1.34 225 06:39 09.12.2019
6824 Rain 4 998 88 0 0.89 225 06:21 09.12.2019
6825 Rain 5 997 87 0 0.89 225 05:26 09.12.2019
6826 Rain 6 997 87 0 1.34 225 04:31 09.12.2019
6827 Rain 6 997 87 0 1.79 225 03:19 09.12.2019
6828 Rain 6 997 87 0 1.79 225 03:19 09.12.2019
6829 Rain 6 997 87 0 1.79 225 02:18 09.12.2019
6830 Rain 6 997 87 0 1.34 225 01:40 09.12.2019
6831 Rain 6 997 87 0 1.34 247 00:45 09.12.2019
6832 Rain 6 997 87 0 1.79 225 00:25 09.12.2019
6833 Rain 6 997 86 0 1.34 225 23:40 08.12.2019
6834 Rain 6 997 86 0 2.24 202 23:22 08.12.2019
6835 Rain 6 997 86 0 0.89 225 22:57 08.12.2019
6836 Rain 6 997 85 0 0.89 225 22:38 08.12.2019
6837 Rain 6 997 85 0 1.34 225 22:19 08.12.2019
6838 Rain 7 997 85 0 1.34 225 21:58 08.12.2019
6839 Rain 7 997 84 0 0.89 247 21:40 08.12.2019
6840 Rain 7 997 84 0 1.34 225 21:19 08.12.2019
6841 Rain 8 997 83 0 12.35 236 20:57 08.12.2019
6842 Rain 8 997 83 0 0.89 292 20:38 08.12.2019
6843 Clouds 8 997 84 0 1.34 247 20:20 08.12.2019
6844 Clouds 8 997 85 0 0.45 270 19:58 08.12.2019
6845 Clouds 8 997 86 0 0.45 315 19:40 08.12.2019
6846 Clouds 8 997 86 0 0.45 315 19:22 08.12.2019
6847 Clouds 9 997 85 0 0.89<